<?xml version="1.0" encoding="UTF-8" standalone="no" ?>
<gpx xmlns="http://www.topografix.com/GPX/1/1" creator="www.cicloide.com" version="1.1" xmlns:xsi="http://www.w3.org/2001/XMLSchema-instance" xsi:schemaLocation="http://www.topografix.com/GPX/1/1 http://www.topografix.com/GPX/1/1/gpx.xsd">
  <trk>
    <name>www.cicloide.com 27517</name>
    <desc>www.cicloide.com 27517</desc>
    <trkseg>
      <trkpt lat="41.606555740" lon="2.540576280">
        <ele>129.43</ele>
        <time>2015-06-14T05:35:53Z</time>
      </trkpt>
      <trkpt lat="41.606574940" lon="2.540591030">
        <ele>129.43</ele>
        <time>2015-06-14T05:35:54Z</time>
      </trkpt>
      <trkpt lat="41.606687250" lon="2.540648110">
        <ele>129.43</ele>
        <time>2015-06-14T05:35:59Z</time>
      </trkpt>
      <trkpt lat="41.606797140" lon="2.540698150">
        <ele>129.43</ele>
        <time>2015-06-14T05:36:04Z</time>
      </trkpt>
      <trkpt lat="41.606973580" lon="2.540769060">
        <ele>129.43</ele>
        <time>2015-06-14T05:36:13Z</time>
      </trkpt>
      <trkpt lat="41.607084640" lon="2.540804690">
        <ele>129.43</ele>
        <time>2015-06-14T05:36:18Z</time>
      </trkpt>
      <trkpt lat="41.607105090" lon="2.540812230">
        <ele>129.43</ele>
        <time>2015-06-14T05:36:19Z</time>
      </trkpt>
      <trkpt lat="41.607295450" lon="2.540851370">
        <ele>129.92</ele>
        <time>2015-06-14T05:36:28Z</time>
      </trkpt>
      <trkpt lat="41.607467610" lon="2.540843240">
        <ele>130.40</ele>
        <time>2015-06-14T05:36:35Z</time>
      </trkpt>
      <trkpt lat="41.607638010" lon="2.540842820">
        <ele>130.88</ele>
        <time>2015-06-14T05:36:42Z</time>
      </trkpt>
      <trkpt lat="41.607756700" lon="2.540822040">
        <ele>131.36</ele>
        <time>2015-06-14T05:36:48Z</time>
      </trkpt>
      <trkpt lat="41.607949650" lon="2.540809880">
        <ele>131.84</ele>
        <time>2015-06-14T05:36:56Z</time>
      </trkpt>
      <trkpt lat="41.608136820" lon="2.540790770">
        <ele>132.32</ele>
        <time>2015-06-14T05:37:03Z</time>
      </trkpt>
      <trkpt lat="41.608347960" lon="2.540761520">
        <ele>133.28</ele>
        <time>2015-06-14T05:37:11Z</time>
      </trkpt>
      <trkpt lat="41.608453820" lon="2.540731760">
        <ele>133.76</ele>
        <time>2015-06-14T05:37:17Z</time>
      </trkpt>
      <trkpt lat="41.608475950" lon="2.540728580">
        <ele>133.76</ele>
        <time>2015-06-14T05:37:18Z</time>
      </trkpt>
      <trkpt lat="41.608587180" lon="2.540685830">
        <ele>134.24</ele>
        <time>2015-06-14T05:37:25Z</time>
      </trkpt>
      <trkpt lat="41.608722130" lon="2.540650210">
        <ele>134.24</ele>
        <time>2015-06-14T05:37:30Z</time>
      </trkpt>
      <trkpt lat="41.608788430" lon="2.540628330">
        <ele>134.72</ele>
        <time>2015-06-14T05:37:33Z</time>
      </trkpt>
      <trkpt lat="41.608930340" lon="2.540601430">
        <ele>135.68</ele>
        <time>2015-06-14T05:37:41Z</time>
      </trkpt>
      <trkpt lat="41.608981050" lon="2.540592960">
        <ele>135.68</ele>
        <time>2015-06-14T05:37:44Z</time>
      </trkpt>
      <trkpt lat="41.609050530" lon="2.540612660">
        <ele>136.16</ele>
        <time>2015-06-14T05:37:51Z</time>
      </trkpt>
      <trkpt lat="41.609094870" lon="2.540611820">
        <ele>136.64</ele>
        <time>2015-06-14T05:37:54Z</time>
      </trkpt>
      <trkpt lat="41.609096550" lon="2.540646520">
        <ele>137.13</ele>
        <time>2015-06-14T05:38:02Z</time>
      </trkpt>
      <trkpt lat="41.609142570" lon="2.540659850">
        <ele>137.13</ele>
        <time>2015-06-14T05:38:06Z</time>
      </trkpt>
      <trkpt lat="41.609343820" lon="2.540632350">
        <ele>138.09</ele>
        <time>2015-06-14T05:38:13Z</time>
      </trkpt>
      <trkpt lat="41.609468200" lon="2.540585160">
        <ele>138.57</ele>
        <time>2015-06-14T05:38:18Z</time>
      </trkpt>
      <trkpt lat="41.609532410" lon="2.540543420">
        <ele>139.05</ele>
        <time>2015-06-14T05:38:21Z</time>
      </trkpt>
      <trkpt lat="41.609664760" lon="2.540471090">
        <ele>139.05</ele>
        <time>2015-06-14T05:38:26Z</time>
      </trkpt>
      <trkpt lat="41.609728210" lon="2.540422720">
        <ele>139.53</ele>
        <time>2015-06-14T05:38:30Z</time>
      </trkpt>
      <trkpt lat="41.609832400" lon="2.540360360">
        <ele>140.01</ele>
        <time>2015-06-14T05:38:36Z</time>
      </trkpt>
      <trkpt lat="41.609906160" lon="2.540341840">
        <ele>140.01</ele>
        <time>2015-06-14T05:38:39Z</time>
      </trkpt>
      <trkpt lat="41.610074470" lon="2.540263550">
        <ele>140.49</ele>
        <time>2015-06-14T05:38:44Z</time>
      </trkpt>
      <trkpt lat="41.610242520" lon="2.540189960">
        <ele>140.97</ele>
        <time>2015-06-14T05:38:49Z</time>
      </trkpt>
      <trkpt lat="41.610361630" lon="2.540127090">
        <ele>141.45</ele>
        <time>2015-06-14T05:38:55Z</time>
      </trkpt>
      <trkpt lat="41.610514680" lon="2.540058700">
        <ele>141.93</ele>
        <time>2015-06-14T05:38:58Z</time>
      </trkpt>
      <trkpt lat="41.610561710" lon="2.540023240">
        <ele>142.41</ele>
        <time>2015-06-14T05:39:01Z</time>
      </trkpt>
      <trkpt lat="41.610653660" lon="2.540002290">
        <ele>142.41</ele>
        <time>2015-06-14T05:39:06Z</time>
      </trkpt>
      <trkpt lat="41.610812410" lon="2.539928190">
        <ele>142.89</ele>
        <time>2015-06-14T05:39:11Z</time>
      </trkpt>
      <trkpt lat="41.610966380" lon="2.539829540">
        <ele>143.37</ele>
        <time>2015-06-14T05:39:17Z</time>
      </trkpt>
      <trkpt lat="41.611656720" lon="2.539480850">
        <ele>144.34</ele>
        <time>2015-06-14T05:39:24Z</time>
      </trkpt>
      <trkpt lat="41.611789650" lon="2.539292420">
        <ele>145.30</ele>
        <time>2015-06-14T05:39:32Z</time>
      </trkpt>
      <trkpt lat="41.611914130" lon="2.539142300">
        <ele>145.30</ele>
        <time>2015-06-14T05:39:38Z</time>
      </trkpt>
      <trkpt lat="41.611981100" lon="2.539026720">
        <ele>145.78</ele>
        <time>2015-06-14T05:39:43Z</time>
      </trkpt>
      <trkpt lat="41.611975150" lon="2.538986400">
        <ele>145.78</ele>
        <time>2015-06-14T05:39:45Z</time>
      </trkpt>
      <trkpt lat="41.611988980" lon="2.538862930">
        <ele>146.26</ele>
        <time>2015-06-14T05:39:52Z</time>
      </trkpt>
      <trkpt lat="41.612075730" lon="2.538778360">
        <ele>146.74</ele>
        <time>2015-06-14T05:39:59Z</time>
      </trkpt>
      <trkpt lat="41.612130550" lon="2.538744830">
        <ele>146.74</ele>
        <time>2015-06-14T05:40:11Z</time>
      </trkpt>
      <trkpt lat="41.612151500" lon="2.538734690">
        <ele>146.74</ele>
        <time>2015-06-14T05:40:27Z</time>
      </trkpt>
      <trkpt lat="41.612155690" lon="2.538740640">
        <ele>146.74</ele>
        <time>2015-06-14T05:40:38Z</time>
      </trkpt>
      <trkpt lat="41.612169610" lon="2.538726810">
        <ele>146.74</ele>
        <time>2015-06-14T05:40:51Z</time>
      </trkpt>
      <trkpt lat="41.612182430" lon="2.538712140">
        <ele>146.74</ele>
        <time>2015-06-14T05:41:07Z</time>
      </trkpt>
      <trkpt lat="41.612176060" lon="2.538691190">
        <ele>146.26</ele>
        <time>2015-06-14T05:41:17Z</time>
      </trkpt>
      <trkpt lat="41.612183860" lon="2.538626480">
        <ele>146.26</ele>
        <time>2015-06-14T05:41:24Z</time>
      </trkpt>
      <trkpt lat="41.612242530" lon="2.538511400">
        <ele>147.22</ele>
        <time>2015-06-14T05:41:30Z</time>
      </trkpt>
      <trkpt lat="41.612338670" lon="2.538331520">
        <ele>147.70</ele>
        <time>2015-06-14T05:41:38Z</time>
      </trkpt>
      <trkpt lat="41.612461130" lon="2.538156010">
        <ele>148.18</ele>
        <time>2015-06-14T05:41:46Z</time>
      </trkpt>
      <trkpt lat="41.612587610" lon="2.538010500">
        <ele>149.14</ele>
        <time>2015-06-14T05:41:52Z</time>
      </trkpt>
      <trkpt lat="41.612755920" lon="2.537846960">
        <ele>149.62</ele>
        <time>2015-06-14T05:42:00Z</time>
      </trkpt>
      <trkpt lat="41.612936550" lon="2.537679330">
        <ele>150.58</ele>
        <time>2015-06-14T05:42:08Z</time>
      </trkpt>
      <trkpt lat="41.613179540" lon="2.537461150">
        <ele>151.54</ele>
        <time>2015-06-14T05:42:17Z</time>
      </trkpt>
      <trkpt lat="41.613366540" lon="2.537264840">
        <ele>152.03</ele>
        <time>2015-06-14T05:42:25Z</time>
      </trkpt>
      <trkpt lat="41.613515740" lon="2.537077250">
        <ele>152.99</ele>
        <time>2015-06-14T05:42:32Z</time>
      </trkpt>
      <trkpt lat="41.613624700" lon="2.536910200">
        <ele>152.99</ele>
        <time>2015-06-14T05:42:38Z</time>
      </trkpt>
      <trkpt lat="41.613673740" lon="2.536707030">
        <ele>153.47</ele>
        <time>2015-06-14T05:42:43Z</time>
      </trkpt>
      <trkpt lat="41.613655720" lon="2.536516500">
        <ele>153.95</ele>
        <time>2015-06-14T05:42:49Z</time>
      </trkpt>
      <trkpt lat="41.613751270" lon="2.536260440">
        <ele>154.91</ele>
        <time>2015-06-14T05:42:57Z</time>
      </trkpt>
      <trkpt lat="41.613837860" lon="2.536041000">
        <ele>155.39</ele>
        <time>2015-06-14T05:43:04Z</time>
      </trkpt>
      <trkpt lat="41.613951850" lon="2.535755090">
        <ele>156.35</ele>
        <time>2015-06-14T05:43:13Z</time>
      </trkpt>
      <trkpt lat="41.614045980" lon="2.535445880">
        <ele>157.31</ele>
        <time>2015-06-14T05:43:22Z</time>
      </trkpt>
      <trkpt lat="41.614164830" lon="2.535072050">
        <ele>158.75</ele>
        <time>2015-06-14T05:43:33Z</time>
      </trkpt>
      <trkpt lat="41.614281680" lon="2.534693520">
        <ele>160.20</ele>
        <time>2015-06-14T05:43:44Z</time>
      </trkpt>
      <trkpt lat="41.614380330" lon="2.534436120">
        <ele>161.16</ele>
        <time>2015-06-14T05:43:52Z</time>
      </trkpt>
      <trkpt lat="41.614491480" lon="2.534056580">
        <ele>162.60</ele>
        <time>2015-06-14T05:44:03Z</time>
      </trkpt>
      <trkpt lat="41.614601030" lon="2.533658780">
        <ele>163.56</ele>
        <time>2015-06-14T05:44:14Z</time>
      </trkpt>
      <trkpt lat="41.614693820" lon="2.533324510">
        <ele>164.52</ele>
        <time>2015-06-14T05:44:23Z</time>
      </trkpt>
      <trkpt lat="41.614808400" lon="2.532941040">
        <ele>165.48</ele>
        <time>2015-06-14T05:44:33Z</time>
      </trkpt>
      <trkpt lat="41.614916690" lon="2.532574330">
        <ele>166.93</ele>
        <time>2015-06-14T05:44:43Z</time>
      </trkpt>
      <trkpt lat="41.615029180" lon="2.532158080">
        <ele>167.89</ele>
        <time>2015-06-14T05:44:54Z</time>
      </trkpt>
      <trkpt lat="41.615076280" lon="2.531790200">
        <ele>168.85</ele>
        <time>2015-06-14T05:45:03Z</time>
      </trkpt>
      <trkpt lat="41.615092710" lon="2.531462300">
        <ele>169.33</ele>
        <time>2015-06-14T05:45:11Z</time>
      </trkpt>
      <trkpt lat="41.615116770" lon="2.531084360">
        <ele>170.77</ele>
        <time>2015-06-14T05:45:20Z</time>
      </trkpt>
      <trkpt lat="41.615172340" lon="2.530618750">
        <ele>171.73</ele>
        <time>2015-06-14T05:45:31Z</time>
      </trkpt>
      <trkpt lat="41.615178630" lon="2.530227060">
        <ele>172.69</ele>
        <time>2015-06-14T05:45:41Z</time>
      </trkpt>
      <trkpt lat="41.615179210" lon="2.529911480">
        <ele>174.14</ele>
        <time>2015-06-14T05:45:49Z</time>
      </trkpt>
      <trkpt lat="41.615182480" lon="2.529495070">
        <ele>175.10</ele>
        <time>2015-06-14T05:46:00Z</time>
      </trkpt>
      <trkpt lat="41.615203690" lon="2.529168090">
        <ele>176.54</ele>
        <time>2015-06-14T05:46:08Z</time>
      </trkpt>
      <trkpt lat="41.615241660" lon="2.528811440">
        <ele>177.02</ele>
        <time>2015-06-14T05:46:17Z</time>
      </trkpt>
      <trkpt lat="41.615330420" lon="2.528386980">
        <ele>177.50</ele>
        <time>2015-06-14T05:46:28Z</time>
      </trkpt>
      <trkpt lat="41.615403260" lon="2.528042740">
        <ele>178.46</ele>
        <time>2015-06-14T05:46:37Z</time>
      </trkpt>
      <trkpt lat="41.615463950" lon="2.527745930">
        <ele>178.94</ele>
        <time>2015-06-14T05:46:45Z</time>
      </trkpt>
      <trkpt lat="41.615518600" lon="2.527458770">
        <ele>180.38</ele>
        <time>2015-06-14T05:46:53Z</time>
      </trkpt>
      <trkpt lat="41.615575260" lon="2.527078400">
        <ele>181.35</ele>
        <time>2015-06-14T05:47:03Z</time>
      </trkpt>
      <trkpt lat="41.615594370" lon="2.526812690">
        <ele>182.79</ele>
        <time>2015-06-14T05:47:10Z</time>
      </trkpt>
      <trkpt lat="41.615563770" lon="2.526455540">
        <ele>184.23</ele>
        <time>2015-06-14T05:47:19Z</time>
      </trkpt>
      <trkpt lat="41.615536200" lon="2.526211460">
        <ele>184.71</ele>
        <time>2015-06-14T05:47:26Z</time>
      </trkpt>
      <trkpt lat="41.615536030" lon="2.525957740">
        <ele>185.19</ele>
        <time>2015-06-14T05:47:32Z</time>
      </trkpt>
      <trkpt lat="41.615523040" lon="2.525621870">
        <ele>186.15</ele>
        <time>2015-06-14T05:47:40Z</time>
      </trkpt>
      <trkpt lat="41.615517000" lon="2.525293220">
        <ele>187.59</ele>
        <time>2015-06-14T05:47:48Z</time>
      </trkpt>
      <trkpt lat="41.615538040" lon="2.524969600">
        <ele>188.56</ele>
        <time>2015-06-14T05:47:56Z</time>
      </trkpt>
      <trkpt lat="41.615588500" lon="2.524581350">
        <ele>190.00</ele>
        <time>2015-06-14T05:48:06Z</time>
      </trkpt>
      <trkpt lat="41.615630830" lon="2.524195610">
        <ele>191.44</ele>
        <time>2015-06-14T05:48:16Z</time>
      </trkpt>
      <trkpt lat="41.615649520" lon="2.523906940">
        <ele>193.36</ele>
        <time>2015-06-14T05:48:24Z</time>
      </trkpt>
      <trkpt lat="41.615665870" lon="2.523582390">
        <ele>193.84</ele>
        <time>2015-06-14T05:48:32Z</time>
      </trkpt>
      <trkpt lat="41.615706940" lon="2.523176870">
        <ele>195.28</ele>
        <time>2015-06-14T05:48:42Z</time>
      </trkpt>
      <trkpt lat="41.615755720" lon="2.522849390">
        <ele>195.77</ele>
        <time>2015-06-14T05:48:50Z</time>
      </trkpt>
      <trkpt lat="41.615789080" lon="2.522581670">
        <ele>197.21</ele>
        <time>2015-06-14T05:48:57Z</time>
      </trkpt>
      <trkpt lat="41.615826970" lon="2.522307670">
        <ele>198.17</ele>
        <time>2015-06-14T05:49:04Z</time>
      </trkpt>
      <trkpt lat="41.615871220" lon="2.522016400">
        <ele>199.13</ele>
        <time>2015-06-14T05:49:12Z</time>
      </trkpt>
      <trkpt lat="41.615915980" lon="2.521727810">
        <ele>200.57</ele>
        <time>2015-06-14T05:49:19Z</time>
      </trkpt>
      <trkpt lat="41.615985720" lon="2.521300670">
        <ele>201.05</ele>
        <time>2015-06-14T05:49:29Z</time>
      </trkpt>
      <trkpt lat="41.616041120" lon="2.520974110">
        <ele>201.53</ele>
        <time>2015-06-14T05:49:37Z</time>
      </trkpt>
      <trkpt lat="41.616132490" lon="2.520640680">
        <ele>202.01</ele>
        <time>2015-06-14T05:49:46Z</time>
      </trkpt>
      <trkpt lat="41.616197610" lon="2.520440850">
        <ele>202.49</ele>
        <time>2015-06-14T05:49:53Z</time>
      </trkpt>
      <trkpt lat="41.616267350" lon="2.520225350">
        <ele>203.94</ele>
        <time>2015-06-14T05:50:01Z</time>
      </trkpt>
      <trkpt lat="41.616305490" lon="2.520057460">
        <ele>204.42</ele>
        <time>2015-06-14T05:50:08Z</time>
      </trkpt>
      <trkpt lat="41.616363070" lon="2.519852690">
        <ele>204.90</ele>
        <time>2015-06-14T05:50:14Z</time>
      </trkpt>
      <trkpt lat="41.616442870" lon="2.519581960">
        <ele>205.86</ele>
        <time>2015-06-14T05:50:21Z</time>
      </trkpt>
      <trkpt lat="41.616522580" lon="2.519240980">
        <ele>206.82</ele>
        <time>2015-06-14T05:50:30Z</time>
      </trkpt>
      <trkpt lat="41.616580670" lon="2.519001430">
        <ele>207.30</ele>
        <time>2015-06-14T05:50:37Z</time>
      </trkpt>
      <trkpt lat="41.616635820" lon="2.518785260">
        <ele>207.78</ele>
        <time>2015-06-14T05:50:44Z</time>
      </trkpt>
      <trkpt lat="41.616708660" lon="2.518565820">
        <ele>207.78</ele>
        <time>2015-06-14T05:50:49Z</time>
      </trkpt>
      <trkpt lat="41.616733800" lon="2.518217050">
        <ele>207.78</ele>
        <time>2015-06-14T05:50:57Z</time>
      </trkpt>
      <trkpt lat="41.616723330" lon="2.517914550">
        <ele>208.74</ele>
        <time>2015-06-14T05:51:05Z</time>
      </trkpt>
      <trkpt lat="41.616740010" lon="2.517641130">
        <ele>210.19</ele>
        <time>2015-06-14T05:51:14Z</time>
      </trkpt>
      <trkpt lat="41.616771350" lon="2.517392690">
        <ele>210.67</ele>
        <time>2015-06-14T05:51:21Z</time>
      </trkpt>
      <trkpt lat="41.616779820" lon="2.517167380">
        <ele>211.63</ele>
        <time>2015-06-14T05:51:28Z</time>
      </trkpt>
      <trkpt lat="41.616807230" lon="2.516991110">
        <ele>212.11</ele>
        <time>2015-06-14T05:51:33Z</time>
      </trkpt>
      <trkpt lat="41.616824080" lon="2.516747200">
        <ele>212.59</ele>
        <time>2015-06-14T05:51:40Z</time>
      </trkpt>
      <trkpt lat="41.616855760" lon="2.516385100">
        <ele>214.03</ele>
        <time>2015-06-14T05:51:50Z</time>
      </trkpt>
      <trkpt lat="41.616869590" lon="2.516066000">
        <ele>214.99</ele>
        <time>2015-06-14T05:51:59Z</time>
      </trkpt>
      <trkpt lat="41.616883340" lon="2.515702730">
        <ele>215.95</ele>
        <time>2015-06-14T05:52:09Z</time>
      </trkpt>
      <trkpt lat="41.616886020" lon="2.515392680">
        <ele>216.91</ele>
        <time>2015-06-14T05:52:18Z</time>
      </trkpt>
      <trkpt lat="41.616894570" lon="2.515138800">
        <ele>217.88</ele>
        <time>2015-06-14T05:52:26Z</time>
      </trkpt>
      <trkpt lat="41.616885600" lon="2.514872670">
        <ele>218.84</ele>
        <time>2015-06-14T05:52:34Z</time>
      </trkpt>
      <trkpt lat="41.616895740" lon="2.514558010">
        <ele>219.32</ele>
        <time>2015-06-14T05:52:43Z</time>
      </trkpt>
      <trkpt lat="41.616890040" lon="2.514230280">
        <ele>220.76</ele>
        <time>2015-06-14T05:52:52Z</time>
      </trkpt>
      <trkpt lat="41.616897420" lon="2.513899450">
        <ele>221.72</ele>
        <time>2015-06-14T05:53:02Z</time>
      </trkpt>
      <trkpt lat="41.616906720" lon="2.513642630">
        <ele>222.68</ele>
        <time>2015-06-14T05:53:10Z</time>
      </trkpt>
      <trkpt lat="41.616893400" lon="2.513289830">
        <ele>223.64</ele>
        <time>2015-06-14T05:53:20Z</time>
      </trkpt>
      <trkpt lat="41.616887780" lon="2.512961680">
        <ele>224.12</ele>
        <time>2015-06-14T05:53:30Z</time>
      </trkpt>
      <trkpt lat="41.616865400" lon="2.512765800">
        <ele>225.09</ele>
        <time>2015-06-14T05:53:36Z</time>
      </trkpt>
      <trkpt lat="41.616807400" lon="2.512519870">
        <ele>225.57</ele>
        <time>2015-06-14T05:53:44Z</time>
      </trkpt>
      <trkpt lat="41.616732800" lon="2.512294570">
        <ele>226.53</ele>
        <time>2015-06-14T05:53:52Z</time>
      </trkpt>
      <trkpt lat="41.616656190" lon="2.512145950">
        <ele>227.01</ele>
        <time>2015-06-14T05:53:58Z</time>
      </trkpt>
      <trkpt lat="41.616529450" lon="2.511921150">
        <ele>227.49</ele>
        <time>2015-06-14T05:54:06Z</time>
      </trkpt>
      <trkpt lat="41.616501630" lon="2.511873880">
        <ele>227.97</ele>
        <time>2015-06-14T05:54:08Z</time>
      </trkpt>
      <trkpt lat="41.616428120" lon="2.511721580">
        <ele>228.45</ele>
        <time>2015-06-14T05:54:14Z</time>
      </trkpt>
      <trkpt lat="41.616379500" lon="2.511528880">
        <ele>228.93</ele>
        <time>2015-06-14T05:54:21Z</time>
      </trkpt>
      <trkpt lat="41.616392070" lon="2.511355120">
        <ele>228.93</ele>
        <time>2015-06-14T05:54:26Z</time>
      </trkpt>
      <trkpt lat="41.616377740" lon="2.511172980">
        <ele>229.89</ele>
        <time>2015-06-14T05:54:32Z</time>
      </trkpt>
      <trkpt lat="41.616382520" lon="2.511016320">
        <ele>230.85</ele>
        <time>2015-06-14T05:54:38Z</time>
      </trkpt>
      <trkpt lat="41.616497430" lon="2.510777690">
        <ele>232.30</ele>
        <time>2015-06-14T05:54:47Z</time>
      </trkpt>
      <trkpt lat="41.616569180" lon="2.510669060">
        <ele>233.74</ele>
        <time>2015-06-14T05:54:52Z</time>
      </trkpt>
      <trkpt lat="41.616665660" lon="2.510543670">
        <ele>235.66</ele>
        <time>2015-06-14T05:54:59Z</time>
      </trkpt>
      <trkpt lat="41.616744620" lon="2.510347370">
        <ele>237.58</ele>
        <time>2015-06-14T05:55:07Z</time>
      </trkpt>
      <trkpt lat="41.616788450" lon="2.510166230">
        <ele>239.02</ele>
        <time>2015-06-14T05:55:15Z</time>
      </trkpt>
      <trkpt lat="41.616795410" lon="2.509981240">
        <ele>240.95</ele>
        <time>2015-06-14T05:55:24Z</time>
      </trkpt>
      <trkpt lat="41.616826840" lon="2.509801450">
        <ele>242.39</ele>
        <time>2015-06-14T05:55:32Z</time>
      </trkpt>
      <trkpt lat="41.616886520" lon="2.509659130">
        <ele>242.87</ele>
        <time>2015-06-14T05:55:39Z</time>
      </trkpt>
      <trkpt lat="41.616912250" lon="2.509548230">
        <ele>243.35</ele>
        <time>2015-06-14T05:55:44Z</time>
      </trkpt>
      <trkpt lat="41.616826840" lon="2.509543460">
        <ele>243.83</ele>
        <time>2015-06-14T05:55:50Z</time>
      </trkpt>
      <trkpt lat="41.616790970" lon="2.509587380">
        <ele>244.31</ele>
        <time>2015-06-14T05:55:53Z</time>
      </trkpt>
      <trkpt lat="41.616695250" lon="2.509763820">
        <ele>245.27</ele>
        <time>2015-06-14T05:56:03Z</time>
      </trkpt>
      <trkpt lat="41.616633050" lon="2.509847470">
        <ele>246.23</ele>
        <time>2015-06-14T05:56:09Z</time>
      </trkpt>
      <trkpt lat="41.616492320" lon="2.509800530">
        <ele>247.20</ele>
        <time>2015-06-14T05:56:18Z</time>
      </trkpt>
      <trkpt lat="41.616384950" lon="2.509704720">
        <ele>249.12</ele>
        <time>2015-06-14T05:56:26Z</time>
      </trkpt>
      <trkpt lat="41.616352430" lon="2.509552260">
        <ele>250.56</ele>
        <time>2015-06-14T05:56:34Z</time>
      </trkpt>
      <trkpt lat="41.616347650" lon="2.509534320">
        <ele>250.56</ele>
        <time>2015-06-14T05:56:35Z</time>
      </trkpt>
      <trkpt lat="41.616344210" lon="2.509383110">
        <ele>252.48</ele>
        <time>2015-06-14T05:56:44Z</time>
      </trkpt>
      <trkpt lat="41.616323340" lon="2.509186810">
        <ele>254.41</ele>
        <time>2015-06-14T05:56:53Z</time>
      </trkpt>
      <trkpt lat="41.616295430" lon="2.509033590">
        <ele>256.33</ele>
        <time>2015-06-14T05:57:01Z</time>
      </trkpt>
      <trkpt lat="41.616261820" lon="2.508864770">
        <ele>258.25</ele>
        <time>2015-06-14T05:57:10Z</time>
      </trkpt>
      <trkpt lat="41.616220660" lon="2.508700070">
        <ele>260.65</ele>
        <time>2015-06-14T05:57:19Z</time>
      </trkpt>
      <trkpt lat="41.616193840" lon="2.508544670">
        <ele>262.58</ele>
        <time>2015-06-14T05:57:28Z</time>
      </trkpt>
      <trkpt lat="41.616159480" lon="2.508397730">
        <ele>263.54</ele>
        <time>2015-06-14T05:57:36Z</time>
      </trkpt>
      <trkpt lat="41.616096020" lon="2.508194810">
        <ele>264.98</ele>
        <time>2015-06-14T05:57:46Z</time>
      </trkpt>
      <trkpt lat="41.616034670" lon="2.507990040">
        <ele>268.35</ele>
        <time>2015-06-14T05:57:57Z</time>
      </trkpt>
      <trkpt lat="41.615986640" lon="2.507832790">
        <ele>268.83</ele>
        <time>2015-06-14T05:58:04Z</time>
      </trkpt>
      <trkpt lat="41.615928050" lon="2.507692400">
        <ele>270.27</ele>
        <time>2015-06-14T05:58:12Z</time>
      </trkpt>
      <trkpt lat="41.615886480" lon="2.507563570">
        <ele>272.67</ele>
        <time>2015-06-14T05:58:19Z</time>
      </trkpt>
      <trkpt lat="41.615847330" lon="2.507402970">
        <ele>273.63</ele>
        <time>2015-06-14T05:58:26Z</time>
      </trkpt>
      <trkpt lat="41.615806680" lon="2.507272720">
        <ele>274.11</ele>
        <time>2015-06-14T05:58:33Z</time>
      </trkpt>
      <trkpt lat="41.615750940" lon="2.507118070">
        <ele>276.04</ele>
        <time>2015-06-14T05:58:41Z</time>
      </trkpt>
      <trkpt lat="41.615718250" lon="2.506979260">
        <ele>277.48</ele>
        <time>2015-06-14T05:58:49Z</time>
      </trkpt>
      <trkpt lat="41.615717410" lon="2.506962000">
        <ele>277.48</ele>
        <time>2015-06-14T05:58:50Z</time>
      </trkpt>
      <trkpt lat="41.615715230" lon="2.506827890">
        <ele>278.92</ele>
        <time>2015-06-14T05:58:57Z</time>
      </trkpt>
      <trkpt lat="41.615719760" lon="2.506796200">
        <ele>279.40</ele>
        <time>2015-06-14T05:58:59Z</time>
      </trkpt>
      <trkpt lat="41.615729570" lon="2.506611470">
        <ele>281.80</ele>
        <time>2015-06-14T05:59:08Z</time>
      </trkpt>
      <trkpt lat="41.615749850" lon="2.506498230">
        <ele>283.73</ele>
        <time>2015-06-14T05:59:15Z</time>
      </trkpt>
      <trkpt lat="41.615754130" lon="2.506475680">
        <ele>283.73</ele>
        <time>2015-06-14T05:59:16Z</time>
      </trkpt>
      <trkpt lat="41.615791510" lon="2.506363030">
        <ele>285.17</ele>
        <time>2015-06-14T05:59:22Z</time>
      </trkpt>
      <trkpt lat="41.615831740" lon="2.506267050">
        <ele>286.61</ele>
        <time>2015-06-14T05:59:27Z</time>
      </trkpt>
      <trkpt lat="41.615873150" lon="2.506155990">
        <ele>287.57</ele>
        <time>2015-06-14T05:59:33Z</time>
      </trkpt>
      <trkpt lat="41.615937020" lon="2.505947200">
        <ele>290.46</ele>
        <time>2015-06-14T05:59:43Z</time>
      </trkpt>
      <trkpt lat="41.615992930" lon="2.505794400">
        <ele>291.90</ele>
        <time>2015-06-14T05:59:52Z</time>
      </trkpt>
      <trkpt lat="41.616017570" lon="2.505676210">
        <ele>293.82</ele>
        <time>2015-06-14T05:59:59Z</time>
      </trkpt>
      <trkpt lat="41.616051430" lon="2.505553920">
        <ele>295.26</ele>
        <time>2015-06-14T06:00:07Z</time>
      </trkpt>
      <trkpt lat="41.616099380" lon="2.505362650">
        <ele>296.70</ele>
        <time>2015-06-14T06:00:17Z</time>
      </trkpt>
      <trkpt lat="41.616111950" lon="2.505308580">
        <ele>297.18</ele>
        <time>2015-06-14T06:00:20Z</time>
      </trkpt>
      <trkpt lat="41.616141450" lon="2.505126190">
        <ele>300.07</ele>
        <time>2015-06-14T06:00:29Z</time>
      </trkpt>
      <trkpt lat="41.616134580" lon="2.504936260">
        <ele>301.51</ele>
        <time>2015-06-14T06:00:37Z</time>
      </trkpt>
      <trkpt lat="41.616038780" lon="2.504843810">
        <ele>302.95</ele>
        <time>2015-06-14T06:00:45Z</time>
      </trkpt>
      <trkpt lat="41.615915060" lon="2.504835340">
        <ele>303.43</ele>
        <time>2015-06-14T06:00:53Z</time>
      </trkpt>
      <trkpt lat="41.615790590" lon="2.504825280">
        <ele>304.39</ele>
        <time>2015-06-14T06:01:01Z</time>
      </trkpt>
      <trkpt lat="41.615731240" lon="2.504824780">
        <ele>304.88</ele>
        <time>2015-06-14T06:01:05Z</time>
      </trkpt>
      <trkpt lat="41.615616660" lon="2.504833080">
        <ele>306.32</ele>
        <time>2015-06-14T06:01:13Z</time>
      </trkpt>
      <trkpt lat="41.615484570" lon="2.504837600">
        <ele>307.28</ele>
        <time>2015-06-14T06:01:23Z</time>
      </trkpt>
      <trkpt lat="41.615403600" lon="2.504763170">
        <ele>308.72</ele>
        <time>2015-06-14T06:01:30Z</time>
      </trkpt>
      <trkpt lat="41.615380290" lon="2.504601740">
        <ele>310.16</ele>
        <time>2015-06-14T06:01:39Z</time>
      </trkpt>
      <trkpt lat="41.615368890" lon="2.504464780">
        <ele>312.57</ele>
        <time>2015-06-14T06:01:48Z</time>
      </trkpt>
      <trkpt lat="41.615368220" lon="2.504338460">
        <ele>314.01</ele>
        <time>2015-06-14T06:01:55Z</time>
      </trkpt>
      <trkpt lat="41.615369980" lon="2.504181970">
        <ele>316.41</ele>
        <time>2015-06-14T06:02:03Z</time>
      </trkpt>
      <trkpt lat="41.615383810" lon="2.504048450">
        <ele>317.85</ele>
        <time>2015-06-14T06:02:10Z</time>
      </trkpt>
      <trkpt lat="41.615383400" lon="2.503924900">
        <ele>319.78</ele>
        <time>2015-06-14T06:02:17Z</time>
      </trkpt>
      <trkpt lat="41.615392110" lon="2.503850640">
        <ele>320.74</ele>
        <time>2015-06-14T06:02:21Z</time>
      </trkpt>
      <trkpt lat="41.615383230" lon="2.503626920">
        <ele>323.14</ele>
        <time>2015-06-14T06:02:32Z</time>
      </trkpt>
      <trkpt lat="41.615362940" lon="2.503459790">
        <ele>324.58</ele>
        <time>2015-06-14T06:02:40Z</time>
      </trkpt>
      <trkpt lat="41.615337880" lon="2.503258710">
        <ele>325.54</ele>
        <time>2015-06-14T06:02:48Z</time>
      </trkpt>
      <trkpt lat="41.615250290" lon="2.503056450">
        <ele>325.54</ele>
        <time>2015-06-14T06:02:55Z</time>
      </trkpt>
      <trkpt lat="41.615146940" lon="2.502863420">
        <ele>325.54</ele>
        <time>2015-06-14T06:03:03Z</time>
      </trkpt>
      <trkpt lat="41.615086090" lon="2.502563340">
        <ele>325.54</ele>
        <time>2015-06-14T06:03:13Z</time>
      </trkpt>
      <trkpt lat="41.615021130" lon="2.502311970">
        <ele>326.50</ele>
        <time>2015-06-14T06:03:22Z</time>
      </trkpt>
      <trkpt lat="41.614950810" lon="2.502066630">
        <ele>328.43</ele>
        <time>2015-06-14T06:03:32Z</time>
      </trkpt>
      <trkpt lat="41.614917450" lon="2.501788440">
        <ele>329.39</ele>
        <time>2015-06-14T06:03:42Z</time>
      </trkpt>
      <trkpt lat="41.614905380" lon="2.501550470">
        <ele>329.39</ele>
        <time>2015-06-14T06:03:49Z</time>
      </trkpt>
      <trkpt lat="41.614908310" lon="2.501512760">
        <ele>329.39</ele>
        <time>2015-06-14T06:03:50Z</time>
      </trkpt>
      <trkpt lat="41.614821470" lon="2.501420890">
        <ele>329.39</ele>
        <time>2015-06-14T06:03:55Z</time>
      </trkpt>
      <trkpt lat="41.614732540" lon="2.501409830">
        <ele>329.39</ele>
        <time>2015-06-14T06:04:00Z</time>
      </trkpt>
      <trkpt lat="41.614596080" lon="2.501318130">
        <ele>330.83</ele>
        <time>2015-06-14T06:04:08Z</time>
      </trkpt>
      <trkpt lat="41.614456020" lon="2.501231120">
        <ele>331.79</ele>
        <time>2015-06-14T06:04:16Z</time>
      </trkpt>
      <trkpt lat="41.614324510" lon="2.501087290">
        <ele>333.71</ele>
        <time>2015-06-14T06:04:26Z</time>
      </trkpt>
      <trkpt lat="41.614281010" lon="2.500929630">
        <ele>334.68</ele>
        <time>2015-06-14T06:04:34Z</time>
      </trkpt>
      <trkpt lat="41.614229290" lon="2.500782360">
        <ele>336.60</ele>
        <time>2015-06-14T06:04:42Z</time>
      </trkpt>
      <trkpt lat="41.614183110" lon="2.500689070">
        <ele>338.04</ele>
        <time>2015-06-14T06:04:48Z</time>
      </trkpt>
      <trkpt lat="41.614099370" lon="2.500528890">
        <ele>340.92</ele>
        <time>2015-06-14T06:04:59Z</time>
      </trkpt>
      <trkpt lat="41.614021670" lon="2.500406260">
        <ele>343.33</ele>
        <time>2015-06-14T06:05:08Z</time>
      </trkpt>
      <trkpt lat="41.613941540" lon="2.500269970">
        <ele>346.21</ele>
        <time>2015-06-14T06:05:18Z</time>
      </trkpt>
      <trkpt lat="41.613870460" lon="2.500152880">
        <ele>348.13</ele>
        <time>2015-06-14T06:05:26Z</time>
      </trkpt>
      <trkpt lat="41.613821340" lon="2.500046010">
        <ele>350.06</ele>
        <time>2015-06-14T06:05:33Z</time>
      </trkpt>
      <trkpt lat="41.613838690" lon="2.500014990">
        <ele>350.54</ele>
        <time>2015-06-14T06:05:37Z</time>
      </trkpt>
      <trkpt lat="41.613929640" lon="2.500083640">
        <ele>351.50</ele>
        <time>2015-06-14T06:05:44Z</time>
      </trkpt>
      <trkpt lat="41.613943640" lon="2.500099400">
        <ele>351.50</ele>
        <time>2015-06-14T06:05:45Z</time>
      </trkpt>
      <trkpt lat="41.614036340" lon="2.500193530">
        <ele>353.90</ele>
        <time>2015-06-14T06:05:54Z</time>
      </trkpt>
      <trkpt lat="41.614166180" lon="2.500269890">
        <ele>355.83</ele>
        <time>2015-06-14T06:06:03Z</time>
      </trkpt>
      <trkpt lat="41.614260140" lon="2.500307520">
        <ele>356.79</ele>
        <time>2015-06-14T06:06:10Z</time>
      </trkpt>
      <trkpt lat="41.614350070" lon="2.500361080">
        <ele>358.71</ele>
        <time>2015-06-14T06:06:18Z</time>
      </trkpt>
      <trkpt lat="41.614390140" lon="2.500391760">
        <ele>360.15</ele>
        <time>2015-06-14T06:06:21Z</time>
      </trkpt>
      <trkpt lat="41.614432050" lon="2.500425790">
        <ele>360.63</ele>
        <time>2015-06-14T06:06:25Z</time>
      </trkpt>
      <trkpt lat="41.614524170" lon="2.500521600">
        <ele>362.55</ele>
        <time>2015-06-14T06:06:34Z</time>
      </trkpt>
      <trkpt lat="41.614630030" lon="2.500606670">
        <ele>364.96</ele>
        <time>2015-06-14T06:06:43Z</time>
      </trkpt>
      <trkpt lat="41.614750810" lon="2.500579010">
        <ele>365.92</ele>
        <time>2015-06-14T06:06:51Z</time>
      </trkpt>
      <trkpt lat="41.614820550" lon="2.500541880">
        <ele>366.40</ele>
        <time>2015-06-14T06:06:56Z</time>
      </trkpt>
      <trkpt lat="41.614976290" lon="2.500544480">
        <ele>366.88</ele>
        <time>2015-06-14T06:07:03Z</time>
      </trkpt>
      <trkpt lat="41.615000760" lon="2.500558730">
        <ele>366.88</ele>
        <time>2015-06-14T06:07:04Z</time>
      </trkpt>
      <trkpt lat="41.615176450" lon="2.500639700">
        <ele>367.36</ele>
        <time>2015-06-14T06:07:12Z</time>
      </trkpt>
      <trkpt lat="41.615306950" lon="2.500534500">
        <ele>368.32</ele>
        <time>2015-06-14T06:07:20Z</time>
      </trkpt>
      <trkpt lat="41.615482800" lon="2.500473990">
        <ele>369.76</ele>
        <time>2015-06-14T06:07:30Z</time>
      </trkpt>
      <trkpt lat="41.615668880" lon="2.500481030">
        <ele>371.69</ele>
        <time>2015-06-14T06:07:40Z</time>
      </trkpt>
      <trkpt lat="41.615754130" lon="2.500416320">
        <ele>372.65</ele>
        <time>2015-06-14T06:07:46Z</time>
      </trkpt>
      <trkpt lat="41.615733260" lon="2.500262510">
        <ele>375.05</ele>
        <time>2015-06-14T06:07:54Z</time>
      </trkpt>
      <trkpt lat="41.615706850" lon="2.500238370">
        <ele>375.53</ele>
        <time>2015-06-14T06:07:56Z</time>
      </trkpt>
      <trkpt lat="41.615604260" lon="2.500225460">
        <ele>377.94</ele>
        <time>2015-06-14T06:08:05Z</time>
      </trkpt>
      <trkpt lat="41.615487750" lon="2.500230240">
        <ele>379.86</ele>
        <time>2015-06-14T06:08:14Z</time>
      </trkpt>
      <trkpt lat="41.615361520" lon="2.500234520">
        <ele>381.78</ele>
        <time>2015-06-14T06:08:23Z</time>
      </trkpt>
      <trkpt lat="41.615266550" lon="2.500225130">
        <ele>383.22</ele>
        <time>2015-06-14T06:08:30Z</time>
      </trkpt>
      <trkpt lat="41.615172840" lon="2.500088000">
        <ele>384.18</ele>
        <time>2015-06-14T06:08:38Z</time>
      </trkpt>
      <trkpt lat="41.615107460" lon="2.499993280">
        <ele>385.15</ele>
        <time>2015-06-14T06:08:44Z</time>
      </trkpt>
      <trkpt lat="41.614984840" lon="2.499968140">
        <ele>386.59</ele>
        <time>2015-06-14T06:08:52Z</time>
      </trkpt>
      <trkpt lat="41.614837820" lon="2.499985490">
        <ele>389.47</ele>
        <time>2015-06-14T06:09:03Z</time>
      </trkpt>
      <trkpt lat="41.614784170" lon="2.499965370">
        <ele>389.95</ele>
        <time>2015-06-14T06:09:07Z</time>
      </trkpt>
      <trkpt lat="41.614693060" lon="2.499828160">
        <ele>392.36</ele>
        <time>2015-06-14T06:09:17Z</time>
      </trkpt>
      <trkpt lat="41.614648640" lon="2.499729340">
        <ele>394.28</ele>
        <time>2015-06-14T06:09:24Z</time>
      </trkpt>
      <trkpt lat="41.614601950" lon="2.499588350">
        <ele>396.68</ele>
        <time>2015-06-14T06:09:33Z</time>
      </trkpt>
      <trkpt lat="41.614573200" lon="2.499453410">
        <ele>398.60</ele>
        <time>2015-06-14T06:09:42Z</time>
      </trkpt>
      <trkpt lat="41.614587030" lon="2.499286350">
        <ele>401.01</ele>
        <time>2015-06-14T06:09:52Z</time>
      </trkpt>
      <trkpt lat="41.614618630" lon="2.499141510">
        <ele>401.97</ele>
        <time>2015-06-14T06:10:00Z</time>
      </trkpt>
      <trkpt lat="41.614650570" lon="2.498997260">
        <ele>402.45</ele>
        <time>2015-06-14T06:10:07Z</time>
      </trkpt>
      <trkpt lat="41.614653250" lon="2.498954510">
        <ele>403.41</ele>
        <time>2015-06-14T06:10:09Z</time>
      </trkpt>
      <trkpt lat="41.614651910" lon="2.498724770">
        <ele>404.85</ele>
        <time>2015-06-14T06:10:20Z</time>
      </trkpt>
      <trkpt lat="41.614677220" lon="2.498544390">
        <ele>406.29</ele>
        <time>2015-06-14T06:10:29Z</time>
      </trkpt>
      <trkpt lat="41.614714850" lon="2.498313470">
        <ele>408.22</ele>
        <time>2015-06-14T06:10:40Z</time>
      </trkpt>
      <trkpt lat="41.614725750" lon="2.498156560">
        <ele>409.18</ele>
        <time>2015-06-14T06:10:48Z</time>
      </trkpt>
      <trkpt lat="41.614707060" lon="2.497957320">
        <ele>410.62</ele>
        <time>2015-06-14T06:10:57Z</time>
      </trkpt>
      <trkpt lat="41.614639330" lon="2.497724300">
        <ele>410.62</ele>
        <time>2015-06-14T06:11:04Z</time>
      </trkpt>
      <trkpt lat="41.614599100" lon="2.497618610">
        <ele>409.18</ele>
        <time>2015-06-14T06:11:06Z</time>
      </trkpt>
      <trkpt lat="41.614549310" lon="2.497505870">
        <ele>408.22</ele>
        <time>2015-06-14T06:11:08Z</time>
      </trkpt>
      <trkpt lat="41.614468510" lon="2.497427670">
        <ele>407.26</ele>
        <time>2015-06-14T06:11:10Z</time>
      </trkpt>
      <trkpt lat="41.614313450" lon="2.497460940">
        <ele>406.29</ele>
        <time>2015-06-14T06:11:13Z</time>
      </trkpt>
      <trkpt lat="41.614278490" lon="2.497498580">
        <ele>405.81</ele>
        <time>2015-06-14T06:11:14Z</time>
      </trkpt>
      <trkpt lat="41.614174470" lon="2.497646350">
        <ele>408.22</ele>
        <time>2015-06-14T06:11:21Z</time>
      </trkpt>
      <trkpt lat="41.614005330" lon="2.497744420">
        <ele>410.62</ele>
        <time>2015-06-14T06:11:31Z</time>
      </trkpt>
      <trkpt lat="41.613838190" lon="2.497774680">
        <ele>412.54</ele>
        <time>2015-06-14T06:11:41Z</time>
      </trkpt>
      <trkpt lat="41.613726540" lon="2.497682480">
        <ele>413.50</ele>
        <time>2015-06-14T06:11:49Z</time>
      </trkpt>
      <trkpt lat="41.613637110" lon="2.497507210">
        <ele>414.47</ele>
        <time>2015-06-14T06:11:58Z</time>
      </trkpt>
      <trkpt lat="41.613522950" lon="2.497343430">
        <ele>415.91</ele>
        <time>2015-06-14T06:12:07Z</time>
      </trkpt>
      <trkpt lat="41.613375260" lon="2.497329770">
        <ele>416.39</ele>
        <time>2015-06-14T06:12:15Z</time>
      </trkpt>
      <trkpt lat="41.613242910" lon="2.497389360">
        <ele>417.83</ele>
        <time>2015-06-14T06:12:22Z</time>
      </trkpt>
      <trkpt lat="41.613121960" lon="2.497384420">
        <ele>418.79</ele>
        <time>2015-06-14T06:12:30Z</time>
      </trkpt>
      <trkpt lat="41.613022130" lon="2.497248550">
        <ele>419.75</ele>
        <time>2015-06-14T06:12:38Z</time>
      </trkpt>
      <trkpt lat="41.612948870" lon="2.497078230">
        <ele>421.19</ele>
        <time>2015-06-14T06:12:46Z</time>
      </trkpt>
      <trkpt lat="41.612877710" lon="2.496915530">
        <ele>422.16</ele>
        <time>2015-06-14T06:12:54Z</time>
      </trkpt>
      <trkpt lat="41.612817860" lon="2.496737590">
        <ele>424.08</ele>
        <time>2015-06-14T06:13:03Z</time>
      </trkpt>
      <trkpt lat="41.612778300" lon="2.496593000">
        <ele>425.04</ele>
        <time>2015-06-14T06:13:10Z</time>
      </trkpt>
      <trkpt lat="41.612731530" lon="2.496447660">
        <ele>426.00</ele>
        <time>2015-06-14T06:13:17Z</time>
      </trkpt>
      <trkpt lat="41.612662960" lon="2.496285970">
        <ele>427.44</ele>
        <time>2015-06-14T06:13:26Z</time>
      </trkpt>
      <trkpt lat="41.612604880" lon="2.496089580">
        <ele>428.89</ele>
        <time>2015-06-14T06:13:35Z</time>
      </trkpt>
      <trkpt lat="41.612591890" lon="2.495930660">
        <ele>430.33</ele>
        <time>2015-06-14T06:13:43Z</time>
      </trkpt>
      <trkpt lat="41.612584430" lon="2.495816580">
        <ele>431.29</ele>
        <time>2015-06-14T06:13:50Z</time>
      </trkpt>
      <trkpt lat="41.612572270" lon="2.495734270">
        <ele>431.77</ele>
        <time>2015-06-14T06:13:57Z</time>
      </trkpt>
      <trkpt lat="41.612567410" lon="2.495721780">
        <ele>431.77</ele>
        <time>2015-06-14T06:14:09Z</time>
      </trkpt>
      <trkpt lat="41.612572690" lon="2.495707450">
        <ele>431.77</ele>
        <time>2015-06-14T06:14:20Z</time>
      </trkpt>
      <trkpt lat="41.612570180" lon="2.495706190">
        <ele>431.77</ele>
        <time>2015-06-14T06:14:26Z</time>
      </trkpt>
      <trkpt lat="41.612567330" lon="2.495692030">
        <ele>431.77</ele>
        <time>2015-06-14T06:14:33Z</time>
      </trkpt>
      <trkpt lat="41.612581070" lon="2.495695630">
        <ele>432.25</ele>
        <time>2015-06-14T06:14:39Z</time>
      </trkpt>
      <trkpt lat="41.612662960" lon="2.495791850">
        <ele>432.25</ele>
        <time>2015-06-14T06:14:45Z</time>
      </trkpt>
      <trkpt lat="41.612825740" lon="2.495827310">
        <ele>432.73</ele>
        <time>2015-06-14T06:14:54Z</time>
      </trkpt>
      <trkpt lat="41.612992210" lon="2.495850950">
        <ele>434.65</ele>
        <time>2015-06-14T06:15:03Z</time>
      </trkpt>
      <trkpt lat="41.613158670" lon="2.495910380">
        <ele>435.61</ele>
        <time>2015-06-14T06:15:12Z</time>
      </trkpt>
      <trkpt lat="41.613177360" lon="2.495920940">
        <ele>435.61</ele>
        <time>2015-06-14T06:15:13Z</time>
      </trkpt>
      <trkpt lat="41.613250620" lon="2.495938870">
        <ele>436.10</ele>
        <time>2015-06-14T06:15:17Z</time>
      </trkpt>
      <trkpt lat="41.613391940" lon="2.495943060">
        <ele>436.58</ele>
        <time>2015-06-14T06:15:25Z</time>
      </trkpt>
      <trkpt lat="41.613500230" lon="2.495914230">
        <ele>437.54</ele>
        <time>2015-06-14T06:15:32Z</time>
      </trkpt>
      <trkpt lat="41.613637190" lon="2.495872240">
        <ele>438.02</ele>
        <time>2015-06-14T06:15:40Z</time>
      </trkpt>
      <trkpt lat="41.613754960" lon="2.495831750">
        <ele>438.98</ele>
        <time>2015-06-14T06:15:47Z</time>
      </trkpt>
      <trkpt lat="41.613941040" lon="2.495775760">
        <ele>439.94</ele>
        <time>2015-06-14T06:15:56Z</time>
      </trkpt>
      <trkpt lat="41.614116970" lon="2.495738710">
        <ele>440.90</ele>
        <time>2015-06-14T06:16:04Z</time>
      </trkpt>
      <trkpt lat="41.614310510" lon="2.495698480">
        <ele>442.82</ele>
        <time>2015-06-14T06:16:14Z</time>
      </trkpt>
      <trkpt lat="41.614429280" lon="2.495691940">
        <ele>443.31</ele>
        <time>2015-06-14T06:16:21Z</time>
      </trkpt>
      <trkpt lat="41.614543190" lon="2.495684060">
        <ele>444.75</ele>
        <time>2015-06-14T06:16:28Z</time>
      </trkpt>
      <trkpt lat="41.614629530" lon="2.495653050">
        <ele>445.71</ele>
        <time>2015-06-14T06:16:34Z</time>
      </trkpt>
      <trkpt lat="41.614748470" lon="2.495587590">
        <ele>447.15</ele>
        <time>2015-06-14T06:16:42Z</time>
      </trkpt>
      <trkpt lat="41.614855340" lon="2.495534200">
        <ele>449.55</ele>
        <time>2015-06-14T06:16:49Z</time>
      </trkpt>
      <trkpt lat="41.614996990" lon="2.495489180">
        <ele>451.00</ele>
        <time>2015-06-14T06:16:56Z</time>
      </trkpt>
      <trkpt lat="41.615143590" lon="2.495506200">
        <ele>451.96</ele>
        <time>2015-06-14T06:17:04Z</time>
      </trkpt>
      <trkpt lat="41.615249540" lon="2.495611060">
        <ele>453.88</ele>
        <time>2015-06-14T06:17:13Z</time>
      </trkpt>
      <trkpt lat="41.615303770" lon="2.495676770">
        <ele>454.84</ele>
        <time>2015-06-14T06:17:18Z</time>
      </trkpt>
      <trkpt lat="41.615405100" lon="2.495801580">
        <ele>456.76</ele>
        <time>2015-06-14T06:17:27Z</time>
      </trkpt>
      <trkpt lat="41.615454980" lon="2.495894110">
        <ele>457.72</ele>
        <time>2015-06-14T06:17:33Z</time>
      </trkpt>
      <trkpt lat="41.615494620" lon="2.496016740">
        <ele>459.17</ele>
        <time>2015-06-14T06:17:40Z</time>
      </trkpt>
      <trkpt lat="41.615536200" lon="2.496192510">
        <ele>460.13</ele>
        <time>2015-06-14T06:17:49Z</time>
      </trkpt>
      <trkpt lat="41.615550110" lon="2.496240620">
        <ele>460.61</ele>
        <time>2015-06-14T06:17:52Z</time>
      </trkpt>
      <trkpt lat="41.615630410" lon="2.496432820">
        <ele>462.05</ele>
        <time>2015-06-14T06:18:02Z</time>
      </trkpt>
      <trkpt lat="41.615698970" lon="2.496547900">
        <ele>463.97</ele>
        <time>2015-06-14T06:18:09Z</time>
      </trkpt>
      <trkpt lat="41.615764190" lon="2.496687630">
        <ele>465.90</ele>
        <time>2015-06-14T06:18:17Z</time>
      </trkpt>
      <trkpt lat="41.615871140" lon="2.496799360">
        <ele>466.86</ele>
        <time>2015-06-14T06:18:25Z</time>
      </trkpt>
      <trkpt lat="41.615986890" lon="2.496807740">
        <ele>468.30</ele>
        <time>2015-06-14T06:18:33Z</time>
      </trkpt>
      <trkpt lat="41.616087560" lon="2.496734900">
        <ele>469.74</ele>
        <time>2015-06-14T06:18:42Z</time>
      </trkpt>
      <trkpt lat="41.616155370" lon="2.496665250">
        <ele>471.18</ele>
        <time>2015-06-14T06:18:48Z</time>
      </trkpt>
      <trkpt lat="41.616223350" lon="2.496561570">
        <ele>472.14</ele>
        <time>2015-06-14T06:18:55Z</time>
      </trkpt>
      <trkpt lat="41.616291070" lon="2.496345400">
        <ele>473.11</ele>
        <time>2015-06-14T06:19:05Z</time>
      </trkpt>
      <trkpt lat="41.616302470" lon="2.496192930">
        <ele>474.07</ele>
        <time>2015-06-14T06:19:12Z</time>
      </trkpt>
      <trkpt lat="41.616314880" lon="2.496024120">
        <ele>475.51</ele>
        <time>2015-06-14T06:19:20Z</time>
      </trkpt>
      <trkpt lat="41.616314710" lon="2.495787580">
        <ele>477.91</ele>
        <time>2015-06-14T06:19:31Z</time>
      </trkpt>
      <trkpt lat="41.616320490" lon="2.495713480">
        <ele>478.87</ele>
        <time>2015-06-14T06:19:35Z</time>
      </trkpt>
      <trkpt lat="41.616357790" lon="2.495533690">
        <ele>480.32</ele>
        <time>2015-06-14T06:19:44Z</time>
      </trkpt>
      <trkpt lat="41.616463910" lon="2.495439820">
        <ele>481.28</ele>
        <time>2015-06-14T06:19:51Z</time>
      </trkpt>
      <trkpt lat="41.616482180" lon="2.495431770">
        <ele>481.28</ele>
        <time>2015-06-14T06:19:52Z</time>
      </trkpt>
      <trkpt lat="41.616679570" lon="2.495474850">
        <ele>481.76</ele>
        <time>2015-06-14T06:20:01Z</time>
      </trkpt>
      <trkpt lat="41.616886940" lon="2.495555570">
        <ele>482.24</ele>
        <time>2015-06-14T06:20:10Z</time>
      </trkpt>
      <trkpt lat="41.617124070" lon="2.495640980">
        <ele>483.20</ele>
        <time>2015-06-14T06:20:20Z</time>
      </trkpt>
      <trkpt lat="41.617323970" lon="2.495669650">
        <ele>484.16</ele>
        <time>2015-06-14T06:20:29Z</time>
      </trkpt>
      <trkpt lat="41.617525310" lon="2.495669310">
        <ele>485.12</ele>
        <time>2015-06-14T06:20:39Z</time>
      </trkpt>
      <trkpt lat="41.617656990" lon="2.495687670">
        <ele>486.08</ele>
        <time>2015-06-14T06:20:46Z</time>
      </trkpt>
      <trkpt lat="41.617789670" lon="2.495703510">
        <ele>487.05</ele>
        <time>2015-06-14T06:20:53Z</time>
      </trkpt>
      <trkpt lat="41.617946250" lon="2.495738130">
        <ele>488.01</ele>
        <time>2015-06-14T06:21:00Z</time>
      </trkpt>
      <trkpt lat="41.618126370" lon="2.495776520">
        <ele>489.93</ele>
        <time>2015-06-14T06:21:08Z</time>
      </trkpt>
      <trkpt lat="41.618287140" lon="2.495795380">
        <ele>491.37</ele>
        <time>2015-06-14T06:21:16Z</time>
      </trkpt>
      <trkpt lat="41.618396350" lon="2.495752630">
        <ele>492.81</ele>
        <time>2015-06-14T06:21:22Z</time>
      </trkpt>
      <trkpt lat="41.618469110" lon="2.495719520">
        <ele>493.29</ele>
        <time>2015-06-14T06:21:26Z</time>
      </trkpt>
      <trkpt lat="41.618599780" lon="2.495583560">
        <ele>495.22</ele>
        <time>2015-06-14T06:21:35Z</time>
      </trkpt>
      <trkpt lat="41.618731300" lon="2.495441830">
        <ele>495.70</ele>
        <time>2015-06-14T06:21:42Z</time>
      </trkpt>
      <trkpt lat="41.618870020" lon="2.495253740">
        <ele>496.66</ele>
        <time>2015-06-14T06:21:49Z</time>
      </trkpt>
      <trkpt lat="41.618979900" lon="2.495153660">
        <ele>497.14</ele>
        <time>2015-06-14T06:21:54Z</time>
      </trkpt>
      <trkpt lat="41.619119800" lon="2.495149300">
        <ele>497.62</ele>
        <time>2015-06-14T06:22:00Z</time>
      </trkpt>
      <trkpt lat="41.619292300" lon="2.495175370">
        <ele>498.10</ele>
        <time>2015-06-14T06:22:06Z</time>
      </trkpt>
      <trkpt lat="41.619492200" lon="2.495240240">
        <ele>498.58</ele>
        <time>2015-06-14T06:22:15Z</time>
      </trkpt>
      <trkpt lat="41.619638130" lon="2.495307880">
        <ele>499.54</ele>
        <time>2015-06-14T06:22:22Z</time>
      </trkpt>
      <trkpt lat="41.619820770" lon="2.495385840">
        <ele>500.02</ele>
        <time>2015-06-14T06:22:30Z</time>
      </trkpt>
      <trkpt lat="41.619948010" lon="2.495281560">
        <ele>500.98</ele>
        <time>2015-06-14T06:22:37Z</time>
      </trkpt>
      <trkpt lat="41.620104250" lon="2.495143260">
        <ele>502.91</ele>
        <time>2015-06-14T06:22:46Z</time>
      </trkpt>
      <trkpt lat="41.620217070" lon="2.495020640">
        <ele>503.87</ele>
        <time>2015-06-14T06:22:53Z</time>
      </trkpt>
      <trkpt lat="41.620322770" lon="2.494858870">
        <ele>505.31</ele>
        <time>2015-06-14T06:23:01Z</time>
      </trkpt>
      <trkpt lat="41.620354120" lon="2.494835730">
        <ele>506.27</ele>
        <time>2015-06-14T06:23:03Z</time>
      </trkpt>
      <trkpt lat="41.620482020" lon="2.494854670">
        <ele>507.71</ele>
        <time>2015-06-14T06:23:09Z</time>
      </trkpt>
      <trkpt lat="41.620664250" lon="2.495000850">
        <ele>509.64</ele>
        <time>2015-06-14T06:23:19Z</time>
      </trkpt>
      <trkpt lat="41.620790310" lon="2.495105460">
        <ele>510.12</ele>
        <time>2015-06-14T06:23:26Z</time>
      </trkpt>
      <trkpt lat="41.620934810" lon="2.495230600">
        <ele>511.56</ele>
        <time>2015-06-14T06:23:34Z</time>
      </trkpt>
      <trkpt lat="41.621029450" lon="2.495279970">
        <ele>512.52</ele>
        <time>2015-06-14T06:23:39Z</time>
      </trkpt>
      <trkpt lat="41.621173200" lon="2.495217690">
        <ele>513.00</ele>
        <time>2015-06-14T06:23:47Z</time>
      </trkpt>
      <trkpt lat="41.621213680" lon="2.495033040">
        <ele>513.96</ele>
        <time>2015-06-14T06:23:54Z</time>
      </trkpt>
      <trkpt lat="41.621322640" lon="2.494848720">
        <ele>514.92</ele>
        <time>2015-06-14T06:24:02Z</time>
      </trkpt>
      <trkpt lat="41.621415010" lon="2.494642110">
        <ele>514.92</ele>
        <time>2015-06-14T06:24:10Z</time>
      </trkpt>
      <trkpt lat="41.621393140" lon="2.494396440">
        <ele>515.40</ele>
        <time>2015-06-14T06:24:17Z</time>
      </trkpt>
      <trkpt lat="41.621381320" lon="2.494116650">
        <ele>515.40</ele>
        <time>2015-06-14T06:24:24Z</time>
      </trkpt>
      <trkpt lat="41.621485420" lon="2.493955880">
        <ele>515.40</ele>
        <time>2015-06-14T06:24:30Z</time>
      </trkpt>
      <trkpt lat="41.621664790" lon="2.493795030">
        <ele>515.40</ele>
        <time>2015-06-14T06:24:36Z</time>
      </trkpt>
      <trkpt lat="41.621768810" lon="2.493695460">
        <ele>514.44</ele>
        <time>2015-06-14T06:24:39Z</time>
      </trkpt>
      <trkpt lat="41.621985990" lon="2.493648520">
        <ele>513.96</ele>
        <time>2015-06-14T06:24:44Z</time>
      </trkpt>
      <trkpt lat="41.622086400" lon="2.493773740">
        <ele>513.00</ele>
        <time>2015-06-14T06:24:47Z</time>
      </trkpt>
      <trkpt lat="41.622339790" lon="2.493968620">
        <ele>513.48</ele>
        <time>2015-06-14T06:24:54Z</time>
      </trkpt>
      <trkpt lat="41.622417740" lon="2.493975410">
        <ele>513.48</ele>
        <time>2015-06-14T06:24:56Z</time>
      </trkpt>
      <trkpt lat="41.622496360" lon="2.493970130">
        <ele>513.48</ele>
        <time>2015-06-14T06:24:58Z</time>
      </trkpt>
      <trkpt lat="41.622751420" lon="2.494070800">
        <ele>513.00</ele>
        <time>2015-06-14T06:25:04Z</time>
      </trkpt>
      <trkpt lat="41.622877570" lon="2.494197370">
        <ele>512.52</ele>
        <time>2015-06-14T06:25:07Z</time>
      </trkpt>
      <trkpt lat="41.623043620" lon="2.494451420">
        <ele>512.52</ele>
        <time>2015-06-14T06:25:12Z</time>
      </trkpt>
      <trkpt lat="41.623131790" lon="2.494709250">
        <ele>512.52</ele>
        <time>2015-06-14T06:25:17Z</time>
      </trkpt>
      <trkpt lat="41.623199860" lon="2.495035470">
        <ele>512.52</ele>
        <time>2015-06-14T06:25:23Z</time>
      </trkpt>
      <trkpt lat="41.623180240" lon="2.495339650">
        <ele>512.52</ele>
        <time>2015-06-14T06:25:29Z</time>
      </trkpt>
      <trkpt lat="41.623103210" lon="2.495651120">
        <ele>513.96</ele>
        <time>2015-06-14T06:25:36Z</time>
      </trkpt>
      <trkpt lat="41.623118800" lon="2.495696220">
        <ele>513.96</ele>
        <time>2015-06-14T06:25:37Z</time>
      </trkpt>
      <trkpt lat="41.623308400" lon="2.495987660">
        <ele>515.88</ele>
        <time>2015-06-14T06:25:45Z</time>
      </trkpt>
      <trkpt lat="41.623477130" lon="2.496310440">
        <ele>516.37</ele>
        <time>2015-06-14T06:25:54Z</time>
      </trkpt>
      <trkpt lat="41.623660190" lon="2.496415640">
        <ele>516.85</ele>
        <time>2015-06-14T06:26:00Z</time>
      </trkpt>
      <trkpt lat="41.623863530" lon="2.496426370">
        <ele>516.85</ele>
        <time>2015-06-14T06:26:05Z</time>
      </trkpt>
      <trkpt lat="41.623951210" lon="2.496379170">
        <ele>516.85</ele>
        <time>2015-06-14T06:26:07Z</time>
      </trkpt>
      <trkpt lat="41.624094200" lon="2.496241120">
        <ele>514.92</ele>
        <time>2015-06-14T06:26:10Z</time>
      </trkpt>
      <trkpt lat="41.624253380" lon="2.495890340">
        <ele>513.48</ele>
        <time>2015-06-14T06:26:15Z</time>
      </trkpt>
      <trkpt lat="41.624269720" lon="2.495735610">
        <ele>512.52</ele>
        <time>2015-06-14T06:26:17Z</time>
      </trkpt>
      <trkpt lat="41.624282210" lon="2.495418610">
        <ele>512.04</ele>
        <time>2015-06-14T06:26:21Z</time>
      </trkpt>
      <trkpt lat="41.624271650" lon="2.495264470">
        <ele>512.04</ele>
        <time>2015-06-14T06:26:23Z</time>
      </trkpt>
      <trkpt lat="41.624245830" lon="2.495088860">
        <ele>511.56</ele>
        <time>2015-06-14T06:26:25Z</time>
      </trkpt>
      <trkpt lat="41.624284640" lon="2.494586790">
        <ele>510.12</ele>
        <time>2015-06-14T06:26:31Z</time>
      </trkpt>
      <trkpt lat="41.624288080" lon="2.494299040">
        <ele>509.64</ele>
        <time>2015-06-14T06:26:35Z</time>
      </trkpt>
      <trkpt lat="41.624158910" lon="2.493704760">
        <ele>509.64</ele>
        <time>2015-06-14T06:26:44Z</time>
      </trkpt>
      <trkpt lat="41.624098310" lon="2.493214250">
        <ele>509.64</ele>
        <time>2015-06-14T06:26:52Z</time>
      </trkpt>
      <trkpt lat="41.624088840" lon="2.493047620">
        <ele>509.64</ele>
        <time>2015-06-14T06:26:55Z</time>
      </trkpt>
      <trkpt lat="41.624096640" lon="2.492698350">
        <ele>509.16</ele>
        <time>2015-06-14T06:27:00Z</time>
      </trkpt>
      <trkpt lat="41.624153130" lon="2.492563310">
        <ele>509.16</ele>
        <time>2015-06-14T06:27:02Z</time>
      </trkpt>
      <trkpt lat="41.624272570" lon="2.492180930">
        <ele>509.16</ele>
        <time>2015-06-14T06:27:09Z</time>
      </trkpt>
      <trkpt lat="41.624323030" lon="2.491895860">
        <ele>510.60</ele>
        <time>2015-06-14T06:27:16Z</time>
      </trkpt>
      <trkpt lat="41.624342060" lon="2.491696370">
        <ele>510.60</ele>
        <time>2015-06-14T06:27:20Z</time>
      </trkpt>
      <trkpt lat="41.624360500" lon="2.491236540">
        <ele>511.08</ele>
        <time>2015-06-14T06:27:29Z</time>
      </trkpt>
      <trkpt lat="41.624442300" lon="2.490892130">
        <ele>513.00</ele>
        <time>2015-06-14T06:27:38Z</time>
      </trkpt>
      <trkpt lat="41.624537940" lon="2.490677470">
        <ele>513.48</ele>
        <time>2015-06-14T06:27:44Z</time>
      </trkpt>
      <trkpt lat="41.624691500" lon="2.490361640">
        <ele>513.48</ele>
        <time>2015-06-14T06:27:51Z</time>
      </trkpt>
      <trkpt lat="41.624960640" lon="2.490037590">
        <ele>513.48</ele>
        <time>2015-06-14T06:27:59Z</time>
      </trkpt>
      <trkpt lat="41.625060720" lon="2.489878170">
        <ele>513.48</ele>
        <time>2015-06-14T06:28:05Z</time>
      </trkpt>
      <trkpt lat="41.625075470" lon="2.489854370">
        <ele>513.48</ele>
        <time>2015-06-14T06:28:14Z</time>
      </trkpt>
      <trkpt lat="41.625061310" lon="2.489847580">
        <ele>513.48</ele>
        <time>2015-06-14T06:28:23Z</time>
      </trkpt>
      <trkpt lat="41.625032730" lon="2.489908680">
        <ele>513.96</ele>
        <time>2015-06-14T06:28:26Z</time>
      </trkpt>
      <trkpt lat="41.624999870" lon="2.489894010">
        <ele>513.00</ele>
        <time>2015-06-14T06:28:32Z</time>
      </trkpt>
      <trkpt lat="41.625023340" lon="2.489805920">
        <ele>513.00</ele>
        <time>2015-06-14T06:28:36Z</time>
      </trkpt>
      <trkpt lat="41.625066420" lon="2.489562260">
        <ele>512.52</ele>
        <time>2015-06-14T06:28:43Z</time>
      </trkpt>
      <trkpt lat="41.625117050" lon="2.489349610">
        <ele>512.52</ele>
        <time>2015-06-14T06:28:49Z</time>
      </trkpt>
      <trkpt lat="41.625138170" lon="2.489148360">
        <ele>512.52</ele>
        <time>2015-06-14T06:28:55Z</time>
      </trkpt>
      <trkpt lat="41.625222830" lon="2.488830940">
        <ele>513.48</ele>
        <time>2015-06-14T06:29:02Z</time>
      </trkpt>
      <trkpt lat="41.625232470" lon="2.488789110">
        <ele>513.48</ele>
        <time>2015-06-14T06:29:03Z</time>
      </trkpt>
      <trkpt lat="41.625223750" lon="2.488583920">
        <ele>514.44</ele>
        <time>2015-06-14T06:29:09Z</time>
      </trkpt>
      <trkpt lat="41.625217550" lon="2.488435480">
        <ele>514.92</ele>
        <time>2015-06-14T06:29:15Z</time>
      </trkpt>
      <trkpt lat="41.625159960" lon="2.488210340">
        <ele>515.88</ele>
        <time>2015-06-14T06:29:21Z</time>
      </trkpt>
      <trkpt lat="41.625106990" lon="2.488192150">
        <ele>516.85</ele>
        <time>2015-06-14T06:29:24Z</time>
      </trkpt>
      <trkpt lat="41.624952760" lon="2.488267840">
        <ele>516.85</ele>
        <time>2015-06-14T06:29:31Z</time>
      </trkpt>
      <trkpt lat="41.624928460" lon="2.488283930">
        <ele>516.85</ele>
        <time>2015-06-14T06:29:32Z</time>
      </trkpt>
      <trkpt lat="41.624723850" lon="2.488306140">
        <ele>516.85</ele>
        <time>2015-06-14T06:29:39Z</time>
      </trkpt>
      <trkpt lat="41.624538780" lon="2.488245380">
        <ele>517.81</ele>
        <time>2015-06-14T06:29:46Z</time>
      </trkpt>
      <trkpt lat="41.624409530" lon="2.488234140">
        <ele>518.77</ele>
        <time>2015-06-14T06:29:51Z</time>
      </trkpt>
      <trkpt lat="41.624312720" lon="2.488238920">
        <ele>519.25</ele>
        <time>2015-06-14T06:29:55Z</time>
      </trkpt>
      <trkpt lat="41.624194370" lon="2.488228530">
        <ele>520.21</ele>
        <time>2015-06-14T06:30:00Z</time>
      </trkpt>
      <trkpt lat="41.624085070" lon="2.488226430">
        <ele>521.65</ele>
        <time>2015-06-14T06:30:06Z</time>
      </trkpt>
      <trkpt lat="41.623959510" lon="2.488215030">
        <ele>523.09</ele>
        <time>2015-06-14T06:30:12Z</time>
      </trkpt>
      <trkpt lat="41.623834870" lon="2.488217380">
        <ele>524.54</ele>
        <time>2015-06-14T06:30:18Z</time>
      </trkpt>
      <trkpt lat="41.623682230" lon="2.488293490">
        <ele>526.46</ele>
        <time>2015-06-14T06:30:26Z</time>
      </trkpt>
      <trkpt lat="41.623651220" lon="2.488325340">
        <ele>527.42</ele>
        <time>2015-06-14T06:30:28Z</time>
      </trkpt>
      <trkpt lat="41.623421050" lon="2.488450150">
        <ele>529.34</ele>
        <time>2015-06-14T06:30:37Z</time>
      </trkpt>
      <trkpt lat="41.623277390" lon="2.488553080">
        <ele>531.27</ele>
        <time>2015-06-14T06:30:45Z</time>
      </trkpt>
      <trkpt lat="41.623171110" lon="2.488586520">
        <ele>531.75</ele>
        <time>2015-06-14T06:30:50Z</time>
      </trkpt>
      <trkpt lat="41.622976060" lon="2.488499350">
        <ele>528.38</ele>
        <time>2015-06-14T06:30:55Z</time>
      </trkpt>
      <trkpt lat="41.622935320" lon="2.488487030">
        <ele>527.42</ele>
        <time>2015-06-14T06:30:56Z</time>
      </trkpt>
      <trkpt lat="41.622771710" lon="2.488411920">
        <ele>525.02</ele>
        <time>2015-06-14T06:31:00Z</time>
      </trkpt>
      <trkpt lat="41.622738260" lon="2.488358950">
        <ele>523.58</ele>
        <time>2015-06-14T06:31:01Z</time>
      </trkpt>
      <trkpt lat="41.622648160" lon="2.488228530">
        <ele>521.65</ele>
        <time>2015-06-14T06:31:03Z</time>
      </trkpt>
      <trkpt lat="41.622335180" lon="2.487974220">
        <ele>517.33</ele>
        <time>2015-06-14T06:31:09Z</time>
      </trkpt>
      <trkpt lat="41.622347250" lon="2.487871790">
        <ele>516.85</ele>
        <time>2015-06-14T06:31:12Z</time>
      </trkpt>
      <trkpt lat="41.622575240" lon="2.487668200">
        <ele>516.37</ele>
        <time>2015-06-14T06:31:20Z</time>
      </trkpt>
      <trkpt lat="41.622654280" lon="2.487529230">
        <ele>517.81</ele>
        <time>2015-06-14T06:31:25Z</time>
      </trkpt>
      <trkpt lat="41.622778160" lon="2.487267210">
        <ele>521.17</ele>
        <time>2015-06-14T06:31:35Z</time>
      </trkpt>
      <trkpt lat="41.622833310" lon="2.487094540">
        <ele>522.13</ele>
        <time>2015-06-14T06:31:42Z</time>
      </trkpt>
      <trkpt lat="41.622875560" lon="2.486930760">
        <ele>524.54</ele>
        <time>2015-06-14T06:31:49Z</time>
      </trkpt>
      <trkpt lat="41.622885700" lon="2.486866800">
        <ele>524.54</ele>
        <time>2015-06-14T06:31:56Z</time>
      </trkpt>
      <trkpt lat="41.622883350" lon="2.486846270">
        <ele>525.02</ele>
        <time>2015-06-14T06:32:08Z</time>
      </trkpt>
      <trkpt lat="41.622887040" lon="2.486844760">
        <ele>525.02</ele>
        <time>2015-06-14T06:32:18Z</time>
      </trkpt>
      <trkpt lat="41.622888720" lon="2.486837470">
        <ele>525.02</ele>
        <time>2015-06-14T06:32:33Z</time>
      </trkpt>
      <trkpt lat="41.622904480" lon="2.486821960">
        <ele>525.02</ele>
        <time>2015-06-14T06:32:38Z</time>
      </trkpt>
      <trkpt lat="41.622974210" lon="2.486757590">
        <ele>523.58</ele>
        <time>2015-06-14T06:32:42Z</time>
      </trkpt>
      <trkpt lat="41.623014110" lon="2.486728000">
        <ele>522.61</ele>
        <time>2015-06-14T06:32:44Z</time>
      </trkpt>
      <trkpt lat="41.623185190" lon="2.486698580">
        <ele>521.17</ele>
        <time>2015-06-14T06:32:50Z</time>
      </trkpt>
      <trkpt lat="41.623388450" lon="2.486595730">
        <ele>519.25</ele>
        <time>2015-06-14T06:32:55Z</time>
      </trkpt>
      <trkpt lat="41.623540330" lon="2.486443940">
        <ele>517.81</ele>
        <time>2015-06-14T06:32:59Z</time>
      </trkpt>
      <trkpt lat="41.623653060" lon="2.486338410">
        <ele>516.37</ele>
        <time>2015-06-14T06:33:02Z</time>
      </trkpt>
      <trkpt lat="41.623973250" lon="2.486206560">
        <ele>513.48</ele>
        <time>2015-06-14T06:33:09Z</time>
      </trkpt>
      <trkpt lat="41.624074420" lon="2.486170350">
        <ele>512.52</ele>
        <time>2015-06-14T06:33:11Z</time>
      </trkpt>
      <trkpt lat="41.624241980" lon="2.486043110">
        <ele>510.12</ele>
        <time>2015-06-14T06:33:16Z</time>
      </trkpt>
      <trkpt lat="41.624225470" lon="2.485866420">
        <ele>509.16</ele>
        <time>2015-06-14T06:33:19Z</time>
      </trkpt>
      <trkpt lat="41.624186910" lon="2.485811360">
        <ele>508.67</ele>
        <time>2015-06-14T06:33:20Z</time>
      </trkpt>
      <trkpt lat="41.624087000" lon="2.485668700">
        <ele>506.75</ele>
        <time>2015-06-14T06:33:23Z</time>
      </trkpt>
      <trkpt lat="41.623926060" lon="2.485329400">
        <ele>503.87</ele>
        <time>2015-06-14T06:33:28Z</time>
      </trkpt>
      <trkpt lat="41.623889770" lon="2.485264600">
        <ele>503.39</ele>
        <time>2015-06-14T06:33:29Z</time>
      </trkpt>
      <trkpt lat="41.623885410" lon="2.485048850">
        <ele>502.43</ele>
        <time>2015-06-14T06:33:33Z</time>
      </trkpt>
      <trkpt lat="41.623920280" lon="2.485020690">
        <ele>501.46</ele>
        <time>2015-06-14T06:33:34Z</time>
      </trkpt>
      <trkpt lat="41.624082220" lon="2.484781050">
        <ele>500.98</ele>
        <time>2015-06-14T06:33:40Z</time>
      </trkpt>
      <trkpt lat="41.624092530" lon="2.484722630">
        <ele>500.50</ele>
        <time>2015-06-14T06:33:41Z</time>
      </trkpt>
      <trkpt lat="41.624042150" lon="2.484478210">
        <ele>499.06</ele>
        <time>2015-06-14T06:33:46Z</time>
      </trkpt>
      <trkpt lat="41.623914750" lon="2.484412160">
        <ele>498.58</ele>
        <time>2015-06-14T06:33:49Z</time>
      </trkpt>
      <trkpt lat="41.623820370" lon="2.484389620">
        <ele>498.10</ele>
        <time>2015-06-14T06:33:51Z</time>
      </trkpt>
      <trkpt lat="41.623618530" lon="2.484349050">
        <ele>498.10</ele>
        <time>2015-06-14T06:33:55Z</time>
      </trkpt>
      <trkpt lat="41.623303620" lon="2.484335300">
        <ele>497.14</ele>
        <time>2015-06-14T06:34:01Z</time>
      </trkpt>
      <trkpt lat="41.623185190" lon="2.484160620">
        <ele>497.14</ele>
        <time>2015-06-14T06:34:05Z</time>
      </trkpt>
      <trkpt lat="41.623200110" lon="2.484035650">
        <ele>497.14</ele>
        <time>2015-06-14T06:34:07Z</time>
      </trkpt>
      <trkpt lat="41.623280240" lon="2.483752010">
        <ele>498.58</ele>
        <time>2015-06-14T06:34:13Z</time>
      </trkpt>
      <trkpt lat="41.623294990" lon="2.483709930">
        <ele>498.58</ele>
        <time>2015-06-14T06:34:14Z</time>
      </trkpt>
      <trkpt lat="41.623331030" lon="2.483598030">
        <ele>499.54</ele>
        <time>2015-06-14T06:34:17Z</time>
      </trkpt>
      <trkpt lat="41.623244450" lon="2.483424110">
        <ele>500.98</ele>
        <time>2015-06-14T06:34:22Z</time>
      </trkpt>
      <trkpt lat="41.623171190" lon="2.483406840">
        <ele>500.98</ele>
        <time>2015-06-14T06:34:24Z</time>
      </trkpt>
      <trkpt lat="41.622974470" lon="2.483451930">
        <ele>501.95</ele>
        <time>2015-06-14T06:34:30Z</time>
      </trkpt>
      <trkpt lat="41.622752350" lon="2.483409350">
        <ele>502.91</ele>
        <time>2015-06-14T06:34:36Z</time>
      </trkpt>
      <trkpt lat="41.622640280" lon="2.483388480">
        <ele>503.39</ele>
        <time>2015-06-14T06:34:39Z</time>
      </trkpt>
      <trkpt lat="41.622401980" lon="2.483243060">
        <ele>503.39</ele>
        <time>2015-06-14T06:34:44Z</time>
      </trkpt>
      <trkpt lat="41.622295950" lon="2.483014480">
        <ele>500.50</ele>
        <time>2015-06-14T06:34:48Z</time>
      </trkpt>
      <trkpt lat="41.622181040" lon="2.482676190">
        <ele>500.02</ele>
        <time>2015-06-14T06:34:53Z</time>
      </trkpt>
      <trkpt lat="41.622126720" lon="2.482554650">
        <ele>499.54</ele>
        <time>2015-06-14T06:34:55Z</time>
      </trkpt>
      <trkpt lat="41.622128060" lon="2.482210320">
        <ele>499.54</ele>
        <time>2015-06-14T06:35:01Z</time>
      </trkpt>
      <trkpt lat="41.622062510" lon="2.482015530">
        <ele>500.50</ele>
        <time>2015-06-14T06:35:05Z</time>
      </trkpt>
      <trkpt lat="41.622024710" lon="2.481981830">
        <ele>500.98</ele>
        <time>2015-06-14T06:35:06Z</time>
      </trkpt>
      <trkpt lat="41.621841320" lon="2.481740770">
        <ele>500.98</ele>
        <time>2015-06-14T06:35:11Z</time>
      </trkpt>
      <trkpt lat="41.621700250" lon="2.481459470">
        <ele>498.10</ele>
        <time>2015-06-14T06:35:16Z</time>
      </trkpt>
      <trkpt lat="41.621767300" lon="2.481335420">
        <ele>497.14</ele>
        <time>2015-06-14T06:35:19Z</time>
      </trkpt>
      <trkpt lat="41.621919690" lon="2.481152110">
        <ele>495.22</ele>
        <time>2015-06-14T06:35:23Z</time>
      </trkpt>
      <trkpt lat="41.621908040" lon="2.481007690">
        <ele>494.26</ele>
        <time>2015-06-14T06:35:26Z</time>
      </trkpt>
      <trkpt lat="41.621887580" lon="2.480875420">
        <ele>493.77</ele>
        <time>2015-06-14T06:35:29Z</time>
      </trkpt>
      <trkpt lat="41.621903930" lon="2.480672910">
        <ele>493.77</ele>
        <time>2015-06-14T06:35:34Z</time>
      </trkpt>
      <trkpt lat="41.621838970" lon="2.480676010">
        <ele>495.22</ele>
        <time>2015-06-14T06:35:36Z</time>
      </trkpt>
      <trkpt lat="41.621615760" lon="2.480615660">
        <ele>495.70</ele>
        <time>2015-06-14T06:35:42Z</time>
      </trkpt>
      <trkpt lat="41.621398420" lon="2.480593620">
        <ele>497.62</ele>
        <time>2015-06-14T06:35:48Z</time>
      </trkpt>
      <trkpt lat="41.621175370" lon="2.480511810">
        <ele>500.50</ele>
        <time>2015-06-14T06:35:56Z</time>
      </trkpt>
      <trkpt lat="41.621012090" lon="2.480450040">
        <ele>501.95</ele>
        <time>2015-06-14T06:36:02Z</time>
      </trkpt>
      <trkpt lat="41.620826600" lon="2.480408800">
        <ele>501.95</ele>
        <time>2015-06-14T06:36:08Z</time>
      </trkpt>
      <trkpt lat="41.620636330" lon="2.480152560">
        <ele>502.43</ele>
        <time>2015-06-14T06:36:16Z</time>
      </trkpt>
      <trkpt lat="41.620509520" lon="2.479868330">
        <ele>502.43</ele>
        <time>2015-06-14T06:36:24Z</time>
      </trkpt>
      <trkpt lat="41.620321170" lon="2.479714530">
        <ele>500.50</ele>
        <time>2015-06-14T06:36:30Z</time>
      </trkpt>
      <trkpt lat="41.620184970" lon="2.479528870">
        <ele>498.58</ele>
        <time>2015-06-14T06:36:35Z</time>
      </trkpt>
      <trkpt lat="41.620268700" lon="2.479399120">
        <ele>496.66</ele>
        <time>2015-06-14T06:36:38Z</time>
      </trkpt>
      <trkpt lat="41.620349760" lon="2.479141040">
        <ele>495.70</ele>
        <time>2015-06-14T06:36:42Z</time>
      </trkpt>
      <trkpt lat="41.620260490" lon="2.478893520">
        <ele>495.22</ele>
        <time>2015-06-14T06:36:46Z</time>
      </trkpt>
      <trkpt lat="41.620230480" lon="2.478841970">
        <ele>495.22</ele>
        <time>2015-06-14T06:36:47Z</time>
      </trkpt>
      <trkpt lat="41.620145150" lon="2.478672910">
        <ele>495.22</ele>
        <time>2015-06-14T06:36:50Z</time>
      </trkpt>
      <trkpt lat="41.620132750" lon="2.478455150">
        <ele>496.66</ele>
        <time>2015-06-14T06:36:54Z</time>
      </trkpt>
      <trkpt lat="41.620235010" lon="2.477964640">
        <ele>495.22</ele>
        <time>2015-06-14T06:37:01Z</time>
      </trkpt>
      <trkpt lat="41.620295530" lon="2.477730280">
        <ele>495.22</ele>
        <time>2015-06-14T06:37:05Z</time>
      </trkpt>
      <trkpt lat="41.620352860" lon="2.477584010">
        <ele>496.66</ele>
        <time>2015-06-14T06:37:08Z</time>
      </trkpt>
      <trkpt lat="41.620331570" lon="2.477334820">
        <ele>496.66</ele>
        <time>2015-06-14T06:37:13Z</time>
      </trkpt>
      <trkpt lat="41.620089920" lon="2.477095520">
        <ele>498.58</ele>
        <time>2015-06-14T06:37:21Z</time>
      </trkpt>
      <trkpt lat="41.620053370" lon="2.477067100">
        <ele>498.58</ele>
        <time>2015-06-14T06:37:22Z</time>
      </trkpt>
      <trkpt lat="41.619956810" lon="2.476795440">
        <ele>498.58</ele>
        <time>2015-06-14T06:37:27Z</time>
      </trkpt>
      <trkpt lat="41.619992180" lon="2.476616580">
        <ele>498.58</ele>
        <time>2015-06-14T06:37:30Z</time>
      </trkpt>
      <trkpt lat="41.620040720" lon="2.476475590">
        <ele>498.58</ele>
        <time>2015-06-14T06:37:33Z</time>
      </trkpt>
      <trkpt lat="41.619957650" lon="2.476176020">
        <ele>500.50</ele>
        <time>2015-06-14T06:37:40Z</time>
      </trkpt>
      <trkpt lat="41.619762440" lon="2.476030430">
        <ele>502.43</ele>
        <time>2015-06-14T06:37:47Z</time>
      </trkpt>
      <trkpt lat="41.619597150" lon="2.475933620">
        <ele>504.35</ele>
        <time>2015-06-14T06:37:53Z</time>
      </trkpt>
      <trkpt lat="41.619545260" lon="2.475889860">
        <ele>504.83</ele>
        <time>2015-06-14T06:37:55Z</time>
      </trkpt>
      <trkpt lat="41.619539980" lon="2.475755000">
        <ele>505.79</ele>
        <time>2015-06-14T06:37:59Z</time>
      </trkpt>
      <trkpt lat="41.619631680" lon="2.475792470">
        <ele>506.75</ele>
        <time>2015-06-14T06:38:03Z</time>
      </trkpt>
      <trkpt lat="41.619720440" lon="2.475792300">
        <ele>507.23</ele>
        <time>2015-06-14T06:38:06Z</time>
      </trkpt>
      <trkpt lat="41.619910460" lon="2.475650980">
        <ele>508.67</ele>
        <time>2015-06-14T06:38:14Z</time>
      </trkpt>
      <trkpt lat="41.619962180" lon="2.475425170">
        <ele>509.64</ele>
        <time>2015-06-14T06:38:21Z</time>
      </trkpt>
      <trkpt lat="41.619941980" lon="2.475111600">
        <ele>509.64</ele>
        <time>2015-06-14T06:38:27Z</time>
      </trkpt>
      <trkpt lat="41.619979780" lon="2.474948240">
        <ele>508.67</ele>
        <time>2015-06-14T06:38:30Z</time>
      </trkpt>
      <trkpt lat="41.620015070" lon="2.474902890">
        <ele>507.71</ele>
        <time>2015-06-14T06:38:31Z</time>
      </trkpt>
      <trkpt lat="41.620081700" lon="2.474531160">
        <ele>506.27</ele>
        <time>2015-06-14T06:38:36Z</time>
      </trkpt>
      <trkpt lat="41.620189160" lon="2.474284060">
        <ele>505.79</ele>
        <time>2015-06-14T06:38:40Z</time>
      </trkpt>
      <trkpt lat="41.620261660" lon="2.474206360">
        <ele>505.79</ele>
        <time>2015-06-14T06:38:42Z</time>
      </trkpt>
      <trkpt lat="41.620309020" lon="2.473967730">
        <ele>505.79</ele>
        <time>2015-06-14T06:38:47Z</time>
      </trkpt>
      <trkpt lat="41.620229310" lon="2.473937300">
        <ele>505.79</ele>
        <time>2015-06-14T06:38:49Z</time>
      </trkpt>
      <trkpt lat="41.620019930" lon="2.473897320">
        <ele>505.79</ele>
        <time>2015-06-14T06:38:53Z</time>
      </trkpt>
      <trkpt lat="41.619867040" lon="2.473810060">
        <ele>504.35</ele>
        <time>2015-06-14T06:38:56Z</time>
      </trkpt>
      <trkpt lat="41.619814570" lon="2.473701850">
        <ele>503.39</ele>
        <time>2015-06-14T06:38:58Z</time>
      </trkpt>
      <trkpt lat="41.619772500" lon="2.473572850">
        <ele>503.39</ele>
        <time>2015-06-14T06:39:00Z</time>
      </trkpt>
      <trkpt lat="41.619564880" lon="2.473374540">
        <ele>503.39</ele>
        <time>2015-06-14T06:39:05Z</time>
      </trkpt>
      <trkpt lat="41.619522460" lon="2.473341930">
        <ele>503.39</ele>
        <time>2015-06-14T06:39:06Z</time>
      </trkpt>
      <trkpt lat="41.619435460" lon="2.473251740">
        <ele>504.83</ele>
        <time>2015-06-14T06:39:09Z</time>
      </trkpt>
      <trkpt lat="41.619318200" lon="2.473056190">
        <ele>506.27</ele>
        <time>2015-06-14T06:39:14Z</time>
      </trkpt>
      <trkpt lat="41.619290950" lon="2.472700890">
        <ele>504.83</ele>
        <time>2015-06-14T06:39:19Z</time>
      </trkpt>
      <trkpt lat="41.619253990" lon="2.472484380">
        <ele>504.35</ele>
        <time>2015-06-14T06:39:22Z</time>
      </trkpt>
      <trkpt lat="41.619203950" lon="2.472310290">
        <ele>504.35</ele>
        <time>2015-06-14T06:39:25Z</time>
      </trkpt>
      <trkpt lat="41.619165730" lon="2.472211300">
        <ele>504.35</ele>
        <time>2015-06-14T06:39:27Z</time>
      </trkpt>
      <trkpt lat="41.619092300" lon="2.472074090">
        <ele>505.79</ele>
        <time>2015-06-14T06:39:30Z</time>
      </trkpt>
      <trkpt lat="41.619080320" lon="2.471814080">
        <ele>503.87</ele>
        <time>2015-06-14T06:39:35Z</time>
      </trkpt>
      <trkpt lat="41.619115350" lon="2.471767480">
        <ele>503.87</ele>
        <time>2015-06-14T06:39:36Z</time>
      </trkpt>
      <trkpt lat="41.619241330" lon="2.471632700">
        <ele>502.91</ele>
        <time>2015-06-14T06:39:39Z</time>
      </trkpt>
      <trkpt lat="41.619366310" lon="2.471302450">
        <ele>501.95</ele>
        <time>2015-06-14T06:39:44Z</time>
      </trkpt>
      <trkpt lat="41.619434960" lon="2.470753100">
        <ele>500.50</ele>
        <time>2015-06-14T06:39:50Z</time>
      </trkpt>
      <trkpt lat="41.619358350" lon="2.470587140">
        <ele>500.98</ele>
        <time>2015-06-14T06:39:54Z</time>
      </trkpt>
      <trkpt lat="41.619298580" lon="2.470566770">
        <ele>500.98</ele>
        <time>2015-06-14T06:39:56Z</time>
      </trkpt>
      <trkpt lat="41.619217190" lon="2.470512790">
        <ele>502.43</ele>
        <time>2015-06-14T06:39:59Z</time>
      </trkpt>
      <trkpt lat="41.619175700" lon="2.470459900">
        <ele>502.43</ele>
        <time>2015-06-14T06:40:04Z</time>
      </trkpt>
      <trkpt lat="41.619175700" lon="2.470433250">
        <ele>502.91</ele>
        <time>2015-06-14T06:40:09Z</time>
      </trkpt>
      <trkpt lat="41.619161120" lon="2.470303330">
        <ele>503.87</ele>
        <time>2015-06-14T06:40:17Z</time>
      </trkpt>
      <trkpt lat="41.619159360" lon="2.470285980">
        <ele>503.87</ele>
        <time>2015-06-14T06:40:18Z</time>
      </trkpt>
      <trkpt lat="41.619163050" lon="2.470211800">
        <ele>503.87</ele>
        <time>2015-06-14T06:40:25Z</time>
      </trkpt>
      <trkpt lat="41.619141090" lon="2.470205420">
        <ele>503.87</ele>
        <time>2015-06-14T06:40:42Z</time>
      </trkpt>
      <trkpt lat="41.619145610" lon="2.470198300">
        <ele>503.87</ele>
        <time>2015-06-14T06:40:56Z</time>
      </trkpt>
      <trkpt lat="41.619154250" lon="2.470174080">
        <ele>503.87</ele>
        <time>2015-06-14T06:41:07Z</time>
      </trkpt>
      <trkpt lat="41.619166150" lon="2.469960510">
        <ele>503.87</ele>
        <time>2015-06-14T06:41:13Z</time>
      </trkpt>
      <trkpt lat="41.619147210" lon="2.469575190">
        <ele>501.95</ele>
        <time>2015-06-14T06:41:18Z</time>
      </trkpt>
      <trkpt lat="41.619140920" lon="2.469484670">
        <ele>501.95</ele>
        <time>2015-06-14T06:41:19Z</time>
      </trkpt>
      <trkpt lat="41.619182160" lon="2.469146540">
        <ele>500.02</ele>
        <time>2015-06-14T06:41:23Z</time>
      </trkpt>
      <trkpt lat="41.619277120" lon="2.468837080">
        <ele>499.06</ele>
        <time>2015-06-14T06:41:28Z</time>
      </trkpt>
      <trkpt lat="41.619258940" lon="2.468511950">
        <ele>498.10</ele>
        <time>2015-06-14T06:41:33Z</time>
      </trkpt>
      <trkpt lat="41.619198000" lon="2.468218080">
        <ele>497.14</ele>
        <time>2015-06-14T06:41:38Z</time>
      </trkpt>
      <trkpt lat="41.619185850" lon="2.468058070">
        <ele>495.70</ele>
        <time>2015-06-14T06:41:41Z</time>
      </trkpt>
      <trkpt lat="41.619203450" lon="2.467710970">
        <ele>495.22</ele>
        <time>2015-06-14T06:41:47Z</time>
      </trkpt>
      <trkpt lat="41.619193720" lon="2.467659250">
        <ele>495.22</ele>
        <time>2015-06-14T06:41:48Z</time>
      </trkpt>
      <trkpt lat="41.619169920" lon="2.467392880">
        <ele>496.66</ele>
        <time>2015-06-14T06:41:54Z</time>
      </trkpt>
      <trkpt lat="41.619178550" lon="2.467293890">
        <ele>499.06</ele>
        <time>2015-06-14T06:41:58Z</time>
      </trkpt>
      <trkpt lat="41.619166740" lon="2.467103950">
        <ele>500.02</ele>
        <time>2015-06-14T06:42:05Z</time>
      </trkpt>
      <trkpt lat="41.619128430" lon="2.466866240">
        <ele>500.02</ele>
        <time>2015-06-14T06:42:11Z</time>
      </trkpt>
      <trkpt lat="41.619069920" lon="2.466574720">
        <ele>498.58</ele>
        <time>2015-06-14T06:42:16Z</time>
      </trkpt>
      <trkpt lat="41.619012680" lon="2.466391660">
        <ele>498.10</ele>
        <time>2015-06-14T06:42:19Z</time>
      </trkpt>
      <trkpt lat="41.618964820" lon="2.466149000">
        <ele>498.10</ele>
        <time>2015-06-14T06:42:24Z</time>
      </trkpt>
      <trkpt lat="41.618991220" lon="2.465982540">
        <ele>500.02</ele>
        <time>2015-06-14T06:42:28Z</time>
      </trkpt>
      <trkpt lat="41.619032370" lon="2.465898550">
        <ele>500.02</ele>
        <time>2015-06-14T06:42:30Z</time>
      </trkpt>
      <trkpt lat="41.619026170" lon="2.465634520">
        <ele>500.02</ele>
        <time>2015-06-14T06:42:34Z</time>
      </trkpt>
      <trkpt lat="41.619000940" lon="2.465483820">
        <ele>500.02</ele>
        <time>2015-06-14T06:42:36Z</time>
      </trkpt>
      <trkpt lat="41.618921900" lon="2.465246860">
        <ele>498.58</ele>
        <time>2015-06-14T06:42:39Z</time>
      </trkpt>
      <trkpt lat="41.618809500" lon="2.464896660">
        <ele>498.58</ele>
        <time>2015-06-14T06:42:44Z</time>
      </trkpt>
      <trkpt lat="41.618679660" lon="2.464405570">
        <ele>497.62</ele>
        <time>2015-06-14T06:42:51Z</time>
      </trkpt>
      <trkpt lat="41.618646810" lon="2.464167770">
        <ele>497.14</ele>
        <time>2015-06-14T06:42:54Z</time>
      </trkpt>
      <trkpt lat="41.618641110" lon="2.463845910">
        <ele>496.18</ele>
        <time>2015-06-14T06:42:59Z</time>
      </trkpt>
      <trkpt lat="41.618539940" lon="2.463623120">
        <ele>495.22</ele>
        <time>2015-06-14T06:43:04Z</time>
      </trkpt>
      <trkpt lat="41.618558880" lon="2.463213740">
        <ele>492.33</ele>
        <time>2015-06-14T06:43:10Z</time>
      </trkpt>
      <trkpt lat="41.618566840" lon="2.463150460">
        <ele>492.33</ele>
        <time>2015-06-14T06:43:11Z</time>
      </trkpt>
      <trkpt lat="41.618471710" lon="2.462782830">
        <ele>492.33</ele>
        <time>2015-06-14T06:43:18Z</time>
      </trkpt>
      <trkpt lat="41.618447230" lon="2.462733880">
        <ele>492.33</ele>
        <time>2015-06-14T06:43:19Z</time>
      </trkpt>
      <trkpt lat="41.618404150" lon="2.462577140">
        <ele>493.29</ele>
        <time>2015-06-14T06:43:22Z</time>
      </trkpt>
      <trkpt lat="41.618373220" lon="2.462261390">
        <ele>494.74</ele>
        <time>2015-06-14T06:43:29Z</time>
      </trkpt>
      <trkpt lat="41.618290830" lon="2.462174890">
        <ele>495.22</ele>
        <time>2015-06-14T06:43:35Z</time>
      </trkpt>
      <trkpt lat="41.618278920" lon="2.462161310">
        <ele>495.22</ele>
        <time>2015-06-14T06:43:36Z</time>
      </trkpt>
      <trkpt lat="41.618220000" lon="2.462047910">
        <ele>495.70</ele>
        <time>2015-06-14T06:43:41Z</time>
      </trkpt>
      <trkpt lat="41.618199380" lon="2.462012110">
        <ele>496.18</ele>
        <time>2015-06-14T06:43:43Z</time>
      </trkpt>
      <trkpt lat="41.618119670" lon="2.461777670">
        <ele>496.66</ele>
        <time>2015-06-14T06:43:51Z</time>
      </trkpt>
      <trkpt lat="41.618068790" lon="2.461645240">
        <ele>497.14</ele>
        <time>2015-06-14T06:43:56Z</time>
      </trkpt>
      <trkpt lat="41.618027300" lon="2.461533090">
        <ele>498.58</ele>
        <time>2015-06-14T06:44:01Z</time>
      </trkpt>
      <trkpt lat="41.617926970" lon="2.461494950">
        <ele>500.50</ele>
        <time>2015-06-14T06:44:08Z</time>
      </trkpt>
      <trkpt lat="41.617955890" lon="2.461395540">
        <ele>501.95</ele>
        <time>2015-06-14T06:44:14Z</time>
      </trkpt>
      <trkpt lat="41.617953620" lon="2.461291520">
        <ele>502.91</ele>
        <time>2015-06-14T06:44:19Z</time>
      </trkpt>
      <trkpt lat="41.617994440" lon="2.461041570">
        <ele>502.91</ele>
        <time>2015-06-14T06:44:25Z</time>
      </trkpt>
      <trkpt lat="41.618025370" lon="2.460886510">
        <ele>502.43</ele>
        <time>2015-06-14T06:44:30Z</time>
      </trkpt>
      <trkpt lat="41.618002820" lon="2.460693050">
        <ele>502.43</ele>
        <time>2015-06-14T06:44:35Z</time>
      </trkpt>
      <trkpt lat="41.618030990" lon="2.460555000">
        <ele>502.43</ele>
        <time>2015-06-14T06:44:38Z</time>
      </trkpt>
      <trkpt lat="41.618111290" lon="2.460262810">
        <ele>503.39</ele>
        <time>2015-06-14T06:44:46Z</time>
      </trkpt>
      <trkpt lat="41.618148670" lon="2.460041610">
        <ele>503.39</ele>
        <time>2015-06-14T06:44:51Z</time>
      </trkpt>
      <trkpt lat="41.618213710" lon="2.459819490">
        <ele>504.35</ele>
        <time>2015-06-14T06:44:58Z</time>
      </trkpt>
      <trkpt lat="41.618250010" lon="2.459573990">
        <ele>504.35</ele>
        <time>2015-06-14T06:45:04Z</time>
      </trkpt>
      <trkpt lat="41.618333910" lon="2.459398800">
        <ele>506.27</ele>
        <time>2015-06-14T06:45:10Z</time>
      </trkpt>
      <trkpt lat="41.618336260" lon="2.459294950">
        <ele>506.27</ele>
        <time>2015-06-14T06:45:13Z</time>
      </trkpt>
      <trkpt lat="41.618246490" lon="2.458993370">
        <ele>507.71</ele>
        <time>2015-06-14T06:45:22Z</time>
      </trkpt>
      <trkpt lat="41.618185050" lon="2.458718860">
        <ele>509.64</ele>
        <time>2015-06-14T06:45:31Z</time>
      </trkpt>
      <trkpt lat="41.618149760" lon="2.458451820">
        <ele>512.52</ele>
        <time>2015-06-14T06:45:40Z</time>
      </trkpt>
      <trkpt lat="41.618147830" lon="2.458151410">
        <ele>513.96</ele>
        <time>2015-06-14T06:45:49Z</time>
      </trkpt>
      <trkpt lat="41.618162160" lon="2.457955190">
        <ele>516.37</ele>
        <time>2015-06-14T06:45:56Z</time>
      </trkpt>
      <trkpt lat="41.618195270" lon="2.457783280">
        <ele>519.25</ele>
        <time>2015-06-14T06:46:04Z</time>
      </trkpt>
      <trkpt lat="41.618228970" lon="2.457613880">
        <ele>521.17</ele>
        <time>2015-06-14T06:46:12Z</time>
      </trkpt>
      <trkpt lat="41.618254030" lon="2.457470380">
        <ele>523.09</ele>
        <time>2015-06-14T06:46:19Z</time>
      </trkpt>
      <trkpt lat="41.618233240" lon="2.457416070">
        <ele>523.58</ele>
        <time>2015-06-14T06:46:22Z</time>
      </trkpt>
      <trkpt lat="41.618246230" lon="2.457188410">
        <ele>524.06</ele>
        <time>2015-06-14T06:46:31Z</time>
      </trkpt>
      <trkpt lat="41.618249590" lon="2.456945760">
        <ele>524.06</ele>
        <time>2015-06-14T06:46:37Z</time>
      </trkpt>
      <trkpt lat="41.618203240" lon="2.456749450">
        <ele>524.06</ele>
        <time>2015-06-14T06:46:43Z</time>
      </trkpt>
      <trkpt lat="41.618170960" lon="2.456661190">
        <ele>524.06</ele>
        <time>2015-06-14T06:46:46Z</time>
      </trkpt>
      <trkpt lat="41.618085550" lon="2.456394060">
        <ele>524.06</ele>
        <time>2015-06-14T06:46:53Z</time>
      </trkpt>
      <trkpt lat="41.617985140" lon="2.456144200">
        <ele>524.06</ele>
        <time>2015-06-14T06:47:01Z</time>
      </trkpt>
      <trkpt lat="41.617945160" lon="2.456040930">
        <ele>524.06</ele>
        <time>2015-06-14T06:47:07Z</time>
      </trkpt>
      <trkpt lat="41.617934430" lon="2.456004050">
        <ele>524.06</ele>
        <time>2015-06-14T06:47:09Z</time>
      </trkpt>
      <trkpt lat="41.617932670" lon="2.455945880">
        <ele>524.54</ele>
        <time>2015-06-14T06:47:15Z</time>
      </trkpt>
      <trkpt lat="41.617925630" lon="2.455937670">
        <ele>524.54</ele>
        <time>2015-06-14T06:47:16Z</time>
      </trkpt>
      <trkpt lat="41.617887990" lon="2.455818890">
        <ele>525.02</ele>
        <time>2015-06-14T06:47:22Z</time>
      </trkpt>
      <trkpt lat="41.617857570" lon="2.455566010">
        <ele>525.50</ele>
        <time>2015-06-14T06:47:31Z</time>
      </trkpt>
      <trkpt lat="41.617804760" lon="2.455266440">
        <ele>525.50</ele>
        <time>2015-06-14T06:47:39Z</time>
      </trkpt>
      <trkpt lat="41.617717590" lon="2.455004590">
        <ele>525.50</ele>
        <time>2015-06-14T06:47:46Z</time>
      </trkpt>
      <trkpt lat="41.617614160" lon="2.454772250">
        <ele>525.50</ele>
        <time>2015-06-14T06:47:53Z</time>
      </trkpt>
      <trkpt lat="41.617593030" lon="2.454730250">
        <ele>525.50</ele>
        <time>2015-06-14T06:47:54Z</time>
      </trkpt>
      <trkpt lat="41.617467050" lon="2.454496980">
        <ele>524.06</ele>
        <time>2015-06-14T06:47:58Z</time>
      </trkpt>
      <trkpt lat="41.617409220" lon="2.454355500">
        <ele>523.09</ele>
        <time>2015-06-14T06:48:00Z</time>
      </trkpt>
      <trkpt lat="41.617179130" lon="2.454056100">
        <ele>522.61</ele>
        <time>2015-06-14T06:48:06Z</time>
      </trkpt>
      <trkpt lat="41.617039490" lon="2.453994570">
        <ele>522.61</ele>
        <time>2015-06-14T06:48:09Z</time>
      </trkpt>
      <trkpt lat="41.616825590" lon="2.453861300">
        <ele>522.61</ele>
        <time>2015-06-14T06:48:14Z</time>
      </trkpt>
      <trkpt lat="41.616714360" lon="2.453675140">
        <ele>524.54</ele>
        <time>2015-06-14T06:48:19Z</time>
      </trkpt>
      <trkpt lat="41.616560130" lon="2.453412530">
        <ele>526.94</ele>
        <time>2015-06-14T06:48:27Z</time>
      </trkpt>
      <trkpt lat="41.616398360" lon="2.453241210">
        <ele>528.86</ele>
        <time>2015-06-14T06:48:34Z</time>
      </trkpt>
      <trkpt lat="41.616144980" lon="2.453094190">
        <ele>528.86</ele>
        <time>2015-06-14T06:48:42Z</time>
      </trkpt>
      <trkpt lat="41.615999300" lon="2.452976590">
        <ele>528.86</ele>
        <time>2015-06-14T06:48:48Z</time>
      </trkpt>
      <trkpt lat="41.615829310" lon="2.452814740">
        <ele>528.86</ele>
        <time>2015-06-14T06:48:55Z</time>
      </trkpt>
      <trkpt lat="41.615720600" lon="2.452594380">
        <ele>528.86</ele>
        <time>2015-06-14T06:49:02Z</time>
      </trkpt>
      <trkpt lat="41.615665700" lon="2.452400750">
        <ele>528.86</ele>
        <time>2015-06-14T06:49:06Z</time>
      </trkpt>
      <trkpt lat="41.615678520" lon="2.452115850">
        <ele>527.90</ele>
        <time>2015-06-14T06:49:11Z</time>
      </trkpt>
      <trkpt lat="41.615790090" lon="2.452012170">
        <ele>525.98</ele>
        <time>2015-06-14T06:49:15Z</time>
      </trkpt>
      <trkpt lat="41.615847920" lon="2.451953910">
        <ele>525.50</ele>
        <time>2015-06-14T06:49:17Z</time>
      </trkpt>
      <trkpt lat="41.615981360" lon="2.451897250">
        <ele>524.54</ele>
        <time>2015-06-14T06:49:21Z</time>
      </trkpt>
      <trkpt lat="41.616129720" lon="2.451763390">
        <ele>522.13</ele>
        <time>2015-06-14T06:49:25Z</time>
      </trkpt>
      <trkpt lat="41.616162490" lon="2.451717800">
        <ele>521.65</ele>
        <time>2015-06-14T06:49:26Z</time>
      </trkpt>
      <trkpt lat="41.616332140" lon="2.451163330">
        <ele>515.40</ele>
        <time>2015-06-14T06:49:33Z</time>
      </trkpt>
      <trkpt lat="41.616355030" lon="2.450966110">
        <ele>514.44</ele>
        <time>2015-06-14T06:49:35Z</time>
      </trkpt>
      <trkpt lat="41.616450330" lon="2.450755810">
        <ele>511.56</ele>
        <time>2015-06-14T06:49:39Z</time>
      </trkpt>
      <trkpt lat="41.616563570" lon="2.450595540">
        <ele>510.60</ele>
        <time>2015-06-14T06:49:42Z</time>
      </trkpt>
      <trkpt lat="41.616608910" lon="2.450284990">
        <ele>509.64</ele>
        <time>2015-06-14T06:49:47Z</time>
      </trkpt>
      <trkpt lat="41.616580250" lon="2.450001690">
        <ele>505.79</ele>
        <time>2015-06-14T06:49:52Z</time>
      </trkpt>
      <trkpt lat="41.616629030" lon="2.449936060">
        <ele>503.87</ele>
        <time>2015-06-14T06:49:54Z</time>
      </trkpt>
      <trkpt lat="41.616714440" lon="2.449875450">
        <ele>503.39</ele>
        <time>2015-06-14T06:49:56Z</time>
      </trkpt>
      <trkpt lat="41.616825590" lon="2.449748050">
        <ele>501.95</ele>
        <time>2015-06-14T06:49:59Z</time>
      </trkpt>
      <trkpt lat="41.616948880" lon="2.449412270">
        <ele>500.50</ele>
        <time>2015-06-14T06:50:03Z</time>
      </trkpt>
      <trkpt lat="41.616996830" lon="2.449226950">
        <ele>499.06</ele>
        <time>2015-06-14T06:50:05Z</time>
      </trkpt>
      <trkpt lat="41.617084500" lon="2.449050090">
        <ele>498.10</ele>
        <time>2015-06-14T06:50:08Z</time>
      </trkpt>
      <trkpt lat="41.617190030" lon="2.448790250">
        <ele>496.18</ele>
        <time>2015-06-14T06:50:12Z</time>
      </trkpt>
      <trkpt lat="41.617245020" lon="2.448340900">
        <ele>492.33</ele>
        <time>2015-06-14T06:50:17Z</time>
      </trkpt>
      <trkpt lat="41.617299750" lon="2.448105450">
        <ele>488.97</ele>
        <time>2015-06-14T06:50:20Z</time>
      </trkpt>
      <trkpt lat="41.617382980" lon="2.447818620">
        <ele>485.60</ele>
        <time>2015-06-14T06:50:24Z</time>
      </trkpt>
      <trkpt lat="41.617429750" lon="2.447666400">
        <ele>483.68</ele>
        <time>2015-06-14T06:50:26Z</time>
      </trkpt>
      <trkpt lat="41.617408800" lon="2.447346550">
        <ele>482.24</ele>
        <time>2015-06-14T06:50:30Z</time>
      </trkpt>
      <trkpt lat="41.617470820" lon="2.446991490">
        <ele>481.28</ele>
        <time>2015-06-14T06:50:35Z</time>
      </trkpt>
      <trkpt lat="41.617610970" lon="2.446702990">
        <ele>481.28</ele>
        <time>2015-06-14T06:50:40Z</time>
      </trkpt>
      <trkpt lat="41.617634610" lon="2.446632080">
        <ele>481.28</ele>
        <time>2015-06-14T06:50:41Z</time>
      </trkpt>
      <trkpt lat="41.617860500" lon="2.446273080">
        <ele>477.91</ele>
        <time>2015-06-14T06:50:47Z</time>
      </trkpt>
      <trkpt lat="41.617989160" lon="2.446089520">
        <ele>476.95</ele>
        <time>2015-06-14T06:50:50Z</time>
      </trkpt>
      <trkpt lat="41.618149000" lon="2.445909980">
        <ele>475.51</ele>
        <time>2015-06-14T06:50:53Z</time>
      </trkpt>
      <trkpt lat="41.618314630" lon="2.445550140">
        <ele>472.14</ele>
        <time>2015-06-14T06:50:57Z</time>
      </trkpt>
      <trkpt lat="41.618395260" lon="2.445115710">
        <ele>468.78</ele>
        <time>2015-06-14T06:51:02Z</time>
      </trkpt>
      <trkpt lat="41.618418730" lon="2.444919320">
        <ele>467.34</ele>
        <time>2015-06-14T06:51:05Z</time>
      </trkpt>
      <trkpt lat="41.618421000" lon="2.444840610">
        <ele>466.86</ele>
        <time>2015-06-14T06:51:06Z</time>
      </trkpt>
      <trkpt lat="41.618453180" lon="2.444596620">
        <ele>465.90</ele>
        <time>2015-06-14T06:51:09Z</time>
      </trkpt>
      <trkpt lat="41.618516380" lon="2.444383710">
        <ele>463.97</ele>
        <time>2015-06-14T06:51:14Z</time>
      </trkpt>
      <trkpt lat="41.618531390" lon="2.444358990">
        <ele>463.01</ele>
        <time>2015-06-14T06:51:19Z</time>
      </trkpt>
      <trkpt lat="41.618526360" lon="2.444355970">
        <ele>463.01</ele>
        <time>2015-06-14T06:51:33Z</time>
      </trkpt>
      <trkpt lat="41.618520410" lon="2.444367790">
        <ele>463.01</ele>
        <time>2015-06-14T06:51:46Z</time>
      </trkpt>
      <trkpt lat="41.618513450" lon="2.444365690">
        <ele>463.01</ele>
        <time>2015-06-14T06:51:57Z</time>
      </trkpt>
      <trkpt lat="41.618513450" lon="2.444354550">
        <ele>463.01</ele>
        <time>2015-06-14T06:52:07Z</time>
      </trkpt>
      <trkpt lat="41.618529210" lon="2.444359830">
        <ele>463.01</ele>
        <time>2015-06-14T06:52:15Z</time>
      </trkpt>
      <trkpt lat="41.618618810" lon="2.444426300">
        <ele>462.05</ele>
        <time>2015-06-14T06:52:20Z</time>
      </trkpt>
      <trkpt lat="41.618688550" lon="2.444634170">
        <ele>459.65</ele>
        <time>2015-06-14T06:52:24Z</time>
      </trkpt>
      <trkpt lat="41.618782340" lon="2.445091990">
        <ele>457.24</ele>
        <time>2015-06-14T06:52:30Z</time>
      </trkpt>
      <trkpt lat="41.618802370" lon="2.445174130">
        <ele>456.28</ele>
        <time>2015-06-14T06:52:31Z</time>
      </trkpt>
      <trkpt lat="41.618784940" lon="2.445424410">
        <ele>455.32</ele>
        <time>2015-06-14T06:52:34Z</time>
      </trkpt>
      <trkpt lat="41.618824000" lon="2.445691710">
        <ele>453.88</ele>
        <time>2015-06-14T06:52:39Z</time>
      </trkpt>
      <trkpt lat="41.619072350" lon="2.445841500">
        <ele>453.88</ele>
        <time>2015-06-14T06:52:46Z</time>
      </trkpt>
      <trkpt lat="41.619306290" lon="2.445900000">
        <ele>455.32</ele>
        <time>2015-06-14T06:52:54Z</time>
      </trkpt>
      <trkpt lat="41.619466390" lon="2.445932100">
        <ele>456.28</ele>
        <time>2015-06-14T06:53:03Z</time>
      </trkpt>
      <trkpt lat="41.619602430" lon="2.445956750">
        <ele>457.72</ele>
        <time>2015-06-14T06:53:10Z</time>
      </trkpt>
      <trkpt lat="41.619694630" lon="2.445852640">
        <ele>459.65</ele>
        <time>2015-06-14T06:53:16Z</time>
      </trkpt>
      <trkpt lat="41.619727230" lon="2.445826160">
        <ele>460.13</ele>
        <time>2015-06-14T06:53:18Z</time>
      </trkpt>
      <trkpt lat="41.619750870" lon="2.445900760">
        <ele>460.61</ele>
        <time>2015-06-14T06:53:23Z</time>
      </trkpt>
      <trkpt lat="41.619745090" lon="2.445932940">
        <ele>460.61</ele>
        <time>2015-06-14T06:53:24Z</time>
      </trkpt>
      <trkpt lat="41.619735450" lon="2.446140980">
        <ele>462.05</ele>
        <time>2015-06-14T06:53:32Z</time>
      </trkpt>
      <trkpt lat="41.619876680" lon="2.446250360">
        <ele>463.01</ele>
        <time>2015-06-14T06:53:41Z</time>
      </trkpt>
      <trkpt lat="41.619991510" lon="2.446212390">
        <ele>464.45</ele>
        <time>2015-06-14T06:53:48Z</time>
      </trkpt>
      <trkpt lat="41.620018000" lon="2.446033940">
        <ele>464.93</ele>
        <time>2015-06-14T06:53:55Z</time>
      </trkpt>
      <trkpt lat="41.619976510" lon="2.445796650">
        <ele>465.42</ele>
        <time>2015-06-14T06:54:03Z</time>
      </trkpt>
      <trkpt lat="41.619992770" lon="2.445564140">
        <ele>465.90</ele>
        <time>2015-06-14T06:54:10Z</time>
      </trkpt>
      <trkpt lat="41.620157810" lon="2.445337410">
        <ele>465.90</ele>
        <time>2015-06-14T06:54:17Z</time>
      </trkpt>
      <trkpt lat="41.620196790" lon="2.445179490">
        <ele>464.45</ele>
        <time>2015-06-14T06:54:21Z</time>
      </trkpt>
      <trkpt lat="41.620292680" lon="2.445121570">
        <ele>464.45</ele>
        <time>2015-06-14T06:54:26Z</time>
      </trkpt>
      <trkpt lat="41.620393680" lon="2.445160210">
        <ele>467.34</ele>
        <time>2015-06-14T06:54:31Z</time>
      </trkpt>
      <trkpt lat="41.620480680" lon="2.445204640">
        <ele>469.26</ele>
        <time>2015-06-14T06:54:38Z</time>
      </trkpt>
      <trkpt lat="41.620490910" lon="2.445201290">
        <ele>469.26</ele>
        <time>2015-06-14T06:54:39Z</time>
      </trkpt>
      <trkpt lat="41.620574810" lon="2.445148060">
        <ele>470.70</ele>
        <time>2015-06-14T06:54:45Z</time>
      </trkpt>
      <trkpt lat="41.620686210" lon="2.445078490">
        <ele>470.70</ele>
        <time>2015-06-14T06:54:52Z</time>
      </trkpt>
      <trkpt lat="41.620810590" lon="2.445003050">
        <ele>472.14</ele>
        <time>2015-06-14T06:55:00Z</time>
      </trkpt>
      <trkpt lat="41.620962980" lon="2.444931560">
        <ele>468.30</ele>
        <time>2015-06-14T06:55:05Z</time>
      </trkpt>
      <trkpt lat="41.621098850" lon="2.444872380">
        <ele>466.86</ele>
        <time>2015-06-14T06:55:08Z</time>
      </trkpt>
      <trkpt lat="41.621285430" lon="2.444788480">
        <ele>465.42</ele>
        <time>2015-06-14T06:55:12Z</time>
      </trkpt>
      <trkpt lat="41.621525070" lon="2.444773810">
        <ele>463.49</ele>
        <time>2015-06-14T06:55:16Z</time>
      </trkpt>
      <trkpt lat="41.621687340" lon="2.444861820">
        <ele>461.09</ele>
        <time>2015-06-14T06:55:20Z</time>
      </trkpt>
      <trkpt lat="41.621732940" lon="2.444951420">
        <ele>460.13</ele>
        <time>2015-06-14T06:55:22Z</time>
      </trkpt>
      <trkpt lat="41.621833690" lon="2.445200530">
        <ele>457.24</ele>
        <time>2015-06-14T06:55:27Z</time>
      </trkpt>
      <trkpt lat="41.621906190" lon="2.445552320">
        <ele>455.80</ele>
        <time>2015-06-14T06:55:32Z</time>
      </trkpt>
      <trkpt lat="41.622036620" lon="2.445800010">
        <ele>453.40</ele>
        <time>2015-06-14T06:55:37Z</time>
      </trkpt>
      <trkpt lat="41.622082460" lon="2.445788350">
        <ele>452.44</ele>
        <time>2015-06-14T06:55:39Z</time>
      </trkpt>
      <trkpt lat="41.622173740" lon="2.445661280">
        <ele>451.00</ele>
        <time>2015-06-14T06:55:43Z</time>
      </trkpt>
      <trkpt lat="41.622258570" lon="2.445706970">
        <ele>450.03</ele>
        <time>2015-06-14T06:55:46Z</time>
      </trkpt>
      <trkpt lat="41.622396200" lon="2.445919200">
        <ele>449.07</ele>
        <time>2015-06-14T06:55:52Z</time>
      </trkpt>
      <trkpt lat="41.622485720" lon="2.446050710">
        <ele>448.59</ele>
        <time>2015-06-14T06:55:58Z</time>
      </trkpt>
      <trkpt lat="41.622666600" lon="2.446222370">
        <ele>448.11</ele>
        <time>2015-06-14T06:56:05Z</time>
      </trkpt>
      <trkpt lat="41.622879920" lon="2.446308370">
        <ele>447.63</ele>
        <time>2015-06-14T06:56:12Z</time>
      </trkpt>
      <trkpt lat="41.623027520" lon="2.446263940">
        <ele>447.15</ele>
        <time>2015-06-14T06:56:17Z</time>
      </trkpt>
      <trkpt lat="41.623062560" lon="2.446141230">
        <ele>448.59</ele>
        <time>2015-06-14T06:56:24Z</time>
      </trkpt>
      <trkpt lat="41.623122740" lon="2.445810310">
        <ele>448.59</ele>
        <time>2015-06-14T06:56:32Z</time>
      </trkpt>
      <trkpt lat="41.623132380" lon="2.445757090">
        <ele>448.59</ele>
        <time>2015-06-14T06:56:33Z</time>
      </trkpt>
      <trkpt lat="41.623133720" lon="2.445549130">
        <ele>446.19</ele>
        <time>2015-06-14T06:56:37Z</time>
      </trkpt>
      <trkpt lat="41.623194910" lon="2.445456770">
        <ele>445.23</ele>
        <time>2015-06-14T06:56:41Z</time>
      </trkpt>
      <trkpt lat="41.623231460" lon="2.445601100">
        <ele>444.75</ele>
        <time>2015-06-14T06:56:45Z</time>
      </trkpt>
      <trkpt lat="41.623271770" lon="2.445756170">
        <ele>443.31</ele>
        <time>2015-06-14T06:56:48Z</time>
      </trkpt>
      <trkpt lat="41.623383000" lon="2.446057830">
        <ele>440.90</ele>
        <time>2015-06-14T06:56:54Z</time>
      </trkpt>
      <trkpt lat="41.623386190" lon="2.446100830">
        <ele>440.90</ele>
        <time>2015-06-14T06:56:55Z</time>
      </trkpt>
      <trkpt lat="41.623464810" lon="2.446279370">
        <ele>439.46</ele>
        <time>2015-06-14T06:56:59Z</time>
      </trkpt>
      <trkpt lat="41.623563710" lon="2.446406270">
        <ele>437.06</ele>
        <time>2015-06-14T06:57:02Z</time>
      </trkpt>
      <trkpt lat="41.623766390" lon="2.446492690">
        <ele>435.13</ele>
        <time>2015-06-14T06:57:06Z</time>
      </trkpt>
      <trkpt lat="41.623907120" lon="2.446678180">
        <ele>432.73</ele>
        <time>2015-06-14T06:57:10Z</time>
      </trkpt>
      <trkpt lat="41.624091100" lon="2.446973220">
        <ele>431.77</ele>
        <time>2015-06-14T06:57:15Z</time>
      </trkpt>
      <trkpt lat="41.624188670" lon="2.447066930">
        <ele>431.29</ele>
        <time>2015-06-14T06:57:17Z</time>
      </trkpt>
      <trkpt lat="41.624415480" lon="2.447186200">
        <ele>429.85</ele>
        <time>2015-06-14T06:57:22Z</time>
      </trkpt>
      <trkpt lat="41.624532750" lon="2.447008590">
        <ele>429.37</ele>
        <time>2015-06-14T06:57:26Z</time>
      </trkpt>
      <trkpt lat="41.624584290" lon="2.446905910">
        <ele>428.89</ele>
        <time>2015-06-14T06:57:28Z</time>
      </trkpt>
      <trkpt lat="41.624675320" lon="2.446675910">
        <ele>428.40</ele>
        <time>2015-06-14T06:57:32Z</time>
      </trkpt>
      <trkpt lat="41.624750090" lon="2.446365530">
        <ele>427.92</ele>
        <time>2015-06-14T06:57:37Z</time>
      </trkpt>
      <trkpt lat="41.624753360" lon="2.446306940">
        <ele>427.92</ele>
        <time>2015-06-14T06:57:38Z</time>
      </trkpt>
      <trkpt lat="41.624794010" lon="2.446054310">
        <ele>427.92</ele>
        <time>2015-06-14T06:57:44Z</time>
      </trkpt>
      <trkpt lat="41.624809100" lon="2.445929340">
        <ele>428.89</ele>
        <time>2015-06-14T06:57:47Z</time>
      </trkpt>
      <trkpt lat="41.624813370" lon="2.445804950">
        <ele>429.85</ele>
        <time>2015-06-14T06:57:50Z</time>
      </trkpt>
      <trkpt lat="41.624837680" lon="2.445737980">
        <ele>430.33</ele>
        <time>2015-06-14T06:57:56Z</time>
      </trkpt>
      <trkpt lat="41.624846060" lon="2.445707130">
        <ele>430.33</ele>
        <time>2015-06-14T06:58:00Z</time>
      </trkpt>
      <trkpt lat="41.624919570" lon="2.445555670">
        <ele>431.77</ele>
        <time>2015-06-14T06:58:08Z</time>
      </trkpt>
      <trkpt lat="41.625033560" lon="2.445341600">
        <ele>431.77</ele>
        <time>2015-06-14T06:58:16Z</time>
      </trkpt>
      <trkpt lat="41.625170110" lon="2.445148730">
        <ele>431.77</ele>
        <time>2015-06-14T06:58:23Z</time>
      </trkpt>
      <trkpt lat="41.625275550" lon="2.444925860">
        <ele>431.77</ele>
        <time>2015-06-14T06:58:29Z</time>
      </trkpt>
      <trkpt lat="41.625400360" lon="2.444756290">
        <ele>432.73</ele>
        <time>2015-06-14T06:58:35Z</time>
      </trkpt>
      <trkpt lat="41.625431790" lon="2.444741540">
        <ele>432.73</ele>
        <time>2015-06-14T06:58:36Z</time>
      </trkpt>
      <trkpt lat="41.625571260" lon="2.444762660">
        <ele>433.21</ele>
        <time>2015-06-14T06:58:40Z</time>
      </trkpt>
      <trkpt lat="41.625846530" lon="2.444842460">
        <ele>433.21</ele>
        <time>2015-06-14T06:58:47Z</time>
      </trkpt>
      <trkpt lat="41.625913080" lon="2.444887720">
        <ele>433.21</ele>
        <time>2015-06-14T06:58:49Z</time>
      </trkpt>
      <trkpt lat="41.625994550" lon="2.445100450">
        <ele>433.21</ele>
        <time>2015-06-14T06:58:53Z</time>
      </trkpt>
      <trkpt lat="41.626029920" lon="2.445205390">
        <ele>433.21</ele>
        <time>2015-06-14T06:58:55Z</time>
      </trkpt>
      <trkpt lat="41.626149280" lon="2.445183010">
        <ele>432.25</ele>
        <time>2015-06-14T06:58:59Z</time>
      </trkpt>
      <trkpt lat="41.626168310" lon="2.445149570">
        <ele>432.25</ele>
        <time>2015-06-14T06:59:00Z</time>
      </trkpt>
      <trkpt lat="41.626306940" lon="2.444925190">
        <ele>432.25</ele>
        <time>2015-06-14T06:59:06Z</time>
      </trkpt>
      <trkpt lat="41.626414820" lon="2.444832310">
        <ele>432.25</ele>
        <time>2015-06-14T06:59:09Z</time>
      </trkpt>
      <trkpt lat="41.626622690" lon="2.444619250">
        <ele>432.25</ele>
        <time>2015-06-14T06:59:15Z</time>
      </trkpt>
      <trkpt lat="41.626826290" lon="2.444505080">
        <ele>431.29</ele>
        <time>2015-06-14T06:59:20Z</time>
      </trkpt>
      <trkpt lat="41.626871380" lon="2.444513050">
        <ele>431.29</ele>
        <time>2015-06-14T06:59:21Z</time>
      </trkpt>
      <trkpt lat="41.627095510" lon="2.444456130">
        <ele>430.81</ele>
        <time>2015-06-14T06:59:26Z</time>
      </trkpt>
      <trkpt lat="41.627325930" lon="2.444460490">
        <ele>429.37</ele>
        <time>2015-06-14T06:59:30Z</time>
      </trkpt>
      <trkpt lat="41.627439170" lon="2.444485890">
        <ele>429.37</ele>
        <time>2015-06-14T06:59:32Z</time>
      </trkpt>
      <trkpt lat="41.627710910" lon="2.444531570">
        <ele>429.37</ele>
        <time>2015-06-14T06:59:39Z</time>
      </trkpt>
      <trkpt lat="41.627908890" lon="2.444584710">
        <ele>431.77</ele>
        <time>2015-06-14T06:59:45Z</time>
      </trkpt>
      <trkpt lat="41.628057420" lon="2.444663250">
        <ele>434.17</ele>
        <time>2015-06-14T06:59:51Z</time>
      </trkpt>
      <trkpt lat="41.628219360" lon="2.444752180">
        <ele>434.65</ele>
        <time>2015-06-14T06:59:56Z</time>
      </trkpt>
      <trkpt lat="41.628380630" lon="2.444760980">
        <ele>432.73</ele>
        <time>2015-06-14T07:00:00Z</time>
      </trkpt>
      <trkpt lat="41.628407700" lon="2.444699630">
        <ele>432.25</ele>
        <time>2015-06-14T07:00:02Z</time>
      </trkpt>
      <trkpt lat="41.628440390" lon="2.444581780">
        <ele>431.77</ele>
        <time>2015-06-14T07:00:10Z</time>
      </trkpt>
      <trkpt lat="41.628449530" lon="2.444559730">
        <ele>431.77</ele>
        <time>2015-06-14T07:00:22Z</time>
      </trkpt>
      <trkpt lat="41.628433680" lon="2.444544560">
        <ele>431.77</ele>
        <time>2015-06-14T07:00:41Z</time>
      </trkpt>
      <trkpt lat="41.628432760" lon="2.444543980">
        <ele>432.25</ele>
        <time>2015-06-14T07:00:54Z</time>
      </trkpt>
      <trkpt lat="41.628424380" lon="2.444552440">
        <ele>431.77</ele>
        <time>2015-06-14T07:01:08Z</time>
      </trkpt>
      <trkpt lat="41.628423120" lon="2.444571970">
        <ele>431.77</ele>
        <time>2015-06-14T07:01:29Z</time>
      </trkpt>
      <trkpt lat="41.628437460" lon="2.444550850">
        <ele>431.77</ele>
        <time>2015-06-14T07:01:45Z</time>
      </trkpt>
      <trkpt lat="41.628421780" lon="2.444537100">
        <ele>431.77</ele>
        <time>2015-06-14T07:01:59Z</time>
      </trkpt>
      <trkpt lat="41.628427400" lon="2.444526540">
        <ele>431.29</ele>
        <time>2015-06-14T07:02:14Z</time>
      </trkpt>
      <trkpt lat="41.628422620" lon="2.444550010">
        <ele>431.29</ele>
        <time>2015-06-14T07:02:27Z</time>
      </trkpt>
      <trkpt lat="41.628422540" lon="2.444552110">
        <ele>431.29</ele>
        <time>2015-06-14T07:02:42Z</time>
      </trkpt>
      <trkpt lat="41.628422540" lon="2.444552530">
        <ele>431.29</ele>
        <time>2015-06-14T07:02:56Z</time>
      </trkpt>
      <trkpt lat="41.628403590" lon="2.444532240">
        <ele>431.29</ele>
        <time>2015-06-14T07:03:12Z</time>
      </trkpt>
      <trkpt lat="41.628411720" lon="2.444523690">
        <ele>431.29</ele>
        <time>2015-06-14T07:03:22Z</time>
      </trkpt>
      <trkpt lat="41.628402340" lon="2.444410870">
        <ele>432.73</ele>
        <time>2015-06-14T07:03:29Z</time>
      </trkpt>
      <trkpt lat="41.628396220" lon="2.444291600">
        <ele>434.17</ele>
        <time>2015-06-14T07:03:34Z</time>
      </trkpt>
      <trkpt lat="41.628367890" lon="2.444220440">
        <ele>434.65</ele>
        <time>2015-06-14T07:03:37Z</time>
      </trkpt>
      <trkpt lat="41.628296970" lon="2.444121700">
        <ele>435.61</ele>
        <time>2015-06-14T07:03:41Z</time>
      </trkpt>
      <trkpt lat="41.628220620" lon="2.443956240">
        <ele>435.61</ele>
        <time>2015-06-14T07:03:47Z</time>
      </trkpt>
      <trkpt lat="41.628111650" lon="2.443670920">
        <ele>436.10</ele>
        <time>2015-06-14T07:03:56Z</time>
      </trkpt>
      <trkpt lat="41.628067480" lon="2.443540080">
        <ele>438.98</ele>
        <time>2015-06-14T07:04:03Z</time>
      </trkpt>
      <trkpt lat="41.628034960" lon="2.443463630">
        <ele>439.94</ele>
        <time>2015-06-14T07:04:07Z</time>
      </trkpt>
      <trkpt lat="41.628017770" lon="2.443410490">
        <ele>440.42</ele>
        <time>2015-06-14T07:04:10Z</time>
      </trkpt>
      <trkpt lat="41.628086000" lon="2.443294240">
        <ele>441.38</ele>
        <time>2015-06-14T07:04:17Z</time>
      </trkpt>
      <trkpt lat="41.628154060" lon="2.443339250">
        <ele>441.38</ele>
        <time>2015-06-14T07:04:21Z</time>
      </trkpt>
      <trkpt lat="41.628243750" lon="2.443450140">
        <ele>442.34</ele>
        <time>2015-06-14T07:04:29Z</time>
      </trkpt>
      <trkpt lat="41.628375260" lon="2.443562620">
        <ele>443.31</ele>
        <time>2015-06-14T07:04:37Z</time>
      </trkpt>
      <trkpt lat="41.628544070" lon="2.443610990">
        <ele>443.79</ele>
        <time>2015-06-14T07:04:45Z</time>
      </trkpt>
      <trkpt lat="41.628715480" lon="2.443626410">
        <ele>443.79</ele>
        <time>2015-06-14T07:04:52Z</time>
      </trkpt>
      <trkpt lat="41.628874910" lon="2.443644930">
        <ele>443.79</ele>
        <time>2015-06-14T07:04:58Z</time>
      </trkpt>
      <trkpt lat="41.629047410" lon="2.443594640">
        <ele>445.23</ele>
        <time>2015-06-14T07:05:04Z</time>
      </trkpt>
      <trkpt lat="41.629198620" lon="2.443637640">
        <ele>445.71</ele>
        <time>2015-06-14T07:05:09Z</time>
      </trkpt>
      <trkpt lat="41.629344960" lon="2.443741240">
        <ele>445.71</ele>
        <time>2015-06-14T07:05:13Z</time>
      </trkpt>
      <trkpt lat="41.629600030" lon="2.443965960">
        <ele>443.79</ele>
        <time>2015-06-14T07:05:19Z</time>
      </trkpt>
      <trkpt lat="41.629800520" lon="2.444063950">
        <ele>443.31</ele>
        <time>2015-06-14T07:05:23Z</time>
      </trkpt>
      <trkpt lat="41.629947960" lon="2.444128650">
        <ele>443.31</ele>
        <time>2015-06-14T07:05:26Z</time>
      </trkpt>
      <trkpt lat="41.630032530" lon="2.444181790">
        <ele>441.86</ele>
        <time>2015-06-14T07:05:28Z</time>
      </trkpt>
      <trkpt lat="41.630127580" lon="2.444274500">
        <ele>441.86</ele>
        <time>2015-06-14T07:05:31Z</time>
      </trkpt>
      <trkpt lat="41.630209470" lon="2.444377090">
        <ele>441.86</ele>
        <time>2015-06-14T07:05:37Z</time>
      </trkpt>
      <trkpt lat="41.630348530" lon="2.444411540">
        <ele>439.94</ele>
        <time>2015-06-14T07:05:44Z</time>
      </trkpt>
      <trkpt lat="41.630382390" lon="2.444414140">
        <ele>439.46</ele>
        <time>2015-06-14T07:05:45Z</time>
      </trkpt>
      <trkpt lat="41.630660670" lon="2.444404330">
        <ele>437.54</ele>
        <time>2015-06-14T07:05:51Z</time>
      </trkpt>
      <trkpt lat="41.630792430" lon="2.444330070">
        <ele>435.13</ele>
        <time>2015-06-14T07:05:57Z</time>
      </trkpt>
      <trkpt lat="41.630892600" lon="2.444222530">
        <ele>432.25</ele>
        <time>2015-06-14T07:06:02Z</time>
      </trkpt>
      <trkpt lat="41.630908440" lon="2.444199060">
        <ele>432.25</ele>
        <time>2015-06-14T07:06:03Z</time>
      </trkpt>
      <trkpt lat="41.630927800" lon="2.444185570">
        <ele>431.29</ele>
        <time>2015-06-14T07:06:08Z</time>
      </trkpt>
      <trkpt lat="41.630975910" lon="2.444136280">
        <ele>429.85</ele>
        <time>2015-06-14T07:06:16Z</time>
      </trkpt>
      <trkpt lat="41.630998550" lon="2.444099650">
        <ele>429.37</ele>
        <time>2015-06-14T07:06:26Z</time>
      </trkpt>
      <trkpt lat="41.631038780" lon="2.444059840">
        <ele>428.89</ele>
        <time>2015-06-14T07:06:32Z</time>
      </trkpt>
      <trkpt lat="41.631049840" lon="2.444041980">
        <ele>428.89</ele>
        <time>2015-06-14T07:06:41Z</time>
      </trkpt>
      <trkpt lat="41.631043980" lon="2.443981890">
        <ele>428.40</ele>
        <time>2015-06-14T07:06:47Z</time>
      </trkpt>
      <trkpt lat="41.631102980" lon="2.443878620">
        <ele>427.44</ele>
        <time>2015-06-14T07:06:54Z</time>
      </trkpt>
      <trkpt lat="41.631135930" lon="2.443848870">
        <ele>426.48</ele>
        <time>2015-06-14T07:06:56Z</time>
      </trkpt>
      <trkpt lat="41.631150260" lon="2.443819780">
        <ele>426.00</ele>
        <time>2015-06-14T07:06:57Z</time>
      </trkpt>
      <trkpt lat="41.631177000" lon="2.443761270">
        <ele>424.56</ele>
        <time>2015-06-14T07:06:59Z</time>
      </trkpt>
      <trkpt lat="41.631222260" lon="2.443709140">
        <ele>423.12</ele>
        <time>2015-06-14T07:07:02Z</time>
      </trkpt>
      <trkpt lat="41.631308090" lon="2.443650800">
        <ele>420.23</ele>
        <time>2015-06-14T07:07:07Z</time>
      </trkpt>
      <trkpt lat="41.631330720" lon="2.443621380">
        <ele>420.23</ele>
        <time>2015-06-14T07:07:08Z</time>
      </trkpt>
      <trkpt lat="41.631385040" lon="2.443536720">
        <ele>419.27</ele>
        <time>2015-06-14T07:07:11Z</time>
      </trkpt>
      <trkpt lat="41.631463070" lon="2.443475450">
        <ele>417.35</ele>
        <time>2015-06-14T07:07:15Z</time>
      </trkpt>
      <trkpt lat="41.631497270" lon="2.443431700">
        <ele>416.87</ele>
        <time>2015-06-14T07:07:17Z</time>
      </trkpt>
      <trkpt lat="41.631532050" lon="2.443318540">
        <ele>415.91</ele>
        <time>2015-06-14T07:07:21Z</time>
      </trkpt>
      <trkpt lat="41.631594160" lon="2.443214270">
        <ele>414.47</ele>
        <time>2015-06-14T07:07:24Z</time>
      </trkpt>
      <trkpt lat="41.631754430" lon="2.442928450">
        <ele>410.14</ele>
        <time>2015-06-14T07:07:30Z</time>
      </trkpt>
      <trkpt lat="41.631821310" lon="2.442779750">
        <ele>408.70</ele>
        <time>2015-06-14T07:07:32Z</time>
      </trkpt>
      <trkpt lat="41.631825760" lon="2.442515890">
        <ele>406.29</ele>
        <time>2015-06-14T07:07:37Z</time>
      </trkpt>
      <trkpt lat="41.631797010" lon="2.442349590">
        <ele>405.81</ele>
        <time>2015-06-14T07:07:40Z</time>
      </trkpt>
      <trkpt lat="41.631794910" lon="2.442262670">
        <ele>405.81</ele>
        <time>2015-06-14T07:07:42Z</time>
      </trkpt>
      <trkpt lat="41.631826340" lon="2.442089170">
        <ele>404.37</ele>
        <time>2015-06-14T07:07:45Z</time>
      </trkpt>
      <trkpt lat="41.631905720" lon="2.441980040">
        <ele>403.41</ele>
        <time>2015-06-14T07:07:48Z</time>
      </trkpt>
      <trkpt lat="41.631969760" lon="2.441754810">
        <ele>401.01</ele>
        <time>2015-06-14T07:07:53Z</time>
      </trkpt>
      <trkpt lat="41.631983750" lon="2.441544090">
        <ele>398.12</ele>
        <time>2015-06-14T07:07:58Z</time>
      </trkpt>
      <trkpt lat="41.632129260" lon="2.441408060">
        <ele>397.64</ele>
        <time>2015-06-14T07:08:04Z</time>
      </trkpt>
      <trkpt lat="41.632208980" lon="2.441307140">
        <ele>397.64</ele>
        <time>2015-06-14T07:08:07Z</time>
      </trkpt>
      <trkpt lat="41.632259270" lon="2.440974790">
        <ele>397.16</ele>
        <time>2015-06-14T07:08:14Z</time>
      </trkpt>
      <trkpt lat="41.632242920" lon="2.440808160">
        <ele>397.16</ele>
        <time>2015-06-14T07:08:18Z</time>
      </trkpt>
      <trkpt lat="41.632376110" lon="2.440698700">
        <ele>397.16</ele>
        <time>2015-06-14T07:08:24Z</time>
      </trkpt>
      <trkpt lat="41.632452970" lon="2.440605820">
        <ele>397.16</ele>
        <time>2015-06-14T07:08:28Z</time>
      </trkpt>
      <trkpt lat="41.632503520" lon="2.440211200">
        <ele>397.16</ele>
        <time>2015-06-14T07:08:37Z</time>
      </trkpt>
      <trkpt lat="41.632537380" lon="2.439995790">
        <ele>397.16</ele>
        <time>2015-06-14T07:08:42Z</time>
      </trkpt>
      <trkpt lat="41.632584740" lon="2.439937280">
        <ele>397.16</ele>
        <time>2015-06-14T07:08:45Z</time>
      </trkpt>
      <trkpt lat="41.632642150" lon="2.439746180">
        <ele>399.08</ele>
        <time>2015-06-14T07:08:51Z</time>
      </trkpt>
      <trkpt lat="41.632713650" lon="2.439693450">
        <ele>399.08</ele>
        <time>2015-06-14T07:08:54Z</time>
      </trkpt>
      <trkpt lat="41.632891260" lon="2.439586420">
        <ele>400.05</ele>
        <time>2015-06-14T07:09:00Z</time>
      </trkpt>
      <trkpt lat="41.632929990" lon="2.439484410">
        <ele>400.05</ele>
        <time>2015-06-14T07:09:06Z</time>
      </trkpt>
      <trkpt lat="41.632911460" lon="2.439290950">
        <ele>401.01</ele>
        <time>2015-06-14T07:09:12Z</time>
      </trkpt>
      <trkpt lat="41.632882040" lon="2.439162960">
        <ele>401.01</ele>
        <time>2015-06-14T07:09:16Z</time>
      </trkpt>
      <trkpt lat="41.632872400" lon="2.438952740">
        <ele>401.01</ele>
        <time>2015-06-14T07:09:22Z</time>
      </trkpt>
      <trkpt lat="41.632857990" lon="2.438879490">
        <ele>401.01</ele>
        <time>2015-06-14T07:09:28Z</time>
      </trkpt>
      <trkpt lat="41.632825380" lon="2.438852250">
        <ele>400.53</ele>
        <time>2015-06-14T07:09:40Z</time>
      </trkpt>
      <trkpt lat="41.632822530" lon="2.438826600">
        <ele>400.53</ele>
        <time>2015-06-14T07:09:48Z</time>
      </trkpt>
      <trkpt lat="41.632820940" lon="2.438845200">
        <ele>400.53</ele>
        <time>2015-06-14T07:09:52Z</time>
      </trkpt>
      <trkpt lat="41.632836110" lon="2.438953830">
        <ele>400.53</ele>
        <time>2015-06-14T07:09:59Z</time>
      </trkpt>
      <trkpt lat="41.632847170" lon="2.438995240">
        <ele>400.53</ele>
        <time>2015-06-14T07:10:01Z</time>
      </trkpt>
      <trkpt lat="41.632898140" lon="2.439125580">
        <ele>400.53</ele>
        <time>2015-06-14T07:10:08Z</time>
      </trkpt>
      <trkpt lat="41.632920430" lon="2.439209730">
        <ele>400.53</ele>
        <time>2015-06-14T07:10:14Z</time>
      </trkpt>
      <trkpt lat="41.632955550" lon="2.439348790">
        <ele>400.53</ele>
        <time>2015-06-14T07:10:21Z</time>
      </trkpt>
      <trkpt lat="41.632978770" lon="2.439386590">
        <ele>400.53</ele>
        <time>2015-06-14T07:10:32Z</time>
      </trkpt>
      <trkpt lat="41.633004670" lon="2.439419450">
        <ele>400.53</ele>
        <time>2015-06-14T07:10:40Z</time>
      </trkpt>
      <trkpt lat="41.633029060" lon="2.439428330">
        <ele>400.53</ele>
        <time>2015-06-14T07:10:43Z</time>
      </trkpt>
      <trkpt lat="41.633071560" lon="2.439450460">
        <ele>398.12</ele>
        <time>2015-06-14T07:10:46Z</time>
      </trkpt>
      <trkpt lat="41.633178600" lon="2.439476950">
        <ele>394.76</ele>
        <time>2015-06-14T07:10:52Z</time>
      </trkpt>
      <trkpt lat="41.633254120" lon="2.439451050">
        <ele>392.36</ele>
        <time>2015-06-14T07:10:55Z</time>
      </trkpt>
      <trkpt lat="41.633353110" lon="2.439409640">
        <ele>389.95</ele>
        <time>2015-06-14T07:11:00Z</time>
      </trkpt>
      <trkpt lat="41.633409100" lon="2.439416680">
        <ele>388.03</ele>
        <time>2015-06-14T07:11:03Z</time>
      </trkpt>
      <trkpt lat="41.633517390" lon="2.439337310">
        <ele>384.18</ele>
        <time>2015-06-14T07:11:09Z</time>
      </trkpt>
      <trkpt lat="41.633531050" lon="2.439325660">
        <ele>384.18</ele>
        <time>2015-06-14T07:11:10Z</time>
      </trkpt>
      <trkpt lat="41.633650830" lon="2.439326160">
        <ele>380.82</ele>
        <time>2015-06-14T07:11:15Z</time>
      </trkpt>
      <trkpt lat="41.633676060" lon="2.439317940">
        <ele>380.34</ele>
        <time>2015-06-14T07:11:16Z</time>
      </trkpt>
      <trkpt lat="41.633874380" lon="2.439269160">
        <ele>376.49</ele>
        <time>2015-06-14T07:11:22Z</time>
      </trkpt>
      <trkpt lat="41.634000690" lon="2.439238400">
        <ele>374.09</ele>
        <time>2015-06-14T07:11:28Z</time>
      </trkpt>
      <trkpt lat="41.634042940" lon="2.439200430">
        <ele>372.65</ele>
        <time>2015-06-14T07:11:30Z</time>
      </trkpt>
      <trkpt lat="41.634179650" lon="2.439155170">
        <ele>369.76</ele>
        <time>2015-06-14T07:11:37Z</time>
      </trkpt>
      <trkpt lat="41.634217950" lon="2.439160620">
        <ele>369.28</ele>
        <time>2015-06-14T07:11:39Z</time>
      </trkpt>
      <trkpt lat="41.634360020" lon="2.439181650">
        <ele>365.44</ele>
        <time>2015-06-14T07:11:45Z</time>
      </trkpt>
      <trkpt lat="41.634520030" lon="2.439148710">
        <ele>363.04</ele>
        <time>2015-06-14T07:11:52Z</time>
      </trkpt>
      <trkpt lat="41.634537220" lon="2.439155670">
        <ele>363.04</ele>
        <time>2015-06-14T07:11:53Z</time>
      </trkpt>
      <trkpt lat="41.634590020" lon="2.439251980">
        <ele>360.63</ele>
        <time>2015-06-14T07:11:59Z</time>
      </trkpt>
      <trkpt lat="41.634600170" lon="2.439307550">
        <ele>359.19</ele>
        <time>2015-06-14T07:12:06Z</time>
      </trkpt>
      <trkpt lat="41.634617520" lon="2.439333620">
        <ele>359.19</ele>
        <time>2015-06-14T07:12:09Z</time>
      </trkpt>
      <trkpt lat="41.634645930" lon="2.439395230">
        <ele>357.27</ele>
        <time>2015-06-14T07:12:15Z</time>
      </trkpt>
      <trkpt lat="41.634657670" lon="2.439433030">
        <ele>355.83</ele>
        <time>2015-06-14T07:12:18Z</time>
      </trkpt>
      <trkpt lat="41.634656410" lon="2.439506960">
        <ele>354.86</ele>
        <time>2015-06-14T07:12:23Z</time>
      </trkpt>
      <trkpt lat="41.634669990" lon="2.439659170">
        <ele>353.42</ele>
        <time>2015-06-14T07:12:29Z</time>
      </trkpt>
      <trkpt lat="41.634693540" lon="2.439730920">
        <ele>352.94</ele>
        <time>2015-06-14T07:12:32Z</time>
      </trkpt>
      <trkpt lat="41.634729580" lon="2.439809880">
        <ele>351.50</ele>
        <time>2015-06-14T07:12:35Z</time>
      </trkpt>
      <trkpt lat="41.634810300" lon="2.440025630">
        <ele>348.13</ele>
        <time>2015-06-14T07:12:42Z</time>
      </trkpt>
      <trkpt lat="41.634851290" lon="2.440194360">
        <ele>345.73</ele>
        <time>2015-06-14T07:12:47Z</time>
      </trkpt>
      <trkpt lat="41.634863530" lon="2.440222850">
        <ele>344.29</ele>
        <time>2015-06-14T07:12:48Z</time>
      </trkpt>
      <trkpt lat="41.634900070" lon="2.440271130">
        <ele>343.33</ele>
        <time>2015-06-14T07:12:50Z</time>
      </trkpt>
      <trkpt lat="41.634976760" lon="2.440340960">
        <ele>341.89</ele>
        <time>2015-06-14T07:12:55Z</time>
      </trkpt>
      <trkpt lat="41.634986820" lon="2.440335590">
        <ele>341.89</ele>
        <time>2015-06-14T07:12:56Z</time>
      </trkpt>
      <trkpt lat="41.635102580" lon="2.440205250">
        <ele>340.44</ele>
        <time>2015-06-14T07:13:04Z</time>
      </trkpt>
      <trkpt lat="41.635154040" lon="2.440087240">
        <ele>339.48</ele>
        <time>2015-06-14T07:13:09Z</time>
      </trkpt>
      <trkpt lat="41.635250600" lon="2.440010540">
        <ele>338.04</ele>
        <time>2015-06-14T07:13:16Z</time>
      </trkpt>
      <trkpt lat="41.635357550" lon="2.439827980">
        <ele>337.08</ele>
        <time>2015-06-14T07:13:24Z</time>
      </trkpt>
      <trkpt lat="41.635431400" lon="2.439594460">
        <ele>336.12</ele>
        <time>2015-06-14T07:13:31Z</time>
      </trkpt>
      <trkpt lat="41.635432070" lon="2.439356330">
        <ele>335.64</ele>
        <time>2015-06-14T07:13:36Z</time>
      </trkpt>
      <trkpt lat="41.635536590" lon="2.439191800">
        <ele>334.20</ele>
        <time>2015-06-14T07:13:41Z</time>
      </trkpt>
      <trkpt lat="41.635608840" lon="2.439105130">
        <ele>332.27</ele>
        <time>2015-06-14T07:13:44Z</time>
      </trkpt>
      <trkpt lat="41.635711350" lon="2.438959700">
        <ele>329.39</ele>
        <time>2015-06-14T07:13:48Z</time>
      </trkpt>
      <trkpt lat="41.635758210" lon="2.438650410">
        <ele>326.50</ele>
        <time>2015-06-14T07:13:53Z</time>
      </trkpt>
      <trkpt lat="41.635776230" lon="2.438553100">
        <ele>326.50</ele>
        <time>2015-06-14T07:13:54Z</time>
      </trkpt>
      <trkpt lat="41.635811270" lon="2.438298370">
        <ele>324.58</ele>
        <time>2015-06-14T07:13:57Z</time>
      </trkpt>
      <trkpt lat="41.635842200" lon="2.437986810">
        <ele>322.66</ele>
        <time>2015-06-14T07:14:01Z</time>
      </trkpt>
      <trkpt lat="41.635898190" lon="2.437866950">
        <ele>322.18</ele>
        <time>2015-06-14T07:14:03Z</time>
      </trkpt>
      <trkpt lat="41.635995420" lon="2.437533520">
        <ele>318.81</ele>
        <time>2015-06-14T07:14:09Z</time>
      </trkpt>
      <trkpt lat="41.636026770" lon="2.437305370">
        <ele>315.45</ele>
        <time>2015-06-14T07:14:14Z</time>
      </trkpt>
      <trkpt lat="41.636038080" lon="2.437192460">
        <ele>314.01</ele>
        <time>2015-06-14T07:14:17Z</time>
      </trkpt>
      <trkpt lat="41.636007820" lon="2.437047370">
        <ele>313.05</ele>
        <time>2015-06-14T07:14:24Z</time>
      </trkpt>
      <trkpt lat="41.636000950" lon="2.437041590">
        <ele>313.05</ele>
        <time>2015-06-14T07:14:30Z</time>
      </trkpt>
      <trkpt lat="41.635975380" lon="2.437058850">
        <ele>313.53</ele>
        <time>2015-06-14T07:14:37Z</time>
      </trkpt>
      <trkpt lat="41.635954090" lon="2.437054660">
        <ele>314.49</ele>
        <time>2015-06-14T07:14:41Z</time>
      </trkpt>
      <trkpt lat="41.635892740" lon="2.437057260">
        <ele>315.93</ele>
        <time>2015-06-14T07:14:47Z</time>
      </trkpt>
      <trkpt lat="41.635829460" lon="2.437031190">
        <ele>315.93</ele>
        <time>2015-06-14T07:14:55Z</time>
      </trkpt>
      <trkpt lat="41.635810510" lon="2.437036980">
        <ele>316.41</ele>
        <time>2015-06-14T07:15:02Z</time>
      </trkpt>
      <trkpt lat="41.635789310" lon="2.437036730">
        <ele>316.41</ele>
        <time>2015-06-14T07:15:08Z</time>
      </trkpt>
      <trkpt lat="41.635742540" lon="2.437039240">
        <ele>316.89</ele>
        <time>2015-06-14T07:15:12Z</time>
      </trkpt>
      <trkpt lat="41.635671790" lon="2.437044270">
        <ele>317.37</ele>
        <time>2015-06-14T07:15:16Z</time>
      </trkpt>
      <trkpt lat="41.635582610" lon="2.437060530">
        <ele>317.85</ele>
        <time>2015-06-14T07:15:21Z</time>
      </trkpt>
      <trkpt lat="41.635450170" lon="2.437057430">
        <ele>320.74</ele>
        <time>2015-06-14T07:15:32Z</time>
      </trkpt>
      <trkpt lat="41.635355880" lon="2.437041590">
        <ele>322.66</ele>
        <time>2015-06-14T07:15:39Z</time>
      </trkpt>
      <trkpt lat="41.635334670" lon="2.437036810">
        <ele>322.66</ele>
        <time>2015-06-14T07:15:41Z</time>
      </trkpt>
      <trkpt lat="41.635273900" lon="2.437051390">
        <ele>323.62</ele>
        <time>2015-06-14T07:15:45Z</time>
      </trkpt>
      <trkpt lat="41.635208440" lon="2.437095570">
        <ele>324.58</ele>
        <time>2015-06-14T07:15:50Z</time>
      </trkpt>
      <trkpt lat="41.635223110" lon="2.437228670">
        <ele>326.02</ele>
        <time>2015-06-14T07:15:58Z</time>
      </trkpt>
      <trkpt lat="41.635232160" lon="2.437251050">
        <ele>326.50</ele>
        <time>2015-06-14T07:16:00Z</time>
      </trkpt>
      <trkpt lat="41.635234840" lon="2.437352390">
        <ele>326.99</ele>
        <time>2015-06-14T07:16:06Z</time>
      </trkpt>
      <trkpt lat="41.635232580" lon="2.437445590">
        <ele>327.47</ele>
        <time>2015-06-14T07:16:13Z</time>
      </trkpt>
      <trkpt lat="41.635233080" lon="2.437557330">
        <ele>328.43</ele>
        <time>2015-06-14T07:16:20Z</time>
      </trkpt>
      <trkpt lat="41.635158150" lon="2.437716080">
        <ele>330.35</ele>
        <time>2015-06-14T07:16:28Z</time>
      </trkpt>
      <trkpt lat="41.635122610" lon="2.437780280">
        <ele>330.83</ele>
        <time>2015-06-14T07:16:31Z</time>
      </trkpt>
      <trkpt lat="41.635011380" lon="2.437904760">
        <ele>331.79</ele>
        <time>2015-06-14T07:16:40Z</time>
      </trkpt>
      <trkpt lat="41.634952880" lon="2.437924450">
        <ele>333.23</ele>
        <time>2015-06-14T07:16:45Z</time>
      </trkpt>
      <trkpt lat="41.634925720" lon="2.437835940">
        <ele>334.68</ele>
        <time>2015-06-14T07:16:53Z</time>
      </trkpt>
      <trkpt lat="41.634980030" lon="2.437759160">
        <ele>336.12</ele>
        <time>2015-06-14T07:17:00Z</time>
      </trkpt>
      <trkpt lat="41.634988160" lon="2.437630750">
        <ele>338.52</ele>
        <time>2015-06-14T07:17:09Z</time>
      </trkpt>
      <trkpt lat="41.634936780" lon="2.437511310">
        <ele>339.48</ele>
        <time>2015-06-14T07:17:16Z</time>
      </trkpt>
      <trkpt lat="41.634838460" lon="2.437435450">
        <ele>341.41</ele>
        <time>2015-06-14T07:17:25Z</time>
      </trkpt>
      <trkpt lat="41.634737210" lon="2.437369320">
        <ele>343.33</ele>
        <time>2015-06-14T07:17:33Z</time>
      </trkpt>
      <trkpt lat="41.634670830" lon="2.437310230">
        <ele>343.81</ele>
        <time>2015-06-14T07:17:39Z</time>
      </trkpt>
      <trkpt lat="41.634626070" lon="2.437280640">
        <ele>344.29</ele>
        <time>2015-06-14T07:17:42Z</time>
      </trkpt>
      <trkpt lat="41.634593210" lon="2.437108640">
        <ele>344.77</ele>
        <time>2015-06-14T07:17:49Z</time>
      </trkpt>
      <trkpt lat="41.634648610" lon="2.436928180">
        <ele>345.25</ele>
        <time>2015-06-14T07:17:57Z</time>
      </trkpt>
      <trkpt lat="41.634737880" lon="2.436811420">
        <ele>346.21</ele>
        <time>2015-06-14T07:18:05Z</time>
      </trkpt>
      <trkpt lat="41.634821620" lon="2.436672200">
        <ele>347.65</ele>
        <time>2015-06-14T07:18:13Z</time>
      </trkpt>
      <trkpt lat="41.634868140" lon="2.436496680">
        <ele>350.06</ele>
        <time>2015-06-14T07:18:23Z</time>
      </trkpt>
      <trkpt lat="41.634912220" lon="2.436430970">
        <ele>351.02</ele>
        <time>2015-06-14T07:18:31Z</time>
      </trkpt>
      <trkpt lat="41.634955980" lon="2.436401040">
        <ele>351.50</ele>
        <time>2015-06-14T07:18:35Z</time>
      </trkpt>
      <trkpt lat="41.635009290" lon="2.436361400">
        <ele>352.46</ele>
        <time>2015-06-14T07:18:40Z</time>
      </trkpt>
      <trkpt lat="41.635022360" lon="2.436238350">
        <ele>353.42</ele>
        <time>2015-06-14T07:18:47Z</time>
      </trkpt>
      <trkpt lat="41.634934440" lon="2.436064420">
        <ele>354.38</ele>
        <time>2015-06-14T07:18:56Z</time>
      </trkpt>
      <trkpt lat="41.634861090" lon="2.436014550">
        <ele>354.86</ele>
        <time>2015-06-14T07:19:01Z</time>
      </trkpt>
      <trkpt lat="41.634722460" lon="2.436038610">
        <ele>356.79</ele>
        <time>2015-06-14T07:19:10Z</time>
      </trkpt>
      <trkpt lat="41.634655230" lon="2.436068700">
        <ele>357.27</ele>
        <time>2015-06-14T07:19:15Z</time>
      </trkpt>
      <trkpt lat="41.634520120" lon="2.436040620">
        <ele>359.67</ele>
        <time>2015-06-14T07:19:23Z</time>
      </trkpt>
      <trkpt lat="41.634393050" lon="2.436015470">
        <ele>360.15</ele>
        <time>2015-06-14T07:19:30Z</time>
      </trkpt>
      <trkpt lat="41.634295990" lon="2.435998960">
        <ele>361.11</ele>
        <time>2015-06-14T07:19:38Z</time>
      </trkpt>
      <trkpt lat="41.634205550" lon="2.435940200">
        <ele>362.07</ele>
        <time>2015-06-14T07:19:45Z</time>
      </trkpt>
      <trkpt lat="41.634156010" lon="2.435910530">
        <ele>363.04</ele>
        <time>2015-06-14T07:19:48Z</time>
      </trkpt>
      <trkpt lat="41.633997590" lon="2.435828140">
        <ele>365.44</ele>
        <time>2015-06-14T07:19:57Z</time>
      </trkpt>
      <trkpt lat="41.633984850" lon="2.435818420">
        <ele>365.44</ele>
        <time>2015-06-14T07:19:58Z</time>
      </trkpt>
      <trkpt lat="41.633885520" lon="2.435722280">
        <ele>366.88</ele>
        <time>2015-06-14T07:20:06Z</time>
      </trkpt>
      <trkpt lat="41.633796340" lon="2.435636440">
        <ele>368.32</ele>
        <time>2015-06-14T07:20:13Z</time>
      </trkpt>
      <trkpt lat="41.633717550" lon="2.435561510">
        <ele>369.76</ele>
        <time>2015-06-14T07:20:20Z</time>
      </trkpt>
      <trkpt lat="41.633659130" lon="2.435494370">
        <ele>370.73</ele>
        <time>2015-06-14T07:20:27Z</time>
      </trkpt>
      <trkpt lat="41.633589140" lon="2.435406530">
        <ele>372.65</ele>
        <time>2015-06-14T07:20:33Z</time>
      </trkpt>
      <trkpt lat="41.633544970" lon="2.435320870">
        <ele>373.13</ele>
        <time>2015-06-14T07:20:39Z</time>
      </trkpt>
      <trkpt lat="41.633473720" lon="2.435236120">
        <ele>375.05</ele>
        <time>2015-06-14T07:20:45Z</time>
      </trkpt>
      <trkpt lat="41.633438600" lon="2.435153980">
        <ele>376.01</ele>
        <time>2015-06-14T07:20:50Z</time>
      </trkpt>
      <trkpt lat="41.633399540" lon="2.434965720">
        <ele>376.97</ele>
        <time>2015-06-14T07:20:59Z</time>
      </trkpt>
      <trkpt lat="41.633411700" lon="2.434773440">
        <ele>378.42</ele>
        <time>2015-06-14T07:21:07Z</time>
      </trkpt>
      <trkpt lat="41.633397280" lon="2.434601870">
        <ele>379.38</ele>
        <time>2015-06-14T07:21:14Z</time>
      </trkpt>
      <trkpt lat="41.633430390" lon="2.434450820">
        <ele>379.86</ele>
        <time>2015-06-14T07:21:21Z</time>
      </trkpt>
      <trkpt lat="41.633487550" lon="2.434287710">
        <ele>380.34</ele>
        <time>2015-06-14T07:21:29Z</time>
      </trkpt>
      <trkpt lat="41.633509850" lon="2.434250750">
        <ele>380.82</ele>
        <time>2015-06-14T07:21:31Z</time>
      </trkpt>
      <trkpt lat="41.633584030" lon="2.434126610">
        <ele>381.78</ele>
        <time>2015-06-14T07:21:38Z</time>
      </trkpt>
      <trkpt lat="41.633596430" lon="2.434110940">
        <ele>381.78</ele>
        <time>2015-06-14T07:21:39Z</time>
      </trkpt>
      <trkpt lat="41.633658790" lon="2.434041620">
        <ele>383.22</ele>
        <time>2015-06-14T07:21:44Z</time>
      </trkpt>
      <trkpt lat="41.633619820" lon="2.433920250">
        <ele>384.18</ele>
        <time>2015-06-14T07:21:51Z</time>
      </trkpt>
      <trkpt lat="41.633575390" lon="2.433900470">
        <ele>384.66</ele>
        <time>2015-06-14T07:21:54Z</time>
      </trkpt>
      <trkpt lat="41.633544380" lon="2.433905750">
        <ele>385.15</ele>
        <time>2015-06-14T07:21:56Z</time>
      </trkpt>
      <trkpt lat="41.633426950" lon="2.433932070">
        <ele>386.11</ele>
        <time>2015-06-14T07:22:04Z</time>
      </trkpt>
      <trkpt lat="41.633282950" lon="2.433983870">
        <ele>386.11</ele>
        <time>2015-06-14T07:22:10Z</time>
      </trkpt>
      <trkpt lat="41.633159740" lon="2.434095520">
        <ele>386.11</ele>
        <time>2015-06-14T07:22:16Z</time>
      </trkpt>
      <trkpt lat="41.633070380" lon="2.434335990">
        <ele>386.11</ele>
        <time>2015-06-14T07:22:23Z</time>
      </trkpt>
      <trkpt lat="41.633071640" lon="2.434592390">
        <ele>386.11</ele>
        <time>2015-06-14T07:22:31Z</time>
      </trkpt>
      <trkpt lat="41.633081950" lon="2.434822140">
        <ele>386.11</ele>
        <time>2015-06-14T07:22:39Z</time>
      </trkpt>
      <trkpt lat="41.633087740" lon="2.435093130">
        <ele>386.11</ele>
        <time>2015-06-14T07:22:48Z</time>
      </trkpt>
      <trkpt lat="41.633113970" lon="2.435283400">
        <ele>387.07</ele>
        <time>2015-06-14T07:22:55Z</time>
      </trkpt>
      <trkpt lat="41.633134090" lon="2.435476020">
        <ele>389.47</ele>
        <time>2015-06-14T07:23:02Z</time>
      </trkpt>
      <trkpt lat="41.633110280" lon="2.435648010">
        <ele>390.43</ele>
        <time>2015-06-14T07:23:08Z</time>
      </trkpt>
      <trkpt lat="41.633061500" lon="2.435817240">
        <ele>392.36</ele>
        <time>2015-06-14T07:23:15Z</time>
      </trkpt>
      <trkpt lat="41.632994860" lon="2.435962580">
        <ele>393.32</ele>
        <time>2015-06-14T07:23:21Z</time>
      </trkpt>
      <trkpt lat="41.632893190" lon="2.436156540">
        <ele>393.80</ele>
        <time>2015-06-14T07:23:28Z</time>
      </trkpt>
      <trkpt lat="41.632778110" lon="2.436365670">
        <ele>393.80</ele>
        <time>2015-06-14T07:23:35Z</time>
      </trkpt>
      <trkpt lat="41.632620700" lon="2.436476810">
        <ele>394.28</ele>
        <time>2015-06-14T07:23:42Z</time>
      </trkpt>
      <trkpt lat="41.632449540" lon="2.436546970">
        <ele>395.24</ele>
        <time>2015-06-14T07:23:50Z</time>
      </trkpt>
      <trkpt lat="41.632326320" lon="2.436590310">
        <ele>395.72</ele>
        <time>2015-06-14T07:23:56Z</time>
      </trkpt>
      <trkpt lat="41.632231020" lon="2.436626260">
        <ele>397.16</ele>
        <time>2015-06-14T07:24:01Z</time>
      </trkpt>
      <trkpt lat="41.632072850" lon="2.436660460">
        <ele>398.12</ele>
        <time>2015-06-14T07:24:10Z</time>
      </trkpt>
      <trkpt lat="41.631960700" lon="2.436713600">
        <ele>399.57</ele>
        <time>2015-06-14T07:24:17Z</time>
      </trkpt>
      <trkpt lat="41.631849980" lon="2.436817540">
        <ele>401.97</ele>
        <time>2015-06-14T07:24:24Z</time>
      </trkpt>
      <trkpt lat="41.631743950" lon="2.436969000">
        <ele>404.37</ele>
        <time>2015-06-14T07:24:33Z</time>
      </trkpt>
      <trkpt lat="41.631704810" lon="2.437096820">
        <ele>405.33</ele>
        <time>2015-06-14T07:24:39Z</time>
      </trkpt>
      <trkpt lat="41.631616540" lon="2.437072430">
        <ele>406.29</ele>
        <time>2015-06-14T07:24:46Z</time>
      </trkpt>
      <trkpt lat="41.631472210" lon="2.436958020">
        <ele>406.29</ele>
        <time>2015-06-14T07:24:52Z</time>
      </trkpt>
      <trkpt lat="41.631306330" lon="2.436920130">
        <ele>407.26</ele>
        <time>2015-06-14T07:24:58Z</time>
      </trkpt>
      <trkpt lat="41.631231900" lon="2.436900350">
        <ele>407.26</ele>
        <time>2015-06-14T07:25:00Z</time>
      </trkpt>
      <trkpt lat="41.631128380" lon="2.436978810">
        <ele>404.85</ele>
        <time>2015-06-14T07:25:04Z</time>
      </trkpt>
      <trkpt lat="41.631082450" lon="2.437137730">
        <ele>401.49</ele>
        <time>2015-06-14T07:25:09Z</time>
      </trkpt>
      <trkpt lat="41.631063090" lon="2.437241660">
        <ele>400.53</ele>
        <time>2015-06-14T07:25:15Z</time>
      </trkpt>
      <trkpt lat="41.631005750" lon="2.437420200">
        <ele>398.60</ele>
        <time>2015-06-14T07:25:21Z</time>
      </trkpt>
      <trkpt lat="41.630895280" lon="2.437723790">
        <ele>394.76</ele>
        <time>2015-06-14T07:25:26Z</time>
      </trkpt>
      <trkpt lat="41.630859150" lon="2.437950940">
        <ele>392.84</ele>
        <time>2015-06-14T07:25:30Z</time>
      </trkpt>
      <trkpt lat="41.630782880" lon="2.437992350">
        <ele>392.36</ele>
        <time>2015-06-14T07:25:32Z</time>
      </trkpt>
      <trkpt lat="41.630545340" lon="2.438015980">
        <ele>390.91</ele>
        <time>2015-06-14T07:25:37Z</time>
      </trkpt>
      <trkpt lat="41.630311150" lon="2.438188730">
        <ele>387.07</ele>
        <time>2015-06-14T07:25:41Z</time>
      </trkpt>
      <trkpt lat="41.630205790" lon="2.438326450">
        <ele>385.15</ele>
        <time>2015-06-14T07:25:43Z</time>
      </trkpt>
      <trkpt lat="41.630160770" lon="2.438448410">
        <ele>384.18</ele>
        <time>2015-06-14T07:25:45Z</time>
      </trkpt>
      <trkpt lat="41.630157420" lon="2.438584860">
        <ele>382.74</ele>
        <time>2015-06-14T07:25:47Z</time>
      </trkpt>
      <trkpt lat="41.630123140" lon="2.438759880">
        <ele>380.34</ele>
        <time>2015-06-14T07:25:50Z</time>
      </trkpt>
      <trkpt lat="41.630003870" lon="2.438704640">
        <ele>376.97</ele>
        <time>2015-06-14T07:25:54Z</time>
      </trkpt>
      <trkpt lat="41.629802950" lon="2.438294180">
        <ele>373.61</ele>
        <time>2015-06-14T07:26:00Z</time>
      </trkpt>
      <trkpt lat="41.629833210" lon="2.438039280">
        <ele>369.76</ele>
        <time>2015-06-14T07:26:04Z</time>
      </trkpt>
      <trkpt lat="41.629835560" lon="2.437988570">
        <ele>368.80</ele>
        <time>2015-06-14T07:26:06Z</time>
      </trkpt>
      <trkpt lat="41.629741010" lon="2.437928810">
        <ele>366.40</ele>
        <time>2015-06-14T07:26:10Z</time>
      </trkpt>
      <trkpt lat="41.629712010" lon="2.437952450">
        <ele>366.40</ele>
        <time>2015-06-14T07:26:11Z</time>
      </trkpt>
      <trkpt lat="41.629656020" lon="2.438016740">
        <ele>365.92</ele>
        <time>2015-06-14T07:26:13Z</time>
      </trkpt>
      <trkpt lat="41.629604470" lon="2.438032500">
        <ele>364.96</ele>
        <time>2015-06-14T07:26:15Z</time>
      </trkpt>
      <trkpt lat="41.629583430" lon="2.437880620">
        <ele>363.04</ele>
        <time>2015-06-14T07:26:18Z</time>
      </trkpt>
      <trkpt lat="41.629657780" lon="2.437655480">
        <ele>361.11</ele>
        <time>2015-06-14T07:26:22Z</time>
      </trkpt>
      <trkpt lat="41.629707900" lon="2.437555150">
        <ele>359.67</ele>
        <time>2015-06-14T07:26:24Z</time>
      </trkpt>
      <trkpt lat="41.629760540" lon="2.437456320">
        <ele>358.23</ele>
        <time>2015-06-14T07:26:27Z</time>
      </trkpt>
      <trkpt lat="41.629842430" lon="2.437379380">
        <ele>356.31</ele>
        <time>2015-06-14T07:26:31Z</time>
      </trkpt>
      <trkpt lat="41.629870430" lon="2.437312150">
        <ele>355.83</ele>
        <time>2015-06-14T07:26:33Z</time>
      </trkpt>
      <trkpt lat="41.629816610" lon="2.437193630">
        <ele>355.83</ele>
        <time>2015-06-14T07:26:38Z</time>
      </trkpt>
      <trkpt lat="41.629793230" lon="2.437171840">
        <ele>355.83</ele>
        <time>2015-06-14T07:26:39Z</time>
      </trkpt>
      <trkpt lat="41.629740760" lon="2.437109480">
        <ele>354.86</ele>
        <time>2015-06-14T07:26:45Z</time>
      </trkpt>
      <trkpt lat="41.629705550" lon="2.437076540">
        <ele>354.86</ele>
        <time>2015-06-14T07:26:57Z</time>
      </trkpt>
      <trkpt lat="41.629583850" lon="2.437049880">
        <ele>352.94</ele>
        <time>2015-06-14T07:27:02Z</time>
      </trkpt>
      <trkpt lat="41.629386620" lon="2.437026500">
        <ele>350.06</ele>
        <time>2015-06-14T07:27:08Z</time>
      </trkpt>
      <trkpt lat="41.629226780" lon="2.436916360">
        <ele>346.69</ele>
        <time>2015-06-14T07:27:13Z</time>
      </trkpt>
      <trkpt lat="41.629109600" lon="2.436829270">
        <ele>342.85</ele>
        <time>2015-06-14T07:27:17Z</time>
      </trkpt>
      <trkpt lat="41.629034160" lon="2.436763730">
        <ele>341.41</ele>
        <time>2015-06-14T07:27:19Z</time>
      </trkpt>
      <trkpt lat="41.628885300" lon="2.436513860">
        <ele>336.60</ele>
        <time>2015-06-14T07:27:25Z</time>
      </trkpt>
      <trkpt lat="41.628812800" lon="2.436421330">
        <ele>336.12</ele>
        <time>2015-06-14T07:27:27Z</time>
      </trkpt>
      <trkpt lat="41.628677010" lon="2.436407080">
        <ele>334.68</ele>
        <time>2015-06-14T07:27:30Z</time>
      </trkpt>
      <trkpt lat="41.628613640" lon="2.436442780">
        <ele>333.23</ele>
        <time>2015-06-14T07:27:32Z</time>
      </trkpt>
      <trkpt lat="41.628594360" lon="2.436364580">
        <ele>331.79</ele>
        <time>2015-06-14T07:27:37Z</time>
      </trkpt>
      <trkpt lat="41.628617580" lon="2.436336170">
        <ele>331.79</ele>
        <time>2015-06-14T07:27:38Z</time>
      </trkpt>
      <trkpt lat="41.628744820" lon="2.436188640">
        <ele>329.39</ele>
        <time>2015-06-14T07:27:43Z</time>
      </trkpt>
      <trkpt lat="41.628770470" lon="2.436151850">
        <ele>328.91</ele>
        <time>2015-06-14T07:27:45Z</time>
      </trkpt>
      <trkpt lat="41.628752950" lon="2.435985720">
        <ele>325.06</ele>
        <time>2015-06-14T07:27:51Z</time>
      </trkpt>
      <trkpt lat="41.628750940" lon="2.435959150">
        <ele>324.58</ele>
        <time>2015-06-14T07:27:58Z</time>
      </trkpt>
      <trkpt lat="41.628724870" lon="2.435945230">
        <ele>324.58</ele>
        <time>2015-06-14T07:28:02Z</time>
      </trkpt>
      <trkpt lat="41.628664350" lon="2.435960990">
        <ele>324.58</ele>
        <time>2015-06-14T07:28:08Z</time>
      </trkpt>
      <trkpt lat="41.628630490" lon="2.435958900">
        <ele>324.58</ele>
        <time>2015-06-14T07:28:16Z</time>
      </trkpt>
      <trkpt lat="41.628655470" lon="2.435949510">
        <ele>324.58</ele>
        <time>2015-06-14T07:28:21Z</time>
      </trkpt>
      <trkpt lat="41.628654630" lon="2.435947250">
        <ele>324.58</ele>
        <time>2015-06-14T07:28:22Z</time>
      </trkpt>
      <trkpt lat="41.628740210" lon="2.435900810">
        <ele>324.58</ele>
        <time>2015-06-14T07:28:29Z</time>
      </trkpt>
      <trkpt lat="41.628826040" lon="2.435881780">
        <ele>324.58</ele>
        <time>2015-06-14T07:28:37Z</time>
      </trkpt>
      <trkpt lat="41.628908100" lon="2.435850770">
        <ele>324.58</ele>
        <time>2015-06-14T07:28:44Z</time>
      </trkpt>
      <trkpt lat="41.628958470" lon="2.435830320">
        <ele>324.58</ele>
        <time>2015-06-14T07:28:51Z</time>
      </trkpt>
      <trkpt lat="41.629013290" lon="2.435802150">
        <ele>324.58</ele>
        <time>2015-06-14T07:28:57Z</time>
      </trkpt>
      <trkpt lat="41.629079010" lon="2.435737870">
        <ele>324.58</ele>
        <time>2015-06-14T07:29:03Z</time>
      </trkpt>
      <trkpt lat="41.629203560" lon="2.435609290">
        <ele>323.62</ele>
        <time>2015-06-14T07:29:08Z</time>
      </trkpt>
      <trkpt lat="41.629293750" lon="2.435514740">
        <ele>323.62</ele>
        <time>2015-06-14T07:29:13Z</time>
      </trkpt>
      <trkpt lat="41.629344040" lon="2.435355900">
        <ele>323.14</ele>
        <time>2015-06-14T07:29:18Z</time>
      </trkpt>
      <trkpt lat="41.629405150" lon="2.435242500">
        <ele>320.74</ele>
        <time>2015-06-14T07:29:20Z</time>
      </trkpt>
      <trkpt lat="41.629499440" lon="2.435085250">
        <ele>319.78</ele>
        <time>2015-06-14T07:29:23Z</time>
      </trkpt>
      <trkpt lat="41.629633890" lon="2.434765730">
        <ele>317.37</ele>
        <time>2015-06-14T07:29:28Z</time>
      </trkpt>
      <trkpt lat="41.629670350" lon="2.434700190">
        <ele>316.89</ele>
        <time>2015-06-14T07:29:29Z</time>
      </trkpt>
      <trkpt lat="41.629773780" lon="2.434417630">
        <ele>313.05</ele>
        <time>2015-06-14T07:29:34Z</time>
      </trkpt>
      <trkpt lat="41.629796660" lon="2.434343620">
        <ele>312.57</ele>
        <time>2015-06-14T07:29:37Z</time>
      </trkpt>
      <trkpt lat="41.629780740" lon="2.434281430">
        <ele>312.57</ele>
        <time>2015-06-14T07:29:44Z</time>
      </trkpt>
      <trkpt lat="41.629775040" lon="2.434252760">
        <ele>312.57</ele>
        <time>2015-06-14T07:29:55Z</time>
      </trkpt>
      <trkpt lat="41.629766070" lon="2.434232980">
        <ele>312.09</ele>
        <time>2015-06-14T07:30:03Z</time>
      </trkpt>
      <trkpt lat="41.629693820" lon="2.434242530">
        <ele>313.05</ele>
        <time>2015-06-14T07:30:09Z</time>
      </trkpt>
      <trkpt lat="41.629649650" lon="2.434341940">
        <ele>314.97</ele>
        <time>2015-06-14T07:30:18Z</time>
      </trkpt>
      <trkpt lat="41.629597430" lon="2.434459790">
        <ele>315.93</ele>
        <time>2015-06-14T07:30:25Z</time>
      </trkpt>
      <trkpt lat="41.629547470" lon="2.434565490">
        <ele>316.41</ele>
        <time>2015-06-14T07:30:31Z</time>
      </trkpt>
      <trkpt lat="41.629444710" lon="2.434732120">
        <ele>316.89</ele>
        <time>2015-06-14T07:30:38Z</time>
      </trkpt>
      <trkpt lat="41.629395420" lon="2.434835640">
        <ele>316.89</ele>
        <time>2015-06-14T07:30:43Z</time>
      </trkpt>
      <trkpt lat="41.629373460" lon="2.434945020">
        <ele>316.89</ele>
        <time>2015-06-14T07:30:49Z</time>
      </trkpt>
      <trkpt lat="41.629266510" lon="2.435071250">
        <ele>317.85</ele>
        <time>2015-06-14T07:30:57Z</time>
      </trkpt>
      <trkpt lat="41.629202970" lon="2.435131430">
        <ele>319.30</ele>
        <time>2015-06-14T07:31:03Z</time>
      </trkpt>
      <trkpt lat="41.629118820" lon="2.435200000">
        <ele>319.78</ele>
        <time>2015-06-14T07:31:09Z</time>
      </trkpt>
      <trkpt lat="41.629098870" lon="2.435205870">
        <ele>320.74</ele>
        <time>2015-06-14T07:31:11Z</time>
      </trkpt>
      <trkpt lat="41.629052270" lon="2.435177540">
        <ele>322.18</ele>
        <time>2015-06-14T07:31:16Z</time>
      </trkpt>
      <trkpt lat="41.629052520" lon="2.435146190">
        <ele>323.14</ele>
        <time>2015-06-14T07:31:20Z</time>
      </trkpt>
      <trkpt lat="41.629057970" lon="2.435055330">
        <ele>324.10</ele>
        <time>2015-06-14T07:31:26Z</time>
      </trkpt>
      <trkpt lat="41.629093170" lon="2.434948040">
        <ele>324.58</ele>
        <time>2015-06-14T07:31:31Z</time>
      </trkpt>
      <trkpt lat="41.629069620" lon="2.434832450">
        <ele>324.58</ele>
        <time>2015-06-14T07:31:36Z</time>
      </trkpt>
      <trkpt lat="41.629138520" lon="2.434672440">
        <ele>325.54</ele>
        <time>2015-06-14T07:31:45Z</time>
      </trkpt>
      <trkpt lat="41.629243710" lon="2.434503300">
        <ele>328.43</ele>
        <time>2015-06-14T07:31:55Z</time>
      </trkpt>
      <trkpt lat="41.629289310" lon="2.434292740">
        <ele>329.39</ele>
        <time>2015-06-14T07:32:03Z</time>
      </trkpt>
      <trkpt lat="41.629302550" lon="2.434114290">
        <ele>330.35</ele>
        <time>2015-06-14T07:32:10Z</time>
      </trkpt>
      <trkpt lat="41.629324180" lon="2.433924940">
        <ele>330.83</ele>
        <time>2015-06-14T07:32:17Z</time>
      </trkpt>
      <trkpt lat="41.629311690" lon="2.433659740">
        <ele>331.79</ele>
        <time>2015-06-14T07:32:25Z</time>
      </trkpt>
      <trkpt lat="41.629355190" lon="2.433401490">
        <ele>332.27</ele>
        <time>2015-06-14T07:32:32Z</time>
      </trkpt>
      <trkpt lat="41.629351840" lon="2.433370560">
        <ele>332.75</ele>
        <time>2015-06-14T07:32:33Z</time>
      </trkpt>
      <trkpt lat="41.629161230" lon="2.433143750">
        <ele>332.75</ele>
        <time>2015-06-14T07:32:42Z</time>
      </trkpt>
      <trkpt lat="41.629068450" lon="2.433021790">
        <ele>333.71</ele>
        <time>2015-06-14T07:32:48Z</time>
      </trkpt>
      <trkpt lat="41.628909270" lon="2.432895140">
        <ele>334.20</ele>
        <time>2015-06-14T07:32:56Z</time>
      </trkpt>
      <trkpt lat="41.628808770" lon="2.432859440">
        <ele>335.16</ele>
        <time>2015-06-14T07:33:03Z</time>
      </trkpt>
      <trkpt lat="41.628690920" lon="2.432844940">
        <ele>336.12</ele>
        <time>2015-06-14T07:33:10Z</time>
      </trkpt>
      <trkpt lat="41.628674750" lon="2.432829850">
        <ele>336.12</ele>
        <time>2015-06-14T07:33:11Z</time>
      </trkpt>
      <trkpt lat="41.628651030" lon="2.432773190">
        <ele>336.12</ele>
        <time>2015-06-14T07:33:15Z</time>
      </trkpt>
      <trkpt lat="41.628668290" lon="2.432681490">
        <ele>335.64</ele>
        <time>2015-06-14T07:33:22Z</time>
      </trkpt>
      <trkpt lat="41.628672990" lon="2.432674360">
        <ele>335.64</ele>
        <time>2015-06-14T07:33:23Z</time>
      </trkpt>
      <trkpt lat="41.628787060" lon="2.432596920">
        <ele>334.68</ele>
        <time>2015-06-14T07:33:32Z</time>
      </trkpt>
      <trkpt lat="41.628917150" lon="2.432519380">
        <ele>334.20</ele>
        <time>2015-06-14T07:33:39Z</time>
      </trkpt>
      <trkpt lat="41.628981940" lon="2.432479230">
        <ele>334.20</ele>
        <time>2015-06-14T07:33:43Z</time>
      </trkpt>
      <trkpt lat="41.629034160" lon="2.432341690">
        <ele>334.20</ele>
        <time>2015-06-14T07:33:50Z</time>
      </trkpt>
      <trkpt lat="41.629026120" lon="2.432308490">
        <ele>334.20</ele>
        <time>2015-06-14T07:33:52Z</time>
      </trkpt>
      <trkpt lat="41.629007840" lon="2.432268090">
        <ele>334.20</ele>
        <time>2015-06-14T07:33:54Z</time>
      </trkpt>
      <trkpt lat="41.628906840" lon="2.432186790">
        <ele>335.16</ele>
        <time>2015-06-14T07:34:00Z</time>
      </trkpt>
      <trkpt lat="41.628747670" lon="2.432111770">
        <ele>336.12</ele>
        <time>2015-06-14T07:34:10Z</time>
      </trkpt>
      <trkpt lat="41.628637780" lon="2.432038090">
        <ele>336.60</ele>
        <time>2015-06-14T07:34:17Z</time>
      </trkpt>
      <trkpt lat="41.628473920" lon="2.431941620">
        <ele>337.56</ele>
        <time>2015-06-14T07:34:26Z</time>
      </trkpt>
      <trkpt lat="41.628328570" lon="2.431764090">
        <ele>334.68</ele>
        <time>2015-06-14T07:34:32Z</time>
      </trkpt>
      <trkpt lat="41.628375430" lon="2.431466870">
        <ele>333.71</ele>
        <time>2015-06-14T07:34:38Z</time>
      </trkpt>
      <trkpt lat="41.628423460" lon="2.431409530">
        <ele>333.71</ele>
        <time>2015-06-14T07:34:40Z</time>
      </trkpt>
      <trkpt lat="41.628569300" lon="2.431199230">
        <ele>335.16</ele>
        <time>2015-06-14T07:34:49Z</time>
      </trkpt>
      <trkpt lat="41.628654300" lon="2.431024890">
        <ele>336.12</ele>
        <time>2015-06-14T07:34:56Z</time>
      </trkpt>
      <trkpt lat="41.628674330" lon="2.430977780">
        <ele>336.12</ele>
        <time>2015-06-14T07:34:58Z</time>
      </trkpt>
      <trkpt lat="41.628683880" lon="2.430898990">
        <ele>336.60</ele>
        <time>2015-06-14T07:35:01Z</time>
      </trkpt>
      <trkpt lat="41.628813050" lon="2.430710230">
        <ele>336.60</ele>
        <time>2015-06-14T07:35:09Z</time>
      </trkpt>
      <trkpt lat="41.628858230" lon="2.430509230">
        <ele>338.04</ele>
        <time>2015-06-14T07:35:17Z</time>
      </trkpt>
      <trkpt lat="41.628828810" lon="2.430252250">
        <ele>339.00</ele>
        <time>2015-06-14T07:35:25Z</time>
      </trkpt>
      <trkpt lat="41.628726970" lon="2.430066080">
        <ele>339.48</ele>
        <time>2015-06-14T07:35:32Z</time>
      </trkpt>
      <trkpt lat="41.628667290" lon="2.429975810">
        <ele>339.00</ele>
        <time>2015-06-14T07:35:36Z</time>
      </trkpt>
      <trkpt lat="41.628667120" lon="2.429801800">
        <ele>339.48</ele>
        <time>2015-06-14T07:35:44Z</time>
      </trkpt>
      <trkpt lat="41.628727800" lon="2.429668450">
        <ele>339.96</ele>
        <time>2015-06-14T07:35:51Z</time>
      </trkpt>
      <trkpt lat="41.628798880" lon="2.429544900">
        <ele>339.96</ele>
        <time>2015-06-14T07:35:58Z</time>
      </trkpt>
      <trkpt lat="41.628869540" lon="2.429347420">
        <ele>340.44</ele>
        <time>2015-06-14T07:36:06Z</time>
      </trkpt>
      <trkpt lat="41.628909440" lon="2.429150110">
        <ele>340.44</ele>
        <time>2015-06-14T07:36:14Z</time>
      </trkpt>
      <trkpt lat="41.628946990" lon="2.428935950">
        <ele>341.41</ele>
        <time>2015-06-14T07:36:22Z</time>
      </trkpt>
      <trkpt lat="41.628980350" lon="2.428742080">
        <ele>341.89</ele>
        <time>2015-06-14T07:36:30Z</time>
      </trkpt>
      <trkpt lat="41.629016390" lon="2.428512580">
        <ele>342.37</ele>
        <time>2015-06-14T07:36:37Z</time>
      </trkpt>
      <trkpt lat="41.629068780" lon="2.428370510">
        <ele>342.37</ele>
        <time>2015-06-14T07:36:42Z</time>
      </trkpt>
      <trkpt lat="41.629133660" lon="2.428215860">
        <ele>342.85</ele>
        <time>2015-06-14T07:36:48Z</time>
      </trkpt>
      <trkpt lat="41.629213280" lon="2.428110000">
        <ele>343.81</ele>
        <time>2015-06-14T07:36:54Z</time>
      </trkpt>
      <trkpt lat="41.629341860" lon="2.428012010">
        <ele>344.77</ele>
        <time>2015-06-14T07:37:02Z</time>
      </trkpt>
      <trkpt lat="41.629470520" lon="2.427824010">
        <ele>345.73</ele>
        <time>2015-06-14T07:37:10Z</time>
      </trkpt>
      <trkpt lat="41.629562980" lon="2.427660310">
        <ele>346.21</ele>
        <time>2015-06-14T07:37:16Z</time>
      </trkpt>
      <trkpt lat="41.629595500" lon="2.427433240">
        <ele>346.21</ele>
        <time>2015-06-14T07:37:22Z</time>
      </trkpt>
      <trkpt lat="41.629599270" lon="2.427214560">
        <ele>346.21</ele>
        <time>2015-06-14T07:37:28Z</time>
      </trkpt>
      <trkpt lat="41.629681410" lon="2.426965620">
        <ele>346.21</ele>
        <time>2015-06-14T07:37:34Z</time>
      </trkpt>
      <trkpt lat="41.629798510" lon="2.426774010">
        <ele>347.65</ele>
        <time>2015-06-14T07:37:40Z</time>
      </trkpt>
      <trkpt lat="41.629925160" lon="2.426536460">
        <ele>348.13</ele>
        <time>2015-06-14T07:37:47Z</time>
      </trkpt>
      <trkpt lat="41.629974360" lon="2.426408470">
        <ele>348.13</ele>
        <time>2015-06-14T07:37:51Z</time>
      </trkpt>
      <trkpt lat="41.629910070" lon="2.426281070">
        <ele>348.62</ele>
        <time>2015-06-14T07:37:56Z</time>
      </trkpt>
      <trkpt lat="41.629836810" lon="2.426263880">
        <ele>348.62</ele>
        <time>2015-06-14T07:37:59Z</time>
      </trkpt>
      <trkpt lat="41.629645040" lon="2.426206890">
        <ele>347.17</ele>
        <time>2015-06-14T07:38:05Z</time>
      </trkpt>
      <trkpt lat="41.629616450" lon="2.426171680">
        <ele>347.17</ele>
        <time>2015-06-14T07:38:06Z</time>
      </trkpt>
      <trkpt lat="41.629645120" lon="2.425985350">
        <ele>347.17</ele>
        <time>2015-06-14T07:38:11Z</time>
      </trkpt>
      <trkpt lat="41.629809740" lon="2.425761720">
        <ele>347.17</ele>
        <time>2015-06-14T07:38:18Z</time>
      </trkpt>
      <trkpt lat="41.629968410" lon="2.425333240">
        <ele>348.62</ele>
        <time>2015-06-14T07:38:27Z</time>
      </trkpt>
      <trkpt lat="41.629972100" lon="2.425278680">
        <ele>348.62</ele>
        <time>2015-06-14T07:38:28Z</time>
      </trkpt>
      <trkpt lat="41.629978800" lon="2.425080780">
        <ele>350.06</ele>
        <time>2015-06-14T07:38:32Z</time>
      </trkpt>
      <trkpt lat="41.629824830" lon="2.424658080">
        <ele>350.06</ele>
        <time>2015-06-14T07:38:41Z</time>
      </trkpt>
      <trkpt lat="41.629692650" lon="2.424497060">
        <ele>350.54</ele>
        <time>2015-06-14T07:38:46Z</time>
      </trkpt>
      <trkpt lat="41.629730450" lon="2.424316680">
        <ele>350.54</ele>
        <time>2015-06-14T07:38:51Z</time>
      </trkpt>
      <trkpt lat="41.629897750" lon="2.424121390">
        <ele>351.50</ele>
        <time>2015-06-14T07:38:58Z</time>
      </trkpt>
      <trkpt lat="41.630012580" lon="2.423975460">
        <ele>352.46</ele>
        <time>2015-06-14T07:39:03Z</time>
      </trkpt>
      <trkpt lat="41.630026580" lon="2.423926420">
        <ele>352.94</ele>
        <time>2015-06-14T07:39:04Z</time>
      </trkpt>
      <trkpt lat="41.629960030" lon="2.423795750">
        <ele>353.42</ele>
        <time>2015-06-14T07:39:08Z</time>
      </trkpt>
      <trkpt lat="41.629730110" lon="2.423611180">
        <ele>353.90</ele>
        <time>2015-06-14T07:39:15Z</time>
      </trkpt>
      <trkpt lat="41.629476220" lon="2.423336250">
        <ele>354.38</ele>
        <time>2015-06-14T07:39:23Z</time>
      </trkpt>
      <trkpt lat="41.629313360" lon="2.423117990">
        <ele>355.83</ele>
        <time>2015-06-14T07:39:30Z</time>
      </trkpt>
      <trkpt lat="41.629134750" lon="2.422935930">
        <ele>357.27</ele>
        <time>2015-06-14T07:39:37Z</time>
      </trkpt>
      <trkpt lat="41.629016980" lon="2.422858820">
        <ele>358.23</ele>
        <time>2015-06-14T07:39:41Z</time>
      </trkpt>
      <trkpt lat="41.628989490" lon="2.422697470">
        <ele>358.71</ele>
        <time>2015-06-14T07:39:45Z</time>
      </trkpt>
      <trkpt lat="41.629006750" lon="2.422379380">
        <ele>361.11</ele>
        <time>2015-06-14T07:39:53Z</time>
      </trkpt>
      <trkpt lat="41.628984210" lon="2.422199250">
        <ele>361.11</ele>
        <time>2015-06-14T07:39:57Z</time>
      </trkpt>
      <trkpt lat="41.628953450" lon="2.421998500">
        <ele>361.11</ele>
        <time>2015-06-14T07:40:01Z</time>
      </trkpt>
      <trkpt lat="41.628985380" lon="2.421760540">
        <ele>360.63</ele>
        <time>2015-06-14T07:40:08Z</time>
      </trkpt>
      <trkpt lat="41.629084790" lon="2.421530710">
        <ele>362.07</ele>
        <time>2015-06-14T07:40:15Z</time>
      </trkpt>
      <trkpt lat="41.629087470" lon="2.421473710">
        <ele>362.07</ele>
        <time>2015-06-14T07:40:18Z</time>
      </trkpt>
      <trkpt lat="41.629096780" lon="2.421427190">
        <ele>362.07</ele>
        <time>2015-06-14T07:40:25Z</time>
      </trkpt>
      <trkpt lat="41.629109520" lon="2.421393160">
        <ele>362.07</ele>
        <time>2015-06-14T07:40:35Z</time>
      </trkpt>
      <trkpt lat="41.629274720" lon="2.421355610">
        <ele>360.15</ele>
        <time>2015-06-14T07:40:42Z</time>
      </trkpt>
      <trkpt lat="41.629383270" lon="2.421352260">
        <ele>358.71</ele>
        <time>2015-06-14T07:40:45Z</time>
      </trkpt>
      <trkpt lat="41.629588790" lon="2.421393750">
        <ele>355.34</ele>
        <time>2015-06-14T07:40:51Z</time>
      </trkpt>
      <trkpt lat="41.629686610" lon="2.421440430">
        <ele>353.90</ele>
        <time>2015-06-14T07:40:54Z</time>
      </trkpt>
      <trkpt lat="41.629794740" lon="2.421472960">
        <ele>351.98</ele>
        <time>2015-06-14T07:40:58Z</time>
      </trkpt>
      <trkpt lat="41.629876540" lon="2.421495000">
        <ele>350.54</ele>
        <time>2015-06-14T07:41:01Z</time>
      </trkpt>
      <trkpt lat="41.629897500" lon="2.421491820">
        <ele>350.06</ele>
        <time>2015-06-14T07:41:02Z</time>
      </trkpt>
      <trkpt lat="41.629999420" lon="2.421513440">
        <ele>349.10</ele>
        <time>2015-06-14T07:41:06Z</time>
      </trkpt>
      <trkpt lat="41.630088440" lon="2.421557530">
        <ele>348.13</ele>
        <time>2015-06-14T07:41:10Z</time>
      </trkpt>
      <trkpt lat="41.630133530" lon="2.421499860">
        <ele>347.17</ele>
        <time>2015-06-14T07:41:15Z</time>
      </trkpt>
      <trkpt lat="41.630143090" lon="2.421499020">
        <ele>347.17</ele>
        <time>2015-06-14T07:41:16Z</time>
      </trkpt>
      <trkpt lat="41.630168230" lon="2.421511010">
        <ele>346.69</ele>
        <time>2015-06-14T07:41:23Z</time>
      </trkpt>
      <trkpt lat="41.630152900" lon="2.421497600">
        <ele>346.69</ele>
        <time>2015-06-14T07:41:33Z</time>
      </trkpt>
      <trkpt lat="41.630145850" lon="2.421491310">
        <ele>346.69</ele>
        <time>2015-06-14T07:41:36Z</time>
      </trkpt>
      <trkpt lat="41.630043430" lon="2.421468350">
        <ele>348.13</ele>
        <time>2015-06-14T07:41:44Z</time>
      </trkpt>
      <trkpt lat="41.629876960" lon="2.421409920">
        <ele>350.54</ele>
        <time>2015-06-14T07:41:53Z</time>
      </trkpt>
      <trkpt lat="41.629880820" lon="2.421349070">
        <ele>351.02</ele>
        <time>2015-06-14T07:41:58Z</time>
      </trkpt>
      <trkpt lat="41.629878640" lon="2.421347310">
        <ele>351.02</ele>
        <time>2015-06-14T07:42:04Z</time>
      </trkpt>
      <trkpt lat="41.629926920" lon="2.421320320">
        <ele>349.58</ele>
        <time>2015-06-14T07:42:14Z</time>
      </trkpt>
      <trkpt lat="41.629945860" lon="2.421308170">
        <ele>349.58</ele>
        <time>2015-06-14T07:42:15Z</time>
      </trkpt>
      <trkpt lat="41.630072180" lon="2.421215210">
        <ele>346.21</ele>
        <time>2015-06-14T07:42:20Z</time>
      </trkpt>
      <trkpt lat="41.630157000" lon="2.421174980">
        <ele>345.25</ele>
        <time>2015-06-14T07:42:22Z</time>
      </trkpt>
      <trkpt lat="41.630326990" lon="2.421040450">
        <ele>344.77</ele>
        <time>2015-06-14T07:42:28Z</time>
      </trkpt>
      <trkpt lat="41.630396050" lon="2.420952520">
        <ele>344.29</ele>
        <time>2015-06-14T07:42:31Z</time>
      </trkpt>
      <trkpt lat="41.630480800" lon="2.420645750">
        <ele>342.37</ele>
        <time>2015-06-14T07:42:37Z</time>
      </trkpt>
      <trkpt lat="41.630431090" lon="2.420437540">
        <ele>341.89</ele>
        <time>2015-06-14T07:42:41Z</time>
      </trkpt>
      <trkpt lat="41.630398650" lon="2.420353050">
        <ele>341.89</ele>
        <time>2015-06-14T07:42:43Z</time>
      </trkpt>
      <trkpt lat="41.630298740" lon="2.420273920">
        <ele>341.41</ele>
        <time>2015-06-14T07:42:46Z</time>
      </trkpt>
      <trkpt lat="41.629994140" lon="2.420051130">
        <ele>340.44</ele>
        <time>2015-06-14T07:42:54Z</time>
      </trkpt>
      <trkpt lat="41.629848050" lon="2.419828090">
        <ele>342.37</ele>
        <time>2015-06-14T07:43:01Z</time>
      </trkpt>
      <trkpt lat="41.629730360" lon="2.419678810">
        <ele>343.81</ele>
        <time>2015-06-14T07:43:08Z</time>
      </trkpt>
      <trkpt lat="41.629543780" lon="2.419514020">
        <ele>344.77</ele>
        <time>2015-06-14T07:43:15Z</time>
      </trkpt>
      <trkpt lat="41.629358120" lon="2.419419310">
        <ele>345.73</ele>
        <time>2015-06-14T07:43:22Z</time>
      </trkpt>
      <trkpt lat="41.629310430" lon="2.419318970">
        <ele>346.21</ele>
        <time>2015-06-14T07:43:26Z</time>
      </trkpt>
      <trkpt lat="41.629331720" lon="2.419167350">
        <ele>346.69</ele>
        <time>2015-06-14T07:43:32Z</time>
      </trkpt>
      <trkpt lat="41.629406570" lon="2.419008510">
        <ele>347.65</ele>
        <time>2015-06-14T07:43:40Z</time>
      </trkpt>
      <trkpt lat="41.629581500" lon="2.418898370">
        <ele>349.10</ele>
        <time>2015-06-14T07:43:49Z</time>
      </trkpt>
      <trkpt lat="41.629748220" lon="2.418799460">
        <ele>349.58</ele>
        <time>2015-06-14T07:43:56Z</time>
      </trkpt>
      <trkpt lat="41.629930610" lon="2.418739790">
        <ele>350.54</ele>
        <time>2015-06-14T07:44:03Z</time>
      </trkpt>
      <trkpt lat="41.630161190" lon="2.418656800">
        <ele>352.46</ele>
        <time>2015-06-14T07:44:12Z</time>
      </trkpt>
      <trkpt lat="41.630316090" lon="2.418549100">
        <ele>352.94</ele>
        <time>2015-06-14T07:44:18Z</time>
      </trkpt>
      <trkpt lat="41.630409380" lon="2.418362100">
        <ele>353.42</ele>
        <time>2015-06-14T07:44:23Z</time>
      </trkpt>
      <trkpt lat="41.630535190" lon="2.418155480">
        <ele>353.42</ele>
        <time>2015-06-14T07:44:30Z</time>
      </trkpt>
      <trkpt lat="41.630696710" lon="2.417944090">
        <ele>353.90</ele>
        <time>2015-06-14T07:44:37Z</time>
      </trkpt>
      <trkpt lat="41.630715570" lon="2.417754160">
        <ele>354.38</ele>
        <time>2015-06-14T07:44:42Z</time>
      </trkpt>
      <trkpt lat="41.630666960" lon="2.417549970">
        <ele>354.86</ele>
        <time>2015-06-14T07:44:48Z</time>
      </trkpt>
      <trkpt lat="41.630648940" lon="2.417327600">
        <ele>356.31</ele>
        <time>2015-06-14T07:44:57Z</time>
      </trkpt>
      <trkpt lat="41.630621950" lon="2.417142610">
        <ele>357.27</ele>
        <time>2015-06-14T07:45:04Z</time>
      </trkpt>
      <trkpt lat="41.630556570" lon="2.416897360">
        <ele>359.67</ele>
        <time>2015-06-14T07:45:13Z</time>
      </trkpt>
      <trkpt lat="41.630398070" lon="2.416735420">
        <ele>361.11</ele>
        <time>2015-06-14T07:45:21Z</time>
      </trkpt>
      <trkpt lat="41.630233280" lon="2.416583370">
        <ele>362.55</ele>
        <time>2015-06-14T07:45:29Z</time>
      </trkpt>
      <trkpt lat="41.630070920" lon="2.416521010">
        <ele>364.48</ele>
        <time>2015-06-14T07:45:36Z</time>
      </trkpt>
      <trkpt lat="41.629899430" lon="2.416566360">
        <ele>365.44</ele>
        <time>2015-06-14T07:45:44Z</time>
      </trkpt>
      <trkpt lat="41.629682000" lon="2.416649000">
        <ele>367.36</ele>
        <time>2015-06-14T07:45:54Z</time>
      </trkpt>
      <trkpt lat="41.629504220" lon="2.416694680">
        <ele>368.32</ele>
        <time>2015-06-14T07:46:02Z</time>
      </trkpt>
      <trkpt lat="41.629332310" lon="2.416703900">
        <ele>370.24</ele>
        <time>2015-06-14T07:46:10Z</time>
      </trkpt>
      <trkpt lat="41.629196350" lon="2.416640620">
        <ele>371.21</ele>
        <time>2015-06-14T07:46:17Z</time>
      </trkpt>
      <trkpt lat="41.629037180" lon="2.416503580">
        <ele>372.65</ele>
        <time>2015-06-14T07:46:26Z</time>
      </trkpt>
      <trkpt lat="41.628912960" lon="2.416358650">
        <ele>374.09</ele>
        <time>2015-06-14T07:46:34Z</time>
      </trkpt>
      <trkpt lat="41.628711120" lon="2.416207360">
        <ele>375.53</ele>
        <time>2015-06-14T07:46:44Z</time>
      </trkpt>
      <trkpt lat="41.628541810" lon="2.416106610">
        <ele>376.49</ele>
        <time>2015-06-14T07:46:52Z</time>
      </trkpt>
      <trkpt lat="41.628366460" lon="2.415960090">
        <ele>376.49</ele>
        <time>2015-06-14T07:47:01Z</time>
      </trkpt>
      <trkpt lat="41.628253640" lon="2.415778790">
        <ele>377.94</ele>
        <time>2015-06-14T07:47:09Z</time>
      </trkpt>
      <trkpt lat="41.628135870" lon="2.415576620">
        <ele>378.90</ele>
        <time>2015-06-14T07:47:17Z</time>
      </trkpt>
      <trkpt lat="41.628017520" lon="2.415366320">
        <ele>379.38</ele>
        <time>2015-06-14T07:47:25Z</time>
      </trkpt>
      <trkpt lat="41.627960190" lon="2.415169010">
        <ele>380.34</ele>
        <time>2015-06-14T07:47:34Z</time>
      </trkpt>
      <trkpt lat="41.627952310" lon="2.415136740">
        <ele>380.82</ele>
        <time>2015-06-14T07:47:36Z</time>
      </trkpt>
      <trkpt lat="41.627948790" lon="2.415049740">
        <ele>380.82</ele>
        <time>2015-06-14T07:47:41Z</time>
      </trkpt>
      <trkpt lat="41.627952810" lon="2.414992990">
        <ele>381.30</ele>
        <time>2015-06-14T07:47:43Z</time>
      </trkpt>
      <trkpt lat="41.627937730" lon="2.414846890">
        <ele>383.70</ele>
        <time>2015-06-14T07:47:51Z</time>
      </trkpt>
      <trkpt lat="41.627990700" lon="2.414737170">
        <ele>384.18</ele>
        <time>2015-06-14T07:47:57Z</time>
      </trkpt>
      <trkpt lat="41.628026830" lon="2.414673220">
        <ele>385.63</ele>
        <time>2015-06-14T07:48:01Z</time>
      </trkpt>
      <trkpt lat="41.628041750" lon="2.414595100">
        <ele>386.11</ele>
        <time>2015-06-14T07:48:05Z</time>
      </trkpt>
      <trkpt lat="41.627996150" lon="2.414407770">
        <ele>387.07</ele>
        <time>2015-06-14T07:48:14Z</time>
      </trkpt>
      <trkpt lat="41.627938230" lon="2.414239460">
        <ele>388.03</ele>
        <time>2015-06-14T07:48:21Z</time>
      </trkpt>
      <trkpt lat="41.627922720" lon="2.414119260">
        <ele>389.47</ele>
        <time>2015-06-14T07:48:28Z</time>
      </trkpt>
      <trkpt lat="41.627857510" lon="2.413922370">
        <ele>390.43</ele>
        <time>2015-06-14T07:48:35Z</time>
      </trkpt>
      <trkpt lat="41.627780230" lon="2.413797480">
        <ele>388.03</ele>
        <time>2015-06-14T07:48:38Z</time>
      </trkpt>
      <trkpt lat="41.627637320" lon="2.413510060">
        <ele>386.59</ele>
        <time>2015-06-14T07:48:44Z</time>
      </trkpt>
      <trkpt lat="41.627564560" lon="2.413381900">
        <ele>385.63</ele>
        <time>2015-06-14T07:48:47Z</time>
      </trkpt>
      <trkpt lat="41.627509580" lon="2.413283080">
        <ele>385.15</ele>
        <time>2015-06-14T07:48:49Z</time>
      </trkpt>
      <trkpt lat="41.627430120" lon="2.413064060">
        <ele>383.70</ele>
        <time>2015-06-14T07:48:55Z</time>
      </trkpt>
      <trkpt lat="41.627352840" lon="2.412958450">
        <ele>383.22</ele>
        <time>2015-06-14T07:49:04Z</time>
      </trkpt>
      <trkpt lat="41.627342190" lon="2.412947470">
        <ele>383.22</ele>
        <time>2015-06-14T07:49:14Z</time>
      </trkpt>
      <trkpt lat="41.627339930" lon="2.412940260">
        <ele>383.22</ele>
        <time>2015-06-14T07:49:24Z</time>
      </trkpt>
      <trkpt lat="41.627337410" lon="2.412922660">
        <ele>383.22</ele>
        <time>2015-06-14T07:49:44Z</time>
      </trkpt>
      <trkpt lat="41.627357870" lon="2.412928530">
        <ele>383.22</ele>
        <time>2015-06-14T07:50:03Z</time>
      </trkpt>
      <trkpt lat="41.627319900" lon="2.412962220">
        <ele>383.22</ele>
        <time>2015-06-14T07:50:20Z</time>
      </trkpt>
      <trkpt lat="41.627315120" lon="2.412976890">
        <ele>383.22</ele>
        <time>2015-06-14T07:50:39Z</time>
      </trkpt>
      <trkpt lat="41.627320730" lon="2.412932550">
        <ele>383.22</ele>
        <time>2015-06-14T07:51:01Z</time>
      </trkpt>
      <trkpt lat="41.627308410" lon="2.412944290">
        <ele>383.22</ele>
        <time>2015-06-14T07:51:15Z</time>
      </trkpt>
      <trkpt lat="41.627303970" lon="2.412980910">
        <ele>383.22</ele>
        <time>2015-06-14T07:51:40Z</time>
      </trkpt>
      <trkpt lat="41.627296590" lon="2.413001280">
        <ele>383.22</ele>
        <time>2015-06-14T07:52:02Z</time>
      </trkpt>
      <trkpt lat="41.627318300" lon="2.412976560">
        <ele>383.22</ele>
        <time>2015-06-14T07:52:26Z</time>
      </trkpt>
      <trkpt lat="41.627313020" lon="2.412975970">
        <ele>383.22</ele>
        <time>2015-06-14T07:52:51Z</time>
      </trkpt>
      <trkpt lat="41.627313690" lon="2.412978480">
        <ele>383.22</ele>
        <time>2015-06-14T07:53:15Z</time>
      </trkpt>
      <trkpt lat="41.627320320" lon="2.412969680">
        <ele>383.22</ele>
        <time>2015-06-14T07:53:34Z</time>
      </trkpt>
      <trkpt lat="41.627321570" lon="2.412971950">
        <ele>383.22</ele>
        <time>2015-06-14T07:53:53Z</time>
      </trkpt>
      <trkpt lat="41.627313020" lon="2.412950490">
        <ele>383.22</ele>
        <time>2015-06-14T07:54:21Z</time>
      </trkpt>
      <trkpt lat="41.627314360" lon="2.412956520">
        <ele>383.22</ele>
        <time>2015-06-14T07:54:43Z</time>
      </trkpt>
      <trkpt lat="41.627302960" lon="2.412984440">
        <ele>383.22</ele>
        <time>2015-06-14T07:55:01Z</time>
      </trkpt>
      <trkpt lat="41.627327360" lon="2.412966500">
        <ele>383.22</ele>
        <time>2015-06-14T07:55:21Z</time>
      </trkpt>
      <trkpt lat="41.627330460" lon="2.412974380">
        <ele>383.22</ele>
        <time>2015-06-14T07:55:40Z</time>
      </trkpt>
      <trkpt lat="41.627320570" lon="2.412968090">
        <ele>382.74</ele>
        <time>2015-06-14T07:56:00Z</time>
      </trkpt>
      <trkpt lat="41.627297770" lon="2.412969180">
        <ele>382.74</ele>
        <time>2015-06-14T07:56:15Z</time>
      </trkpt>
      <trkpt lat="41.627298020" lon="2.412972700">
        <ele>382.74</ele>
        <time>2015-06-14T07:56:38Z</time>
      </trkpt>
      <trkpt lat="41.627312940" lon="2.412942940">
        <ele>382.74</ele>
        <time>2015-06-14T07:57:00Z</time>
      </trkpt>
      <trkpt lat="41.627313020" lon="2.412983850">
        <ele>382.74</ele>
        <time>2015-06-14T07:57:22Z</time>
      </trkpt>
      <trkpt lat="41.627313860" lon="2.412975890">
        <ele>382.74</ele>
        <time>2015-06-14T07:57:44Z</time>
      </trkpt>
      <trkpt lat="41.627316960" lon="2.412956520">
        <ele>382.74</ele>
        <time>2015-06-14T07:58:16Z</time>
      </trkpt>
      <trkpt lat="41.627313360" lon="2.412946130">
        <ele>382.74</ele>
        <time>2015-06-14T07:58:36Z</time>
      </trkpt>
      <trkpt lat="41.627312860" lon="2.412956860">
        <ele>382.74</ele>
        <time>2015-06-14T07:58:53Z</time>
      </trkpt>
      <trkpt lat="41.627325600" lon="2.412961470">
        <ele>382.74</ele>
        <time>2015-06-14T07:59:12Z</time>
      </trkpt>
      <trkpt lat="41.627330040" lon="2.412956690">
        <ele>382.74</ele>
        <time>2015-06-14T07:59:31Z</time>
      </trkpt>
      <trkpt lat="41.627342610" lon="2.412950240">
        <ele>382.74</ele>
        <time>2015-06-14T07:59:58Z</time>
      </trkpt>
      <trkpt lat="41.627335490" lon="2.412964230">
        <ele>382.74</ele>
        <time>2015-06-14T08:00:22Z</time>
      </trkpt>
      <trkpt lat="41.627326940" lon="2.412964570">
        <ele>382.74</ele>
        <time>2015-06-14T08:00:42Z</time>
      </trkpt>
      <trkpt lat="41.627326600" lon="2.412965990">
        <ele>382.74</ele>
        <time>2015-06-14T08:00:58Z</time>
      </trkpt>
      <trkpt lat="41.627331800" lon="2.412956440">
        <ele>382.26</ele>
        <time>2015-06-14T08:01:15Z</time>
      </trkpt>
      <trkpt lat="41.627323250" lon="2.412954850">
        <ele>382.26</ele>
        <time>2015-06-14T08:01:33Z</time>
      </trkpt>
      <trkpt lat="41.627330960" lon="2.412952330">
        <ele>382.26</ele>
        <time>2015-06-14T08:01:55Z</time>
      </trkpt>
      <trkpt lat="41.627321240" lon="2.412958370">
        <ele>382.26</ele>
        <time>2015-06-14T08:02:21Z</time>
      </trkpt>
      <trkpt lat="41.627296760" lon="2.412985610">
        <ele>382.26</ele>
        <time>2015-06-14T08:02:38Z</time>
      </trkpt>
      <trkpt lat="41.627305140" lon="2.412984440">
        <ele>382.26</ele>
        <time>2015-06-14T08:03:02Z</time>
      </trkpt>
      <trkpt lat="41.627309000" lon="2.412946630">
        <ele>382.26</ele>
        <time>2015-06-14T08:03:23Z</time>
      </trkpt>
      <trkpt lat="41.627334480" lon="2.412960630">
        <ele>382.26</ele>
        <time>2015-06-14T08:03:41Z</time>
      </trkpt>
      <trkpt lat="41.627324420" lon="2.412952330">
        <ele>382.26</ele>
        <time>2015-06-14T08:03:57Z</time>
      </trkpt>
      <trkpt lat="41.627309420" lon="2.412951830">
        <ele>382.26</ele>
        <time>2015-06-14T08:04:19Z</time>
      </trkpt>
      <trkpt lat="41.627324170" lon="2.412948230">
        <ele>382.26</ele>
        <time>2015-06-14T08:04:39Z</time>
      </trkpt>
      <trkpt lat="41.627343780" lon="2.412936830">
        <ele>382.26</ele>
        <time>2015-06-14T08:04:57Z</time>
      </trkpt>
      <trkpt lat="41.627339850" lon="2.412932720">
        <ele>382.26</ele>
        <time>2015-06-14T08:05:11Z</time>
      </trkpt>
      <trkpt lat="41.627337830" lon="2.412930790">
        <ele>382.26</ele>
        <time>2015-06-14T08:05:31Z</time>
      </trkpt>
      <trkpt lat="41.627337920" lon="2.412937580">
        <ele>381.78</ele>
        <time>2015-06-14T08:05:50Z</time>
      </trkpt>
      <trkpt lat="41.627325430" lon="2.412946720">
        <ele>381.78</ele>
        <time>2015-06-14T08:06:09Z</time>
      </trkpt>
      <trkpt lat="41.627339850" lon="2.412930960">
        <ele>381.78</ele>
        <time>2015-06-14T08:06:23Z</time>
      </trkpt>
      <trkpt lat="41.627344370" lon="2.412957190">
        <ele>381.78</ele>
        <time>2015-06-14T08:06:32Z</time>
      </trkpt>
      <trkpt lat="41.627349990" lon="2.412973620">
        <ele>381.78</ele>
        <time>2015-06-14T08:06:41Z</time>
      </trkpt>
      <trkpt lat="41.627362060" lon="2.413010670">
        <ele>381.78</ele>
        <time>2015-06-14T08:06:45Z</time>
      </trkpt>
      <trkpt lat="41.627300870" lon="2.413051320">
        <ele>381.78</ele>
        <time>2015-06-14T08:06:52Z</time>
      </trkpt>
      <trkpt lat="41.627282260" lon="2.413054260">
        <ele>381.78</ele>
        <time>2015-06-14T08:06:59Z</time>
      </trkpt>
      <trkpt lat="41.627231300" lon="2.413072280">
        <ele>381.78</ele>
        <time>2015-06-14T08:07:06Z</time>
      </trkpt>
      <trkpt lat="41.627210680" lon="2.413082250">
        <ele>381.78</ele>
        <time>2015-06-14T08:07:08Z</time>
      </trkpt>
      <trkpt lat="41.627163830" lon="2.413057690">
        <ele>381.78</ele>
        <time>2015-06-14T08:07:12Z</time>
      </trkpt>
      <trkpt lat="41.627033820" lon="2.412911510">
        <ele>381.78</ele>
        <time>2015-06-14T08:07:20Z</time>
      </trkpt>
      <trkpt lat="41.626897030" lon="2.412817970">
        <ele>381.30</ele>
        <time>2015-06-14T08:07:25Z</time>
      </trkpt>
      <trkpt lat="41.626827710" lon="2.412902540">
        <ele>381.30</ele>
        <time>2015-06-14T08:07:30Z</time>
      </trkpt>
      <trkpt lat="41.626910440" lon="2.413061970">
        <ele>380.82</ele>
        <time>2015-06-14T08:07:36Z</time>
      </trkpt>
      <trkpt lat="41.626974730" lon="2.413191970">
        <ele>380.34</ele>
        <time>2015-06-14T08:07:40Z</time>
      </trkpt>
      <trkpt lat="41.627007840" lon="2.413293900">
        <ele>379.38</ele>
        <time>2015-06-14T08:07:43Z</time>
      </trkpt>
      <trkpt lat="41.626993760" lon="2.413555490">
        <ele>377.94</ele>
        <time>2015-06-14T08:07:51Z</time>
      </trkpt>
      <trkpt lat="41.626949080" lon="2.413760600">
        <ele>376.49</ele>
        <time>2015-06-14T08:07:57Z</time>
      </trkpt>
      <trkpt lat="41.626936090" lon="2.413841150">
        <ele>376.01</ele>
        <time>2015-06-14T08:08:00Z</time>
      </trkpt>
      <trkpt lat="41.627005570" lon="2.414061340">
        <ele>375.05</ele>
        <time>2015-06-14T08:08:07Z</time>
      </trkpt>
      <trkpt lat="41.627062320" lon="2.414160840">
        <ele>374.57</ele>
        <time>2015-06-14T08:08:11Z</time>
      </trkpt>
      <trkpt lat="41.627048070" lon="2.414297800">
        <ele>374.57</ele>
        <time>2015-06-14T08:08:15Z</time>
      </trkpt>
      <trkpt lat="41.627072970" lon="2.414435090">
        <ele>374.09</ele>
        <time>2015-06-14T08:08:19Z</time>
      </trkpt>
      <trkpt lat="41.627168350" lon="2.414658300">
        <ele>372.65</ele>
        <time>2015-06-14T08:08:26Z</time>
      </trkpt>
      <trkpt lat="41.627195010" lon="2.414677750">
        <ele>372.65</ele>
        <time>2015-06-14T08:08:27Z</time>
      </trkpt>
      <trkpt lat="41.627337160" lon="2.414932140">
        <ele>369.28</ele>
        <time>2015-06-14T08:08:34Z</time>
      </trkpt>
      <trkpt lat="41.627392900" lon="2.415066080">
        <ele>368.32</ele>
        <time>2015-06-14T08:08:37Z</time>
      </trkpt>
      <trkpt lat="41.627326100" lon="2.415335060">
        <ele>367.36</ele>
        <time>2015-06-14T08:08:42Z</time>
      </trkpt>
      <trkpt lat="41.627189050" lon="2.415684250">
        <ele>366.88</ele>
        <time>2015-06-14T08:08:48Z</time>
      </trkpt>
      <trkpt lat="41.627173460" lon="2.416056400">
        <ele>366.40</ele>
        <time>2015-06-14T08:08:54Z</time>
      </trkpt>
      <trkpt lat="41.627478980" lon="2.416484130">
        <ele>364.48</ele>
        <time>2015-06-14T08:09:01Z</time>
      </trkpt>
      <trkpt lat="41.627732870" lon="2.416909510">
        <ele>361.59</ele>
        <time>2015-06-14T08:09:06Z</time>
      </trkpt>
      <trkpt lat="41.627833620" lon="2.417144790">
        <ele>359.67</ele>
        <time>2015-06-14T08:09:09Z</time>
      </trkpt>
      <trkpt lat="41.627853150" lon="2.417478220">
        <ele>357.75</ele>
        <time>2015-06-14T08:09:13Z</time>
      </trkpt>
      <trkpt lat="41.627819370" lon="2.417760610">
        <ele>355.34</ele>
        <time>2015-06-14T08:09:18Z</time>
      </trkpt>
      <trkpt lat="41.627787940" lon="2.417874020">
        <ele>354.86</ele>
        <time>2015-06-14T08:09:20Z</time>
      </trkpt>
      <trkpt lat="41.627624240" lon="2.418194370">
        <ele>353.42</ele>
        <time>2015-06-14T08:09:25Z</time>
      </trkpt>
      <trkpt lat="41.627586270" lon="2.418264030">
        <ele>352.94</ele>
        <time>2015-06-14T08:09:26Z</time>
      </trkpt>
      <trkpt lat="41.627482090" lon="2.418448770">
        <ele>351.50</ele>
        <time>2015-06-14T08:09:29Z</time>
      </trkpt>
      <trkpt lat="41.627434230" lon="2.418486480">
        <ele>351.50</ele>
        <time>2015-06-14T08:09:30Z</time>
      </trkpt>
      <trkpt lat="41.627323500" lon="2.418562930">
        <ele>351.02</ele>
        <time>2015-06-14T08:09:32Z</time>
      </trkpt>
      <trkpt lat="41.627214700" lon="2.418737690">
        <ele>348.62</ele>
        <time>2015-06-14T08:09:36Z</time>
      </trkpt>
      <trkpt lat="41.627113370" lon="2.418902900">
        <ele>348.13</ele>
        <time>2015-06-14T08:09:40Z</time>
      </trkpt>
      <trkpt lat="41.627083950" lon="2.418948330">
        <ele>348.13</ele>
        <time>2015-06-14T08:09:41Z</time>
      </trkpt>
      <trkpt lat="41.626989480" lon="2.419086800">
        <ele>348.13</ele>
        <time>2015-06-14T08:09:44Z</time>
      </trkpt>
      <trkpt lat="41.626886130" lon="2.419174390">
        <ele>348.13</ele>
        <time>2015-06-14T08:09:47Z</time>
      </trkpt>
      <trkpt lat="41.626751770" lon="2.419124010">
        <ele>348.62</ele>
        <time>2015-06-14T08:09:53Z</time>
      </trkpt>
      <trkpt lat="41.626700140" lon="2.419125020">
        <ele>348.62</ele>
        <time>2015-06-14T08:09:55Z</time>
      </trkpt>
      <trkpt lat="41.626606010" lon="2.419150580">
        <ele>350.06</ele>
        <time>2015-06-14T08:09:58Z</time>
      </trkpt>
      <trkpt lat="41.626440470" lon="2.419234230">
        <ele>351.98</ele>
        <time>2015-06-14T08:10:05Z</time>
      </trkpt>
      <trkpt lat="41.626327650" lon="2.419302040">
        <ele>354.86</ele>
        <time>2015-06-14T08:10:12Z</time>
      </trkpt>
      <trkpt lat="41.626205770" lon="2.419337500">
        <ele>357.75</ele>
        <time>2015-06-14T08:10:20Z</time>
      </trkpt>
      <trkpt lat="41.626103010" lon="2.419400780">
        <ele>360.15</ele>
        <time>2015-06-14T08:10:27Z</time>
      </trkpt>
      <trkpt lat="41.626000500" lon="2.419475130">
        <ele>362.07</ele>
        <time>2015-06-14T08:10:35Z</time>
      </trkpt>
      <trkpt lat="41.625892630" lon="2.419605300">
        <ele>363.04</ele>
        <time>2015-06-14T08:10:42Z</time>
      </trkpt>
      <trkpt lat="41.625870250" lon="2.419645110">
        <ele>363.52</ele>
        <time>2015-06-14T08:10:44Z</time>
      </trkpt>
      <trkpt lat="41.625814170" lon="2.419799010">
        <ele>364.96</ele>
        <time>2015-06-14T08:10:52Z</time>
      </trkpt>
      <trkpt lat="41.625806880" lon="2.419836720">
        <ele>364.96</ele>
        <time>2015-06-14T08:10:54Z</time>
      </trkpt>
      <trkpt lat="41.625800090" lon="2.419979550">
        <ele>366.40</ele>
        <time>2015-06-14T08:11:02Z</time>
      </trkpt>
      <trkpt lat="41.625817440" lon="2.420011820">
        <ele>366.88</ele>
        <time>2015-06-14T08:11:04Z</time>
      </trkpt>
      <trkpt lat="41.625824560" lon="2.420046270">
        <ele>367.36</ele>
        <time>2015-06-14T08:11:06Z</time>
      </trkpt>
      <trkpt lat="41.625816600" lon="2.420113500">
        <ele>367.84</ele>
        <time>2015-06-14T08:11:14Z</time>
      </trkpt>
      <trkpt lat="41.625835130" lon="2.420136630">
        <ele>367.84</ele>
        <time>2015-06-14T08:11:30Z</time>
      </trkpt>
      <trkpt lat="41.625836970" lon="2.420161440">
        <ele>367.84</ele>
        <time>2015-06-14T08:11:37Z</time>
      </trkpt>
      <trkpt lat="41.625756590" lon="2.420292620">
        <ele>365.92</ele>
        <time>2015-06-14T08:11:44Z</time>
      </trkpt>
      <trkpt lat="41.625671010" lon="2.420557480">
        <ele>363.04</ele>
        <time>2015-06-14T08:11:50Z</time>
      </trkpt>
      <trkpt lat="41.625664810" lon="2.420601910">
        <ele>363.04</ele>
        <time>2015-06-14T08:11:51Z</time>
      </trkpt>
      <trkpt lat="41.625632620" lon="2.420837940">
        <ele>362.55</ele>
        <time>2015-06-14T08:11:57Z</time>
      </trkpt>
      <trkpt lat="41.625623730" lon="2.420869710">
        <ele>362.55</ele>
        <time>2015-06-14T08:11:58Z</time>
      </trkpt>
      <trkpt lat="41.625665900" lon="2.421072050">
        <ele>362.55</ele>
        <time>2015-06-14T08:12:05Z</time>
      </trkpt>
      <trkpt lat="41.625682660" lon="2.421186630">
        <ele>364.00</ele>
        <time>2015-06-14T08:12:10Z</time>
      </trkpt>
      <trkpt lat="41.625685510" lon="2.421309510">
        <ele>364.48</ele>
        <time>2015-06-14T08:12:15Z</time>
      </trkpt>
      <trkpt lat="41.625686010" lon="2.421361730">
        <ele>364.48</ele>
        <time>2015-06-14T08:12:17Z</time>
      </trkpt>
      <trkpt lat="41.625684840" lon="2.421477820">
        <ele>365.92</ele>
        <time>2015-06-14T08:12:23Z</time>
      </trkpt>
      <trkpt lat="41.625701770" lon="2.421552000">
        <ele>366.88</ele>
        <time>2015-06-14T08:12:27Z</time>
      </trkpt>
      <trkpt lat="41.625724740" lon="2.421676640">
        <ele>369.28</ele>
        <time>2015-06-14T08:12:35Z</time>
      </trkpt>
      <trkpt lat="41.625722890" lon="2.421841510">
        <ele>372.17</ele>
        <time>2015-06-14T08:12:44Z</time>
      </trkpt>
      <trkpt lat="41.625732780" lon="2.422004790">
        <ele>374.57</ele>
        <time>2015-06-14T08:12:53Z</time>
      </trkpt>
      <trkpt lat="41.625775870" lon="2.422137470">
        <ele>376.97</ele>
        <time>2015-06-14T08:13:01Z</time>
      </trkpt>
      <trkpt lat="41.625781820" lon="2.422156000">
        <ele>377.45</ele>
        <time>2015-06-14T08:13:02Z</time>
      </trkpt>
      <trkpt lat="41.625832530" lon="2.422286170">
        <ele>379.38</ele>
        <time>2015-06-14T08:13:10Z</time>
      </trkpt>
      <trkpt lat="41.625880300" lon="2.422353310">
        <ele>381.78</ele>
        <time>2015-06-14T08:13:17Z</time>
      </trkpt>
      <trkpt lat="41.625945850" lon="2.422441900">
        <ele>383.70</ele>
        <time>2015-06-14T08:13:25Z</time>
      </trkpt>
      <trkpt lat="41.626042410" lon="2.422540890">
        <ele>385.63</ele>
        <time>2015-06-14T08:13:34Z</time>
      </trkpt>
      <trkpt lat="41.626114080" lon="2.422602250">
        <ele>387.07</ele>
        <time>2015-06-14T08:13:40Z</time>
      </trkpt>
      <trkpt lat="41.626178870" lon="2.422799140">
        <ele>387.07</ele>
        <time>2015-06-14T08:13:46Z</time>
      </trkpt>
      <trkpt lat="41.626227570" lon="2.422983790">
        <ele>385.63</ele>
        <time>2015-06-14T08:13:50Z</time>
      </trkpt>
      <trkpt lat="41.626293280" lon="2.423326870">
        <ele>384.66</ele>
        <time>2015-06-14T08:13:57Z</time>
      </trkpt>
      <trkpt lat="41.626346250" lon="2.423544460">
        <ele>384.18</ele>
        <time>2015-06-14T08:14:02Z</time>
      </trkpt>
      <trkpt lat="41.626374420" lon="2.423795920">
        <ele>384.18</ele>
        <time>2015-06-14T08:14:09Z</time>
      </trkpt>
      <trkpt lat="41.626393860" lon="2.424000270">
        <ele>385.63</ele>
        <time>2015-06-14T08:14:16Z</time>
      </trkpt>
      <trkpt lat="41.626428980" lon="2.424179720">
        <ele>386.11</ele>
        <time>2015-06-14T08:14:22Z</time>
      </trkpt>
      <trkpt lat="41.626466950" lon="2.424384830">
        <ele>386.11</ele>
        <time>2015-06-14T08:14:29Z</time>
      </trkpt>
      <trkpt lat="41.626526300" lon="2.424624050">
        <ele>387.07</ele>
        <time>2015-06-14T08:14:38Z</time>
      </trkpt>
      <trkpt lat="41.626574330" lon="2.424832590">
        <ele>388.51</ele>
        <time>2015-06-14T08:14:46Z</time>
      </trkpt>
      <trkpt lat="41.626669880" lon="2.425106590">
        <ele>389.95</ele>
        <time>2015-06-14T08:14:56Z</time>
      </trkpt>
      <trkpt lat="41.626674820" lon="2.425198210">
        <ele>390.43</ele>
        <time>2015-06-14T08:14:59Z</time>
      </trkpt>
      <trkpt lat="41.626657640" lon="2.425311360">
        <ele>391.87</ele>
        <time>2015-06-14T08:15:03Z</time>
      </trkpt>
      <trkpt lat="41.626665440" lon="2.425401550">
        <ele>392.36</ele>
        <time>2015-06-14T08:15:07Z</time>
      </trkpt>
      <trkpt lat="41.626584890" lon="2.425619320">
        <ele>392.84</ele>
        <time>2015-06-14T08:15:13Z</time>
      </trkpt>
      <trkpt lat="41.626552370" lon="2.425664910">
        <ele>392.84</ele>
        <time>2015-06-14T08:15:14Z</time>
      </trkpt>
      <trkpt lat="41.626405430" lon="2.425914110">
        <ele>392.84</ele>
        <time>2015-06-14T08:15:19Z</time>
      </trkpt>
      <trkpt lat="41.626379870" lon="2.426164310">
        <ele>390.43</ele>
        <time>2015-06-14T08:15:24Z</time>
      </trkpt>
      <trkpt lat="41.626388330" lon="2.426220210">
        <ele>390.43</ele>
        <time>2015-06-14T08:15:25Z</time>
      </trkpt>
      <trkpt lat="41.626385730" lon="2.426556660">
        <ele>389.95</ele>
        <time>2015-06-14T08:15:32Z</time>
      </trkpt>
      <trkpt lat="41.626332090" lon="2.426704020">
        <ele>390.91</ele>
        <time>2015-06-14T08:15:37Z</time>
      </trkpt>
      <trkpt lat="41.626317500" lon="2.426819350">
        <ele>392.36</ele>
        <time>2015-06-14T08:15:41Z</time>
      </trkpt>
      <trkpt lat="41.626211310" lon="2.426997550">
        <ele>393.80</ele>
        <time>2015-06-14T08:15:49Z</time>
      </trkpt>
      <trkpt lat="41.626026070" lon="2.427165270">
        <ele>395.24</ele>
        <time>2015-06-14T08:15:59Z</time>
      </trkpt>
      <trkpt lat="41.625896230" lon="2.427204590">
        <ele>395.72</ele>
        <time>2015-06-14T08:16:05Z</time>
      </trkpt>
      <trkpt lat="41.625729600" lon="2.427197960">
        <ele>396.68</ele>
        <time>2015-06-14T08:16:12Z</time>
      </trkpt>
      <trkpt lat="41.625571010" lon="2.427226550">
        <ele>396.68</ele>
        <time>2015-06-14T08:16:18Z</time>
      </trkpt>
      <trkpt lat="41.625405390" lon="2.427294190">
        <ele>397.16</ele>
        <time>2015-06-14T08:16:25Z</time>
      </trkpt>
      <trkpt lat="41.625323910" lon="2.427335340">
        <ele>397.16</ele>
        <time>2015-06-14T08:16:29Z</time>
      </trkpt>
      <trkpt lat="41.625175390" lon="2.427555950">
        <ele>398.12</ele>
        <time>2015-06-14T08:16:38Z</time>
      </trkpt>
      <trkpt lat="41.625096090" lon="2.427778490">
        <ele>399.08</ele>
        <time>2015-06-14T08:16:46Z</time>
      </trkpt>
      <trkpt lat="41.625101120" lon="2.427905310">
        <ele>400.53</ele>
        <time>2015-06-14T08:16:51Z</time>
      </trkpt>
      <trkpt lat="41.625073710" lon="2.428037160">
        <ele>401.49</ele>
        <time>2015-06-14T08:16:56Z</time>
      </trkpt>
      <trkpt lat="41.624981680" lon="2.428221810">
        <ele>401.97</ele>
        <time>2015-06-14T08:17:03Z</time>
      </trkpt>
      <trkpt lat="41.624869780" lon="2.428402860">
        <ele>402.93</ele>
        <time>2015-06-14T08:17:11Z</time>
      </trkpt>
      <trkpt lat="41.624823260" lon="2.428542420">
        <ele>404.37</ele>
        <time>2015-06-14T08:17:17Z</time>
      </trkpt>
      <trkpt lat="41.624808590" lon="2.428760940">
        <ele>407.26</ele>
        <time>2015-06-14T08:17:26Z</time>
      </trkpt>
      <trkpt lat="41.624842120" lon="2.428866720">
        <ele>408.22</ele>
        <time>2015-06-14T08:17:33Z</time>
      </trkpt>
      <trkpt lat="41.624850920" lon="2.428860180">
        <ele>408.22</ele>
        <time>2015-06-14T08:17:34Z</time>
      </trkpt>
      <trkpt lat="41.624896100" lon="2.428792120">
        <ele>409.18</ele>
        <time>2015-06-14T08:17:40Z</time>
      </trkpt>
      <trkpt lat="41.624997940" lon="2.428702600">
        <ele>410.14</ele>
        <time>2015-06-14T08:17:49Z</time>
      </trkpt>
      <trkpt lat="41.625093580" lon="2.428729760">
        <ele>411.10</ele>
        <time>2015-06-14T08:17:56Z</time>
      </trkpt>
      <trkpt lat="41.625153930" lon="2.428806950">
        <ele>412.54</ele>
        <time>2015-06-14T08:18:03Z</time>
      </trkpt>
      <trkpt lat="41.625226930" lon="2.428924550">
        <ele>414.47</ele>
        <time>2015-06-14T08:18:11Z</time>
      </trkpt>
      <trkpt lat="41.625275380" lon="2.428995130">
        <ele>415.91</ele>
        <time>2015-06-14T08:18:16Z</time>
      </trkpt>
      <trkpt lat="41.625377560" lon="2.429056820">
        <ele>416.87</ele>
        <time>2015-06-14T08:18:22Z</time>
      </trkpt>
      <trkpt lat="41.625566650" lon="2.429090090">
        <ele>419.27</ele>
        <time>2015-06-14T08:18:30Z</time>
      </trkpt>
      <trkpt lat="41.625708390" lon="2.429138630">
        <ele>421.19</ele>
        <time>2015-06-14T08:18:37Z</time>
      </trkpt>
      <trkpt lat="41.625724990" lon="2.429289500">
        <ele>422.16</ele>
        <time>2015-06-14T08:18:44Z</time>
      </trkpt>
      <trkpt lat="41.625680480" lon="2.429483620">
        <ele>422.64</ele>
        <time>2015-06-14T08:18:54Z</time>
      </trkpt>
      <trkpt lat="41.625641170" lon="2.429674820">
        <ele>423.60</ele>
        <time>2015-06-14T08:19:02Z</time>
      </trkpt>
      <trkpt lat="41.625633210" lon="2.429868610">
        <ele>424.08</ele>
        <time>2015-06-14T08:19:09Z</time>
      </trkpt>
      <trkpt lat="41.625609570" lon="2.430102630">
        <ele>424.08</ele>
        <time>2015-06-14T08:19:14Z</time>
      </trkpt>
      <trkpt lat="41.625598920" lon="2.430151410">
        <ele>424.08</ele>
        <time>2015-06-14T08:19:15Z</time>
      </trkpt>
      <trkpt lat="41.625555250" lon="2.430242690">
        <ele>424.08</ele>
        <time>2015-06-14T08:19:17Z</time>
      </trkpt>
      <trkpt lat="41.625492050" lon="2.430389460">
        <ele>424.08</ele>
        <time>2015-06-14T08:19:20Z</time>
      </trkpt>
      <trkpt lat="41.625440170" lon="2.430766810">
        <ele>423.12</ele>
        <time>2015-06-14T08:19:28Z</time>
      </trkpt>
      <trkpt lat="41.625415780" lon="2.431033190">
        <ele>424.08</ele>
        <time>2015-06-14T08:19:35Z</time>
      </trkpt>
      <trkpt lat="41.625308320" lon="2.431263520">
        <ele>424.56</ele>
        <time>2015-06-14T08:19:43Z</time>
      </trkpt>
      <trkpt lat="41.625173210" lon="2.431432670">
        <ele>425.04</ele>
        <time>2015-06-14T08:19:51Z</time>
      </trkpt>
      <trkpt lat="41.625054940" lon="2.431572730">
        <ele>426.00</ele>
        <time>2015-06-14T08:19:59Z</time>
      </trkpt>
      <trkpt lat="41.624916550" lon="2.431756630">
        <ele>426.96</ele>
        <time>2015-06-14T08:20:07Z</time>
      </trkpt>
      <trkpt lat="41.624819320" lon="2.432020320">
        <ele>426.96</ele>
        <time>2015-06-14T08:20:14Z</time>
      </trkpt>
      <trkpt lat="41.624757880" lon="2.432327770">
        <ele>426.96</ele>
        <time>2015-06-14T08:20:22Z</time>
      </trkpt>
      <trkpt lat="41.624786130" lon="2.432610160">
        <ele>427.44</ele>
        <time>2015-06-14T08:20:30Z</time>
      </trkpt>
      <trkpt lat="41.624836250" lon="2.432908140">
        <ele>428.40</ele>
        <time>2015-06-14T08:20:38Z</time>
      </trkpt>
      <trkpt lat="41.624865000" lon="2.433209050">
        <ele>429.37</ele>
        <time>2015-06-14T08:20:46Z</time>
      </trkpt>
      <trkpt lat="41.624803230" lon="2.433473490">
        <ele>429.85</ele>
        <time>2015-06-14T08:20:54Z</time>
      </trkpt>
      <trkpt lat="41.624720750" lon="2.433721180">
        <ele>431.29</ele>
        <time>2015-06-14T08:21:02Z</time>
      </trkpt>
      <trkpt lat="41.624706750" lon="2.433983280">
        <ele>432.73</ele>
        <time>2015-06-14T08:21:10Z</time>
      </trkpt>
      <trkpt lat="41.624753780" lon="2.434184450">
        <ele>432.73</ele>
        <time>2015-06-14T08:21:16Z</time>
      </trkpt>
      <trkpt lat="41.624811950" lon="2.434499440">
        <ele>432.73</ele>
        <time>2015-06-14T08:21:23Z</time>
      </trkpt>
      <trkpt lat="41.624729130" lon="2.434832870">
        <ele>433.69</ele>
        <time>2015-06-14T08:21:31Z</time>
      </trkpt>
      <trkpt lat="41.624592340" lon="2.435038140">
        <ele>433.69</ele>
        <time>2015-06-14T08:21:37Z</time>
      </trkpt>
      <trkpt lat="41.624443810" lon="2.435233360">
        <ele>431.77</ele>
        <time>2015-06-14T08:21:41Z</time>
      </trkpt>
      <trkpt lat="41.624184230" lon="2.435585650">
        <ele>428.89</ele>
        <time>2015-06-14T08:21:47Z</time>
      </trkpt>
      <trkpt lat="41.623945430" lon="2.435920000">
        <ele>427.44</ele>
        <time>2015-06-14T08:21:53Z</time>
      </trkpt>
      <trkpt lat="41.623723720" lon="2.436451000">
        <ele>425.52</ele>
        <time>2015-06-14T08:22:01Z</time>
      </trkpt>
      <trkpt lat="41.623649880" lon="2.436559710">
        <ele>425.52</ele>
        <time>2015-06-14T08:22:03Z</time>
      </trkpt>
      <trkpt lat="41.623522730" lon="2.436686030">
        <ele>424.56</ele>
        <time>2015-06-14T08:22:08Z</time>
      </trkpt>
      <trkpt lat="41.623453910" lon="2.436636240">
        <ele>423.12</ele>
        <time>2015-06-14T08:22:12Z</time>
      </trkpt>
      <trkpt lat="41.623394650" lon="2.436399620">
        <ele>421.68</ele>
        <time>2015-06-14T08:22:19Z</time>
      </trkpt>
      <trkpt lat="41.623372190" lon="2.436186130">
        <ele>421.19</ele>
        <time>2015-06-14T08:22:26Z</time>
      </trkpt>
      <trkpt lat="41.623360450" lon="2.436053610">
        <ele>420.23</ele>
        <time>2015-06-14T08:22:29Z</time>
      </trkpt>
      <trkpt lat="41.623240840" lon="2.435954790">
        <ele>419.27</ele>
        <time>2015-06-14T08:22:33Z</time>
      </trkpt>
      <trkpt lat="41.623122740" lon="2.435795450">
        <ele>417.83</ele>
        <time>2015-06-14T08:22:37Z</time>
      </trkpt>
      <trkpt lat="41.623111590" lon="2.435740460">
        <ele>418.31</ele>
        <time>2015-06-14T08:22:38Z</time>
      </trkpt>
      <trkpt lat="41.622989640" lon="2.435463950">
        <ele>417.35</ele>
        <time>2015-06-14T08:22:45Z</time>
      </trkpt>
      <trkpt lat="41.622820740" lon="2.435368560">
        <ele>418.31</ele>
        <time>2015-06-14T08:22:51Z</time>
      </trkpt>
      <trkpt lat="41.622688980" lon="2.435325810">
        <ele>419.75</ele>
        <time>2015-06-14T08:22:57Z</time>
      </trkpt>
      <trkpt lat="41.622654860" lon="2.435316090">
        <ele>419.75</ele>
        <time>2015-06-14T08:22:59Z</time>
      </trkpt>
      <trkpt lat="41.622607000" lon="2.435313240">
        <ele>420.71</ele>
        <time>2015-06-14T08:23:03Z</time>
      </trkpt>
      <trkpt lat="41.622566940" lon="2.435358420">
        <ele>420.71</ele>
        <time>2015-06-14T08:23:07Z</time>
      </trkpt>
      <trkpt lat="41.622486050" lon="2.435416590">
        <ele>421.19</ele>
        <time>2015-06-14T08:23:16Z</time>
      </trkpt>
      <trkpt lat="41.622443890" lon="2.435474000">
        <ele>421.19</ele>
        <time>2015-06-14T08:23:20Z</time>
      </trkpt>
      <trkpt lat="41.622386480" lon="2.435543820">
        <ele>421.19</ele>
        <time>2015-06-14T08:23:26Z</time>
      </trkpt>
      <trkpt lat="41.622321680" lon="2.435635100">
        <ele>421.68</ele>
        <time>2015-06-14T08:23:34Z</time>
      </trkpt>
      <trkpt lat="41.622303080" lon="2.435637120">
        <ele>421.68</ele>
        <time>2015-06-14T08:23:36Z</time>
      </trkpt>
      <trkpt lat="41.622211130" lon="2.435761420">
        <ele>422.16</ele>
        <time>2015-06-14T08:23:43Z</time>
      </trkpt>
      <trkpt lat="41.622171060" lon="2.435799980">
        <ele>422.16</ele>
        <time>2015-06-14T08:23:47Z</time>
      </trkpt>
      <trkpt lat="41.622131670" lon="2.435893770">
        <ele>422.16</ele>
        <time>2015-06-14T08:23:51Z</time>
      </trkpt>
      <trkpt lat="41.622161760" lon="2.436038110">
        <ele>422.16</ele>
        <time>2015-06-14T08:23:57Z</time>
      </trkpt>
      <trkpt lat="41.622258900" lon="2.436222170">
        <ele>422.16</ele>
        <time>2015-06-14T08:24:04Z</time>
      </trkpt>
      <trkpt lat="41.622336020" lon="2.436467090">
        <ele>421.19</ele>
        <time>2015-06-14T08:24:11Z</time>
      </trkpt>
      <trkpt lat="41.622344060" lon="2.436683760">
        <ele>421.19</ele>
        <time>2015-06-14T08:24:18Z</time>
      </trkpt>
      <trkpt lat="41.622336770" lon="2.436821480">
        <ele>421.19</ele>
        <time>2015-06-14T08:24:23Z</time>
      </trkpt>
      <trkpt lat="41.622321350" lon="2.436863050">
        <ele>422.16</ele>
        <time>2015-06-14T08:24:26Z</time>
      </trkpt>
      <trkpt lat="41.622296620" lon="2.436817710">
        <ele>423.60</ele>
        <time>2015-06-14T08:24:32Z</time>
      </trkpt>
      <trkpt lat="41.622256470" lon="2.436722740">
        <ele>424.56</ele>
        <time>2015-06-14T08:24:38Z</time>
      </trkpt>
      <trkpt lat="41.622091770" lon="2.436637830">
        <ele>426.48</ele>
        <time>2015-06-14T08:24:45Z</time>
      </trkpt>
      <trkpt lat="41.621999400" lon="2.436599860">
        <ele>426.96</ele>
        <time>2015-06-14T08:24:48Z</time>
      </trkpt>
      <trkpt lat="41.621878620" lon="2.436450750">
        <ele>427.44</ele>
        <time>2015-06-14T08:24:55Z</time>
      </trkpt>
      <trkpt lat="41.621843660" lon="2.436400790">
        <ele>428.40</ele>
        <time>2015-06-14T08:24:57Z</time>
      </trkpt>
      <trkpt lat="41.621732770" lon="2.436380760">
        <ele>429.85</ele>
        <time>2015-06-14T08:25:02Z</time>
      </trkpt>
      <trkpt lat="41.621544430" lon="2.436374720">
        <ele>431.29</ele>
        <time>2015-06-14T08:25:09Z</time>
      </trkpt>
      <trkpt lat="41.621349970" lon="2.436336670">
        <ele>432.73</ele>
        <time>2015-06-14T08:25:17Z</time>
      </trkpt>
      <trkpt lat="41.621194400" lon="2.436339350">
        <ele>435.61</ele>
        <time>2015-06-14T08:25:25Z</time>
      </trkpt>
      <trkpt lat="41.621086020" lon="2.436326610">
        <ele>438.02</ele>
        <time>2015-06-14T08:25:32Z</time>
      </trkpt>
      <trkpt lat="41.621046380" lon="2.436324520">
        <ele>438.98</ele>
        <time>2015-06-14T08:25:34Z</time>
      </trkpt>
      <trkpt lat="41.620976050" lon="2.436319570">
        <ele>439.94</ele>
        <time>2015-06-14T08:25:38Z</time>
      </trkpt>
      <trkpt lat="41.620825350" lon="2.436324100">
        <ele>441.86</ele>
        <time>2015-06-14T08:25:48Z</time>
      </trkpt>
      <trkpt lat="41.620792990" lon="2.436323930">
        <ele>441.86</ele>
        <time>2015-06-14T08:25:50Z</time>
      </trkpt>
      <trkpt lat="41.620723930" lon="2.436338510">
        <ele>442.82</ele>
        <time>2015-06-14T08:25:57Z</time>
      </trkpt>
      <trkpt lat="41.620745470" lon="2.436450080">
        <ele>443.31</ele>
        <time>2015-06-14T08:26:06Z</time>
      </trkpt>
      <trkpt lat="41.620773710" lon="2.436553930">
        <ele>443.79</ele>
        <time>2015-06-14T08:26:12Z</time>
      </trkpt>
      <trkpt lat="41.620829870" lon="2.436691730">
        <ele>443.79</ele>
        <time>2015-06-14T08:26:19Z</time>
      </trkpt>
      <trkpt lat="41.620873120" lon="2.436840250">
        <ele>445.23</ele>
        <time>2015-06-14T08:26:27Z</time>
      </trkpt>
      <trkpt lat="41.620890890" lon="2.436916190">
        <ele>445.23</ele>
        <time>2015-06-14T08:26:31Z</time>
      </trkpt>
      <trkpt lat="41.620883520" lon="2.436990210">
        <ele>445.71</ele>
        <time>2015-06-14T08:26:35Z</time>
      </trkpt>
      <trkpt lat="41.620861640" lon="2.437175780">
        <ele>446.19</ele>
        <time>2015-06-14T08:26:42Z</time>
      </trkpt>
      <trkpt lat="41.620884270" lon="2.437285420">
        <ele>445.23</ele>
        <time>2015-06-14T08:26:46Z</time>
      </trkpt>
      <trkpt lat="41.620939090" lon="2.437626220">
        <ele>444.27</ele>
        <time>2015-06-14T08:26:53Z</time>
      </trkpt>
      <trkpt lat="41.620943870" lon="2.437688330">
        <ele>443.79</ele>
        <time>2015-06-14T08:26:54Z</time>
      </trkpt>
      <trkpt lat="41.620910170" lon="2.437943900">
        <ele>442.34</ele>
        <time>2015-06-14T08:26:59Z</time>
      </trkpt>
      <trkpt lat="41.620711020" lon="2.438075490">
        <ele>441.38</ele>
        <time>2015-06-14T08:27:06Z</time>
      </trkpt>
      <trkpt lat="41.620492000" lon="2.438179090">
        <ele>440.90</ele>
        <time>2015-06-14T08:27:13Z</time>
      </trkpt>
      <trkpt lat="41.620283790" lon="2.438246150">
        <ele>440.90</ele>
        <time>2015-06-14T08:27:19Z</time>
      </trkpt>
      <trkpt lat="41.620250100" lon="2.438267360">
        <ele>440.42</ele>
        <time>2015-06-14T08:27:20Z</time>
      </trkpt>
      <trkpt lat="41.620189330" lon="2.438468940">
        <ele>440.42</ele>
        <time>2015-06-14T08:27:25Z</time>
      </trkpt>
      <trkpt lat="41.620175750" lon="2.438527360">
        <ele>440.42</ele>
        <time>2015-06-14T08:27:27Z</time>
      </trkpt>
      <trkpt lat="41.620133170" lon="2.438808160">
        <ele>441.38</ele>
        <time>2015-06-14T08:27:34Z</time>
      </trkpt>
      <trkpt lat="41.620093440" lon="2.438895330">
        <ele>441.38</ele>
        <time>2015-06-14T08:27:36Z</time>
      </trkpt>
      <trkpt lat="41.619912640" lon="2.438970100">
        <ele>441.38</ele>
        <time>2015-06-14T08:27:41Z</time>
      </trkpt>
      <trkpt lat="41.619815660" lon="2.439013260">
        <ele>439.94</ele>
        <time>2015-06-14T08:27:43Z</time>
      </trkpt>
      <trkpt lat="41.619714240" lon="2.439055760">
        <ele>439.46</ele>
        <time>2015-06-14T08:27:45Z</time>
      </trkpt>
      <trkpt lat="41.619488850" lon="2.439211330">
        <ele>438.98</ele>
        <time>2015-06-14T08:27:49Z</time>
      </trkpt>
      <trkpt lat="41.619238480" lon="2.439375610">
        <ele>438.98</ele>
        <time>2015-06-14T08:27:54Z</time>
      </trkpt>
      <trkpt lat="41.619073950" lon="2.439598240">
        <ele>439.94</ele>
        <time>2015-06-14T08:27:59Z</time>
      </trkpt>
      <trkpt lat="41.619051400" lon="2.439810800">
        <ele>439.94</ele>
        <time>2015-06-14T08:28:02Z</time>
      </trkpt>
      <trkpt lat="41.619069760" lon="2.440085480">
        <ele>440.42</ele>
        <time>2015-06-14T08:28:06Z</time>
      </trkpt>
      <trkpt lat="41.619225070" lon="2.440436930">
        <ele>440.42</ele>
        <time>2015-06-14T08:28:12Z</time>
      </trkpt>
      <trkpt lat="41.619297160" lon="2.440651170">
        <ele>440.42</ele>
        <time>2015-06-14T08:28:15Z</time>
      </trkpt>
      <trkpt lat="41.619261700" lon="2.440856360">
        <ele>438.50</ele>
        <time>2015-06-14T08:28:19Z</time>
      </trkpt>
      <trkpt lat="41.619194140" lon="2.441022070">
        <ele>438.02</ele>
        <time>2015-06-14T08:28:23Z</time>
      </trkpt>
      <trkpt lat="41.619222060" lon="2.441225670">
        <ele>439.46</ele>
        <time>2015-06-14T08:28:29Z</time>
      </trkpt>
      <trkpt lat="41.619229430" lon="2.441308060">
        <ele>439.94</ele>
        <time>2015-06-14T08:28:36Z</time>
      </trkpt>
      <trkpt lat="41.619225240" lon="2.441324320">
        <ele>439.94</ele>
        <time>2015-06-14T08:28:50Z</time>
      </trkpt>
      <trkpt lat="41.619224570" lon="2.441338820">
        <ele>439.94</ele>
        <time>2015-06-14T08:29:07Z</time>
      </trkpt>
      <trkpt lat="41.619222220" lon="2.441401350">
        <ele>439.94</ele>
        <time>2015-06-14T08:29:15Z</time>
      </trkpt>
      <trkpt lat="41.619237810" lon="2.441576200">
        <ele>441.38</ele>
        <time>2015-06-14T08:29:22Z</time>
      </trkpt>
      <trkpt lat="41.619252400" lon="2.441798400">
        <ele>442.82</ele>
        <time>2015-06-14T08:29:29Z</time>
      </trkpt>
      <trkpt lat="41.619235630" lon="2.442068630">
        <ele>444.75</ele>
        <time>2015-06-14T08:29:37Z</time>
      </trkpt>
      <trkpt lat="41.619187270" lon="2.442257140">
        <ele>446.67</ele>
        <time>2015-06-14T08:29:44Z</time>
      </trkpt>
      <trkpt lat="41.619123740" lon="2.442431740">
        <ele>447.63</ele>
        <time>2015-06-14T08:29:50Z</time>
      </trkpt>
      <trkpt lat="41.619046790" lon="2.442638940">
        <ele>448.59</ele>
        <time>2015-06-14T08:29:56Z</time>
      </trkpt>
      <trkpt lat="41.618996250" lon="2.442783190">
        <ele>449.55</ele>
        <time>2015-06-14T08:30:01Z</time>
      </trkpt>
      <trkpt lat="41.618886030" lon="2.443023580">
        <ele>450.03</ele>
        <time>2015-06-14T08:30:08Z</time>
      </trkpt>
      <trkpt lat="41.618761550" lon="2.443272860">
        <ele>450.52</ele>
        <time>2015-06-14T08:30:15Z</time>
      </trkpt>
      <trkpt lat="41.618628870" lon="2.443493980">
        <ele>450.52</ele>
        <time>2015-06-14T08:30:23Z</time>
      </trkpt>
      <trkpt lat="41.618520320" lon="2.443627670">
        <ele>451.48</ele>
        <time>2015-06-14T08:30:30Z</time>
      </trkpt>
      <trkpt lat="41.618453350" lon="2.443794380">
        <ele>452.44</ele>
        <time>2015-06-14T08:30:36Z</time>
      </trkpt>
      <trkpt lat="41.618437090" lon="2.444079030">
        <ele>453.88</ele>
        <time>2015-06-14T08:30:44Z</time>
      </trkpt>
      <trkpt lat="41.618481260" lon="2.444288660">
        <ele>456.28</ele>
        <time>2015-06-14T08:30:51Z</time>
      </trkpt>
      <trkpt lat="41.618451170" lon="2.444474660">
        <ele>457.24</ele>
        <time>2015-06-14T08:30:57Z</time>
      </trkpt>
      <trkpt lat="41.618411440" lon="2.444723430">
        <ele>458.69</ele>
        <time>2015-06-14T08:31:05Z</time>
      </trkpt>
      <trkpt lat="41.618380680" lon="2.445038170">
        <ele>460.61</ele>
        <time>2015-06-14T08:31:14Z</time>
      </trkpt>
      <trkpt lat="41.618335000" lon="2.445296590">
        <ele>462.53</ele>
        <time>2015-06-14T08:31:22Z</time>
      </trkpt>
      <trkpt lat="41.618272390" lon="2.445527340">
        <ele>464.45</ele>
        <time>2015-06-14T08:31:30Z</time>
      </trkpt>
      <trkpt lat="41.618173650" lon="2.445772930">
        <ele>465.90</ele>
        <time>2015-06-14T08:31:39Z</time>
      </trkpt>
      <trkpt lat="41.618062500" lon="2.445938470">
        <ele>467.82</ele>
        <time>2015-06-14T08:31:47Z</time>
      </trkpt>
      <trkpt lat="41.617969630" lon="2.446045760">
        <ele>469.26</ele>
        <time>2015-06-14T08:31:53Z</time>
      </trkpt>
      <trkpt lat="41.617867540" lon="2.446214320">
        <ele>470.22</ele>
        <time>2015-06-14T08:32:00Z</time>
      </trkpt>
      <trkpt lat="41.617844910" lon="2.446269980">
        <ele>470.22</ele>
        <time>2015-06-14T08:32:02Z</time>
      </trkpt>
      <trkpt lat="41.617681210" lon="2.446471980">
        <ele>472.63</ele>
        <time>2015-06-14T08:32:12Z</time>
      </trkpt>
      <trkpt lat="41.617602340" lon="2.446707430">
        <ele>473.11</ele>
        <time>2015-06-14T08:32:20Z</time>
      </trkpt>
      <trkpt lat="41.617463700" lon="2.446963750">
        <ele>474.07</ele>
        <time>2015-06-14T08:32:29Z</time>
      </trkpt>
      <trkpt lat="41.617422710" lon="2.447223760">
        <ele>474.07</ele>
        <time>2015-06-14T08:32:35Z</time>
      </trkpt>
      <trkpt lat="41.617432690" lon="2.447476050">
        <ele>474.55</ele>
        <time>2015-06-14T08:32:43Z</time>
      </trkpt>
      <trkpt lat="41.617398570" lon="2.447642180">
        <ele>475.99</ele>
        <time>2015-06-14T08:32:49Z</time>
      </trkpt>
      <trkpt lat="41.617354650" lon="2.447819040">
        <ele>478.39</ele>
        <time>2015-06-14T08:32:56Z</time>
      </trkpt>
      <trkpt lat="41.617293380" lon="2.447967650">
        <ele>480.32</ele>
        <time>2015-06-14T08:33:03Z</time>
      </trkpt>
      <trkpt lat="41.617249960" lon="2.448139140">
        <ele>482.72</ele>
        <time>2015-06-14T08:33:12Z</time>
      </trkpt>
      <trkpt lat="41.617251220" lon="2.448199660">
        <ele>484.16</ele>
        <time>2015-06-14T08:33:15Z</time>
      </trkpt>
      <trkpt lat="41.617214250" lon="2.448377440">
        <ele>485.60</ele>
        <time>2015-06-14T08:33:23Z</time>
      </trkpt>
      <trkpt lat="41.617182570" lon="2.448560330">
        <ele>487.53</ele>
        <time>2015-06-14T08:33:32Z</time>
      </trkpt>
      <trkpt lat="41.617172600" lon="2.448628390">
        <ele>487.53</ele>
        <time>2015-06-14T08:33:35Z</time>
      </trkpt>
      <trkpt lat="41.617120880" lon="2.448791930">
        <ele>488.97</ele>
        <time>2015-06-14T08:33:43Z</time>
      </trkpt>
      <trkpt lat="41.617066150" lon="2.448908690">
        <ele>489.45</ele>
        <time>2015-06-14T08:33:50Z</time>
      </trkpt>
      <trkpt lat="41.617012000" lon="2.449058300">
        <ele>490.41</ele>
        <time>2015-06-14T08:33:57Z</time>
      </trkpt>
      <trkpt lat="41.616949720" lon="2.449263580">
        <ele>490.89</ele>
        <time>2015-06-14T08:34:05Z</time>
      </trkpt>
      <trkpt lat="41.616928930" lon="2.449327360">
        <ele>491.37</ele>
        <time>2015-06-14T08:34:08Z</time>
      </trkpt>
      <trkpt lat="41.616900180" lon="2.449483100">
        <ele>492.33</ele>
        <time>2015-06-14T08:34:15Z</time>
      </trkpt>
      <trkpt lat="41.616852320" lon="2.449635400">
        <ele>494.26</ele>
        <time>2015-06-14T08:34:23Z</time>
      </trkpt>
      <trkpt lat="41.616761210" lon="2.449753670">
        <ele>495.22</ele>
        <time>2015-06-14T08:34:30Z</time>
      </trkpt>
      <trkpt lat="41.616661550" lon="2.449836140">
        <ele>496.18</ele>
        <time>2015-06-14T08:34:38Z</time>
      </trkpt>
      <trkpt lat="41.616643950" lon="2.449870010">
        <ele>496.18</ele>
        <time>2015-06-14T08:34:48Z</time>
      </trkpt>
      <trkpt lat="41.616617380" lon="2.449926420">
        <ele>496.18</ele>
        <time>2015-06-14T08:34:55Z</time>
      </trkpt>
      <trkpt lat="41.616612690" lon="2.449938320">
        <ele>496.66</ele>
        <time>2015-06-14T08:34:56Z</time>
      </trkpt>
      <trkpt lat="41.616583940" lon="2.450133450">
        <ele>499.54</ele>
        <time>2015-06-14T08:35:06Z</time>
      </trkpt>
      <trkpt lat="41.616627940" lon="2.450260430">
        <ele>501.95</ele>
        <time>2015-06-14T08:35:13Z</time>
      </trkpt>
      <trkpt lat="41.616616540" lon="2.450417510">
        <ele>501.95</ele>
        <time>2015-06-14T08:35:20Z</time>
      </trkpt>
      <trkpt lat="41.616603470" lon="2.450451210">
        <ele>502.91</ele>
        <time>2015-06-14T08:35:22Z</time>
      </trkpt>
      <trkpt lat="41.616537160" lon="2.450570060">
        <ele>502.91</ele>
        <time>2015-06-14T08:35:29Z</time>
      </trkpt>
      <trkpt lat="41.616479830" lon="2.450633260">
        <ele>503.39</ele>
        <time>2015-06-14T08:35:34Z</time>
      </trkpt>
      <trkpt lat="41.616452340" lon="2.450646590">
        <ele>503.87</ele>
        <time>2015-06-14T08:35:36Z</time>
      </trkpt>
      <trkpt lat="41.616421750" lon="2.450687910">
        <ele>504.35</ele>
        <time>2015-06-14T08:35:39Z</time>
      </trkpt>
      <trkpt lat="41.616391910" lon="2.450838530">
        <ele>505.31</ele>
        <time>2015-06-14T08:35:46Z</time>
      </trkpt>
      <trkpt lat="41.616368020" lon="2.450984550">
        <ele>505.79</ele>
        <time>2015-06-14T08:35:53Z</time>
      </trkpt>
      <trkpt lat="41.616333570" lon="2.451152100">
        <ele>506.75</ele>
        <time>2015-06-14T08:36:01Z</time>
      </trkpt>
      <trkpt lat="41.616299870" lon="2.451300130">
        <ele>508.19</ele>
        <time>2015-06-14T08:36:08Z</time>
      </trkpt>
      <trkpt lat="41.616255780" lon="2.451460140">
        <ele>509.64</ele>
        <time>2015-06-14T08:36:16Z</time>
      </trkpt>
      <trkpt lat="41.616181440" lon="2.451588210">
        <ele>513.00</ele>
        <time>2015-06-14T08:36:24Z</time>
      </trkpt>
      <trkpt lat="41.616100720" lon="2.451709500">
        <ele>515.40</ele>
        <time>2015-06-14T08:36:32Z</time>
      </trkpt>
      <trkpt lat="41.616068870" lon="2.451750900">
        <ele>515.88</ele>
        <time>2015-06-14T08:36:35Z</time>
      </trkpt>
      <trkpt lat="41.615908520" lon="2.451843610">
        <ele>516.85</ele>
        <time>2015-06-14T08:36:44Z</time>
      </trkpt>
      <trkpt lat="41.615794110" lon="2.451939160">
        <ele>517.81</ele>
        <time>2015-06-14T08:36:52Z</time>
      </trkpt>
      <trkpt lat="41.615743060" lon="2.451987950">
        <ele>519.25</ele>
        <time>2015-06-14T08:36:56Z</time>
      </trkpt>
      <trkpt lat="41.615662180" lon="2.451987270">
        <ele>519.73</ele>
        <time>2015-06-14T08:37:04Z</time>
      </trkpt>
      <trkpt lat="41.615648260" lon="2.451925250">
        <ele>519.73</ele>
        <time>2015-06-14T08:37:11Z</time>
      </trkpt>
      <trkpt lat="41.615627230" lon="2.451919300">
        <ele>520.21</ele>
        <time>2015-06-14T08:37:25Z</time>
      </trkpt>
      <trkpt lat="41.615614900" lon="2.451928010">
        <ele>520.21</ele>
        <time>2015-06-14T08:37:38Z</time>
      </trkpt>
      <trkpt lat="41.615597720" lon="2.451893480">
        <ele>520.69</ele>
        <time>2015-06-14T08:37:56Z</time>
      </trkpt>
      <trkpt lat="41.615576350" lon="2.451798680">
        <ele>520.69</ele>
        <time>2015-06-14T08:38:02Z</time>
      </trkpt>
      <trkpt lat="41.615540720" lon="2.451625090">
        <ele>520.69</ele>
        <time>2015-06-14T08:38:11Z</time>
      </trkpt>
      <trkpt lat="41.615505940" lon="2.451422000">
        <ele>517.33</ele>
        <time>2015-06-14T08:38:16Z</time>
      </trkpt>
      <trkpt lat="41.615431000" lon="2.451234830">
        <ele>515.40</ele>
        <time>2015-06-14T08:38:21Z</time>
      </trkpt>
      <trkpt lat="41.615361020" lon="2.451047080">
        <ele>513.00</ele>
        <time>2015-06-14T08:38:26Z</time>
      </trkpt>
      <trkpt lat="41.615252300" lon="2.450939960">
        <ele>509.64</ele>
        <time>2015-06-14T08:38:30Z</time>
      </trkpt>
      <trkpt lat="41.615223220" lon="2.450909450">
        <ele>509.16</ele>
        <time>2015-06-14T08:38:31Z</time>
      </trkpt>
      <trkpt lat="41.615185920" lon="2.450852110">
        <ele>507.71</ele>
        <time>2015-06-14T08:38:37Z</time>
      </trkpt>
      <trkpt lat="41.615170160" lon="2.450843060">
        <ele>507.71</ele>
        <time>2015-06-14T08:38:50Z</time>
      </trkpt>
      <trkpt lat="41.615154650" lon="2.450854710">
        <ele>507.71</ele>
        <time>2015-06-14T08:38:55Z</time>
      </trkpt>
      <trkpt lat="41.615091370" lon="2.450865360">
        <ele>506.75</ele>
        <time>2015-06-14T08:38:59Z</time>
      </trkpt>
      <trkpt lat="41.614990120" lon="2.450852200">
        <ele>503.87</ele>
        <time>2015-06-14T08:39:07Z</time>
      </trkpt>
      <trkpt lat="41.614920380" lon="2.450840380">
        <ele>501.95</ele>
        <time>2015-06-14T08:39:13Z</time>
      </trkpt>
      <trkpt lat="41.614911830" lon="2.450834090">
        <ele>501.95</ele>
        <time>2015-06-14T08:39:24Z</time>
      </trkpt>
      <trkpt lat="41.614885680" lon="2.450837190">
        <ele>501.95</ele>
        <time>2015-06-14T08:39:35Z</time>
      </trkpt>
      <trkpt lat="41.614886940" lon="2.450834680">
        <ele>501.95</ele>
        <time>2015-06-14T08:39:46Z</time>
      </trkpt>
      <trkpt lat="41.614899930" lon="2.450855470">
        <ele>501.95</ele>
        <time>2015-06-14T08:39:56Z</time>
      </trkpt>
      <trkpt lat="41.614898920" lon="2.450870640">
        <ele>501.95</ele>
        <time>2015-06-14T08:40:02Z</time>
      </trkpt>
      <trkpt lat="41.614913170" lon="2.450992680">
        <ele>501.95</ele>
        <time>2015-06-14T08:40:07Z</time>
      </trkpt>
      <trkpt lat="41.614983160" lon="2.451174400">
        <ele>500.98</ele>
        <time>2015-06-14T08:40:12Z</time>
      </trkpt>
      <trkpt lat="41.614954910" lon="2.451391660">
        <ele>500.98</ele>
        <time>2015-06-14T08:40:18Z</time>
      </trkpt>
      <trkpt lat="41.614971420" lon="2.451645460">
        <ele>500.98</ele>
        <time>2015-06-14T08:40:25Z</time>
      </trkpt>
      <trkpt lat="41.614978130" lon="2.451693910">
        <ele>500.98</ele>
        <time>2015-06-14T08:40:26Z</time>
      </trkpt>
      <trkpt lat="41.614901860" lon="2.451903540">
        <ele>501.46</ele>
        <time>2015-06-14T08:40:32Z</time>
      </trkpt>
      <trkpt lat="41.614875960" lon="2.452111580">
        <ele>502.43</ele>
        <time>2015-06-14T08:40:37Z</time>
      </trkpt>
      <trkpt lat="41.614905290" lon="2.452401840">
        <ele>500.50</ele>
        <time>2015-06-14T08:40:45Z</time>
      </trkpt>
      <trkpt lat="41.614941590" lon="2.452587080">
        <ele>501.95</ele>
        <time>2015-06-14T08:40:51Z</time>
      </trkpt>
      <trkpt lat="41.614951810" lon="2.452615080">
        <ele>501.95</ele>
        <time>2015-06-14T08:40:52Z</time>
      </trkpt>
      <trkpt lat="41.615019200" lon="2.452812470">
        <ele>502.43</ele>
        <time>2015-06-14T08:41:01Z</time>
      </trkpt>
      <trkpt lat="41.615060110" lon="2.452898810">
        <ele>502.43</ele>
        <time>2015-06-14T08:41:07Z</time>
      </trkpt>
      <trkpt lat="41.615110230" lon="2.453041890">
        <ele>502.43</ele>
        <time>2015-06-14T08:41:15Z</time>
      </trkpt>
      <trkpt lat="41.615124310" lon="2.453084300">
        <ele>500.98</ele>
        <time>2015-06-14T08:41:17Z</time>
      </trkpt>
      <trkpt lat="41.615168320" lon="2.453220340">
        <ele>500.02</ele>
        <time>2015-06-14T08:41:23Z</time>
      </trkpt>
      <trkpt lat="41.615180300" lon="2.453239950">
        <ele>500.02</ele>
        <time>2015-06-14T08:41:24Z</time>
      </trkpt>
      <trkpt lat="41.615223550" lon="2.453340200">
        <ele>500.02</ele>
        <time>2015-06-14T08:41:29Z</time>
      </trkpt>
      <trkpt lat="41.615239060" lon="2.453399790">
        <ele>500.02</ele>
        <time>2015-06-14T08:41:36Z</time>
      </trkpt>
      <trkpt lat="41.615255320" lon="2.453419830">
        <ele>499.54</ele>
        <time>2015-06-14T08:41:51Z</time>
      </trkpt>
      <trkpt lat="41.615259760" lon="2.453420580">
        <ele>499.54</ele>
        <time>2015-06-14T08:41:59Z</time>
      </trkpt>
      <trkpt lat="41.615262950" lon="2.453405160">
        <ele>499.54</ele>
        <time>2015-06-14T08:42:07Z</time>
      </trkpt>
      <trkpt lat="41.615253220" lon="2.453377410">
        <ele>499.54</ele>
        <time>2015-06-14T08:42:14Z</time>
      </trkpt>
      <trkpt lat="41.615246850" lon="2.453344890">
        <ele>499.54</ele>
        <time>2015-06-14T08:42:22Z</time>
      </trkpt>
      <trkpt lat="41.615221540" lon="2.453284120">
        <ele>499.54</ele>
        <time>2015-06-14T08:42:28Z</time>
      </trkpt>
      <trkpt lat="41.615158260" lon="2.453109020">
        <ele>500.50</ele>
        <time>2015-06-14T08:42:36Z</time>
      </trkpt>
      <trkpt lat="41.615134030" lon="2.453006930">
        <ele>501.46</ele>
        <time>2015-06-14T08:42:42Z</time>
      </trkpt>
      <trkpt lat="41.615078550" lon="2.452883720">
        <ele>502.43</ele>
        <time>2015-06-14T08:42:49Z</time>
      </trkpt>
      <trkpt lat="41.615015850" lon="2.452725890">
        <ele>502.43</ele>
        <time>2015-06-14T08:42:55Z</time>
      </trkpt>
      <trkpt lat="41.614961200" lon="2.452523210">
        <ele>502.43</ele>
        <time>2015-06-14T08:43:00Z</time>
      </trkpt>
      <trkpt lat="41.614935470" lon="2.452165310">
        <ele>502.43</ele>
        <time>2015-06-14T08:43:08Z</time>
      </trkpt>
      <trkpt lat="41.614969330" lon="2.451939250">
        <ele>502.43</ele>
        <time>2015-06-14T08:43:14Z</time>
      </trkpt>
      <trkpt lat="41.615020710" lon="2.451723330">
        <ele>502.43</ele>
        <time>2015-06-14T08:43:20Z</time>
      </trkpt>
      <trkpt lat="41.614999090" lon="2.451493750">
        <ele>502.43</ele>
        <time>2015-06-14T08:43:26Z</time>
      </trkpt>
      <trkpt lat="41.615028510" lon="2.451364830">
        <ele>502.43</ele>
        <time>2015-06-14T08:43:29Z</time>
      </trkpt>
      <trkpt lat="41.615027000" lon="2.451168450">
        <ele>501.46</ele>
        <time>2015-06-14T08:43:33Z</time>
      </trkpt>
      <trkpt lat="41.615012750" lon="2.451128880">
        <ele>501.46</ele>
        <time>2015-06-14T08:43:34Z</time>
      </trkpt>
      <trkpt lat="41.614962460" lon="2.450896120">
        <ele>502.43</ele>
        <time>2015-06-14T08:43:41Z</time>
      </trkpt>
      <trkpt lat="41.614950810" lon="2.450780950">
        <ele>502.43</ele>
        <time>2015-06-14T08:43:47Z</time>
      </trkpt>
      <trkpt lat="41.614960780" lon="2.450716910">
        <ele>502.43</ele>
        <time>2015-06-14T08:43:52Z</time>
      </trkpt>
      <trkpt lat="41.614970920" lon="2.450590010">
        <ele>502.91</ele>
        <time>2015-06-14T08:44:00Z</time>
      </trkpt>
      <trkpt lat="41.614968990" lon="2.450544080">
        <ele>502.91</ele>
        <time>2015-06-14T08:44:03Z</time>
      </trkpt>
      <trkpt lat="41.614943600" lon="2.450387170">
        <ele>503.87</ele>
        <time>2015-06-14T08:44:10Z</time>
      </trkpt>
      <trkpt lat="41.614890290" lon="2.450217180">
        <ele>503.87</ele>
        <time>2015-06-14T08:44:17Z</time>
      </trkpt>
      <trkpt lat="41.614787270" lon="2.450029600">
        <ele>504.35</ele>
        <time>2015-06-14T08:44:23Z</time>
      </trkpt>
      <trkpt lat="41.614776710" lon="2.450003450">
        <ele>504.35</ele>
        <time>2015-06-14T08:44:24Z</time>
      </trkpt>
      <trkpt lat="41.614762210" lon="2.449949970">
        <ele>504.83</ele>
        <time>2015-06-14T08:44:32Z</time>
      </trkpt>
      <trkpt lat="41.614750980" lon="2.450003610">
        <ele>504.83</ele>
        <time>2015-06-14T08:44:38Z</time>
      </trkpt>
      <trkpt lat="41.614750480" lon="2.450014680">
        <ele>504.83</ele>
        <time>2015-06-14T08:44:41Z</time>
      </trkpt>
      <trkpt lat="41.614763220" lon="2.450064890">
        <ele>504.83</ele>
        <time>2015-06-14T08:44:46Z</time>
      </trkpt>
      <trkpt lat="41.614832700" lon="2.450185170">
        <ele>503.87</ele>
        <time>2015-06-14T08:44:51Z</time>
      </trkpt>
      <trkpt lat="41.614889370" lon="2.450271580">
        <ele>503.87</ele>
        <time>2015-06-14T08:44:57Z</time>
      </trkpt>
      <trkpt lat="41.614893220" lon="2.450293460">
        <ele>503.87</ele>
        <time>2015-06-14T08:44:58Z</time>
      </trkpt>
      <trkpt lat="41.614909820" lon="2.450359170">
        <ele>503.87</ele>
        <time>2015-06-14T08:45:05Z</time>
      </trkpt>
      <trkpt lat="41.614932780" lon="2.450449780">
        <ele>503.87</ele>
        <time>2015-06-14T08:45:14Z</time>
      </trkpt>
      <trkpt lat="41.614920800" lon="2.450644830">
        <ele>503.39</ele>
        <time>2015-06-14T08:45:20Z</time>
      </trkpt>
      <trkpt lat="41.614891380" lon="2.450797380">
        <ele>502.91</ele>
        <time>2015-06-14T08:45:26Z</time>
      </trkpt>
      <trkpt lat="41.614915430" lon="2.450793690">
        <ele>502.43</ele>
        <time>2015-06-14T08:45:31Z</time>
      </trkpt>
      <trkpt lat="41.614900770" lon="2.450765440">
        <ele>502.43</ele>
        <time>2015-06-14T08:45:35Z</time>
      </trkpt>
      <trkpt lat="41.614839580" lon="2.450760750">
        <ele>500.50</ele>
        <time>2015-06-14T08:45:39Z</time>
      </trkpt>
      <trkpt lat="41.614819040" lon="2.450788080">
        <ele>499.54</ele>
        <time>2015-06-14T08:45:47Z</time>
      </trkpt>
      <trkpt lat="41.614811080" lon="2.450811460">
        <ele>499.06</ele>
        <time>2015-06-14T08:45:56Z</time>
      </trkpt>
      <trkpt lat="41.614803120" lon="2.450824540">
        <ele>499.06</ele>
        <time>2015-06-14T08:46:03Z</time>
      </trkpt>
      <trkpt lat="41.614787360" lon="2.450832500">
        <ele>498.10</ele>
        <time>2015-06-14T08:46:11Z</time>
      </trkpt>
      <trkpt lat="41.614732790" lon="2.450845660">
        <ele>495.70</ele>
        <time>2015-06-14T08:46:20Z</time>
      </trkpt>
      <trkpt lat="41.614677140" lon="2.450845580">
        <ele>493.29</ele>
        <time>2015-06-14T08:46:28Z</time>
      </trkpt>
      <trkpt lat="41.614664060" lon="2.450841890">
        <ele>492.33</ele>
        <time>2015-06-14T08:46:30Z</time>
      </trkpt>
      <trkpt lat="41.614624000" lon="2.450832580">
        <ele>490.89</ele>
        <time>2015-06-14T08:46:34Z</time>
      </trkpt>
      <trkpt lat="41.614600690" lon="2.450811800">
        <ele>490.41</ele>
        <time>2015-06-14T08:46:42Z</time>
      </trkpt>
      <trkpt lat="41.614557020" lon="2.450788830">
        <ele>488.49</ele>
        <time>2015-06-14T08:46:49Z</time>
      </trkpt>
      <trkpt lat="41.614535060" lon="2.450768040">
        <ele>487.53</ele>
        <time>2015-06-14T08:46:57Z</time>
      </trkpt>
      <trkpt lat="41.614482840" lon="2.450760500">
        <ele>485.12</ele>
        <time>2015-06-14T08:47:03Z</time>
      </trkpt>
      <trkpt lat="41.614455690" lon="2.450730320">
        <ele>484.16</ele>
        <time>2015-06-14T08:47:09Z</time>
      </trkpt>
      <trkpt lat="41.614429530" lon="2.450692690">
        <ele>482.24</ele>
        <time>2015-06-14T08:47:17Z</time>
      </trkpt>
      <trkpt lat="41.614391980" lon="2.450645500">
        <ele>481.28</ele>
        <time>2015-06-14T08:47:24Z</time>
      </trkpt>
      <trkpt lat="41.614377150" lon="2.450571070">
        <ele>480.32</ele>
        <time>2015-06-14T08:47:32Z</time>
      </trkpt>
      <trkpt lat="41.614355100" lon="2.450531840">
        <ele>478.87</ele>
        <time>2015-06-14T08:47:41Z</time>
      </trkpt>
      <trkpt lat="41.614314120" lon="2.450494960">
        <ele>477.91</ele>
        <time>2015-06-14T08:47:48Z</time>
      </trkpt>
      <trkpt lat="41.614303970" lon="2.450439220">
        <ele>476.95</ele>
        <time>2015-06-14T08:47:57Z</time>
      </trkpt>
      <trkpt lat="41.614290310" lon="2.450416760">
        <ele>476.47</ele>
        <time>2015-06-14T08:48:01Z</time>
      </trkpt>
      <trkpt lat="41.614269520" lon="2.450353050">
        <ele>475.51</ele>
        <time>2015-06-14T08:48:07Z</time>
      </trkpt>
      <trkpt lat="41.614254770" lon="2.450278880">
        <ele>474.55</ele>
        <time>2015-06-14T08:48:15Z</time>
      </trkpt>
      <trkpt lat="41.614252090" lon="2.450267480">
        <ele>474.55</ele>
        <time>2015-06-14T08:48:16Z</time>
      </trkpt>
      <trkpt lat="41.614214040" lon="2.450146940">
        <ele>473.11</ele>
        <time>2015-06-14T08:48:25Z</time>
      </trkpt>
      <trkpt lat="41.614175560" lon="2.450073180">
        <ele>472.14</ele>
        <time>2015-06-14T08:48:32Z</time>
      </trkpt>
      <trkpt lat="41.614171620" lon="2.449977210">
        <ele>471.66</ele>
        <time>2015-06-14T08:48:40Z</time>
      </trkpt>
      <trkpt lat="41.614129040" lon="2.449952900">
        <ele>470.70</ele>
        <time>2015-06-14T08:48:46Z</time>
      </trkpt>
      <trkpt lat="41.614079510" lon="2.449936470">
        <ele>469.26</ele>
        <time>2015-06-14T08:48:53Z</time>
      </trkpt>
      <trkpt lat="41.614062320" lon="2.449914350">
        <ele>468.30</ele>
        <time>2015-06-14T08:48:59Z</time>
      </trkpt>
      <trkpt lat="41.614033660" lon="2.449881820">
        <ele>466.38</ele>
        <time>2015-06-14T08:49:07Z</time>
      </trkpt>
      <trkpt lat="41.613986800" lon="2.449822400">
        <ele>464.93</ele>
        <time>2015-06-14T08:49:17Z</time>
      </trkpt>
      <trkpt lat="41.613965680" lon="2.449777300">
        <ele>463.97</ele>
        <time>2015-06-14T08:49:26Z</time>
      </trkpt>
      <trkpt lat="41.613942290" lon="2.449709320">
        <ele>462.05</ele>
        <time>2015-06-14T08:49:33Z</time>
      </trkpt>
      <trkpt lat="41.613898540" lon="2.449642860">
        <ele>461.09</ele>
        <time>2015-06-14T08:49:41Z</time>
      </trkpt>
      <trkpt lat="41.613884960" lon="2.449585940">
        <ele>460.61</ele>
        <time>2015-06-14T08:49:47Z</time>
      </trkpt>
      <trkpt lat="41.613867860" lon="2.449454770">
        <ele>460.13</ele>
        <time>2015-06-14T08:49:54Z</time>
      </trkpt>
      <trkpt lat="41.613847910" lon="2.449350910">
        <ele>458.21</ele>
        <time>2015-06-14T08:50:00Z</time>
      </trkpt>
      <trkpt lat="41.613817910" lon="2.449312110">
        <ele>457.72</ele>
        <time>2015-06-14T08:50:07Z</time>
      </trkpt>
      <trkpt lat="41.613797290" lon="2.449268600">
        <ele>456.76</ele>
        <time>2015-06-14T08:50:16Z</time>
      </trkpt>
      <trkpt lat="41.613775240" lon="2.449224770">
        <ele>456.28</ele>
        <time>2015-06-14T08:50:23Z</time>
      </trkpt>
      <trkpt lat="41.613760580" lon="2.449220410">
        <ele>456.28</ele>
        <time>2015-06-14T08:50:33Z</time>
      </trkpt>
      <trkpt lat="41.613730070" lon="2.449195850">
        <ele>454.84</ele>
        <time>2015-06-14T08:50:40Z</time>
      </trkpt>
      <trkpt lat="41.613714390" lon="2.449187640">
        <ele>454.36</ele>
        <time>2015-06-14T08:50:43Z</time>
      </trkpt>
      <trkpt lat="41.613681530" lon="2.449197270">
        <ele>452.92</ele>
        <time>2015-06-14T08:50:47Z</time>
      </trkpt>
      <trkpt lat="41.613675750" lon="2.449204820">
        <ele>452.92</ele>
        <time>2015-06-14T08:50:48Z</time>
      </trkpt>
      <trkpt lat="41.613647080" lon="2.449275480">
        <ele>452.44</ele>
        <time>2015-06-14T08:50:56Z</time>
      </trkpt>
      <trkpt lat="41.613637950" lon="2.449338010">
        <ele>452.44</ele>
        <time>2015-06-14T08:51:04Z</time>
      </trkpt>
      <trkpt lat="41.613623280" lon="2.449354180">
        <ele>452.44</ele>
        <time>2015-06-14T08:51:13Z</time>
      </trkpt>
      <trkpt lat="41.613615740" lon="2.449356780">
        <ele>452.44</ele>
        <time>2015-06-14T08:51:26Z</time>
      </trkpt>
      <trkpt lat="41.613629730" lon="2.449383770">
        <ele>452.44</ele>
        <time>2015-06-14T08:51:38Z</time>
      </trkpt>
      <trkpt lat="41.613631750" lon="2.449391060">
        <ele>451.96</ele>
        <time>2015-06-14T08:51:43Z</time>
      </trkpt>
      <trkpt lat="41.613650270" lon="2.449517130">
        <ele>451.96</ele>
        <time>2015-06-14T08:51:50Z</time>
      </trkpt>
      <trkpt lat="41.613661000" lon="2.449673790">
        <ele>450.03</ele>
        <time>2015-06-14T08:51:55Z</time>
      </trkpt>
      <trkpt lat="41.613665020" lon="2.449958600">
        <ele>446.67</ele>
        <time>2015-06-14T08:52:02Z</time>
      </trkpt>
      <trkpt lat="41.613661250" lon="2.449996400">
        <ele>446.67</ele>
        <time>2015-06-14T08:52:03Z</time>
      </trkpt>
      <trkpt lat="41.613711460" lon="2.450356740">
        <ele>444.75</ele>
        <time>2015-06-14T08:52:10Z</time>
      </trkpt>
      <trkpt lat="41.613790920" lon="2.450668970">
        <ele>444.75</ele>
        <time>2015-06-14T08:52:17Z</time>
      </trkpt>
      <trkpt lat="41.613835170" lon="2.450991340">
        <ele>445.23</ele>
        <time>2015-06-14T08:52:25Z</time>
      </trkpt>
      <trkpt lat="41.613878260" lon="2.451215050">
        <ele>445.23</ele>
        <time>2015-06-14T08:52:30Z</time>
      </trkpt>
      <trkpt lat="41.613894180" lon="2.451338180">
        <ele>444.27</ele>
        <time>2015-06-14T08:52:32Z</time>
      </trkpt>
      <trkpt lat="41.613899630" lon="2.451477240">
        <ele>442.82</ele>
        <time>2015-06-14T08:52:34Z</time>
      </trkpt>
      <trkpt lat="41.613937270" lon="2.451873780">
        <ele>441.38</ele>
        <time>2015-06-14T08:52:40Z</time>
      </trkpt>
      <trkpt lat="41.613945820" lon="2.451992720">
        <ele>441.38</ele>
        <time>2015-06-14T08:52:42Z</time>
      </trkpt>
      <trkpt lat="41.613919160" lon="2.452226160">
        <ele>440.42</ele>
        <time>2015-06-14T08:52:46Z</time>
      </trkpt>
      <trkpt lat="41.613822770" lon="2.452562110">
        <ele>437.54</ele>
        <time>2015-06-14T08:52:51Z</time>
      </trkpt>
      <trkpt lat="41.613792510" lon="2.452777860">
        <ele>436.10</ele>
        <time>2015-06-14T08:52:54Z</time>
      </trkpt>
      <trkpt lat="41.613781110" lon="2.452927890">
        <ele>435.13</ele>
        <time>2015-06-14T08:52:56Z</time>
      </trkpt>
      <trkpt lat="41.613723190" lon="2.453185130">
        <ele>433.21</ele>
        <time>2015-06-14T08:53:00Z</time>
      </trkpt>
      <trkpt lat="41.613681450" lon="2.453507330">
        <ele>430.81</ele>
        <time>2015-06-14T08:53:04Z</time>
      </trkpt>
      <trkpt lat="41.613716820" lon="2.453801540">
        <ele>427.44</ele>
        <time>2015-06-14T08:53:09Z</time>
      </trkpt>
      <trkpt lat="41.613636100" lon="2.453905640">
        <ele>425.52</ele>
        <time>2015-06-14T08:53:14Z</time>
      </trkpt>
      <trkpt lat="41.613594110" lon="2.453870600">
        <ele>424.56</ele>
        <time>2015-06-14T08:53:16Z</time>
      </trkpt>
      <trkpt lat="41.613492270" lon="2.453706740">
        <ele>421.19</ele>
        <time>2015-06-14T08:53:22Z</time>
      </trkpt>
      <trkpt lat="41.613456310" lon="2.453648820">
        <ele>420.23</ele>
        <time>2015-06-14T08:53:29Z</time>
      </trkpt>
      <trkpt lat="41.613455470" lon="2.453642700">
        <ele>420.23</ele>
        <time>2015-06-14T08:53:44Z</time>
      </trkpt>
      <trkpt lat="41.613448600" lon="2.453636500">
        <ele>420.23</ele>
        <time>2015-06-14T08:53:51Z</time>
      </trkpt>
      <trkpt lat="41.613451700" lon="2.453593750">
        <ele>420.23</ele>
        <time>2015-06-14T08:53:54Z</time>
      </trkpt>
      <trkpt lat="41.613441220" lon="2.453399370">
        <ele>420.23</ele>
        <time>2015-06-14T08:54:01Z</time>
      </trkpt>
      <trkpt lat="41.613438960" lon="2.453356290">
        <ele>420.23</ele>
        <time>2015-06-14T08:54:02Z</time>
      </trkpt>
      <trkpt lat="41.613448520" lon="2.452965280">
        <ele>419.27</ele>
        <time>2015-06-14T08:54:09Z</time>
      </trkpt>
      <trkpt lat="41.613448180" lon="2.452644000">
        <ele>417.35</ele>
        <time>2015-06-14T08:54:13Z</time>
      </trkpt>
      <trkpt lat="41.613469390" lon="2.452459090">
        <ele>416.39</ele>
        <time>2015-06-14T08:54:15Z</time>
      </trkpt>
      <trkpt lat="41.613542310" lon="2.452073520">
        <ele>415.91</ele>
        <time>2015-06-14T08:54:20Z</time>
      </trkpt>
      <trkpt lat="41.613540550" lon="2.451832630">
        <ele>415.91</ele>
        <time>2015-06-14T08:54:24Z</time>
      </trkpt>
      <trkpt lat="41.613489000" lon="2.451621150">
        <ele>415.91</ele>
        <time>2015-06-14T08:54:27Z</time>
      </trkpt>
      <trkpt lat="41.613360340" lon="2.451403390">
        <ele>416.39</ele>
        <time>2015-06-14T08:54:31Z</time>
      </trkpt>
      <trkpt lat="41.613260590" lon="2.451203060">
        <ele>416.39</ele>
        <time>2015-06-14T08:54:34Z</time>
      </trkpt>
      <trkpt lat="41.613231760" lon="2.450833340">
        <ele>414.95</ele>
        <time>2015-06-14T08:54:38Z</time>
      </trkpt>
      <trkpt lat="41.613196220" lon="2.450422040">
        <ele>414.47</ele>
        <time>2015-06-14T08:54:43Z</time>
      </trkpt>
      <trkpt lat="41.613162610" lon="2.450248530">
        <ele>414.47</ele>
        <time>2015-06-14T08:54:46Z</time>
      </trkpt>
      <trkpt lat="41.613089770" lon="2.450061280">
        <ele>414.47</ele>
        <time>2015-06-14T08:54:49Z</time>
      </trkpt>
      <trkpt lat="41.613018860" lon="2.449732460">
        <ele>414.47</ele>
        <time>2015-06-14T08:54:54Z</time>
      </trkpt>
      <trkpt lat="41.612997990" lon="2.449406400">
        <ele>414.47</ele>
        <time>2015-06-14T08:54:59Z</time>
      </trkpt>
      <trkpt lat="41.613025820" lon="2.449133240">
        <ele>414.47</ele>
        <time>2015-06-14T08:55:03Z</time>
      </trkpt>
      <trkpt lat="41.613030680" lon="2.448687400">
        <ele>415.91</ele>
        <time>2015-06-14T08:55:10Z</time>
      </trkpt>
      <trkpt lat="41.612979630" lon="2.448252210">
        <ele>416.87</ele>
        <time>2015-06-14T08:55:17Z</time>
      </trkpt>
      <trkpt lat="41.612963540" lon="2.448208460">
        <ele>416.87</ele>
        <time>2015-06-14T08:55:18Z</time>
      </trkpt>
      <trkpt lat="41.612844600" lon="2.448075020">
        <ele>415.91</ele>
        <time>2015-06-14T08:55:22Z</time>
      </trkpt>
      <trkpt lat="41.612789030" lon="2.448010820">
        <ele>414.47</ele>
        <time>2015-06-14T08:55:28Z</time>
      </trkpt>
      <trkpt lat="41.612753320" lon="2.447970160">
        <ele>414.47</ele>
        <time>2015-06-14T08:55:43Z</time>
      </trkpt>
      <trkpt lat="41.612705130" lon="2.447888940">
        <ele>413.02</ele>
        <time>2015-06-14T08:55:48Z</time>
      </trkpt>
      <trkpt lat="41.612675120" lon="2.447858350">
        <ele>413.02</ele>
        <time>2015-06-14T08:55:49Z</time>
      </trkpt>
      <trkpt lat="41.612599180" lon="2.447795070">
        <ele>412.06</ele>
        <time>2015-06-14T08:55:51Z</time>
      </trkpt>
      <trkpt lat="41.612493060" lon="2.447615530">
        <ele>409.18</ele>
        <time>2015-06-14T08:55:55Z</time>
      </trkpt>
      <trkpt lat="41.612374960" lon="2.447481160">
        <ele>407.26</ele>
        <time>2015-06-14T08:55:58Z</time>
      </trkpt>
      <trkpt lat="41.612097100" lon="2.447294830">
        <ele>402.93</ele>
        <time>2015-06-14T08:56:04Z</time>
      </trkpt>
      <trkpt lat="41.612005240" lon="2.447257280">
        <ele>401.01</ele>
        <time>2015-06-14T08:56:06Z</time>
      </trkpt>
      <trkpt lat="41.611863830" lon="2.447306990">
        <ele>400.05</ele>
        <time>2015-06-14T08:56:11Z</time>
      </trkpt>
      <trkpt lat="41.611804320" lon="2.447286790">
        <ele>398.60</ele>
        <time>2015-06-14T08:56:13Z</time>
      </trkpt>
      <trkpt lat="41.611645820" lon="2.447259800">
        <ele>395.24</ele>
        <time>2015-06-14T08:56:19Z</time>
      </trkpt>
      <trkpt lat="41.611623860" lon="2.447268350">
        <ele>394.28</ele>
        <time>2015-06-14T08:56:20Z</time>
      </trkpt>
      <trkpt lat="41.611586310" lon="2.447327690">
        <ele>392.84</ele>
        <time>2015-06-14T08:56:23Z</time>
      </trkpt>
      <trkpt lat="41.611564940" lon="2.447509160">
        <ele>390.91</ele>
        <time>2015-06-14T08:56:29Z</time>
      </trkpt>
      <trkpt lat="41.611545070" lon="2.447732030">
        <ele>388.51</ele>
        <time>2015-06-14T08:56:35Z</time>
      </trkpt>
      <trkpt lat="41.611512130" lon="2.447782830">
        <ele>387.55</ele>
        <time>2015-06-14T08:56:37Z</time>
      </trkpt>
      <trkpt lat="41.611462930" lon="2.447831950">
        <ele>386.11</ele>
        <time>2015-06-14T08:56:40Z</time>
      </trkpt>
      <trkpt lat="41.611362850" lon="2.447915510">
        <ele>383.70</ele>
        <time>2015-06-14T08:56:44Z</time>
      </trkpt>
      <trkpt lat="41.611259420" lon="2.448028920">
        <ele>382.74</ele>
        <time>2015-06-14T08:56:47Z</time>
      </trkpt>
      <trkpt lat="41.611193620" lon="2.448128330">
        <ele>381.78</ele>
        <time>2015-06-14T08:56:49Z</time>
      </trkpt>
      <trkpt lat="41.611132760" lon="2.448236710">
        <ele>380.34</ele>
        <time>2015-06-14T08:56:51Z</time>
      </trkpt>
      <trkpt lat="41.610916260" lon="2.448396380">
        <ele>377.45</ele>
        <time>2015-06-14T08:56:56Z</time>
      </trkpt>
      <trkpt lat="41.610757340" lon="2.448483720">
        <ele>375.05</ele>
        <time>2015-06-14T08:57:00Z</time>
      </trkpt>
      <trkpt lat="41.610623820" lon="2.448474170">
        <ele>371.69</ele>
        <time>2015-06-14T08:57:04Z</time>
      </trkpt>
      <trkpt lat="41.610598500" lon="2.448468130">
        <ele>371.21</ele>
        <time>2015-06-14T08:57:05Z</time>
      </trkpt>
      <trkpt lat="41.610423910" lon="2.448450950">
        <ele>367.84</ele>
        <time>2015-06-14T08:57:12Z</time>
      </trkpt>
      <trkpt lat="41.610373110" lon="2.448456570">
        <ele>366.40</ele>
        <time>2015-06-14T08:57:15Z</time>
      </trkpt>
      <trkpt lat="41.610266330" lon="2.448450530">
        <ele>364.00</ele>
        <time>2015-06-14T08:57:21Z</time>
      </trkpt>
      <trkpt lat="41.610107320" lon="2.448489760">
        <ele>360.63</ele>
        <time>2015-06-14T08:57:28Z</time>
      </trkpt>
      <trkpt lat="41.610103130" lon="2.448659410">
        <ele>358.71</ele>
        <time>2015-06-14T08:57:34Z</time>
      </trkpt>
      <trkpt lat="41.610112270" lon="2.448885640">
        <ele>354.38</ele>
        <time>2015-06-14T08:57:41Z</time>
      </trkpt>
      <trkpt lat="41.610121490" lon="2.448921010">
        <ele>353.90</ele>
        <time>2015-06-14T08:57:42Z</time>
      </trkpt>
      <trkpt lat="41.610185190" lon="2.449062330">
        <ele>351.02</ele>
        <time>2015-06-14T08:57:48Z</time>
      </trkpt>
      <trkpt lat="41.610253000" lon="2.449216800">
        <ele>348.13</ele>
        <time>2015-06-14T08:57:54Z</time>
      </trkpt>
      <trkpt lat="41.610453410" lon="2.449386710">
        <ele>345.73</ele>
        <time>2015-06-14T08:58:01Z</time>
      </trkpt>
      <trkpt lat="41.610501020" lon="2.449460470">
        <ele>345.25</ele>
        <time>2015-06-14T08:58:04Z</time>
      </trkpt>
      <trkpt lat="41.610510070" lon="2.449666740">
        <ele>340.92</ele>
        <time>2015-06-14T08:58:11Z</time>
      </trkpt>
      <trkpt lat="41.610501520" lon="2.449696250">
        <ele>340.92</ele>
        <time>2015-06-14T08:58:12Z</time>
      </trkpt>
      <trkpt lat="41.610393650" lon="2.449685940">
        <ele>339.48</ele>
        <time>2015-06-14T08:58:18Z</time>
      </trkpt>
      <trkpt lat="41.610310330" lon="2.449627770">
        <ele>338.04</ele>
        <time>2015-06-14T08:58:24Z</time>
      </trkpt>
      <trkpt lat="41.610193150" lon="2.449611510">
        <ele>334.68</ele>
        <time>2015-06-14T08:58:29Z</time>
      </trkpt>
      <trkpt lat="41.610024590" lon="2.449610500">
        <ele>331.31</ele>
        <time>2015-06-14T08:58:34Z</time>
      </trkpt>
      <trkpt lat="41.609952680" lon="2.449605390">
        <ele>330.35</ele>
        <time>2015-06-14T08:58:36Z</time>
      </trkpt>
      <trkpt lat="41.609840950" lon="2.449562310">
        <ele>329.39</ele>
        <time>2015-06-14T08:58:39Z</time>
      </trkpt>
      <trkpt lat="41.609722260" lon="2.449500450">
        <ele>327.95</ele>
        <time>2015-06-14T08:58:42Z</time>
      </trkpt>
      <trkpt lat="41.609423190" lon="2.449166010">
        <ele>326.02</ele>
        <time>2015-06-14T08:58:50Z</time>
      </trkpt>
      <trkpt lat="41.609387070" lon="2.449113200">
        <ele>326.02</ele>
        <time>2015-06-14T08:58:51Z</time>
      </trkpt>
      <trkpt lat="41.609289750" lon="2.448961910">
        <ele>325.54</ele>
        <time>2015-06-14T08:58:54Z</time>
      </trkpt>
      <trkpt lat="41.609237870" lon="2.448853200">
        <ele>325.54</ele>
        <time>2015-06-14T08:58:56Z</time>
      </trkpt>
      <trkpt lat="41.609193360" lon="2.448517000">
        <ele>323.62</ele>
        <time>2015-06-14T08:59:02Z</time>
      </trkpt>
      <trkpt lat="41.609201990" lon="2.448409960">
        <ele>322.66</ele>
        <time>2015-06-14T08:59:04Z</time>
      </trkpt>
      <trkpt lat="41.609182300" lon="2.448343330">
        <ele>321.22</ele>
        <time>2015-06-14T08:59:06Z</time>
      </trkpt>
      <trkpt lat="41.609032760" lon="2.448252210">
        <ele>322.66</ele>
        <time>2015-06-14T08:59:13Z</time>
      </trkpt>
      <trkpt lat="41.608868650" lon="2.448274180">
        <ele>321.70</ele>
        <time>2015-06-14T08:59:18Z</time>
      </trkpt>
      <trkpt lat="41.608699330" lon="2.448258420">
        <ele>318.81</ele>
        <time>2015-06-14T08:59:23Z</time>
      </trkpt>
      <trkpt lat="41.608645020" lon="2.448250450">
        <ele>317.85</ele>
        <time>2015-06-14T08:59:25Z</time>
      </trkpt>
      <trkpt lat="41.608527670" lon="2.448329240">
        <ele>314.49</ele>
        <time>2015-06-14T08:59:30Z</time>
      </trkpt>
      <trkpt lat="41.608507970" lon="2.448351120">
        <ele>314.49</ele>
        <time>2015-06-14T08:59:31Z</time>
      </trkpt>
      <trkpt lat="41.608433960" lon="2.448426730">
        <ele>313.05</ele>
        <time>2015-06-14T08:59:37Z</time>
      </trkpt>
      <trkpt lat="41.608364310" lon="2.448436700">
        <ele>311.60</ele>
        <time>2015-06-14T08:59:42Z</time>
      </trkpt>
      <trkpt lat="41.608301530" lon="2.448465370">
        <ele>309.68</ele>
        <time>2015-06-14T08:59:49Z</time>
      </trkpt>
      <trkpt lat="41.608283420" lon="2.448473410">
        <ele>309.20</ele>
        <time>2015-06-14T08:59:55Z</time>
      </trkpt>
      <trkpt lat="41.608260620" lon="2.448512310">
        <ele>308.72</ele>
        <time>2015-06-14T09:00:04Z</time>
      </trkpt>
      <trkpt lat="41.608217870" lon="2.448591010">
        <ele>307.28</ele>
        <time>2015-06-14T09:00:10Z</time>
      </trkpt>
      <trkpt lat="41.608219300" lon="2.448597880">
        <ele>307.28</ele>
        <time>2015-06-14T09:00:11Z</time>
      </trkpt>
      <trkpt lat="41.608189380" lon="2.448749510">
        <ele>305.84</ele>
        <time>2015-06-14T09:00:16Z</time>
      </trkpt>
      <trkpt lat="41.608077560" lon="2.448825700">
        <ele>304.39</ele>
        <time>2015-06-14T09:00:19Z</time>
      </trkpt>
      <trkpt lat="41.607940940" lon="2.448766360">
        <ele>301.51</ele>
        <time>2015-06-14T09:00:23Z</time>
      </trkpt>
      <trkpt lat="41.607786120" lon="2.448814470">
        <ele>298.63</ele>
        <time>2015-06-14T09:00:28Z</time>
      </trkpt>
      <trkpt lat="41.607754690" lon="2.448848590">
        <ele>298.15</ele>
        <time>2015-06-14T09:00:29Z</time>
      </trkpt>
      <trkpt lat="41.607661150" lon="2.448945480">
        <ele>297.18</ele>
        <time>2015-06-14T09:00:32Z</time>
      </trkpt>
      <trkpt lat="41.607434920" lon="2.449046820">
        <ele>295.26</ele>
        <time>2015-06-14T09:00:37Z</time>
      </trkpt>
      <trkpt lat="41.607314810" lon="2.449115720">
        <ele>293.82</ele>
        <time>2015-06-14T09:00:40Z</time>
      </trkpt>
      <trkpt lat="41.607170720" lon="2.449139360">
        <ele>292.86</ele>
        <time>2015-06-14T09:00:43Z</time>
      </trkpt>
      <trkpt lat="41.606869810" lon="2.449087970">
        <ele>289.01</ele>
        <time>2015-06-14T09:00:50Z</time>
      </trkpt>
      <trkpt lat="41.606696640" lon="2.448952270">
        <ele>286.13</ele>
        <time>2015-06-14T09:00:55Z</time>
      </trkpt>
      <trkpt lat="41.606683230" lon="2.448940370">
        <ele>285.65</ele>
        <time>2015-06-14T09:01:00Z</time>
      </trkpt>
      <trkpt lat="41.606643170" lon="2.448887060">
        <ele>285.65</ele>
        <time>2015-06-14T09:01:11Z</time>
      </trkpt>
      <trkpt lat="41.606635710" lon="2.448866020">
        <ele>285.65</ele>
        <time>2015-06-14T09:01:12Z</time>
      </trkpt>
      <trkpt lat="41.606560100" lon="2.448820930">
        <ele>285.17</ele>
        <time>2015-06-14T09:01:16Z</time>
      </trkpt>
      <trkpt lat="41.606409730" lon="2.448882110">
        <ele>285.17</ele>
        <time>2015-06-14T09:01:23Z</time>
      </trkpt>
      <trkpt lat="41.606277300" lon="2.448949670">
        <ele>286.61</ele>
        <time>2015-06-14T09:01:30Z</time>
      </trkpt>
      <trkpt lat="41.606104290" lon="2.449158130">
        <ele>286.61</ele>
        <time>2015-06-14T09:01:35Z</time>
      </trkpt>
      <trkpt lat="41.606064060" lon="2.449203730">
        <ele>285.17</ele>
        <time>2015-06-14T09:01:36Z</time>
      </trkpt>
      <trkpt lat="41.605759290" lon="2.449382350">
        <ele>283.73</ele>
        <time>2015-06-14T09:01:42Z</time>
      </trkpt>
      <trkpt lat="41.605705480" lon="2.449394920">
        <ele>283.73</ele>
        <time>2015-06-14T09:01:43Z</time>
      </trkpt>
      <trkpt lat="41.605322090" lon="2.449453010">
        <ele>283.73</ele>
        <time>2015-06-14T09:01:51Z</time>
      </trkpt>
      <trkpt lat="41.605069130" lon="2.449402380">
        <ele>285.65</ele>
        <time>2015-06-14T09:01:58Z</time>
      </trkpt>
      <trkpt lat="41.604898390" lon="2.449343790">
        <ele>286.61</ele>
        <time>2015-06-14T09:02:04Z</time>
      </trkpt>
      <trkpt lat="41.604746930" lon="2.449254940">
        <ele>285.65</ele>
        <time>2015-06-14T09:02:09Z</time>
      </trkpt>
      <trkpt lat="41.604588760" lon="2.449199790">
        <ele>284.21</ele>
        <time>2015-06-14T09:02:14Z</time>
      </trkpt>
      <trkpt lat="41.604391370" lon="2.449173130">
        <ele>282.77</ele>
        <time>2015-06-14T09:02:19Z</time>
      </trkpt>
      <trkpt lat="41.604196320" lon="2.449157040">
        <ele>280.84</ele>
        <time>2015-06-14T09:02:24Z</time>
      </trkpt>
      <trkpt lat="41.604107220" lon="2.449157880">
        <ele>279.40</ele>
        <time>2015-06-14T09:02:27Z</time>
      </trkpt>
      <trkpt lat="41.603938740" lon="2.449027210">
        <ele>277.48</ele>
        <time>2015-06-14T09:02:32Z</time>
      </trkpt>
      <trkpt lat="41.603902280" lon="2.449007680">
        <ele>276.04</ele>
        <time>2015-06-14T09:02:33Z</time>
      </trkpt>
      <trkpt lat="41.603823330" lon="2.448986300">
        <ele>275.56</ele>
        <time>2015-06-14T09:02:39Z</time>
      </trkpt>
      <trkpt lat="41.603812090" lon="2.448993930">
        <ele>275.56</ele>
        <time>2015-06-14T09:02:43Z</time>
      </trkpt>
      <trkpt lat="41.603806650" lon="2.449134830">
        <ele>275.07</ele>
        <time>2015-06-14T09:02:49Z</time>
      </trkpt>
      <trkpt lat="41.603827520" lon="2.449478320">
        <ele>273.15</ele>
        <time>2015-06-14T09:02:58Z</time>
      </trkpt>
      <trkpt lat="41.603851820" lon="2.449756600">
        <ele>272.19</ele>
        <time>2015-06-14T09:03:04Z</time>
      </trkpt>
      <trkpt lat="41.603868340" lon="2.449899590">
        <ele>270.75</ele>
        <time>2015-06-14T09:03:07Z</time>
      </trkpt>
      <trkpt lat="41.603824420" lon="2.449995820">
        <ele>269.79</ele>
        <time>2015-06-14T09:03:12Z</time>
      </trkpt>
      <trkpt lat="41.603723920" lon="2.450113750">
        <ele>266.42</ele>
        <time>2015-06-14T09:03:18Z</time>
      </trkpt>
      <trkpt lat="41.603706150" lon="2.450148120">
        <ele>266.42</ele>
        <time>2015-06-14T09:03:19Z</time>
      </trkpt>
      <trkpt lat="41.603623670" lon="2.450349280">
        <ele>264.50</ele>
        <time>2015-06-14T09:03:24Z</time>
      </trkpt>
      <trkpt lat="41.603581090" lon="2.450419190">
        <ele>262.58</ele>
        <time>2015-06-14T09:03:29Z</time>
      </trkpt>
      <trkpt lat="41.603582350" lon="2.450436620">
        <ele>263.06</ele>
        <time>2015-06-14T09:03:38Z</time>
      </trkpt>
      <trkpt lat="41.603587790" lon="2.450453640">
        <ele>262.58</ele>
        <time>2015-06-14T09:03:53Z</time>
      </trkpt>
      <trkpt lat="41.603612020" lon="2.450453720">
        <ele>262.58</ele>
        <time>2015-06-14T09:04:17Z</time>
      </trkpt>
      <trkpt lat="41.603596760" lon="2.450474340">
        <ele>262.58</ele>
        <time>2015-06-14T09:04:32Z</time>
      </trkpt>
      <trkpt lat="41.603589050" lon="2.450537790">
        <ele>262.58</ele>
        <time>2015-06-14T09:04:40Z</time>
      </trkpt>
      <trkpt lat="41.603591570" lon="2.450577520">
        <ele>262.10</ele>
        <time>2015-06-14T09:04:45Z</time>
      </trkpt>
      <trkpt lat="41.603586700" lon="2.450699900">
        <ele>260.65</ele>
        <time>2015-06-14T09:04:53Z</time>
      </trkpt>
      <trkpt lat="41.603583020" lon="2.450745330">
        <ele>259.69</ele>
        <time>2015-06-14T09:04:55Z</time>
      </trkpt>
      <trkpt lat="41.603577070" lon="2.450896120">
        <ele>258.25</ele>
        <time>2015-06-14T09:05:01Z</time>
      </trkpt>
      <trkpt lat="41.603568180" lon="2.450913800">
        <ele>257.77</ele>
        <time>2015-06-14T09:05:02Z</time>
      </trkpt>
      <trkpt lat="41.603444300" lon="2.451001060">
        <ele>255.37</ele>
        <time>2015-06-14T09:05:08Z</time>
      </trkpt>
      <trkpt lat="41.603308680" lon="2.451135000">
        <ele>252.48</ele>
        <time>2015-06-14T09:05:14Z</time>
      </trkpt>
      <trkpt lat="41.603258470" lon="2.451179010">
        <ele>252.00</ele>
        <time>2015-06-14T09:05:16Z</time>
      </trkpt>
      <trkpt lat="41.603099630" lon="2.451322420">
        <ele>248.64</ele>
        <time>2015-06-14T09:05:22Z</time>
      </trkpt>
      <trkpt lat="41.603076080" lon="2.451345810">
        <ele>248.16</ele>
        <time>2015-06-14T09:05:23Z</time>
      </trkpt>
      <trkpt lat="41.602951440" lon="2.451379500">
        <ele>245.75</ele>
        <time>2015-06-14T09:05:29Z</time>
      </trkpt>
      <trkpt lat="41.602941380" lon="2.451385790">
        <ele>245.27</ele>
        <time>2015-06-14T09:05:30Z</time>
      </trkpt>
      <trkpt lat="41.602890000" lon="2.451458880">
        <ele>244.31</ele>
        <time>2015-06-14T09:05:37Z</time>
      </trkpt>
      <trkpt lat="41.602875330" lon="2.451467180">
        <ele>244.31</ele>
        <time>2015-06-14T09:05:48Z</time>
      </trkpt>
      <trkpt lat="41.602872650" lon="2.451453100">
        <ele>244.31</ele>
        <time>2015-06-14T09:05:52Z</time>
      </trkpt>
      <trkpt lat="41.602881030" lon="2.451421160">
        <ele>244.31</ele>
        <time>2015-06-14T09:06:00Z</time>
      </trkpt>
      <trkpt lat="41.602848590" lon="2.451315970">
        <ele>244.31</ele>
        <time>2015-06-14T09:06:06Z</time>
      </trkpt>
      <trkpt lat="41.602804840" lon="2.451270960">
        <ele>243.35</ele>
        <time>2015-06-14T09:06:10Z</time>
      </trkpt>
      <trkpt lat="41.602727390" lon="2.451132990">
        <ele>242.87</ele>
        <time>2015-06-14T09:06:15Z</time>
      </trkpt>
      <trkpt lat="41.602696040" lon="2.450863930">
        <ele>241.91</ele>
        <time>2015-06-14T09:06:22Z</time>
      </trkpt>
      <trkpt lat="41.602692520" lon="2.450610880">
        <ele>241.91</ele>
        <time>2015-06-14T09:06:30Z</time>
      </trkpt>
      <trkpt lat="41.602692440" lon="2.450443330">
        <ele>243.35</ele>
        <time>2015-06-14T09:06:36Z</time>
      </trkpt>
      <trkpt lat="41.602689090" lon="2.450416670">
        <ele>243.35</ele>
        <time>2015-06-14T09:06:37Z</time>
      </trkpt>
      <trkpt lat="41.602695370" lon="2.450312070">
        <ele>244.31</ele>
        <time>2015-06-14T09:06:41Z</time>
      </trkpt>
      <trkpt lat="41.602686660" lon="2.450020960">
        <ele>245.27</ele>
        <time>2015-06-14T09:06:49Z</time>
      </trkpt>
      <trkpt lat="41.602698810" lon="2.449787610">
        <ele>245.27</ele>
        <time>2015-06-14T09:06:54Z</time>
      </trkpt>
      <trkpt lat="41.602722870" lon="2.449563310">
        <ele>244.79</ele>
        <time>2015-06-14T09:07:00Z</time>
      </trkpt>
      <trkpt lat="41.602739130" lon="2.449487290">
        <ele>243.83</ele>
        <time>2015-06-14T09:07:02Z</time>
      </trkpt>
      <trkpt lat="41.602726720" lon="2.449278580">
        <ele>242.39</ele>
        <time>2015-06-14T09:07:08Z</time>
      </trkpt>
      <trkpt lat="41.602685990" lon="2.449210600">
        <ele>242.39</ele>
        <time>2015-06-14T09:07:12Z</time>
      </trkpt>
      <trkpt lat="41.602616830" lon="2.449175980">
        <ele>241.91</ele>
        <time>2015-06-14T09:07:20Z</time>
      </trkpt>
      <trkpt lat="41.602592280" lon="2.449174480">
        <ele>241.91</ele>
        <time>2015-06-14T09:07:29Z</time>
      </trkpt>
      <trkpt lat="41.602583730" lon="2.449184700">
        <ele>241.91</ele>
        <time>2015-06-14T09:07:33Z</time>
      </trkpt>
      <trkpt lat="41.602545590" lon="2.449248660">
        <ele>241.43</ele>
        <time>2015-06-14T09:07:38Z</time>
      </trkpt>
      <trkpt lat="41.602547520" lon="2.449294670">
        <ele>241.43</ele>
        <time>2015-06-14T09:07:40Z</time>
      </trkpt>
      <trkpt lat="41.602509550" lon="2.449493990">
        <ele>239.99</ele>
        <time>2015-06-14T09:07:46Z</time>
      </trkpt>
      <trkpt lat="41.602449110" lon="2.449659120">
        <ele>239.02</ele>
        <time>2015-06-14T09:07:49Z</time>
      </trkpt>
      <trkpt lat="41.602445420" lon="2.449958430">
        <ele>237.58</ele>
        <time>2015-06-14T09:07:55Z</time>
      </trkpt>
      <trkpt lat="41.602507530" lon="2.450175950">
        <ele>236.62</ele>
        <time>2015-06-14T09:08:00Z</time>
      </trkpt>
      <trkpt lat="41.602529580" lon="2.450410390">
        <ele>235.66</ele>
        <time>2015-06-14T09:08:06Z</time>
      </trkpt>
      <trkpt lat="41.602509380" lon="2.450602670">
        <ele>234.22</ele>
        <time>2015-06-14T09:08:10Z</time>
      </trkpt>
      <trkpt lat="41.602480800" lon="2.450995950">
        <ele>230.37</ele>
        <time>2015-06-14T09:08:15Z</time>
      </trkpt>
      <trkpt lat="41.602483900" lon="2.451384030">
        <ele>227.01</ele>
        <time>2015-06-14T09:08:20Z</time>
      </trkpt>
      <trkpt lat="41.602481970" lon="2.451469610">
        <ele>226.53</ele>
        <time>2015-06-14T09:08:21Z</time>
      </trkpt>
      <trkpt lat="41.602461270" lon="2.451738670">
        <ele>224.61</ele>
        <time>2015-06-14T09:08:25Z</time>
      </trkpt>
      <trkpt lat="41.602457330" lon="2.451873030">
        <ele>223.64</ele>
        <time>2015-06-14T09:08:31Z</time>
      </trkpt>
      <trkpt lat="41.602455900" lon="2.451946040">
        <ele>223.16</ele>
        <time>2015-06-14T09:08:38Z</time>
      </trkpt>
      <trkpt lat="41.602444340" lon="2.452002030">
        <ele>222.20</ele>
        <time>2015-06-14T09:08:40Z</time>
      </trkpt>
      <trkpt lat="41.602491270" lon="2.452092470">
        <ele>222.20</ele>
        <time>2015-06-14T09:08:44Z</time>
      </trkpt>
      <trkpt lat="41.602650700" lon="2.452268820">
        <ele>221.72</ele>
        <time>2015-06-14T09:08:50Z</time>
      </trkpt>
      <trkpt lat="41.602773490" lon="2.452486330">
        <ele>221.24</ele>
        <time>2015-06-14T09:08:56Z</time>
      </trkpt>
      <trkpt lat="41.602867620" lon="2.452683640">
        <ele>220.76</ele>
        <time>2015-06-14T09:09:03Z</time>
      </trkpt>
      <trkpt lat="41.602970300" lon="2.452864940">
        <ele>220.28</ele>
        <time>2015-06-14T09:09:08Z</time>
      </trkpt>
      <trkpt lat="41.602995450" lon="2.452885900">
        <ele>220.28</ele>
        <time>2015-06-14T09:09:09Z</time>
      </trkpt>
      <trkpt lat="41.603138860" lon="2.452935520">
        <ele>220.28</ele>
        <time>2015-06-14T09:09:15Z</time>
      </trkpt>
      <trkpt lat="41.603185710" lon="2.452940380">
        <ele>221.72</ele>
        <time>2015-06-14T09:09:17Z</time>
      </trkpt>
      <trkpt lat="41.603309180" lon="2.452945490">
        <ele>222.68</ele>
        <time>2015-06-14T09:09:22Z</time>
      </trkpt>
      <trkpt lat="41.603471870" lon="2.452953710">
        <ele>224.12</ele>
        <time>2015-06-14T09:09:32Z</time>
      </trkpt>
      <trkpt lat="41.603616130" lon="2.452998130">
        <ele>224.61</ele>
        <time>2015-06-14T09:09:38Z</time>
      </trkpt>
      <trkpt lat="41.603751240" lon="2.453128220">
        <ele>225.09</ele>
        <time>2015-06-14T09:09:44Z</time>
      </trkpt>
      <trkpt lat="41.603774630" lon="2.453148750">
        <ele>225.57</ele>
        <time>2015-06-14T09:09:45Z</time>
      </trkpt>
      <trkpt lat="41.603865320" lon="2.453387720">
        <ele>226.05</ele>
        <time>2015-06-14T09:09:53Z</time>
      </trkpt>
      <trkpt lat="41.603921980" lon="2.453585120">
        <ele>226.05</ele>
        <time>2015-06-14T09:09:59Z</time>
      </trkpt>
      <trkpt lat="41.603966070" lon="2.453809330">
        <ele>226.05</ele>
        <time>2015-06-14T09:10:05Z</time>
      </trkpt>
      <trkpt lat="41.603924660" lon="2.454112930">
        <ele>226.53</ele>
        <time>2015-06-14T09:10:12Z</time>
      </trkpt>
      <trkpt lat="41.603874620" lon="2.454370840">
        <ele>228.45</ele>
        <time>2015-06-14T09:10:19Z</time>
      </trkpt>
      <trkpt lat="41.603883840" lon="2.454509220">
        <ele>229.41</ele>
        <time>2015-06-14T09:10:23Z</time>
      </trkpt>
      <trkpt lat="41.603895910" lon="2.454747600">
        <ele>229.89</ele>
        <time>2015-06-14T09:10:30Z</time>
      </trkpt>
      <trkpt lat="41.603961880" lon="2.455009450">
        <ele>229.89</ele>
        <time>2015-06-14T09:10:36Z</time>
      </trkpt>
      <trkpt lat="41.604080320" lon="2.455278930">
        <ele>229.89</ele>
        <time>2015-06-14T09:10:42Z</time>
      </trkpt>
      <trkpt lat="41.604229510" lon="2.455545480">
        <ele>229.89</ele>
        <time>2015-06-14T09:10:49Z</time>
      </trkpt>
      <trkpt lat="41.604387600" lon="2.455734070">
        <ele>229.89</ele>
        <time>2015-06-14T09:10:56Z</time>
      </trkpt>
      <trkpt lat="41.604564790" lon="2.455847220">
        <ele>231.33</ele>
        <time>2015-06-14T09:11:04Z</time>
      </trkpt>
      <trkpt lat="41.604706950" lon="2.455894500">
        <ele>232.30</ele>
        <time>2015-06-14T09:11:11Z</time>
      </trkpt>
      <trkpt lat="41.604844910" lon="2.455950830">
        <ele>233.26</ele>
        <time>2015-06-14T09:11:17Z</time>
      </trkpt>
      <trkpt lat="41.604932920" lon="2.456019640">
        <ele>235.18</ele>
        <time>2015-06-14T09:11:23Z</time>
      </trkpt>
      <trkpt lat="41.604981370" lon="2.456096000">
        <ele>236.14</ele>
        <time>2015-06-14T09:11:27Z</time>
      </trkpt>
      <trkpt lat="41.605083290" lon="2.456270850">
        <ele>238.54</ele>
        <time>2015-06-14T09:11:36Z</time>
      </trkpt>
      <trkpt lat="41.605129560" lon="2.456465810">
        <ele>240.47</ele>
        <time>2015-06-14T09:11:44Z</time>
      </trkpt>
      <trkpt lat="41.605116320" lon="2.456628500">
        <ele>240.47</ele>
        <time>2015-06-14T09:11:50Z</time>
      </trkpt>
      <trkpt lat="41.605110280" lon="2.456804190">
        <ele>240.47</ele>
        <time>2015-06-14T09:11:56Z</time>
      </trkpt>
      <trkpt lat="41.605092180" lon="2.456969980">
        <ele>240.47</ele>
        <time>2015-06-14T09:12:01Z</time>
      </trkpt>
      <trkpt lat="41.605185300" lon="2.457405250">
        <ele>240.95</ele>
        <time>2015-06-14T09:12:09Z</time>
      </trkpt>
      <trkpt lat="41.605234670" lon="2.457680350">
        <ele>240.47</ele>
        <time>2015-06-14T09:12:15Z</time>
      </trkpt>
      <trkpt lat="41.605266350" lon="2.457880670">
        <ele>240.47</ele>
        <time>2015-06-14T09:12:21Z</time>
      </trkpt>
      <trkpt lat="41.605310440" lon="2.458097010">
        <ele>241.43</ele>
        <time>2015-06-14T09:12:28Z</time>
      </trkpt>
      <trkpt lat="41.605329050" lon="2.458189720">
        <ele>241.43</ele>
        <time>2015-06-14T09:12:31Z</time>
      </trkpt>
      <trkpt lat="41.605365260" lon="2.458403870">
        <ele>241.43</ele>
        <time>2015-06-14T09:12:37Z</time>
      </trkpt>
      <trkpt lat="41.605363420" lon="2.458456090">
        <ele>241.43</ele>
        <time>2015-06-14T09:12:39Z</time>
      </trkpt>
      <trkpt lat="41.605342040" lon="2.458657340">
        <ele>241.43</ele>
        <time>2015-06-14T09:12:46Z</time>
      </trkpt>
      <trkpt lat="41.605340790" lon="2.458930840">
        <ele>241.43</ele>
        <time>2015-06-14T09:12:53Z</time>
      </trkpt>
      <trkpt lat="41.605368030" lon="2.459179030">
        <ele>241.43</ele>
        <time>2015-06-14T09:12:59Z</time>
      </trkpt>
      <trkpt lat="41.605428460" lon="2.459318000">
        <ele>241.43</ele>
        <time>2015-06-14T09:13:03Z</time>
      </trkpt>
      <trkpt lat="41.605510520" lon="2.459542300">
        <ele>241.43</ele>
        <time>2015-06-14T09:13:08Z</time>
      </trkpt>
      <trkpt lat="41.605651080" lon="2.459914710">
        <ele>241.43</ele>
        <time>2015-06-14T09:13:16Z</time>
      </trkpt>
      <trkpt lat="41.605741360" lon="2.460233560">
        <ele>241.43</ele>
        <time>2015-06-14T09:13:23Z</time>
      </trkpt>
      <trkpt lat="41.605869350" lon="2.460552830">
        <ele>241.91</ele>
        <time>2015-06-14T09:13:29Z</time>
      </trkpt>
      <trkpt lat="41.606073280" lon="2.460908470">
        <ele>242.39</ele>
        <time>2015-06-14T09:13:36Z</time>
      </trkpt>
      <trkpt lat="41.606219880" lon="2.461229500">
        <ele>242.39</ele>
        <time>2015-06-14T09:13:43Z</time>
      </trkpt>
      <trkpt lat="41.606296320" lon="2.461412310">
        <ele>243.35</ele>
        <time>2015-06-14T09:13:48Z</time>
      </trkpt>
      <trkpt lat="41.606413670" lon="2.461673990">
        <ele>245.27</ele>
        <time>2015-06-14T09:13:56Z</time>
      </trkpt>
      <trkpt lat="41.606549960" lon="2.461883200">
        <ele>245.75</ele>
        <time>2015-06-14T09:14:03Z</time>
      </trkpt>
      <trkpt lat="41.606689180" lon="2.461970710">
        <ele>246.23</ele>
        <time>2015-06-14T09:14:08Z</time>
      </trkpt>
      <trkpt lat="41.606905270" lon="2.462099450">
        <ele>246.72</ele>
        <time>2015-06-14T09:14:15Z</time>
      </trkpt>
      <trkpt lat="41.607186310" lon="2.462268180">
        <ele>247.68</ele>
        <time>2015-06-14T09:14:24Z</time>
      </trkpt>
      <trkpt lat="41.607396030" lon="2.462466580">
        <ele>248.16</ele>
        <time>2015-06-14T09:14:32Z</time>
      </trkpt>
      <trkpt lat="41.607654530" lon="2.462819630">
        <ele>250.08</ele>
        <time>2015-06-14T09:14:42Z</time>
      </trkpt>
      <trkpt lat="41.607831050" lon="2.463132860">
        <ele>250.08</ele>
        <time>2015-06-14T09:14:50Z</time>
      </trkpt>
      <trkpt lat="41.607872710" lon="2.463472410">
        <ele>250.56</ele>
        <time>2015-06-14T09:14:58Z</time>
      </trkpt>
      <trkpt lat="41.607889970" lon="2.463753460">
        <ele>251.04</ele>
        <time>2015-06-14T09:15:05Z</time>
      </trkpt>
      <trkpt lat="41.607879920" lon="2.463876840">
        <ele>251.04</ele>
        <time>2015-06-14T09:15:08Z</time>
      </trkpt>
      <trkpt lat="41.607777410" lon="2.464148830">
        <ele>249.60</ele>
        <time>2015-06-14T09:15:15Z</time>
      </trkpt>
      <trkpt lat="41.607777740" lon="2.464183950">
        <ele>249.60</ele>
        <time>2015-06-14T09:15:16Z</time>
      </trkpt>
      <trkpt lat="41.607841020" lon="2.464315290">
        <ele>249.60</ele>
        <time>2015-06-14T09:15:20Z</time>
      </trkpt>
      <trkpt lat="41.607950580" lon="2.464592990">
        <ele>251.04</ele>
        <time>2015-06-14T09:15:27Z</time>
      </trkpt>
      <trkpt lat="41.608018720" lon="2.464909740">
        <ele>252.00</ele>
        <time>2015-06-14T09:15:33Z</time>
      </trkpt>
      <trkpt lat="41.608092060" lon="2.465208550">
        <ele>252.00</ele>
        <time>2015-06-14T09:15:39Z</time>
      </trkpt>
      <trkpt lat="41.608158530" lon="2.465388260">
        <ele>252.00</ele>
        <time>2015-06-14T09:15:44Z</time>
      </trkpt>
      <trkpt lat="41.608356850" lon="2.465650610">
        <ele>252.00</ele>
        <time>2015-06-14T09:15:51Z</time>
      </trkpt>
      <trkpt lat="41.608432700" lon="2.465926380">
        <ele>252.96</ele>
        <time>2015-06-14T09:15:58Z</time>
      </trkpt>
      <trkpt lat="41.608556590" lon="2.466142050">
        <ele>253.44</ele>
        <time>2015-06-14T09:16:05Z</time>
      </trkpt>
      <trkpt lat="41.608783650" lon="2.466403230">
        <ele>254.41</ele>
        <time>2015-06-14T09:16:13Z</time>
      </trkpt>
      <trkpt lat="41.608899410" lon="2.466599360">
        <ele>253.93</ele>
        <time>2015-06-14T09:16:18Z</time>
      </trkpt>
      <trkpt lat="41.608962610" lon="2.466807070">
        <ele>254.41</ele>
        <time>2015-06-14T09:16:23Z</time>
      </trkpt>
      <trkpt lat="41.608999400" lon="2.466992390">
        <ele>255.37</ele>
        <time>2015-06-14T09:16:29Z</time>
      </trkpt>
      <trkpt lat="41.609052710" lon="2.467243930">
        <ele>256.33</ele>
        <time>2015-06-14T09:16:35Z</time>
      </trkpt>
      <trkpt lat="41.609084730" lon="2.467585580">
        <ele>257.29</ele>
        <time>2015-06-14T09:16:43Z</time>
      </trkpt>
      <trkpt lat="41.609084400" lon="2.467948260">
        <ele>259.21</ele>
        <time>2015-06-14T09:16:52Z</time>
      </trkpt>
      <trkpt lat="41.609045000" lon="2.468246740">
        <ele>260.17</ele>
        <time>2015-06-14T09:17:00Z</time>
      </trkpt>
      <trkpt lat="41.608985660" lon="2.468452270">
        <ele>260.17</ele>
        <time>2015-06-14T09:17:06Z</time>
      </trkpt>
      <trkpt lat="41.608903090" lon="2.468697860">
        <ele>260.17</ele>
        <time>2015-06-14T09:17:13Z</time>
      </trkpt>
      <trkpt lat="41.608867640" lon="2.468899270">
        <ele>260.17</ele>
        <time>2015-06-14T09:17:18Z</time>
      </trkpt>
      <trkpt lat="41.608953970" lon="2.469167160">
        <ele>260.17</ele>
        <time>2015-06-14T09:17:24Z</time>
      </trkpt>
      <trkpt lat="41.609084900" lon="2.469453230">
        <ele>260.17</ele>
        <time>2015-06-14T09:17:31Z</time>
      </trkpt>
      <trkpt lat="41.609183800" lon="2.469747270">
        <ele>262.10</ele>
        <time>2015-06-14T09:17:40Z</time>
      </trkpt>
      <trkpt lat="41.609245750" lon="2.470072820">
        <ele>263.06</ele>
        <time>2015-06-14T09:17:48Z</time>
      </trkpt>
      <trkpt lat="41.609312890" lon="2.470427800">
        <ele>264.50</ele>
        <time>2015-06-14T09:17:57Z</time>
      </trkpt>
      <trkpt lat="41.609408940" lon="2.470797440">
        <ele>264.50</ele>
        <time>2015-06-14T09:18:06Z</time>
      </trkpt>
      <trkpt lat="41.609463510" lon="2.471079410">
        <ele>264.50</ele>
        <time>2015-06-14T09:18:14Z</time>
      </trkpt>
      <trkpt lat="41.609515480" lon="2.471313600">
        <ele>264.98</ele>
        <time>2015-06-14T09:18:20Z</time>
      </trkpt>
      <trkpt lat="41.609534670" lon="2.471537310">
        <ele>265.94</ele>
        <time>2015-06-14T09:18:26Z</time>
      </trkpt>
      <trkpt lat="41.609540960" lon="2.471570330">
        <ele>265.94</ele>
        <time>2015-06-14T09:18:27Z</time>
      </trkpt>
      <trkpt lat="41.609661320" lon="2.471760020">
        <ele>266.42</ele>
        <time>2015-06-14T09:18:34Z</time>
      </trkpt>
      <trkpt lat="41.609804650" lon="2.471831770">
        <ele>266.90</ele>
        <time>2015-06-14T09:18:39Z</time>
      </trkpt>
      <trkpt lat="41.610071110" lon="2.471942990">
        <ele>266.90</ele>
        <time>2015-06-14T09:18:47Z</time>
      </trkpt>
      <trkpt lat="41.610319300" lon="2.472079950">
        <ele>267.86</ele>
        <time>2015-06-14T09:18:54Z</time>
      </trkpt>
      <trkpt lat="41.610566230" lon="2.472254210">
        <ele>268.35</ele>
        <time>2015-06-14T09:19:01Z</time>
      </trkpt>
      <trkpt lat="41.610778960" lon="2.472356220">
        <ele>269.79</ele>
        <time>2015-06-14T09:19:09Z</time>
      </trkpt>
      <trkpt lat="41.610960850" lon="2.472453450">
        <ele>272.19</ele>
        <time>2015-06-14T09:19:19Z</time>
      </trkpt>
      <trkpt lat="41.611101840" lon="2.472550260">
        <ele>274.11</ele>
        <time>2015-06-14T09:19:27Z</time>
      </trkpt>
      <trkpt lat="41.611205180" lon="2.472632240">
        <ele>275.07</ele>
        <time>2015-06-14T09:19:33Z</time>
      </trkpt>
      <trkpt lat="41.611258830" lon="2.472773050">
        <ele>277.00</ele>
        <time>2015-06-14T09:19:41Z</time>
      </trkpt>
      <trkpt lat="41.611327310" lon="2.472958210">
        <ele>277.96</ele>
        <time>2015-06-14T09:19:49Z</time>
      </trkpt>
      <trkpt lat="41.611376090" lon="2.473078910">
        <ele>278.92</ele>
        <time>2015-06-14T09:19:54Z</time>
      </trkpt>
      <trkpt lat="41.611429900" lon="2.473165160">
        <ele>280.36</ele>
        <time>2015-06-14T09:19:59Z</time>
      </trkpt>
      <trkpt lat="41.611445910" lon="2.473199440">
        <ele>280.84</ele>
        <time>2015-06-14T09:20:01Z</time>
      </trkpt>
      <trkpt lat="41.611544060" lon="2.473294410">
        <ele>283.73</ele>
        <time>2015-06-14T09:20:10Z</time>
      </trkpt>
      <trkpt lat="41.611648500" lon="2.473367670">
        <ele>286.13</ele>
        <time>2015-06-14T09:20:17Z</time>
      </trkpt>
      <trkpt lat="41.611774480" lon="2.473441260">
        <ele>288.05</ele>
        <time>2015-06-14T09:20:25Z</time>
      </trkpt>
      <trkpt lat="41.611909930" lon="2.473463390">
        <ele>289.49</ele>
        <time>2015-06-14T09:20:34Z</time>
      </trkpt>
      <trkpt lat="41.611972380" lon="2.473477130">
        <ele>289.97</ele>
        <time>2015-06-14T09:20:37Z</time>
      </trkpt>
      <trkpt lat="41.612067260" lon="2.473517370">
        <ele>290.94</ele>
        <time>2015-06-14T09:20:43Z</time>
      </trkpt>
      <trkpt lat="41.612186290" lon="2.473671590">
        <ele>292.86</ele>
        <time>2015-06-14T09:20:53Z</time>
      </trkpt>
      <trkpt lat="41.612235570" lon="2.473914840">
        <ele>293.82</ele>
        <time>2015-06-14T09:21:02Z</time>
      </trkpt>
      <trkpt lat="41.612322490" lon="2.474130330">
        <ele>294.30</ele>
        <time>2015-06-14T09:21:09Z</time>
      </trkpt>
      <trkpt lat="41.612346210" lon="2.474312050">
        <ele>294.30</ele>
        <time>2015-06-14T09:21:14Z</time>
      </trkpt>
      <trkpt lat="41.612297010" lon="2.474642640">
        <ele>294.30</ele>
        <time>2015-06-14T09:21:22Z</time>
      </trkpt>
      <trkpt lat="41.612303300" lon="2.474880100">
        <ele>294.30</ele>
        <time>2015-06-14T09:21:27Z</time>
      </trkpt>
      <trkpt lat="41.612283680" lon="2.475082440">
        <ele>294.30</ele>
        <time>2015-06-14T09:21:33Z</time>
      </trkpt>
      <trkpt lat="41.612361720" lon="2.475314030">
        <ele>295.26</ele>
        <time>2015-06-14T09:21:41Z</time>
      </trkpt>
      <trkpt lat="41.612451660" lon="2.475502620">
        <ele>296.22</ele>
        <time>2015-06-14T09:21:48Z</time>
      </trkpt>
      <trkpt lat="41.612524750" lon="2.475671930">
        <ele>296.22</ele>
        <time>2015-06-14T09:21:54Z</time>
      </trkpt>
      <trkpt lat="41.612573780" lon="2.475908300">
        <ele>296.70</ele>
        <time>2015-06-14T09:22:01Z</time>
      </trkpt>
      <trkpt lat="41.612616450" lon="2.476083820">
        <ele>296.70</ele>
        <time>2015-06-14T09:22:07Z</time>
      </trkpt>
      <trkpt lat="41.612723230" lon="2.476266550">
        <ele>298.15</ele>
        <time>2015-06-14T09:22:13Z</time>
      </trkpt>
      <trkpt lat="41.612836640" lon="2.476500900">
        <ele>298.63</ele>
        <time>2015-06-14T09:22:20Z</time>
      </trkpt>
      <trkpt lat="41.612943170" lon="2.476784050">
        <ele>299.59</ele>
        <time>2015-06-14T09:22:29Z</time>
      </trkpt>
      <trkpt lat="41.612992960" lon="2.476867280">
        <ele>300.55</ele>
        <time>2015-06-14T09:22:32Z</time>
      </trkpt>
      <trkpt lat="41.613059600" lon="2.477074650">
        <ele>302.95</ele>
        <time>2015-06-14T09:22:39Z</time>
      </trkpt>
      <trkpt lat="41.613052640" lon="2.477214460">
        <ele>304.39</ele>
        <time>2015-06-14T09:22:44Z</time>
      </trkpt>
      <trkpt lat="41.613029840" lon="2.477416210">
        <ele>305.36</ele>
        <time>2015-06-14T09:22:51Z</time>
      </trkpt>
      <trkpt lat="41.612987850" lon="2.477630530">
        <ele>306.80</ele>
        <time>2015-06-14T09:22:59Z</time>
      </trkpt>
      <trkpt lat="41.612939740" lon="2.477858520">
        <ele>309.20</ele>
        <time>2015-06-14T09:23:06Z</time>
      </trkpt>
      <trkpt lat="41.612868820" lon="2.478091960">
        <ele>309.68</ele>
        <time>2015-06-14T09:23:14Z</time>
      </trkpt>
      <trkpt lat="41.612825910" lon="2.478270660">
        <ele>310.16</ele>
        <time>2015-06-14T09:23:21Z</time>
      </trkpt>
      <trkpt lat="41.612821300" lon="2.478492530">
        <ele>311.12</ele>
        <time>2015-06-14T09:23:29Z</time>
      </trkpt>
      <trkpt lat="41.612805960" lon="2.478709870">
        <ele>311.12</ele>
        <time>2015-06-14T09:23:36Z</time>
      </trkpt>
      <trkpt lat="41.612762460" lon="2.479010450">
        <ele>312.09</ele>
        <time>2015-06-14T09:23:45Z</time>
      </trkpt>
      <trkpt lat="41.612716360" lon="2.479280850">
        <ele>312.57</ele>
        <time>2015-06-14T09:23:53Z</time>
      </trkpt>
      <trkpt lat="41.612698840" lon="2.479495260">
        <ele>313.05</ele>
        <time>2015-06-14T09:24:00Z</time>
      </trkpt>
      <trkpt lat="41.612707220" lon="2.479633220">
        <ele>314.49</ele>
        <time>2015-06-14T09:24:05Z</time>
      </trkpt>
      <trkpt lat="41.612764130" lon="2.479838580">
        <ele>316.89</ele>
        <time>2015-06-14T09:24:13Z</time>
      </trkpt>
      <trkpt lat="41.612809900" lon="2.479995240">
        <ele>318.33</ele>
        <time>2015-06-14T09:24:20Z</time>
      </trkpt>
      <trkpt lat="41.612833200" lon="2.480154240">
        <ele>319.78</ele>
        <time>2015-06-14T09:24:28Z</time>
      </trkpt>
      <trkpt lat="41.612810910" lon="2.480375520">
        <ele>321.22</ele>
        <time>2015-06-14T09:24:36Z</time>
      </trkpt>
      <trkpt lat="41.612759270" lon="2.480629080">
        <ele>322.66</ele>
        <time>2015-06-14T09:24:45Z</time>
      </trkpt>
      <trkpt lat="41.612790790" lon="2.480850440">
        <ele>323.62</ele>
        <time>2015-06-14T09:24:53Z</time>
      </trkpt>
      <trkpt lat="41.612806300" lon="2.480996710">
        <ele>323.62</ele>
        <time>2015-06-14T09:24:58Z</time>
      </trkpt>
      <trkpt lat="41.612764640" lon="2.481184460">
        <ele>322.18</ele>
        <time>2015-06-14T09:25:03Z</time>
      </trkpt>
      <trkpt lat="41.612844270" lon="2.481372630">
        <ele>321.70</ele>
        <time>2015-06-14T09:25:10Z</time>
      </trkpt>
      <trkpt lat="41.612900420" lon="2.481478160">
        <ele>321.22</ele>
        <time>2015-06-14T09:25:12Z</time>
      </trkpt>
      <trkpt lat="41.612950970" lon="2.481587970">
        <ele>320.26</ele>
        <time>2015-06-14T09:25:14Z</time>
      </trkpt>
      <trkpt lat="41.612942080" lon="2.481867330">
        <ele>318.81</ele>
        <time>2015-06-14T09:25:19Z</time>
      </trkpt>
      <trkpt lat="41.612934620" lon="2.481931290">
        <ele>318.33</ele>
        <time>2015-06-14T09:25:20Z</time>
      </trkpt>
      <trkpt lat="41.612947870" lon="2.482156090">
        <ele>317.85</ele>
        <time>2015-06-14T09:25:24Z</time>
      </trkpt>
      <trkpt lat="41.612966640" lon="2.482246530">
        <ele>318.81</ele>
        <time>2015-06-14T09:25:27Z</time>
      </trkpt>
      <trkpt lat="41.612993210" lon="2.482415760">
        <ele>321.22</ele>
        <time>2015-06-14T09:25:34Z</time>
      </trkpt>
      <trkpt lat="41.613010310" lon="2.482590020">
        <ele>321.22</ele>
        <time>2015-06-14T09:25:39Z</time>
      </trkpt>
      <trkpt lat="41.613026660" lon="2.482950700">
        <ele>322.18</ele>
        <time>2015-06-14T09:25:46Z</time>
      </trkpt>
      <trkpt lat="41.612939650" lon="2.483202150">
        <ele>324.58</ele>
        <time>2015-06-14T09:25:55Z</time>
      </trkpt>
      <trkpt lat="41.612883490" lon="2.483367440">
        <ele>325.54</ele>
        <time>2015-06-14T09:26:02Z</time>
      </trkpt>
      <trkpt lat="41.612854580" lon="2.483506750">
        <ele>326.99</ele>
        <time>2015-06-14T09:26:09Z</time>
      </trkpt>
      <trkpt lat="41.612839150" lon="2.483678580">
        <ele>328.43</ele>
        <time>2015-06-14T09:26:17Z</time>
      </trkpt>
      <trkpt lat="41.612835460" lon="2.483702130">
        <ele>328.43</ele>
        <time>2015-06-14T09:26:18Z</time>
      </trkpt>
      <trkpt lat="41.612801770" lon="2.483795170">
        <ele>329.39</ele>
        <time>2015-06-14T09:26:23Z</time>
      </trkpt>
      <trkpt lat="41.612785930" lon="2.483873880">
        <ele>329.87</ele>
        <time>2015-06-14T09:26:27Z</time>
      </trkpt>
      <trkpt lat="41.612741590" lon="2.483967170">
        <ele>329.87</ele>
        <time>2015-06-14T09:26:32Z</time>
      </trkpt>
      <trkpt lat="41.612687520" lon="2.484068340">
        <ele>331.31</ele>
        <time>2015-06-14T09:26:39Z</time>
      </trkpt>
      <trkpt lat="41.612611420" lon="2.484200600">
        <ele>333.23</ele>
        <time>2015-06-14T09:26:47Z</time>
      </trkpt>
      <trkpt lat="41.612572440" lon="2.484274780">
        <ele>333.71</ele>
        <time>2015-06-14T09:26:51Z</time>
      </trkpt>
      <trkpt lat="41.612556100" lon="2.484331950">
        <ele>333.71</ele>
        <time>2015-06-14T09:26:53Z</time>
      </trkpt>
      <trkpt lat="41.612498930" lon="2.484487180">
        <ele>334.68</ele>
        <time>2015-06-14T09:26:58Z</time>
      </trkpt>
      <trkpt lat="41.612426090" lon="2.484667730">
        <ele>335.64</ele>
        <time>2015-06-14T09:27:06Z</time>
      </trkpt>
      <trkpt lat="41.612347220" lon="2.484840230">
        <ele>336.60</ele>
        <time>2015-06-14T09:27:13Z</time>
      </trkpt>
      <trkpt lat="41.612326520" lon="2.484886330">
        <ele>337.56</ele>
        <time>2015-06-14T09:27:15Z</time>
      </trkpt>
      <trkpt lat="41.612262650" lon="2.484974250">
        <ele>338.52</ele>
        <time>2015-06-14T09:27:21Z</time>
      </trkpt>
      <trkpt lat="41.612184190" lon="2.485107610">
        <ele>339.96</ele>
        <time>2015-06-14T09:27:29Z</time>
      </trkpt>
      <trkpt lat="41.612130550" lon="2.485241300">
        <ele>341.41</ele>
        <time>2015-06-14T09:27:36Z</time>
      </trkpt>
      <trkpt lat="41.612110010" lon="2.485318830">
        <ele>342.85</ele>
        <time>2015-06-14T09:27:40Z</time>
      </trkpt>
      <trkpt lat="41.612112530" lon="2.485391920">
        <ele>343.33</ele>
        <time>2015-06-14T09:27:44Z</time>
      </trkpt>
      <trkpt lat="41.612081760" lon="2.485537020">
        <ele>344.29</ele>
        <time>2015-06-14T09:27:51Z</time>
      </trkpt>
      <trkpt lat="41.612052760" lon="2.485659980">
        <ele>346.21</ele>
        <time>2015-06-14T09:27:59Z</time>
      </trkpt>
      <trkpt lat="41.612048660" lon="2.485785460">
        <ele>348.13</ele>
        <time>2015-06-14T09:28:06Z</time>
      </trkpt>
      <trkpt lat="41.612050580" lon="2.485922750">
        <ele>349.10</ele>
        <time>2015-06-14T09:28:13Z</time>
      </trkpt>
      <trkpt lat="41.612038510" lon="2.486012440">
        <ele>350.06</ele>
        <time>2015-06-14T09:28:19Z</time>
      </trkpt>
      <trkpt lat="41.612041450" lon="2.486042950">
        <ele>350.06</ele>
        <time>2015-06-14T09:28:21Z</time>
      </trkpt>
      <trkpt lat="41.612061900" lon="2.486199440">
        <ele>351.98</ele>
        <time>2015-06-14T09:28:29Z</time>
      </trkpt>
      <trkpt lat="41.612088300" lon="2.486248890">
        <ele>352.94</ele>
        <time>2015-06-14T09:28:32Z</time>
      </trkpt>
      <trkpt lat="41.612148990" lon="2.486337070">
        <ele>353.42</ele>
        <time>2015-06-14T09:28:37Z</time>
      </trkpt>
      <trkpt lat="41.612160130" lon="2.486573440">
        <ele>354.38</ele>
        <time>2015-06-14T09:28:44Z</time>
      </trkpt>
      <trkpt lat="41.612125270" lon="2.486752640">
        <ele>355.83</ele>
        <time>2015-06-14T09:28:52Z</time>
      </trkpt>
      <trkpt lat="41.612094090" lon="2.486828830">
        <ele>356.79</ele>
        <time>2015-06-14T09:28:58Z</time>
      </trkpt>
      <trkpt lat="41.612064410" lon="2.487021950">
        <ele>358.23</ele>
        <time>2015-06-14T09:29:08Z</time>
      </trkpt>
      <trkpt lat="41.612050920" lon="2.487147510">
        <ele>359.67</ele>
        <time>2015-06-14T09:29:16Z</time>
      </trkpt>
      <trkpt lat="41.612030050" lon="2.487275250">
        <ele>360.63</ele>
        <time>2015-06-14T09:29:24Z</time>
      </trkpt>
      <trkpt lat="41.612028870" lon="2.487380950">
        <ele>362.07</ele>
        <time>2015-06-14T09:29:31Z</time>
      </trkpt>
      <trkpt lat="41.612037170" lon="2.487445570">
        <ele>362.07</ele>
        <time>2015-06-14T09:29:34Z</time>
      </trkpt>
      <trkpt lat="41.612095010" lon="2.487780770">
        <ele>363.52</ele>
        <time>2015-06-14T09:29:42Z</time>
      </trkpt>
      <trkpt lat="41.612136500" lon="2.487912030">
        <ele>364.48</ele>
        <time>2015-06-14T09:29:49Z</time>
      </trkpt>
      <trkpt lat="41.612225930" lon="2.488108580">
        <ele>366.40</ele>
        <time>2015-06-14T09:29:56Z</time>
      </trkpt>
      <trkpt lat="41.612232390" lon="2.488139600">
        <ele>366.40</ele>
        <time>2015-06-14T09:29:57Z</time>
      </trkpt>
      <trkpt lat="41.612205480" lon="2.488370010">
        <ele>366.40</ele>
        <time>2015-06-14T09:30:04Z</time>
      </trkpt>
      <trkpt lat="41.612106070" lon="2.488418210">
        <ele>367.84</ele>
        <time>2015-06-14T09:30:12Z</time>
      </trkpt>
      <trkpt lat="41.612085540" lon="2.488441010">
        <ele>367.84</ele>
        <time>2015-06-14T09:30:14Z</time>
      </trkpt>
      <trkpt lat="41.612034660" lon="2.488549560">
        <ele>369.28</ele>
        <time>2015-06-14T09:30:21Z</time>
      </trkpt>
      <trkpt lat="41.612053010" lon="2.488675540">
        <ele>369.76</ele>
        <time>2015-06-14T09:30:29Z</time>
      </trkpt>
      <trkpt lat="41.612059550" lon="2.488740240">
        <ele>370.73</ele>
        <time>2015-06-14T09:30:34Z</time>
      </trkpt>
      <trkpt lat="41.612070780" lon="2.488875950">
        <ele>371.69</ele>
        <time>2015-06-14T09:30:41Z</time>
      </trkpt>
      <trkpt lat="41.612072540" lon="2.488893050">
        <ele>371.69</ele>
        <time>2015-06-14T09:30:42Z</time>
      </trkpt>
      <trkpt lat="41.612038680" lon="2.489044670">
        <ele>374.09</ele>
        <time>2015-06-14T09:30:51Z</time>
      </trkpt>
      <trkpt lat="41.612024350" lon="2.489113320">
        <ele>375.05</ele>
        <time>2015-06-14T09:30:55Z</time>
      </trkpt>
      <trkpt lat="41.612046640" lon="2.489367960">
        <ele>376.01</ele>
        <time>2015-06-14T09:31:03Z</time>
      </trkpt>
      <trkpt lat="41.612041530" lon="2.489446590">
        <ele>376.97</ele>
        <time>2015-06-14T09:31:09Z</time>
      </trkpt>
      <trkpt lat="41.612049410" lon="2.489565110">
        <ele>378.42</ele>
        <time>2015-06-14T09:31:14Z</time>
      </trkpt>
      <trkpt lat="41.612037510" lon="2.489716900">
        <ele>379.38</ele>
        <time>2015-06-14T09:31:20Z</time>
      </trkpt>
      <trkpt lat="41.612020830" lon="2.489964590">
        <ele>381.30</ele>
        <time>2015-06-14T09:31:29Z</time>
      </trkpt>
      <trkpt lat="41.611987970" lon="2.490073050">
        <ele>382.26</ele>
        <time>2015-06-14T09:31:36Z</time>
      </trkpt>
      <trkpt lat="41.611947820" lon="2.490218810">
        <ele>384.18</ele>
        <time>2015-06-14T09:31:44Z</time>
      </trkpt>
      <trkpt lat="41.611915220" lon="2.490282430">
        <ele>386.11</ele>
        <time>2015-06-14T09:31:50Z</time>
      </trkpt>
      <trkpt lat="41.611896190" lon="2.490453590">
        <ele>388.03</ele>
        <time>2015-06-14T09:31:59Z</time>
      </trkpt>
      <trkpt lat="41.611871800" lon="2.490543690">
        <ele>389.95</ele>
        <time>2015-06-14T09:32:05Z</time>
      </trkpt>
      <trkpt lat="41.611849500" lon="2.490757600">
        <ele>390.91</ele>
        <time>2015-06-14T09:32:13Z</time>
      </trkpt>
      <trkpt lat="41.611835250" lon="2.490904620">
        <ele>391.87</ele>
        <time>2015-06-14T09:32:19Z</time>
      </trkpt>
      <trkpt lat="41.611825780" lon="2.490982910">
        <ele>391.87</ele>
        <time>2015-06-14T09:32:23Z</time>
      </trkpt>
      <trkpt lat="41.611822430" lon="2.491131270">
        <ele>392.84</ele>
        <time>2015-06-14T09:32:30Z</time>
      </trkpt>
      <trkpt lat="41.611828710" lon="2.491191620">
        <ele>393.32</ele>
        <time>2015-06-14T09:32:34Z</time>
      </trkpt>
      <trkpt lat="41.611930810" lon="2.491578690">
        <ele>393.80</ele>
        <time>2015-06-14T09:32:41Z</time>
      </trkpt>
      <trkpt lat="41.611962410" lon="2.491656560">
        <ele>394.28</ele>
        <time>2015-06-14T09:32:44Z</time>
      </trkpt>
      <trkpt lat="41.612033150" lon="2.491782960">
        <ele>396.20</ele>
        <time>2015-06-14T09:32:52Z</time>
      </trkpt>
      <trkpt lat="41.612079330" lon="2.491902900">
        <ele>397.64</ele>
        <time>2015-06-14T09:32:59Z</time>
      </trkpt>
      <trkpt lat="41.612155190" lon="2.492024110">
        <ele>398.12</ele>
        <time>2015-06-14T09:33:06Z</time>
      </trkpt>
      <trkpt lat="41.612203550" lon="2.492057970">
        <ele>398.60</ele>
        <time>2015-06-14T09:33:09Z</time>
      </trkpt>
      <trkpt lat="41.612293740" lon="2.492127960">
        <ele>398.60</ele>
        <time>2015-06-14T09:33:14Z</time>
      </trkpt>
      <trkpt lat="41.612314780" lon="2.492230380">
        <ele>398.60</ele>
        <time>2015-06-14T09:33:18Z</time>
      </trkpt>
      <trkpt lat="41.612227530" lon="2.492377320">
        <ele>399.57</ele>
        <time>2015-06-14T09:33:25Z</time>
      </trkpt>
      <trkpt lat="41.612180330" lon="2.492453930">
        <ele>400.53</ele>
        <time>2015-06-14T09:33:30Z</time>
      </trkpt>
      <trkpt lat="41.612160220" lon="2.492766910">
        <ele>401.01</ele>
        <time>2015-06-14T09:33:39Z</time>
      </trkpt>
      <trkpt lat="41.612139180" lon="2.492958180">
        <ele>401.97</ele>
        <time>2015-06-14T09:33:46Z</time>
      </trkpt>
      <trkpt lat="41.612122250" lon="2.493150720">
        <ele>402.45</ele>
        <time>2015-06-14T09:33:53Z</time>
      </trkpt>
      <trkpt lat="41.612153680" lon="2.493387420">
        <ele>402.45</ele>
        <time>2015-06-14T09:34:00Z</time>
      </trkpt>
      <trkpt lat="41.612197520" lon="2.493478620">
        <ele>403.41</ele>
        <time>2015-06-14T09:34:04Z</time>
      </trkpt>
      <trkpt lat="41.612385780" lon="2.493697640">
        <ele>404.37</ele>
        <time>2015-06-14T09:34:14Z</time>
      </trkpt>
      <trkpt lat="41.612485020" lon="2.493822860">
        <ele>405.33</ele>
        <time>2015-06-14T09:34:21Z</time>
      </trkpt>
      <trkpt lat="41.612424000" lon="2.493948590">
        <ele>405.81</ele>
        <time>2015-06-14T09:34:27Z</time>
      </trkpt>
      <trkpt lat="41.612381670" lon="2.493982960">
        <ele>406.77</ele>
        <time>2015-06-14T09:34:30Z</time>
      </trkpt>
      <trkpt lat="41.612287620" lon="2.494089160">
        <ele>408.70</ele>
        <time>2015-06-14T09:34:38Z</time>
      </trkpt>
      <trkpt lat="41.612249320" lon="2.494189820">
        <ele>408.70</ele>
        <time>2015-06-14T09:34:43Z</time>
      </trkpt>
      <trkpt lat="41.612199700" lon="2.494333150">
        <ele>410.14</ele>
        <time>2015-06-14T09:34:52Z</time>
      </trkpt>
      <trkpt lat="41.612144960" lon="2.494500540">
        <ele>411.10</ele>
        <time>2015-06-14T09:35:00Z</time>
      </trkpt>
      <trkpt lat="41.612075560" lon="2.494676310">
        <ele>412.06</ele>
        <time>2015-06-14T09:35:08Z</time>
      </trkpt>
      <trkpt lat="41.612066510" lon="2.494698770">
        <ele>412.54</ele>
        <time>2015-06-14T09:35:09Z</time>
      </trkpt>
      <trkpt lat="41.612039940" lon="2.494867250">
        <ele>413.50</ele>
        <time>2015-06-14T09:35:17Z</time>
      </trkpt>
      <trkpt lat="41.612054520" lon="2.494885350">
        <ele>413.98</ele>
        <time>2015-06-14T09:35:19Z</time>
      </trkpt>
      <trkpt lat="41.612088130" lon="2.494894740">
        <ele>414.95</ele>
        <time>2015-06-14T09:35:22Z</time>
      </trkpt>
      <trkpt lat="41.612163150" lon="2.494829190">
        <ele>416.39</ele>
        <time>2015-06-14T09:35:29Z</time>
      </trkpt>
      <trkpt lat="41.612195340" lon="2.494803380">
        <ele>416.39</ele>
        <time>2015-06-14T09:35:31Z</time>
      </trkpt>
      <trkpt lat="41.612292320" lon="2.494717460">
        <ele>417.83</ele>
        <time>2015-06-14T09:35:39Z</time>
      </trkpt>
      <trkpt lat="41.612396250" lon="2.494604390">
        <ele>418.31</ele>
        <time>2015-06-14T09:35:46Z</time>
      </trkpt>
      <trkpt lat="41.612455930" lon="2.494521490">
        <ele>418.79</ele>
        <time>2015-06-14T09:35:51Z</time>
      </trkpt>
      <trkpt lat="41.612523740" lon="2.494535660">
        <ele>420.23</ele>
        <time>2015-06-14T09:35:57Z</time>
      </trkpt>
      <trkpt lat="41.612522070" lon="2.494574550">
        <ele>420.71</ele>
        <time>2015-06-14T09:35:59Z</time>
      </trkpt>
      <trkpt lat="41.612456520" lon="2.494675130">
        <ele>422.16</ele>
        <time>2015-06-14T09:36:06Z</time>
      </trkpt>
      <trkpt lat="41.612439670" lon="2.494699690">
        <ele>422.64</ele>
        <time>2015-06-14T09:36:08Z</time>
      </trkpt>
      <trkpt lat="41.612405050" lon="2.494873110">
        <ele>423.60</ele>
        <time>2015-06-14T09:36:17Z</time>
      </trkpt>
      <trkpt lat="41.612404220" lon="2.494975540">
        <ele>424.56</ele>
        <time>2015-06-14T09:36:24Z</time>
      </trkpt>
      <trkpt lat="41.612417710" lon="2.495058020">
        <ele>426.00</ele>
        <time>2015-06-14T09:36:31Z</time>
      </trkpt>
      <trkpt lat="41.612441520" lon="2.495250300">
        <ele>427.92</ele>
        <time>2015-06-14T09:36:40Z</time>
      </trkpt>
      <trkpt lat="41.612449730" lon="2.495381310">
        <ele>429.37</ele>
        <time>2015-06-14T09:36:47Z</time>
      </trkpt>
      <trkpt lat="41.612473200" lon="2.495498320">
        <ele>429.37</ele>
        <time>2015-06-14T09:36:55Z</time>
      </trkpt>
      <trkpt lat="41.612480410" lon="2.495589850">
        <ele>429.37</ele>
        <time>2015-06-14T09:37:04Z</time>
      </trkpt>
      <trkpt lat="41.612358450" lon="2.495550960">
        <ele>427.44</ele>
        <time>2015-06-14T09:37:09Z</time>
      </trkpt>
      <trkpt lat="41.612268510" lon="2.495569480">
        <ele>426.96</ele>
        <time>2015-06-14T09:37:11Z</time>
      </trkpt>
      <trkpt lat="41.612177320" lon="2.495617680">
        <ele>425.52</ele>
        <time>2015-06-14T09:37:13Z</time>
      </trkpt>
      <trkpt lat="41.612068440" lon="2.495694120">
        <ele>425.04</ele>
        <time>2015-06-14T09:37:16Z</time>
      </trkpt>
      <trkpt lat="41.612037840" lon="2.495922780">
        <ele>424.08</ele>
        <time>2015-06-14T09:37:21Z</time>
      </trkpt>
      <trkpt lat="41.611964580" lon="2.496101730">
        <ele>423.60</ele>
        <time>2015-06-14T09:37:25Z</time>
      </trkpt>
      <trkpt lat="41.611793170" lon="2.496526030">
        <ele>420.71</ele>
        <time>2015-06-14T09:37:31Z</time>
      </trkpt>
      <trkpt lat="41.611580440" lon="2.496647400">
        <ele>418.79</ele>
        <time>2015-06-14T09:37:35Z</time>
      </trkpt>
      <trkpt lat="41.611497380" lon="2.496773040">
        <ele>417.83</ele>
        <time>2015-06-14T09:37:38Z</time>
      </trkpt>
      <trkpt lat="41.611509620" lon="2.496864400">
        <ele>417.83</ele>
        <time>2015-06-14T09:37:40Z</time>
      </trkpt>
      <trkpt lat="41.611619330" lon="2.497123400">
        <ele>416.87</ele>
        <time>2015-06-14T09:37:46Z</time>
      </trkpt>
      <trkpt lat="41.611663420" lon="2.497239580">
        <ele>416.87</ele>
        <time>2015-06-14T09:37:52Z</time>
      </trkpt>
      <trkpt lat="41.611671130" lon="2.497264220">
        <ele>418.31</ele>
        <time>2015-06-14T09:37:53Z</time>
      </trkpt>
      <trkpt lat="41.611829300" lon="2.497435970">
        <ele>418.79</ele>
        <time>2015-06-14T09:38:01Z</time>
      </trkpt>
      <trkpt lat="41.611965590" lon="2.497630340">
        <ele>420.71</ele>
        <time>2015-06-14T09:38:10Z</time>
      </trkpt>
      <trkpt lat="41.612036250" lon="2.497785740">
        <ele>419.75</ele>
        <time>2015-06-14T09:38:14Z</time>
      </trkpt>
      <trkpt lat="41.612109000" lon="2.498177340">
        <ele>415.91</ele>
        <time>2015-06-14T09:38:20Z</time>
      </trkpt>
      <trkpt lat="41.612084190" lon="2.498702890">
        <ele>412.54</ele>
        <time>2015-06-14T09:38:25Z</time>
      </trkpt>
      <trkpt lat="41.612009010" lon="2.498993320">
        <ele>412.54</ele>
        <time>2015-06-14T09:38:29Z</time>
      </trkpt>
      <trkpt lat="41.612068440" lon="2.499073790">
        <ele>412.54</ele>
        <time>2015-06-14T09:38:32Z</time>
      </trkpt>
      <trkpt lat="41.612211520" lon="2.499199690">
        <ele>412.54</ele>
        <time>2015-06-14T09:38:36Z</time>
      </trkpt>
      <trkpt lat="41.612392650" lon="2.499436730">
        <ele>406.77</ele>
        <time>2015-06-14T09:38:41Z</time>
      </trkpt>
      <trkpt lat="41.612462130" lon="2.499625150">
        <ele>402.45</ele>
        <time>2015-06-14T09:38:44Z</time>
      </trkpt>
      <trkpt lat="41.612498850" lon="2.499765800">
        <ele>400.05</ele>
        <time>2015-06-14T09:38:46Z</time>
      </trkpt>
      <trkpt lat="41.612601190" lon="2.500092610">
        <ele>394.76</ele>
        <time>2015-06-14T09:38:51Z</time>
      </trkpt>
      <trkpt lat="41.612645530" lon="2.500220850">
        <ele>392.36</ele>
        <time>2015-06-14T09:38:53Z</time>
      </trkpt>
      <trkpt lat="41.612715100" lon="2.500475240">
        <ele>388.51</ele>
        <time>2015-06-14T09:38:57Z</time>
      </trkpt>
      <trkpt lat="41.612734130" lon="2.500546990">
        <ele>386.59</ele>
        <time>2015-06-14T09:38:58Z</time>
      </trkpt>
      <trkpt lat="41.612795320" lon="2.500762580">
        <ele>383.22</ele>
        <time>2015-06-14T09:39:01Z</time>
      </trkpt>
      <trkpt lat="41.612834790" lon="2.500895340">
        <ele>380.82</ele>
        <time>2015-06-14T09:39:03Z</time>
      </trkpt>
      <trkpt lat="41.612856590" lon="2.501202790">
        <ele>376.01</ele>
        <time>2015-06-14T09:39:08Z</time>
      </trkpt>
      <trkpt lat="41.612851310" lon="2.501332130">
        <ele>375.05</ele>
        <time>2015-06-14T09:39:10Z</time>
      </trkpt>
      <trkpt lat="41.612833870" lon="2.501562630">
        <ele>372.17</ele>
        <time>2015-06-14T09:39:14Z</time>
      </trkpt>
      <trkpt lat="41.612865810" lon="2.501617450">
        <ele>371.21</ele>
        <time>2015-06-14T09:39:16Z</time>
      </trkpt>
      <trkpt lat="41.612968150" lon="2.501573440">
        <ele>370.24</ele>
        <time>2015-06-14T09:39:20Z</time>
      </trkpt>
      <trkpt lat="41.613119110" lon="2.501430450">
        <ele>367.36</ele>
        <time>2015-06-14T09:39:26Z</time>
      </trkpt>
      <trkpt lat="41.613289260" lon="2.501384760">
        <ele>365.44</ele>
        <time>2015-06-14T09:39:31Z</time>
      </trkpt>
      <trkpt lat="41.613324630" lon="2.501373110">
        <ele>364.48</ele>
        <time>2015-06-14T09:39:32Z</time>
      </trkpt>
      <trkpt lat="41.613450110" lon="2.501168850">
        <ele>361.11</ele>
        <time>2015-06-14T09:39:39Z</time>
      </trkpt>
      <trkpt lat="41.613476760" lon="2.501039850">
        <ele>358.23</ele>
        <time>2015-06-14T09:39:43Z</time>
      </trkpt>
      <trkpt lat="41.613500570" lon="2.500845470">
        <ele>354.38</ele>
        <time>2015-06-14T09:39:47Z</time>
      </trkpt>
      <trkpt lat="41.613521270" lon="2.500646740">
        <ele>351.50</ele>
        <time>2015-06-14T09:39:51Z</time>
      </trkpt>
      <trkpt lat="41.613520850" lon="2.500441380">
        <ele>349.10</ele>
        <time>2015-06-14T09:39:55Z</time>
      </trkpt>
      <trkpt lat="41.613542560" lon="2.500209790">
        <ele>348.13</ele>
        <time>2015-06-14T09:39:59Z</time>
      </trkpt>
      <trkpt lat="41.613637110" lon="2.500090770">
        <ele>347.17</ele>
        <time>2015-06-14T09:40:03Z</time>
      </trkpt>
      <trkpt lat="41.613751520" lon="2.500122950">
        <ele>347.65</ele>
        <time>2015-06-14T09:40:09Z</time>
      </trkpt>
      <trkpt lat="41.613784460" lon="2.500151370">
        <ele>347.65</ele>
        <time>2015-06-14T09:40:11Z</time>
      </trkpt>
      <trkpt lat="41.613904580" lon="2.500300980">
        <ele>345.73</ele>
        <time>2015-06-14T09:40:16Z</time>
      </trkpt>
      <trkpt lat="41.614056880" lon="2.500540790">
        <ele>341.41</ele>
        <time>2015-06-14T09:40:21Z</time>
      </trkpt>
      <trkpt lat="41.614126360" lon="2.500655040">
        <ele>339.00</ele>
        <time>2015-06-14T09:40:23Z</time>
      </trkpt>
      <trkpt lat="41.614241030" lon="2.500998360">
        <ele>335.64</ele>
        <time>2015-06-14T09:40:28Z</time>
      </trkpt>
      <trkpt lat="41.614324010" lon="2.501136660">
        <ele>334.20</ele>
        <time>2015-06-14T09:40:30Z</time>
      </trkpt>
      <trkpt lat="41.614467760" lon="2.501234390">
        <ele>331.79</ele>
        <time>2015-06-14T09:40:32Z</time>
      </trkpt>
      <trkpt lat="41.614838490" lon="2.501390970">
        <ele>327.95</ele>
        <time>2015-06-14T09:40:37Z</time>
      </trkpt>
      <trkpt lat="41.614915350" lon="2.501444950">
        <ele>326.99</ele>
        <time>2015-06-14T09:40:39Z</time>
      </trkpt>
      <trkpt lat="41.614916190" lon="2.501553580">
        <ele>326.99</ele>
        <time>2015-06-14T09:40:41Z</time>
      </trkpt>
      <trkpt lat="41.614928340" lon="2.501821800">
        <ele>326.99</ele>
        <time>2015-06-14T09:40:46Z</time>
      </trkpt>
      <trkpt lat="41.614949130" lon="2.501946940">
        <ele>326.99</ele>
        <time>2015-06-14T09:40:48Z</time>
      </trkpt>
      <trkpt lat="41.615046610" lon="2.502271230">
        <ele>325.54</ele>
        <time>2015-06-14T09:40:52Z</time>
      </trkpt>
      <trkpt lat="41.615121290" lon="2.502630310">
        <ele>325.06</ele>
        <time>2015-06-14T09:40:56Z</time>
      </trkpt>
      <trkpt lat="41.615239140" lon="2.502918150">
        <ele>324.58</ele>
        <time>2015-06-14T09:41:00Z</time>
      </trkpt>
      <trkpt lat="41.615313830" lon="2.503047310">
        <ele>324.58</ele>
        <time>2015-06-14T09:41:02Z</time>
      </trkpt>
      <trkpt lat="41.615391610" lon="2.503355600">
        <ele>324.58</ele>
        <time>2015-06-14T09:41:07Z</time>
      </trkpt>
      <trkpt lat="41.615416080" lon="2.503649970">
        <ele>323.14</ele>
        <time>2015-06-14T09:41:11Z</time>
      </trkpt>
      <trkpt lat="41.615381470" lon="2.504048870">
        <ele>318.33</ele>
        <time>2015-06-14T09:41:16Z</time>
      </trkpt>
      <trkpt lat="41.615369820" lon="2.504224970">
        <ele>314.49</ele>
        <time>2015-06-14T09:41:19Z</time>
      </trkpt>
      <trkpt lat="41.615234450" lon="2.504160680">
        <ele>311.60</ele>
        <time>2015-06-14T09:41:24Z</time>
      </trkpt>
      <trkpt lat="41.615182980" lon="2.504002680">
        <ele>309.68</ele>
        <time>2015-06-14T09:41:26Z</time>
      </trkpt>
      <trkpt lat="41.615063290" lon="2.503779560">
        <ele>305.84</ele>
        <time>2015-06-14T09:41:29Z</time>
      </trkpt>
      <trkpt lat="41.614886770" lon="2.503565060">
        <ele>301.51</ele>
        <time>2015-06-14T09:41:33Z</time>
      </trkpt>
      <trkpt lat="41.614831700" lon="2.503317210">
        <ele>298.15</ele>
        <time>2015-06-14T09:41:36Z</time>
      </trkpt>
      <trkpt lat="41.614798670" lon="2.503248820">
        <ele>297.67</ele>
        <time>2015-06-14T09:41:37Z</time>
      </trkpt>
      <trkpt lat="41.614639170" lon="2.503004900">
        <ele>293.82</ele>
        <time>2015-06-14T09:41:41Z</time>
      </trkpt>
      <trkpt lat="41.614502880" lon="2.502901470">
        <ele>289.49</ele>
        <time>2015-06-14T09:41:45Z</time>
      </trkpt>
      <trkpt lat="41.614492320" lon="2.502920580">
        <ele>289.49</ele>
        <time>2015-06-14T09:41:46Z</time>
      </trkpt>
      <trkpt lat="41.614531960" lon="2.503008340">
        <ele>288.53</ele>
        <time>2015-06-14T09:41:50Z</time>
      </trkpt>
      <trkpt lat="41.614567080" lon="2.503261970">
        <ele>286.13</ele>
        <time>2015-06-14T09:41:54Z</time>
      </trkpt>
      <trkpt lat="41.614538080" lon="2.503398680">
        <ele>284.21</ele>
        <time>2015-06-14T09:41:57Z</time>
      </trkpt>
      <trkpt lat="41.614527100" lon="2.503459540">
        <ele>283.73</ele>
        <time>2015-06-14T09:42:00Z</time>
      </trkpt>
      <trkpt lat="41.614474380" lon="2.503666900">
        <ele>280.36</ele>
        <time>2015-06-14T09:42:05Z</time>
      </trkpt>
      <trkpt lat="41.614460550" lon="2.503808390">
        <ele>279.40</ele>
        <time>2015-06-14T09:42:08Z</time>
      </trkpt>
      <trkpt lat="41.614458030" lon="2.503886760">
        <ele>278.44</ele>
        <time>2015-06-14T09:42:10Z</time>
      </trkpt>
      <trkpt lat="41.614422490" lon="2.504055910">
        <ele>276.52</ele>
        <time>2015-06-14T09:42:15Z</time>
      </trkpt>
      <trkpt lat="41.614393070" lon="2.504162950">
        <ele>275.07</ele>
        <time>2015-06-14T09:42:17Z</time>
      </trkpt>
      <trkpt lat="41.614432550" lon="2.504325050">
        <ele>272.19</ele>
        <time>2015-06-14T09:42:21Z</time>
      </trkpt>
      <trkpt lat="41.614485020" lon="2.504613220">
        <ele>269.79</ele>
        <time>2015-06-14T09:42:26Z</time>
      </trkpt>
      <trkpt lat="41.614494580" lon="2.504808600">
        <ele>268.83</ele>
        <time>2015-06-14T09:42:29Z</time>
      </trkpt>
      <trkpt lat="41.614479830" lon="2.505001640">
        <ele>265.46</ele>
        <time>2015-06-14T09:42:32Z</time>
      </trkpt>
      <trkpt lat="41.614534060" lon="2.505282850">
        <ele>262.10</ele>
        <time>2015-06-14T09:42:36Z</time>
      </trkpt>
      <trkpt lat="41.614560290" lon="2.505361310">
        <ele>261.62</ele>
        <time>2015-06-14T09:42:37Z</time>
      </trkpt>
      <trkpt lat="41.614687450" lon="2.505741930">
        <ele>257.77</ele>
        <time>2015-06-14T09:42:43Z</time>
      </trkpt>
      <trkpt lat="41.614766150" lon="2.505980060">
        <ele>256.81</ele>
        <time>2015-06-14T09:42:49Z</time>
      </trkpt>
      <trkpt lat="41.614787440" lon="2.506171580">
        <ele>254.41</ele>
        <time>2015-06-14T09:42:53Z</time>
      </trkpt>
      <trkpt lat="41.614788780" lon="2.506230010">
        <ele>254.41</ele>
        <time>2015-06-14T09:42:54Z</time>
      </trkpt>
      <trkpt lat="41.614815190" lon="2.506414070">
        <ele>251.52</ele>
        <time>2015-06-14T09:42:57Z</time>
      </trkpt>
      <trkpt lat="41.614845610" lon="2.506539720">
        <ele>250.56</ele>
        <time>2015-06-14T09:42:59Z</time>
      </trkpt>
      <trkpt lat="41.614931950" lon="2.506764520">
        <ele>247.68</ele>
        <time>2015-06-14T09:43:02Z</time>
      </trkpt>
      <trkpt lat="41.614980810" lon="2.506966610">
        <ele>246.72</ele>
        <time>2015-06-14T09:43:04Z</time>
      </trkpt>
      <trkpt lat="41.615031190" lon="2.507160980">
        <ele>245.75</ele>
        <time>2015-06-14T09:43:06Z</time>
      </trkpt>
      <trkpt lat="41.615267810" lon="2.507513360">
        <ele>241.91</ele>
        <time>2015-06-14T09:43:11Z</time>
      </trkpt>
      <trkpt lat="41.615359670" lon="2.507732800">
        <ele>239.02</ele>
        <time>2015-06-14T09:43:14Z</time>
      </trkpt>
      <trkpt lat="41.615348020" lon="2.507864140">
        <ele>238.54</ele>
        <time>2015-06-14T09:43:16Z</time>
      </trkpt>
      <trkpt lat="41.615372750" lon="2.508312990">
        <ele>237.58</ele>
        <time>2015-06-14T09:43:22Z</time>
      </trkpt>
      <trkpt lat="41.615421870" lon="2.508720270">
        <ele>236.62</ele>
        <time>2015-06-14T09:43:27Z</time>
      </trkpt>
      <trkpt lat="41.615413490" lon="2.508797050">
        <ele>237.10</ele>
        <time>2015-06-14T09:43:28Z</time>
      </trkpt>
      <trkpt lat="41.615398060" lon="2.508966530">
        <ele>236.62</ele>
        <time>2015-06-14T09:43:30Z</time>
      </trkpt>
      <trkpt lat="41.615499900" lon="2.509318990">
        <ele>235.66</ele>
        <time>2015-06-14T09:43:34Z</time>
      </trkpt>
      <trkpt lat="41.615665280" lon="2.509814950">
        <ele>233.74</ele>
        <time>2015-06-14T09:43:40Z</time>
      </trkpt>
      <trkpt lat="41.615767120" lon="2.510108730">
        <ele>232.78</ele>
        <time>2015-06-14T09:43:44Z</time>
      </trkpt>
      <trkpt lat="41.615948000" lon="2.510650870">
        <ele>231.81</ele>
        <time>2015-06-14T09:43:50Z</time>
      </trkpt>
      <trkpt lat="41.616216050" lon="2.511331230">
        <ele>230.37</ele>
        <time>2015-06-14T09:43:58Z</time>
      </trkpt>
      <trkpt lat="41.616446810" lon="2.511731720">
        <ele>228.93</ele>
        <time>2015-06-14T09:44:04Z</time>
      </trkpt>
      <trkpt lat="41.616663900" lon="2.512145370">
        <ele>227.49</ele>
        <time>2015-06-14T09:44:10Z</time>
      </trkpt>
      <trkpt lat="41.616711420" lon="2.512264470">
        <ele>227.01</ele>
        <time>2015-06-14T09:44:12Z</time>
      </trkpt>
      <trkpt lat="41.616797510" lon="2.512598330">
        <ele>226.05</ele>
        <time>2015-06-14T09:44:17Z</time>
      </trkpt>
      <trkpt lat="41.616829940" lon="2.512866970">
        <ele>225.09</ele>
        <time>2015-06-14T09:44:21Z</time>
      </trkpt>
      <trkpt lat="41.616832380" lon="2.513135270">
        <ele>223.16</ele>
        <time>2015-06-14T09:44:25Z</time>
      </trkpt>
      <trkpt lat="41.616837820" lon="2.513869690">
        <ele>221.72</ele>
        <time>2015-06-14T09:44:34Z</time>
      </trkpt>
      <trkpt lat="41.616838910" lon="2.514270350">
        <ele>220.28</ele>
        <time>2015-06-14T09:44:39Z</time>
      </trkpt>
      <trkpt lat="41.616848220" lon="2.514901000">
        <ele>219.32</ele>
        <time>2015-06-14T09:44:47Z</time>
      </trkpt>
      <trkpt lat="41.616835220" lon="2.515457310">
        <ele>217.88</ele>
        <time>2015-06-14T09:44:53Z</time>
      </trkpt>
      <trkpt lat="41.616836060" lon="2.515936840">
        <ele>216.91</ele>
        <time>2015-06-14T09:44:58Z</time>
      </trkpt>
      <trkpt lat="41.616810500" lon="2.516324580">
        <ele>214.51</ele>
        <time>2015-06-14T09:45:02Z</time>
      </trkpt>
      <trkpt lat="41.616772860" lon="2.516912070">
        <ele>213.07</ele>
        <time>2015-06-14T09:45:08Z</time>
      </trkpt>
      <trkpt lat="41.616753330" lon="2.517104180">
        <ele>212.11</ele>
        <time>2015-06-14T09:45:10Z</time>
      </trkpt>
      <trkpt lat="41.616742350" lon="2.517633250">
        <ele>210.67</ele>
        <time>2015-06-14T09:45:15Z</time>
      </trkpt>
      <trkpt lat="41.616727430" lon="2.517950920">
        <ele>208.74</ele>
        <time>2015-06-14T09:45:18Z</time>
      </trkpt>
      <trkpt lat="41.616696670" lon="2.518361720">
        <ele>207.78</ele>
        <time>2015-06-14T09:45:22Z</time>
      </trkpt>
      <trkpt lat="41.616583520" lon="2.518712670">
        <ele>207.30</ele>
        <time>2015-06-14T09:45:26Z</time>
      </trkpt>
      <trkpt lat="41.616441780" lon="2.519288510">
        <ele>206.82</ele>
        <time>2015-06-14T09:45:33Z</time>
      </trkpt>
      <trkpt lat="41.616396770" lon="2.519543400">
        <ele>205.38</ele>
        <time>2015-06-14T09:45:36Z</time>
      </trkpt>
      <trkpt lat="41.616323170" lon="2.519878590">
        <ele>204.90</ele>
        <time>2015-06-14T09:45:40Z</time>
      </trkpt>
      <trkpt lat="41.616106590" lon="2.520520980">
        <ele>202.98</ele>
        <time>2015-06-14T09:45:47Z</time>
      </trkpt>
      <trkpt lat="41.615973980" lon="2.521091880">
        <ele>201.53</ele>
        <time>2015-06-14T09:45:53Z</time>
      </trkpt>
      <trkpt lat="41.615881360" lon="2.521674670">
        <ele>200.57</ele>
        <time>2015-06-14T09:45:59Z</time>
      </trkpt>
      <trkpt lat="41.615747250" lon="2.522500120">
        <ele>199.13</ele>
        <time>2015-06-14T09:46:07Z</time>
      </trkpt>
      <trkpt lat="41.615622280" lon="2.523371250">
        <ele>196.73</ele>
        <time>2015-06-14T09:46:15Z</time>
      </trkpt>
      <trkpt lat="41.615584640" lon="2.524104000">
        <ele>193.36</ele>
        <time>2015-06-14T09:46:22Z</time>
      </trkpt>
      <trkpt lat="41.615562770" lon="2.524348080">
        <ele>191.92</ele>
        <time>2015-06-14T09:46:24Z</time>
      </trkpt>
      <trkpt lat="41.615510800" lon="2.525144690">
        <ele>189.52</ele>
        <time>2015-06-14T09:46:31Z</time>
      </trkpt>
      <trkpt lat="41.615516000" lon="2.525959750">
        <ele>186.63</ele>
        <time>2015-06-14T09:46:38Z</time>
      </trkpt>
      <trkpt lat="41.615567550" lon="2.526615470">
        <ele>185.19</ele>
        <time>2015-06-14T09:46:44Z</time>
      </trkpt>
      <trkpt lat="41.615474840" lon="2.527440750">
        <ele>182.31</ele>
        <time>2015-06-14T09:46:51Z</time>
      </trkpt>
      <trkpt lat="41.615336710" lon="2.528242390">
        <ele>179.42</ele>
        <time>2015-06-14T09:46:58Z</time>
      </trkpt>
      <trkpt lat="41.615182150" lon="2.529054770">
        <ele>177.50</ele>
        <time>2015-06-14T09:47:06Z</time>
      </trkpt>
      <trkpt lat="41.615164290" lon="2.529640660">
        <ele>177.50</ele>
        <time>2015-06-14T09:47:12Z</time>
      </trkpt>
      <trkpt lat="41.615164460" lon="2.529925480">
        <ele>175.10</ele>
        <time>2015-06-14T09:47:15Z</time>
      </trkpt>
      <trkpt lat="41.615147110" lon="2.530621510">
        <ele>173.66</ele>
        <time>2015-06-14T09:47:22Z</time>
      </trkpt>
      <trkpt lat="41.615106710" lon="2.531171530">
        <ele>171.73</ele>
        <time>2015-06-14T09:47:28Z</time>
      </trkpt>
      <trkpt lat="41.615108390" lon="2.531418130">
        <ele>170.77</ele>
        <time>2015-06-14T09:47:31Z</time>
      </trkpt>
      <trkpt lat="41.615200420" lon="2.531835710">
        <ele>167.89</ele>
        <time>2015-06-14T09:47:36Z</time>
      </trkpt>
      <trkpt lat="41.615168060" lon="2.532140650">
        <ele>167.89</ele>
        <time>2015-06-14T09:47:39Z</time>
      </trkpt>
      <trkpt lat="41.615081480" lon="2.532500320">
        <ele>165.96</ele>
        <time>2015-06-14T09:47:43Z</time>
      </trkpt>
      <trkpt lat="41.614877550" lon="2.533237590">
        <ele>164.04</ele>
        <time>2015-06-14T09:47:52Z</time>
      </trkpt>
      <trkpt lat="41.614773280" lon="2.533571690">
        <ele>163.08</ele>
        <time>2015-06-14T09:47:56Z</time>
      </trkpt>
      <trkpt lat="41.614728940" lon="2.533735390">
        <ele>161.64</ele>
        <time>2015-06-14T09:47:58Z</time>
      </trkpt>
      <trkpt lat="41.614454090" lon="2.534583050">
        <ele>159.72</ele>
        <time>2015-06-14T09:48:08Z</time>
      </trkpt>
      <trkpt lat="41.614202890" lon="2.535335080">
        <ele>156.83</ele>
        <time>2015-06-14T09:48:17Z</time>
      </trkpt>
      <trkpt lat="41.613914890" lon="2.536149130">
        <ele>154.91</ele>
        <time>2015-06-14T09:48:27Z</time>
      </trkpt>
      <trkpt lat="41.613735600" lon="2.536529410">
        <ele>152.51</ele>
        <time>2015-06-14T09:48:34Z</time>
      </trkpt>
      <trkpt lat="41.613716490" lon="2.536568390">
        <ele>151.54</ele>
        <time>2015-06-14T09:48:39Z</time>
      </trkpt>
      <trkpt lat="41.613696790" lon="2.536649780">
        <ele>151.54</ele>
        <time>2015-06-14T09:48:47Z</time>
      </trkpt>
      <trkpt lat="41.613623870" lon="2.536850690">
        <ele>151.54</ele>
        <time>2015-06-14T09:48:53Z</time>
      </trkpt>
      <trkpt lat="41.613500570" lon="2.537038030">
        <ele>150.58</ele>
        <time>2015-06-14T09:48:59Z</time>
      </trkpt>
      <trkpt lat="41.613287920" lon="2.537286470">
        <ele>150.10</ele>
        <time>2015-06-14T09:49:06Z</time>
      </trkpt>
      <trkpt lat="41.613123890" lon="2.537416550">
        <ele>149.62</ele>
        <time>2015-06-14T09:49:10Z</time>
      </trkpt>
      <trkpt lat="41.612825320" lon="2.537720570">
        <ele>147.70</ele>
        <time>2015-06-14T09:49:18Z</time>
      </trkpt>
      <trkpt lat="41.612719120" lon="2.537838670">
        <ele>147.70</ele>
        <time>2015-06-14T09:49:21Z</time>
      </trkpt>
      <trkpt lat="41.612457780" lon="2.538147620">
        <ele>145.78</ele>
        <time>2015-06-14T09:49:28Z</time>
      </trkpt>
      <trkpt lat="41.612270690" lon="2.538401010">
        <ele>144.82</ele>
        <time>2015-06-14T09:49:33Z</time>
      </trkpt>
      <trkpt lat="41.612143200" lon="2.538708460">
        <ele>143.37</ele>
        <time>2015-06-14T09:49:39Z</time>
      </trkpt>
      <trkpt lat="41.612117470" lon="2.538758830">
        <ele>143.37</ele>
        <time>2015-06-14T09:49:41Z</time>
      </trkpt>
      <trkpt lat="41.612014040" lon="2.538888500">
        <ele>142.89</ele>
        <time>2015-06-14T09:49:48Z</time>
      </trkpt>
      <trkpt lat="41.611961230" lon="2.538944490">
        <ele>142.41</ele>
        <time>2015-06-14T09:49:54Z</time>
      </trkpt>
      <trkpt lat="41.611930970" lon="2.539009450">
        <ele>142.41</ele>
        <time>2015-06-14T09:50:01Z</time>
      </trkpt>
      <trkpt lat="41.611912280" lon="2.539021690">
        <ele>142.41</ele>
        <time>2015-06-14T09:50:08Z</time>
      </trkpt>
      <trkpt lat="41.611915800" lon="2.538982290">
        <ele>142.41</ele>
        <time>2015-06-14T09:50:12Z</time>
      </trkpt>
      <trkpt lat="41.611871630" lon="2.538815240">
        <ele>143.37</ele>
        <time>2015-06-14T09:50:19Z</time>
      </trkpt>
      <trkpt lat="41.611814050" lon="2.538733430">
        <ele>144.34</ele>
        <time>2015-06-14T09:50:23Z</time>
      </trkpt>
      <trkpt lat="41.611610370" lon="2.538740730">
        <ele>145.30</ele>
        <time>2015-06-14T09:50:31Z</time>
      </trkpt>
      <trkpt lat="41.611584380" lon="2.538739470">
        <ele>145.30</ele>
        <time>2015-06-14T09:50:32Z</time>
      </trkpt>
      <trkpt lat="41.611551270" lon="2.538736120">
        <ele>143.85</ele>
        <time>2015-06-14T09:50:34Z</time>
      </trkpt>
      <trkpt lat="41.611524370" lon="2.538751040">
        <ele>142.89</ele>
        <time>2015-06-14T09:50:45Z</time>
      </trkpt>
      <trkpt lat="41.611514730" lon="2.538759590">
        <ele>142.89</ele>
        <time>2015-06-14T09:50:57Z</time>
      </trkpt>
      <trkpt lat="41.611516660" lon="2.538766380">
        <ele>143.37</ele>
        <time>2015-06-14T09:51:15Z</time>
      </trkpt>
      <trkpt lat="41.611525370" lon="2.538770990">
        <ele>143.37</ele>
        <time>2015-06-14T09:51:35Z</time>
      </trkpt>
      <trkpt lat="41.611510450" lon="2.538770730">
        <ele>143.37</ele>
        <time>2015-06-14T09:51:47Z</time>
      </trkpt>
      <trkpt lat="41.611388330" lon="2.538788920">
        <ele>143.37</ele>
        <time>2015-06-14T09:51:51Z</time>
      </trkpt>
      <trkpt lat="41.611029830" lon="2.538872660">
        <ele>142.41</ele>
        <time>2015-06-14T09:51:58Z</time>
      </trkpt>
      <trkpt lat="41.610715180" lon="2.539003250">
        <ele>140.97</ele>
        <time>2015-06-14T09:52:04Z</time>
      </trkpt>
      <trkpt lat="41.610335140" lon="2.539197790">
        <ele>138.57</ele>
        <time>2015-06-14T09:52:11Z</time>
      </trkpt>
      <trkpt lat="41.610086620" lon="2.539348830">
        <ele>136.64</ele>
        <time>2015-06-14T09:52:17Z</time>
      </trkpt>
      <trkpt lat="41.609794510" lon="2.539524600">
        <ele>135.68</ele>
        <time>2015-06-14T09:52:25Z</time>
      </trkpt>
      <trkpt lat="41.609584960" lon="2.539660310">
        <ele>134.24</ele>
        <time>2015-06-14T09:52:32Z</time>
      </trkpt>
      <trkpt lat="41.609370130" lon="2.539775140">
        <ele>133.76</ele>
        <time>2015-06-14T09:52:38Z</time>
      </trkpt>
      <trkpt lat="41.609177020" lon="2.539968590">
        <ele>132.32</ele>
        <time>2015-06-14T09:52:45Z</time>
      </trkpt>
      <trkpt lat="41.609120440" lon="2.540078730">
        <ele>131.84</ele>
        <time>2015-06-14T09:52:51Z</time>
      </trkpt>
      <trkpt lat="41.609056400" lon="2.540219800">
        <ele>131.36</ele>
        <time>2015-06-14T09:52:57Z</time>
      </trkpt>
      <trkpt lat="41.609032930" lon="2.540289450">
        <ele>131.36</ele>
        <time>2015-06-14T09:53:02Z</time>
      </trkpt>
      <trkpt lat="41.609033100" lon="2.540320300">
        <ele>131.36</ele>
        <time>2015-06-14T09:53:17Z</time>
      </trkpt>
      <trkpt lat="41.609033600" lon="2.540332530">
        <ele>131.36</ele>
        <time>2015-06-14T09:53:31Z</time>
      </trkpt>
      <trkpt lat="41.609048600" lon="2.540366980">
        <ele>131.36</ele>
        <time>2015-06-14T09:53:44Z</time>
      </trkpt>
      <trkpt lat="41.609053800" lon="2.540371850">
        <ele>131.36</ele>
        <time>2015-06-14T09:53:52Z</time>
      </trkpt>
      <trkpt lat="41.609048690" lon="2.540374610">
        <ele>130.88</ele>
        <time>2015-06-14T09:54:09Z</time>
      </trkpt>
      <trkpt lat="41.609044660" lon="2.540373860">
        <ele>130.88</ele>
        <time>2015-06-14T09:54:23Z</time>
      </trkpt>
      <trkpt lat="41.609040140" lon="2.540388440">
        <ele>130.88</ele>
        <time>2015-06-14T09:54:31Z</time>
      </trkpt>
      <trkpt lat="41.609004430" lon="2.540437810">
        <ele>130.88</ele>
        <time>2015-06-14T09:54:38Z</time>
      </trkpt>
      <trkpt lat="41.608865880" lon="2.540501680">
        <ele>130.88</ele>
        <time>2015-06-14T09:54:46Z</time>
      </trkpt>
      <trkpt lat="41.608800750" lon="2.540453570">
        <ele>130.88</ele>
        <time>2015-06-14T09:54:51Z</time>
      </trkpt>
      <trkpt lat="41.608739560" lon="2.540336140">
        <ele>130.40</ele>
        <time>2015-06-14T09:54:56Z</time>
      </trkpt>
      <trkpt lat="41.608701930" lon="2.540336640">
        <ele>130.40</ele>
        <time>2015-06-14T09:54:57Z</time>
      </trkpt>
      <trkpt lat="41.608510400" lon="2.540387440">
        <ele>129.43</ele>
        <time>2015-06-14T09:55:02Z</time>
      </trkpt>
      <trkpt lat="41.608321060" lon="2.540438900">
        <ele>129.43</ele>
        <time>2015-06-14T09:55:07Z</time>
      </trkpt>
      <trkpt lat="41.608280240" lon="2.540445690">
        <ele>129.43</ele>
        <time>2015-06-14T09:55:08Z</time>
      </trkpt>
      <trkpt lat="41.608147300" lon="2.540461780">
        <ele>128.95</ele>
        <time>2015-06-14T09:55:11Z</time>
      </trkpt>
      <trkpt lat="41.607766010" lon="2.540499750">
        <ele>127.99</ele>
        <time>2015-06-14T09:55:19Z</time>
      </trkpt>
      <trkpt lat="41.607646060" lon="2.540566310">
        <ele>127.51</ele>
        <time>2015-06-14T09:55:24Z</time>
      </trkpt>
      <trkpt lat="41.607625440" lon="2.540586670">
        <ele>127.51</ele>
        <time>2015-06-14T09:55:25Z</time>
      </trkpt>
      <trkpt lat="41.607501470" lon="2.540764450">
        <ele>127.03</ele>
        <time>2015-06-14T09:55:31Z</time>
      </trkpt>
      <trkpt lat="41.607359230" lon="2.540775770">
        <ele>126.55</ele>
        <time>2015-06-14T09:55:37Z</time>
      </trkpt>
      <trkpt lat="41.607110710" lon="2.540736790">
        <ele>126.07</ele>
        <time>2015-06-14T09:55:43Z</time>
      </trkpt>
      <trkpt lat="41.606968050" lon="2.540699580">
        <ele>125.59</ele>
        <time>2015-06-14T09:55:46Z</time>
      </trkpt>
      <trkpt lat="41.606773250" lon="2.540611740">
        <ele>124.63</ele>
        <time>2015-06-14T09:55:50Z</time>
      </trkpt>
      <trkpt lat="41.606309650" lon="2.540401270">
        <ele>123.67</ele>
        <time>2015-06-14T09:55:59Z</time>
      </trkpt>
      <trkpt lat="41.606143520" lon="2.540351390">
        <ele>123.19</ele>
        <time>2015-06-14T09:56:02Z</time>
      </trkpt>
      <trkpt lat="41.605937830" lon="2.540338820">
        <ele>122.71</ele>
        <time>2015-06-14T09:56:06Z</time>
      </trkpt>
      <trkpt lat="41.605909000" lon="2.540395150">
        <ele>122.71</ele>
        <time>2015-06-14T09:56:10Z</time>
      </trkpt>
      <trkpt lat="41.605928440" lon="2.540430350">
        <ele>122.71</ele>
        <time>2015-06-14T09:56:16Z</time>
      </trkpt>
      <trkpt lat="41.605931540" lon="2.540440240">
        <ele>122.71</ele>
        <time>2015-06-14T09:56:19Z</time>
      </trkpt>
      <trkpt lat="41.605933050" lon="2.540496060">
        <ele>122.71</ele>
        <time>2015-06-14T09:56:22Z</time>
      </trkpt>
      <trkpt lat="41.606023240" lon="2.540555070">
        <ele>122.71</ele>
        <time>2015-06-14T09:56:27Z</time>
      </trkpt>
      <trkpt lat="41.606259110" lon="2.540623130">
        <ele>124.15</ele>
        <time>2015-06-14T09:56:36Z</time>
      </trkpt>
      <trkpt lat="41.606424310" lon="2.540688090">
        <ele>124.63</ele>
        <time>2015-06-14T09:56:43Z</time>
      </trkpt>
      <trkpt lat="41.606531100" lon="2.540840980">
        <ele>125.59</ele>
        <time>2015-06-14T09:56:49Z</time>
      </trkpt>
      <trkpt lat="41.606570490" lon="2.540903590">
        <ele>126.07</ele>
        <time>2015-06-14T09:56:51Z</time>
      </trkpt>
      <trkpt lat="41.606643170" lon="2.541220430">
        <ele>127.99</ele>
        <time>2015-06-14T09:56:59Z</time>
      </trkpt>
      <trkpt lat="41.606745170" lon="2.541542880">
        <ele>129.92</ele>
        <time>2015-06-14T09:57:08Z</time>
      </trkpt>
      <trkpt lat="41.606851040" lon="2.541851080">
        <ele>131.36</ele>
        <time>2015-06-14T09:57:17Z</time>
      </trkpt>
      <trkpt lat="41.606977940" lon="2.542147720">
        <ele>133.76</ele>
        <time>2015-06-14T09:57:26Z</time>
      </trkpt>
      <trkpt lat="41.607045410" lon="2.542300940">
        <ele>134.72</ele>
        <time>2015-06-14T09:57:33Z</time>
      </trkpt>
      <trkpt lat="41.607060840" lon="2.542322980">
        <ele>134.72</ele>
        <time>2015-06-14T09:57:40Z</time>
      </trkpt>
      <trkpt lat="41.607053460" lon="2.542357940">
        <ele>135.20</ele>
        <time>2015-06-14T09:57:49Z</time>
      </trkpt>
      <trkpt lat="41.607062340" lon="2.542378980">
        <ele>135.20</ele>
        <time>2015-06-14T09:58:06Z</time>
      </trkpt>
    </trkseg>
  </trk>
</gpx>
